<?xml version="1.0" encoding="UTF-8" standalone="no" ?>
<gpx xmlns="http://www.topografix.com/GPX/1/1" xmlns:xsi="http://www.w3.org/2001/XMLSchema-instance" xsi:schemaLocation="http://www.topografix.com/GPX/1/1 http://www.topografix.com/GPX/1/1/gpx.xsd" version="1.1" creator="VisuGPX - https://www.visugpx.com">
  <metadata>
    <name>Crêtes du Jura - J2</name>
    <desc><![CDATA[Itinérance VTT en 4 jours - nuits en refuge]]></desc>
  </metadata>
  <trk>
    <name><![CDATA[MAI-30-14 17:53:32]]></name>
    <trkseg>
      <trkpt lat="46.56329" lon="6.12175">
        <ele>1220.53</ele>
        <time>2014-05-30T07:11:24Z</time>
      </trkpt>
      <trkpt lat="46.56329" lon="6.12174">
        <ele>1229.18</ele>
        <time>2014-05-30T07:11:25Z</time>
      </trkpt>
      <trkpt lat="46.56326" lon="6.12169">
        <ele>1228.22</ele>
        <time>2014-05-30T07:12:21Z</time>
      </trkpt>
      <trkpt lat="46.56326" lon="6.12169">
        <ele>1228.22</ele>
        <time>2014-05-30T07:12:24Z</time>
      </trkpt>
      <trkpt lat="46.56331" lon="6.12164">
        <ele>1228.22</ele>
        <time>2014-05-30T07:12:29Z</time>
      </trkpt>
      <trkpt lat="46.5633" lon="6.12151">
        <ele>1228.7</ele>
        <time>2014-05-30T07:12:35Z</time>
      </trkpt>
      <trkpt lat="46.56331" lon="6.12138">
        <ele>1228.7</ele>
        <time>2014-05-30T07:12:38Z</time>
      </trkpt>
      <trkpt lat="46.56331" lon="6.12122">
        <ele>1227.26</ele>
        <time>2014-05-30T07:12:40Z</time>
      </trkpt>
      <trkpt lat="46.5633" lon="6.12113">
        <ele>1226.78</ele>
        <time>2014-05-30T07:12:41Z</time>
      </trkpt>
      <trkpt lat="46.56326" lon="6.12105">
        <ele>1225.82</ele>
        <time>2014-05-30T07:12:42Z</time>
      </trkpt>
      <trkpt lat="46.5632" lon="6.12099">
        <ele>1225.34</ele>
        <time>2014-05-30T07:12:43Z</time>
      </trkpt>
      <trkpt lat="46.56314" lon="6.12096">
        <ele>1224.38</ele>
        <time>2014-05-30T07:12:44Z</time>
      </trkpt>
      <trkpt lat="46.56307" lon="6.12094">
        <ele>1223.9</ele>
        <time>2014-05-30T07:12:45Z</time>
      </trkpt>
      <trkpt lat="46.56299" lon="6.12093">
        <ele>1223.42</ele>
        <time>2014-05-30T07:12:46Z</time>
      </trkpt>
      <trkpt lat="46.56291" lon="6.12094">
        <ele>1222.45</ele>
        <time>2014-05-30T07:12:47Z</time>
      </trkpt>
      <trkpt lat="46.56274" lon="6.12098">
        <ele>1219.09</ele>
        <time>2014-05-30T07:12:49Z</time>
      </trkpt>
      <trkpt lat="46.56265" lon="6.12098">
        <ele>1217.65</ele>
        <time>2014-05-30T07:12:50Z</time>
      </trkpt>
      <trkpt lat="46.56255" lon="6.12097">
        <ele>1216.69</ele>
        <time>2014-05-30T07:12:51Z</time>
      </trkpt>
      <trkpt lat="46.56245" lon="6.12095">
        <ele>1214.76</ele>
        <time>2014-05-30T07:12:52Z</time>
      </trkpt>
      <trkpt lat="46.56236" lon="6.12093">
        <ele>1214.28</ele>
        <time>2014-05-30T07:12:53Z</time>
      </trkpt>
      <trkpt lat="46.56226" lon="6.12092">
        <ele>1213.32</ele>
        <time>2014-05-30T07:12:54Z</time>
      </trkpt>
      <trkpt lat="46.56216" lon="6.12089">
        <ele>1211.88</ele>
        <time>2014-05-30T07:12:55Z</time>
      </trkpt>
      <trkpt lat="46.56188" lon="6.1208">
        <ele>1208.51</ele>
        <time>2014-05-30T07:12:58Z</time>
      </trkpt>
      <trkpt lat="46.56178" lon="6.1208">
        <ele>1207.07</ele>
        <time>2014-05-30T07:12:59Z</time>
      </trkpt>
      <trkpt lat="46.56169" lon="6.12083">
        <ele>1205.15</ele>
        <time>2014-05-30T07:13:00Z</time>
      </trkpt>
      <trkpt lat="46.56148" lon="6.12091">
        <ele>1202.27</ele>
        <time>2014-05-30T07:13:02Z</time>
      </trkpt>
      <trkpt lat="46.56133" lon="6.12096">
        <ele>1199.38</ele>
        <time>2014-05-30T07:13:05Z</time>
      </trkpt>
      <trkpt lat="46.56131" lon="6.12096">
        <ele>1199.38</ele>
        <time>2014-05-30T07:13:06Z</time>
      </trkpt>
      <trkpt lat="46.56129" lon="6.12096">
        <ele>1199.38</ele>
        <time>2014-05-30T07:13:07Z</time>
      </trkpt>
      <trkpt lat="46.56127" lon="6.12095">
        <ele>1199.38</ele>
        <time>2014-05-30T07:13:08Z</time>
      </trkpt>
      <trkpt lat="46.56125" lon="6.12092">
        <ele>1198.9</ele>
        <time>2014-05-30T07:13:09Z</time>
      </trkpt>
      <trkpt lat="46.56123" lon="6.12089">
        <ele>1199.38</ele>
        <time>2014-05-30T07:13:10Z</time>
      </trkpt>
      <trkpt lat="46.56098" lon="6.12053">
        <ele>1197.94</ele>
        <time>2014-05-30T07:13:20Z</time>
      </trkpt>
      <trkpt lat="46.56083" lon="6.12038">
        <ele>1197.94</ele>
        <time>2014-05-30T07:13:28Z</time>
      </trkpt>
      <trkpt lat="46.56065" lon="6.12025">
        <ele>1196.98</ele>
        <time>2014-05-30T07:13:34Z</time>
      </trkpt>
      <trkpt lat="46.56047" lon="6.12017">
        <ele>1195.54</ele>
        <time>2014-05-30T07:13:38Z</time>
      </trkpt>
      <trkpt lat="46.56014" lon="6.12013">
        <ele>1192.65</ele>
        <time>2014-05-30T07:13:44Z</time>
      </trkpt>
      <trkpt lat="46.56004" lon="6.12012">
        <ele>1191.21</ele>
        <time>2014-05-30T07:13:46Z</time>
      </trkpt>
      <trkpt lat="46.56" lon="6.12009">
        <ele>1191.69</ele>
        <time>2014-05-30T07:13:47Z</time>
      </trkpt>
      <trkpt lat="46.55993" lon="6.12002">
        <ele>1191.69</ele>
        <time>2014-05-30T07:13:49Z</time>
      </trkpt>
      <trkpt lat="46.55991" lon="6.11998">
        <ele>1192.17</ele>
        <time>2014-05-30T07:13:50Z</time>
      </trkpt>
      <trkpt lat="46.55989" lon="6.11994">
        <ele>1192.17</ele>
        <time>2014-05-30T07:13:51Z</time>
      </trkpt>
      <trkpt lat="46.55988" lon="6.1199">
        <ele>1192.65</ele>
        <time>2014-05-30T07:13:52Z</time>
      </trkpt>
      <trkpt lat="46.55986" lon="6.11985">
        <ele>1192.17</ele>
        <time>2014-05-30T07:13:53Z</time>
      </trkpt>
      <trkpt lat="46.55984" lon="6.11981">
        <ele>1192.17</ele>
        <time>2014-05-30T07:13:54Z</time>
      </trkpt>
      <trkpt lat="46.55983" lon="6.11977">
        <ele>1192.65</ele>
        <time>2014-05-30T07:13:55Z</time>
      </trkpt>
      <trkpt lat="46.55965" lon="6.11932">
        <ele>1194.09</ele>
        <time>2014-05-30T07:14:06Z</time>
      </trkpt>
      <trkpt lat="46.55949" lon="6.11878">
        <ele>1196.5</ele>
        <time>2014-05-30T07:14:21Z</time>
      </trkpt>
      <trkpt lat="46.55932" lon="6.11845">
        <ele>1197.94</ele>
        <time>2014-05-30T07:14:31Z</time>
      </trkpt>
      <trkpt lat="46.5593" lon="6.11843">
        <ele>1197.94</ele>
        <time>2014-05-30T07:14:32Z</time>
      </trkpt>
      <trkpt lat="46.55928" lon="6.1184">
        <ele>1197.94</ele>
        <time>2014-05-30T07:14:33Z</time>
      </trkpt>
      <trkpt lat="46.55926" lon="6.11836">
        <ele>1198.42</ele>
        <time>2014-05-30T07:14:34Z</time>
      </trkpt>
      <trkpt lat="46.55924" lon="6.11833">
        <ele>1198.42</ele>
        <time>2014-05-30T07:14:35Z</time>
      </trkpt>
      <trkpt lat="46.55895" lon="6.11812">
        <ele>1196.98</ele>
        <time>2014-05-30T07:14:44Z</time>
      </trkpt>
      <trkpt lat="46.55873" lon="6.118">
        <ele>1196.02</ele>
        <time>2014-05-30T07:14:49Z</time>
      </trkpt>
      <trkpt lat="46.55863" lon="6.11794">
        <ele>1195.06</ele>
        <time>2014-05-30T07:14:51Z</time>
      </trkpt>
      <trkpt lat="46.55857" lon="6.11792">
        <ele>1194.58</ele>
        <time>2014-05-30T07:14:52Z</time>
      </trkpt>
      <trkpt lat="46.5585" lon="6.11791">
        <ele>1194.09</ele>
        <time>2014-05-30T07:14:53Z</time>
      </trkpt>
      <trkpt lat="46.55843" lon="6.11791">
        <ele>1193.61</ele>
        <time>2014-05-30T07:14:54Z</time>
      </trkpt>
      <trkpt lat="46.55836" lon="6.11792">
        <ele>1193.13</ele>
        <time>2014-05-30T07:14:55Z</time>
      </trkpt>
      <trkpt lat="46.55828" lon="6.11794">
        <ele>1192.65</ele>
        <time>2014-05-30T07:14:56Z</time>
      </trkpt>
      <trkpt lat="46.5582" lon="6.11797">
        <ele>1192.17</ele>
        <time>2014-05-30T07:14:57Z</time>
      </trkpt>
      <trkpt lat="46.55812" lon="6.11802">
        <ele>1191.21</ele>
        <time>2014-05-30T07:14:58Z</time>
      </trkpt>
      <trkpt lat="46.55804" lon="6.11807">
        <ele>1189.77</ele>
        <time>2014-05-30T07:14:59Z</time>
      </trkpt>
      <trkpt lat="46.55796" lon="6.11811">
        <ele>1188.81</ele>
        <time>2014-05-30T07:15:00Z</time>
      </trkpt>
      <trkpt lat="46.55788" lon="6.11813">
        <ele>1187.85</ele>
        <time>2014-05-30T07:15:01Z</time>
      </trkpt>
      <trkpt lat="46.55782" lon="6.11815">
        <ele>1186.4</ele>
        <time>2014-05-30T07:15:02Z</time>
      </trkpt>
      <trkpt lat="46.55778" lon="6.11815">
        <ele>1185.92</ele>
        <time>2014-05-30T07:15:03Z</time>
      </trkpt>
      <trkpt lat="46.55771" lon="6.11813">
        <ele>1184.96</ele>
        <time>2014-05-30T07:15:09Z</time>
      </trkpt>
      <trkpt lat="46.5577" lon="6.11811">
        <ele>1184.96</ele>
        <time>2014-05-30T07:15:10Z</time>
      </trkpt>
      <trkpt lat="46.55768" lon="6.11809">
        <ele>1184.96</ele>
        <time>2014-05-30T07:15:11Z</time>
      </trkpt>
      <trkpt lat="46.55767" lon="6.11806">
        <ele>1184.96</ele>
        <time>2014-05-30T07:15:12Z</time>
      </trkpt>
      <trkpt lat="46.55765" lon="6.11804">
        <ele>1184.96</ele>
        <time>2014-05-30T07:15:13Z</time>
      </trkpt>
      <trkpt lat="46.55764" lon="6.11801">
        <ele>1184.96</ele>
        <time>2014-05-30T07:15:14Z</time>
      </trkpt>
      <trkpt lat="46.55763" lon="6.11798">
        <ele>1184.96</ele>
        <time>2014-05-30T07:15:15Z</time>
      </trkpt>
      <trkpt lat="46.55762" lon="6.11797">
        <ele>1184.96</ele>
        <time>2014-05-30T07:15:16Z</time>
      </trkpt>
      <trkpt lat="46.55761" lon="6.11795">
        <ele>1184.96</ele>
        <time>2014-05-30T07:15:17Z</time>
      </trkpt>
      <trkpt lat="46.5576" lon="6.11794">
        <ele>1184.96</ele>
        <time>2014-05-30T07:15:18Z</time>
      </trkpt>
      <trkpt lat="46.55757" lon="6.1179">
        <ele>1184.96</ele>
        <time>2014-05-30T07:15:25Z</time>
      </trkpt>
      <trkpt lat="46.55756" lon="6.11788">
        <ele>1184.96</ele>
        <time>2014-05-30T07:15:26Z</time>
      </trkpt>
      <trkpt lat="46.55755" lon="6.11787">
        <ele>1184.96</ele>
        <time>2014-05-30T07:15:27Z</time>
      </trkpt>
      <trkpt lat="46.55754" lon="6.11785">
        <ele>1184.96</ele>
        <time>2014-05-30T07:15:28Z</time>
      </trkpt>
      <trkpt lat="46.55752" lon="6.11782">
        <ele>1185.44</ele>
        <time>2014-05-30T07:15:29Z</time>
      </trkpt>
      <trkpt lat="46.55751" lon="6.1178">
        <ele>1184.96</ele>
        <time>2014-05-30T07:15:30Z</time>
      </trkpt>
      <trkpt lat="46.55725" lon="6.11731">
        <ele>1184.96</ele>
        <time>2014-05-30T07:15:44Z</time>
      </trkpt>
      <trkpt lat="46.55721" lon="6.11688">
        <ele>1184.48</ele>
        <time>2014-05-30T07:15:52Z</time>
      </trkpt>
      <trkpt lat="46.55721" lon="6.11682">
        <ele>1184.48</ele>
        <time>2014-05-30T07:15:53Z</time>
      </trkpt>
      <trkpt lat="46.5572" lon="6.11646">
        <ele>1184</ele>
        <time>2014-05-30T07:15:59Z</time>
      </trkpt>
      <trkpt lat="46.55718" lon="6.1164">
        <ele>1184</ele>
        <time>2014-05-30T07:16:00Z</time>
      </trkpt>
      <trkpt lat="46.55716" lon="6.11635">
        <ele>1184.48</ele>
        <time>2014-05-30T07:16:01Z</time>
      </trkpt>
      <trkpt lat="46.55714" lon="6.1163">
        <ele>1184.48</ele>
        <time>2014-05-30T07:16:02Z</time>
      </trkpt>
      <trkpt lat="46.55711" lon="6.11626">
        <ele>1184.48</ele>
        <time>2014-05-30T07:16:03Z</time>
      </trkpt>
      <trkpt lat="46.55684" lon="6.11593">
        <ele>1186.88</ele>
        <time>2014-05-30T07:16:14Z</time>
      </trkpt>
      <trkpt lat="46.55672" lon="6.11546">
        <ele>1188.33</ele>
        <time>2014-05-30T07:16:25Z</time>
      </trkpt>
      <trkpt lat="46.55679" lon="6.11505">
        <ele>1190.73</ele>
        <time>2014-05-30T07:16:37Z</time>
      </trkpt>
      <trkpt lat="46.5568" lon="6.11498">
        <ele>1191.21</ele>
        <time>2014-05-30T07:16:39Z</time>
      </trkpt>
      <trkpt lat="46.5568" lon="6.11495">
        <ele>1191.69</ele>
        <time>2014-05-30T07:16:40Z</time>
      </trkpt>
      <trkpt lat="46.55681" lon="6.11492">
        <ele>1191.69</ele>
        <time>2014-05-30T07:16:41Z</time>
      </trkpt>
      <trkpt lat="46.55682" lon="6.11488">
        <ele>1191.69</ele>
        <time>2014-05-30T07:16:42Z</time>
      </trkpt>
      <trkpt lat="46.55682" lon="6.11485">
        <ele>1192.17</ele>
        <time>2014-05-30T07:16:43Z</time>
      </trkpt>
      <trkpt lat="46.55675" lon="6.1144">
        <ele>1194.58</ele>
        <time>2014-05-30T07:16:56Z</time>
      </trkpt>
      <trkpt lat="46.55647" lon="6.11407">
        <ele>1195.06</ele>
        <time>2014-05-30T07:17:09Z</time>
      </trkpt>
      <trkpt lat="46.55627" lon="6.11393">
        <ele>1193.61</ele>
        <time>2014-05-30T07:17:14Z</time>
      </trkpt>
      <trkpt lat="46.55622" lon="6.11389">
        <ele>1193.61</ele>
        <time>2014-05-30T07:17:15Z</time>
      </trkpt>
      <trkpt lat="46.55576" lon="6.11349">
        <ele>1191.21</ele>
        <time>2014-05-30T07:17:24Z</time>
      </trkpt>
      <trkpt lat="46.5557" lon="6.11347">
        <ele>1191.21</ele>
        <time>2014-05-30T07:17:25Z</time>
      </trkpt>
      <trkpt lat="46.55542" lon="6.11336">
        <ele>1190.73</ele>
        <time>2014-05-30T07:17:30Z</time>
      </trkpt>
      <trkpt lat="46.55538" lon="6.11333">
        <ele>1190.73</ele>
        <time>2014-05-30T07:17:31Z</time>
      </trkpt>
      <trkpt lat="46.55535" lon="6.1133">
        <ele>1191.21</ele>
        <time>2014-05-30T07:17:32Z</time>
      </trkpt>
      <trkpt lat="46.55531" lon="6.11322">
        <ele>1191.69</ele>
        <time>2014-05-30T07:17:34Z</time>
      </trkpt>
      <trkpt lat="46.55529" lon="6.11318">
        <ele>1192.17</ele>
        <time>2014-05-30T07:17:35Z</time>
      </trkpt>
      <trkpt lat="46.55528" lon="6.11314">
        <ele>1192.17</ele>
        <time>2014-05-30T07:17:36Z</time>
      </trkpt>
      <trkpt lat="46.55526" lon="6.1131">
        <ele>1192.65</ele>
        <time>2014-05-30T07:17:37Z</time>
      </trkpt>
      <trkpt lat="46.55525" lon="6.11306">
        <ele>1192.65</ele>
        <time>2014-05-30T07:17:38Z</time>
      </trkpt>
      <trkpt lat="46.55521" lon="6.1129">
        <ele>1193.13</ele>
        <time>2014-05-30T07:17:42Z</time>
      </trkpt>
      <trkpt lat="46.55521" lon="6.11286">
        <ele>1193.61</ele>
        <time>2014-05-30T07:17:43Z</time>
      </trkpt>
      <trkpt lat="46.5552" lon="6.11248">
        <ele>1197.46</ele>
        <time>2014-05-30T07:17:56Z</time>
      </trkpt>
      <trkpt lat="46.55518" lon="6.11241">
        <ele>1197.94</ele>
        <time>2014-05-30T07:17:59Z</time>
      </trkpt>
      <trkpt lat="46.55517" lon="6.11239">
        <ele>1198.42</ele>
        <time>2014-05-30T07:18:00Z</time>
      </trkpt>
      <trkpt lat="46.55516" lon="6.11236">
        <ele>1198.42</ele>
        <time>2014-05-30T07:18:01Z</time>
      </trkpt>
      <trkpt lat="46.55515" lon="6.11233">
        <ele>1198.9</ele>
        <time>2014-05-30T07:18:02Z</time>
      </trkpt>
      <trkpt lat="46.55514" lon="6.1123">
        <ele>1198.9</ele>
        <time>2014-05-30T07:18:03Z</time>
      </trkpt>
      <trkpt lat="46.55513" lon="6.11227">
        <ele>1198.9</ele>
        <time>2014-05-30T07:18:04Z</time>
      </trkpt>
      <trkpt lat="46.55511" lon="6.11224">
        <ele>1199.38</ele>
        <time>2014-05-30T07:18:05Z</time>
      </trkpt>
      <trkpt lat="46.55509" lon="6.11221">
        <ele>1199.38</ele>
        <time>2014-05-30T07:18:06Z</time>
      </trkpt>
      <trkpt lat="46.55508" lon="6.11219">
        <ele>1199.38</ele>
        <time>2014-05-30T07:18:07Z</time>
      </trkpt>
      <trkpt lat="46.55495" lon="6.11197">
        <ele>1202.75</ele>
        <time>2014-05-30T07:18:17Z</time>
      </trkpt>
      <trkpt lat="46.55473" lon="6.11165">
        <ele>1204.19</ele>
        <time>2014-05-30T07:18:31Z</time>
      </trkpt>
      <trkpt lat="46.55467" lon="6.11157">
        <ele>1205.15</ele>
        <time>2014-05-30T07:18:35Z</time>
      </trkpt>
      <trkpt lat="46.55466" lon="6.11155">
        <ele>1205.63</ele>
        <time>2014-05-30T07:18:36Z</time>
      </trkpt>
      <trkpt lat="46.55461" lon="6.11131">
        <ele>1207.07</ele>
        <time>2014-05-30T07:18:46Z</time>
      </trkpt>
      <trkpt lat="46.55462" lon="6.11129">
        <ele>1207.55</ele>
        <time>2014-05-30T07:18:47Z</time>
      </trkpt>
      <trkpt lat="46.55462" lon="6.11127">
        <ele>1208.03</ele>
        <time>2014-05-30T07:18:48Z</time>
      </trkpt>
      <trkpt lat="46.55462" lon="6.11124">
        <ele>1208.51</ele>
        <time>2014-05-30T07:18:49Z</time>
      </trkpt>
      <trkpt lat="46.55462" lon="6.11121">
        <ele>1208.51</ele>
        <time>2014-05-30T07:18:50Z</time>
      </trkpt>
      <trkpt lat="46.55463" lon="6.11109">
        <ele>1209.48</ele>
        <time>2014-05-30T07:18:54Z</time>
      </trkpt>
      <trkpt lat="46.55463" lon="6.11106">
        <ele>1209.48</ele>
        <time>2014-05-30T07:18:55Z</time>
      </trkpt>
      <trkpt lat="46.55462" lon="6.11103">
        <ele>1209.96</ele>
        <time>2014-05-30T07:18:56Z</time>
      </trkpt>
      <trkpt lat="46.55462" lon="6.111">
        <ele>1210.44</ele>
        <time>2014-05-30T07:18:57Z</time>
      </trkpt>
      <trkpt lat="46.55461" lon="6.11097">
        <ele>1210.44</ele>
        <time>2014-05-30T07:18:58Z</time>
      </trkpt>
      <trkpt lat="46.5546" lon="6.11094">
        <ele>1210.44</ele>
        <time>2014-05-30T07:18:59Z</time>
      </trkpt>
      <trkpt lat="46.55442" lon="6.11053">
        <ele>1211.4</ele>
        <time>2014-05-30T07:19:10Z</time>
      </trkpt>
      <trkpt lat="46.55418" lon="6.11022">
        <ele>1211.4</ele>
        <time>2014-05-30T07:19:21Z</time>
      </trkpt>
      <trkpt lat="46.5541" lon="6.1101">
        <ele>1212.36</ele>
        <time>2014-05-30T07:19:25Z</time>
      </trkpt>
      <trkpt lat="46.55395" lon="6.11004">
        <ele>1218.61</ele>
        <time>2014-05-30T07:19:33Z</time>
      </trkpt>
      <trkpt lat="46.55393" lon="6.11004">
        <ele>1213.8</ele>
        <time>2014-05-30T07:19:34Z</time>
      </trkpt>
      <trkpt lat="46.55385" lon="6.11004">
        <ele>1211.88</ele>
        <time>2014-05-30T07:19:37Z</time>
      </trkpt>
      <trkpt lat="46.55355" lon="6.10994">
        <ele>1210.44</ele>
        <time>2014-05-30T07:19:44Z</time>
      </trkpt>
      <trkpt lat="46.55351" lon="6.1099">
        <ele>1209.96</ele>
        <time>2014-05-30T07:19:45Z</time>
      </trkpt>
      <trkpt lat="46.55346" lon="6.10985">
        <ele>1209.96</ele>
        <time>2014-05-30T07:19:46Z</time>
      </trkpt>
      <trkpt lat="46.55339" lon="6.10974">
        <ele>1209.96</ele>
        <time>2014-05-30T07:19:48Z</time>
      </trkpt>
      <trkpt lat="46.55336" lon="6.10967">
        <ele>1209</ele>
        <time>2014-05-30T07:19:49Z</time>
      </trkpt>
      <trkpt lat="46.55334" lon="6.1096">
        <ele>1209.48</ele>
        <time>2014-05-30T07:19:50Z</time>
      </trkpt>
      <trkpt lat="46.55332" lon="6.10953">
        <ele>1209</ele>
        <time>2014-05-30T07:19:51Z</time>
      </trkpt>
      <trkpt lat="46.55331" lon="6.10946">
        <ele>1209.48</ele>
        <time>2014-05-30T07:19:52Z</time>
      </trkpt>
      <trkpt lat="46.5533" lon="6.10939">
        <ele>1209.96</ele>
        <time>2014-05-30T07:19:53Z</time>
      </trkpt>
      <trkpt lat="46.55314" lon="6.109">
        <ele>1212.36</ele>
        <time>2014-05-30T07:20:02Z</time>
      </trkpt>
      <trkpt lat="46.55287" lon="6.10903">
        <ele>1214.28</ele>
        <time>2014-05-30T07:20:13Z</time>
      </trkpt>
      <trkpt lat="46.55265" lon="6.10932">
        <ele>1216.21</ele>
        <time>2014-05-30T07:20:25Z</time>
      </trkpt>
      <trkpt lat="46.55244" lon="6.10937">
        <ele>1218.61</ele>
        <time>2014-05-30T07:20:36Z</time>
      </trkpt>
      <trkpt lat="46.55223" lon="6.1093">
        <ele>1221.01</ele>
        <time>2014-05-30T07:20:46Z</time>
      </trkpt>
      <trkpt lat="46.55194" lon="6.1093">
        <ele>1223.9</ele>
        <time>2014-05-30T07:21:00Z</time>
      </trkpt>
      <trkpt lat="46.55169" lon="6.10933">
        <ele>1227.26</ele>
        <time>2014-05-30T07:21:13Z</time>
      </trkpt>
      <trkpt lat="46.55145" lon="6.10904">
        <ele>1230.14</ele>
        <time>2014-05-30T07:21:29Z</time>
      </trkpt>
      <trkpt lat="46.55137" lon="6.1087">
        <ele>1231.11</ele>
        <time>2014-05-30T07:21:39Z</time>
      </trkpt>
      <trkpt lat="46.55136" lon="6.10867">
        <ele>1231.11</ele>
        <time>2014-05-30T07:21:40Z</time>
      </trkpt>
      <trkpt lat="46.55135" lon="6.10864">
        <ele>1231.11</ele>
        <time>2014-05-30T07:21:41Z</time>
      </trkpt>
      <trkpt lat="46.55134" lon="6.10861">
        <ele>1231.11</ele>
        <time>2014-05-30T07:21:42Z</time>
      </trkpt>
      <trkpt lat="46.55133" lon="6.10857">
        <ele>1231.59</ele>
        <time>2014-05-30T07:21:43Z</time>
      </trkpt>
      <trkpt lat="46.55131" lon="6.10854">
        <ele>1231.59</ele>
        <time>2014-05-30T07:21:44Z</time>
      </trkpt>
      <trkpt lat="46.55114" lon="6.10811">
        <ele>1231.11</ele>
        <time>2014-05-30T07:21:54Z</time>
      </trkpt>
      <trkpt lat="46.5511" lon="6.10806">
        <ele>1231.11</ele>
        <time>2014-05-30T07:21:55Z</time>
      </trkpt>
      <trkpt lat="46.55107" lon="6.10802">
        <ele>1230.62</ele>
        <time>2014-05-30T07:21:56Z</time>
      </trkpt>
      <trkpt lat="46.55102" lon="6.10798">
        <ele>1231.11</ele>
        <time>2014-05-30T07:21:57Z</time>
      </trkpt>
      <trkpt lat="46.55097" lon="6.10796">
        <ele>1230.14</ele>
        <time>2014-05-30T07:21:58Z</time>
      </trkpt>
      <trkpt lat="46.55091" lon="6.10795">
        <ele>1229.66</ele>
        <time>2014-05-30T07:21:59Z</time>
      </trkpt>
      <trkpt lat="46.55085" lon="6.10795">
        <ele>1229.18</ele>
        <time>2014-05-30T07:22:00Z</time>
      </trkpt>
      <trkpt lat="46.55078" lon="6.10797">
        <ele>1229.18</ele>
        <time>2014-05-30T07:22:01Z</time>
      </trkpt>
      <trkpt lat="46.55072" lon="6.10799">
        <ele>1228.7</ele>
        <time>2014-05-30T07:22:02Z</time>
      </trkpt>
      <trkpt lat="46.55067" lon="6.10801">
        <ele>1228.22</ele>
        <time>2014-05-30T07:22:03Z</time>
      </trkpt>
      <trkpt lat="46.55061" lon="6.10802">
        <ele>1228.22</ele>
        <time>2014-05-30T07:22:04Z</time>
      </trkpt>
      <trkpt lat="46.55055" lon="6.10801">
        <ele>1228.22</ele>
        <time>2014-05-30T07:22:05Z</time>
      </trkpt>
      <trkpt lat="46.55049" lon="6.108">
        <ele>1227.74</ele>
        <time>2014-05-30T07:22:06Z</time>
      </trkpt>
      <trkpt lat="46.55044" lon="6.10796">
        <ele>1227.74</ele>
        <time>2014-05-30T07:22:07Z</time>
      </trkpt>
      <trkpt lat="46.55039" lon="6.10791">
        <ele>1227.26</ele>
        <time>2014-05-30T07:22:08Z</time>
      </trkpt>
      <trkpt lat="46.55035" lon="6.10786">
        <ele>1227.26</ele>
        <time>2014-05-30T07:22:09Z</time>
      </trkpt>
      <trkpt lat="46.55031" lon="6.10779">
        <ele>1227.74</ele>
        <time>2014-05-30T07:22:10Z</time>
      </trkpt>
      <trkpt lat="46.55028" lon="6.10773">
        <ele>1227.74</ele>
        <time>2014-05-30T07:22:11Z</time>
      </trkpt>
      <trkpt lat="46.55021" lon="6.1076">
        <ele>1227.74</ele>
        <time>2014-05-30T07:22:13Z</time>
      </trkpt>
      <trkpt lat="46.55019" lon="6.10753">
        <ele>1227.26</ele>
        <time>2014-05-30T07:22:14Z</time>
      </trkpt>
      <trkpt lat="46.55018" lon="6.10746">
        <ele>1227.26</ele>
        <time>2014-05-30T07:22:15Z</time>
      </trkpt>
      <trkpt lat="46.55017" lon="6.10739">
        <ele>1226.78</ele>
        <time>2014-05-30T07:22:16Z</time>
      </trkpt>
      <trkpt lat="46.55016" lon="6.10731">
        <ele>1227.26</ele>
        <time>2014-05-30T07:22:17Z</time>
      </trkpt>
      <trkpt lat="46.55016" lon="6.10724">
        <ele>1227.26</ele>
        <time>2014-05-30T07:22:18Z</time>
      </trkpt>
      <trkpt lat="46.55017" lon="6.10716">
        <ele>1227.26</ele>
        <time>2014-05-30T07:22:19Z</time>
      </trkpt>
      <trkpt lat="46.55019" lon="6.10702">
        <ele>1226.78</ele>
        <time>2014-05-30T07:22:21Z</time>
      </trkpt>
      <trkpt lat="46.55025" lon="6.10668">
        <ele>1226.78</ele>
        <time>2014-05-30T07:22:26Z</time>
      </trkpt>
      <trkpt lat="46.55028" lon="6.10655">
        <ele>1226.3</ele>
        <time>2014-05-30T07:22:28Z</time>
      </trkpt>
      <trkpt lat="46.55028" lon="6.10641">
        <ele>1226.3</ele>
        <time>2014-05-30T07:22:30Z</time>
      </trkpt>
      <trkpt lat="46.55027" lon="6.10634">
        <ele>1226.3</ele>
        <time>2014-05-30T07:22:31Z</time>
      </trkpt>
      <trkpt lat="46.55025" lon="6.10627">
        <ele>1226.3</ele>
        <time>2014-05-30T07:22:32Z</time>
      </trkpt>
      <trkpt lat="46.55023" lon="6.10621">
        <ele>1226.3</ele>
        <time>2014-05-30T07:22:33Z</time>
      </trkpt>
      <trkpt lat="46.5502" lon="6.10615">
        <ele>1226.78</ele>
        <time>2014-05-30T07:22:34Z</time>
      </trkpt>
      <trkpt lat="46.55002" lon="6.10583">
        <ele>1226.78</ele>
        <time>2014-05-30T07:22:41Z</time>
      </trkpt>
      <trkpt lat="46.54999" lon="6.10578">
        <ele>1226.3</ele>
        <time>2014-05-30T07:22:42Z</time>
      </trkpt>
      <trkpt lat="46.54997" lon="6.10572">
        <ele>1226.3</ele>
        <time>2014-05-30T07:22:43Z</time>
      </trkpt>
      <trkpt lat="46.54995" lon="6.10565">
        <ele>1226.3</ele>
        <time>2014-05-30T07:22:44Z</time>
      </trkpt>
      <trkpt lat="46.54994" lon="6.10559">
        <ele>1225.82</ele>
        <time>2014-05-30T07:22:45Z</time>
      </trkpt>
      <trkpt lat="46.54992" lon="6.10551">
        <ele>1226.3</ele>
        <time>2014-05-30T07:22:46Z</time>
      </trkpt>
      <trkpt lat="46.54988" lon="6.10535">
        <ele>1225.34</ele>
        <time>2014-05-30T07:22:48Z</time>
      </trkpt>
      <trkpt lat="46.54985" lon="6.10527">
        <ele>1224.86</ele>
        <time>2014-05-30T07:22:49Z</time>
      </trkpt>
      <trkpt lat="46.54982" lon="6.10519">
        <ele>1224.86</ele>
        <time>2014-05-30T07:22:50Z</time>
      </trkpt>
      <trkpt lat="46.54964" lon="6.10491">
        <ele>1225.34</ele>
        <time>2014-05-30T07:22:55Z</time>
      </trkpt>
      <trkpt lat="46.54961" lon="6.10487">
        <ele>1225.34</ele>
        <time>2014-05-30T07:22:56Z</time>
      </trkpt>
      <trkpt lat="46.54953" lon="6.10478">
        <ele>1225.34</ele>
        <time>2014-05-30T07:22:58Z</time>
      </trkpt>
      <trkpt lat="46.54949" lon="6.10474">
        <ele>1225.34</ele>
        <time>2014-05-30T07:22:59Z</time>
      </trkpt>
      <trkpt lat="46.54942" lon="6.10466">
        <ele>1225.82</ele>
        <time>2014-05-30T07:23:01Z</time>
      </trkpt>
      <trkpt lat="46.54893" lon="6.10374">
        <ele>1222.93</ele>
        <time>2014-05-30T07:23:16Z</time>
      </trkpt>
      <trkpt lat="46.54885" lon="6.10357">
        <ele>1222.45</ele>
        <time>2014-05-30T07:23:18Z</time>
      </trkpt>
      <trkpt lat="46.54873" lon="6.1033">
        <ele>1221.49</ele>
        <time>2014-05-30T07:23:21Z</time>
      </trkpt>
      <trkpt lat="46.54868" lon="6.10322">
        <ele>1221.49</ele>
        <time>2014-05-30T07:23:22Z</time>
      </trkpt>
      <trkpt lat="46.54864" lon="6.10314">
        <ele>1221.49</ele>
        <time>2014-05-30T07:23:23Z</time>
      </trkpt>
      <trkpt lat="46.54818" lon="6.10253">
        <ele>1221.49</ele>
        <time>2014-05-30T07:23:35Z</time>
      </trkpt>
      <trkpt lat="46.54811" lon="6.10244">
        <ele>1221.97</ele>
        <time>2014-05-30T07:23:37Z</time>
      </trkpt>
      <trkpt lat="46.54807" lon="6.1024">
        <ele>1221.97</ele>
        <time>2014-05-30T07:23:38Z</time>
      </trkpt>
      <trkpt lat="46.54782" lon="6.10211">
        <ele>1223.42</ele>
        <time>2014-05-30T07:23:46Z</time>
      </trkpt>
      <trkpt lat="46.5478" lon="6.10207">
        <ele>1223.42</ele>
        <time>2014-05-30T07:23:47Z</time>
      </trkpt>
      <trkpt lat="46.54777" lon="6.10204">
        <ele>1223.9</ele>
        <time>2014-05-30T07:23:48Z</time>
      </trkpt>
      <trkpt lat="46.54775" lon="6.10201">
        <ele>1224.38</ele>
        <time>2014-05-30T07:23:49Z</time>
      </trkpt>
      <trkpt lat="46.54772" lon="6.10198">
        <ele>1224.38</ele>
        <time>2014-05-30T07:23:50Z</time>
      </trkpt>
      <trkpt lat="46.54769" lon="6.10195">
        <ele>1224.86</ele>
        <time>2014-05-30T07:23:51Z</time>
      </trkpt>
      <trkpt lat="46.54767" lon="6.10192">
        <ele>1224.86</ele>
        <time>2014-05-30T07:23:52Z</time>
      </trkpt>
      <trkpt lat="46.54765" lon="6.1019">
        <ele>1225.34</ele>
        <time>2014-05-30T07:23:53Z</time>
      </trkpt>
      <trkpt lat="46.54736" lon="6.10152">
        <ele>1228.22</ele>
        <time>2014-05-30T07:24:05Z</time>
      </trkpt>
      <trkpt lat="46.54714" lon="6.1011">
        <ele>1227.74</ele>
        <time>2014-05-30T07:24:13Z</time>
      </trkpt>
      <trkpt lat="46.54711" lon="6.10104">
        <ele>1227.26</ele>
        <time>2014-05-30T07:24:14Z</time>
      </trkpt>
      <trkpt lat="46.54709" lon="6.10098">
        <ele>1227.26</ele>
        <time>2014-05-30T07:24:15Z</time>
      </trkpt>
      <trkpt lat="46.5468" lon="6.10035">
        <ele>1224.38</ele>
        <time>2014-05-30T07:24:23Z</time>
      </trkpt>
      <trkpt lat="46.54675" lon="6.10026">
        <ele>1223.9</ele>
        <time>2014-05-30T07:24:24Z</time>
      </trkpt>
      <trkpt lat="46.5467" lon="6.10016">
        <ele>1222.93</ele>
        <time>2014-05-30T07:24:25Z</time>
      </trkpt>
      <trkpt lat="46.54659" lon="6.09997">
        <ele>1222.45</ele>
        <time>2014-05-30T07:24:27Z</time>
      </trkpt>
      <trkpt lat="46.54618" lon="6.09927">
        <ele>1221.49</ele>
        <time>2014-05-30T07:24:35Z</time>
      </trkpt>
      <trkpt lat="46.54614" lon="6.09919">
        <ele>1221.01</ele>
        <time>2014-05-30T07:24:36Z</time>
      </trkpt>
      <trkpt lat="46.54596" lon="6.09876">
        <ele>1220.05</ele>
        <time>2014-05-30T07:24:41Z</time>
      </trkpt>
      <trkpt lat="46.54595" lon="6.09867">
        <ele>1220.05</ele>
        <time>2014-05-30T07:24:42Z</time>
      </trkpt>
      <trkpt lat="46.54593" lon="6.09848">
        <ele>1219.57</ele>
        <time>2014-05-30T07:24:44Z</time>
      </trkpt>
      <trkpt lat="46.54589" lon="6.0983">
        <ele>1219.09</ele>
        <time>2014-05-30T07:24:46Z</time>
      </trkpt>
      <trkpt lat="46.54586" lon="6.09821">
        <ele>1218.61</ele>
        <time>2014-05-30T07:24:47Z</time>
      </trkpt>
      <trkpt lat="46.54546" lon="6.09736">
        <ele>1216.69</ele>
        <time>2014-05-30T07:24:59Z</time>
      </trkpt>
      <trkpt lat="46.54538" lon="6.09718">
        <ele>1216.21</ele>
        <time>2014-05-30T07:25:08Z</time>
      </trkpt>
      <trkpt lat="46.54537" lon="6.09718">
        <ele>1216.21</ele>
        <time>2014-05-30T07:25:09Z</time>
      </trkpt>
      <trkpt lat="46.54537" lon="6.0972">
        <ele>1216.21</ele>
        <time>2014-05-30T07:25:11Z</time>
      </trkpt>
      <trkpt lat="46.54539" lon="6.09723">
        <ele>1216.21</ele>
        <time>2014-05-30T07:25:27Z</time>
      </trkpt>
      <trkpt lat="46.54542" lon="6.09726">
        <ele>1217.17</ele>
        <time>2014-05-30T07:26:12Z</time>
      </trkpt>
      <trkpt lat="46.54542" lon="6.09727">
        <ele>1218.13</ele>
        <time>2014-05-30T07:26:39Z</time>
      </trkpt>
      <trkpt lat="46.54544" lon="6.0973">
        <ele>1224.38</ele>
        <time>2014-05-30T07:27:34Z</time>
      </trkpt>
      <trkpt lat="46.54544" lon="6.0973">
        <ele>1219.57</ele>
        <time>2014-05-30T07:27:35Z</time>
      </trkpt>
      <trkpt lat="46.54544" lon="6.0973">
        <ele>1221.97</ele>
        <time>2014-05-30T07:27:52Z</time>
      </trkpt>
      <trkpt lat="46.54546" lon="6.09737">
        <ele>1222.45</ele>
        <time>2014-05-30T07:28:35Z</time>
      </trkpt>
      <trkpt lat="46.54547" lon="6.0974">
        <ele>1222.45</ele>
        <time>2014-05-30T07:28:36Z</time>
      </trkpt>
      <trkpt lat="46.54547" lon="6.09743">
        <ele>1222.45</ele>
        <time>2014-05-30T07:28:37Z</time>
      </trkpt>
      <trkpt lat="46.54546" lon="6.09746">
        <ele>1222.45</ele>
        <time>2014-05-30T07:28:38Z</time>
      </trkpt>
      <trkpt lat="46.54545" lon="6.09749">
        <ele>1222.93</ele>
        <time>2014-05-30T07:28:39Z</time>
      </trkpt>
      <trkpt lat="46.54545" lon="6.09753">
        <ele>1222.93</ele>
        <time>2014-05-30T07:28:40Z</time>
      </trkpt>
      <trkpt lat="46.54538" lon="6.0977">
        <ele>1221.49</ele>
        <time>2014-05-30T07:28:47Z</time>
      </trkpt>
      <trkpt lat="46.54538" lon="6.09772">
        <ele>1221.49</ele>
        <time>2014-05-30T07:28:48Z</time>
      </trkpt>
      <trkpt lat="46.54538" lon="6.09776">
        <ele>1221.49</ele>
        <time>2014-05-30T07:28:49Z</time>
      </trkpt>
      <trkpt lat="46.54537" lon="6.09779">
        <ele>1221.49</ele>
        <time>2014-05-30T07:28:50Z</time>
      </trkpt>
      <trkpt lat="46.54536" lon="6.09784">
        <ele>1220.53</ele>
        <time>2014-05-30T07:28:51Z</time>
      </trkpt>
      <trkpt lat="46.54535" lon="6.09789">
        <ele>1220.53</ele>
        <time>2014-05-30T07:28:52Z</time>
      </trkpt>
      <trkpt lat="46.54533" lon="6.09794">
        <ele>1220.05</ele>
        <time>2014-05-30T07:28:53Z</time>
      </trkpt>
      <trkpt lat="46.54524" lon="6.09814">
        <ele>1220.05</ele>
        <time>2014-05-30T07:28:57Z</time>
      </trkpt>
      <trkpt lat="46.54521" lon="6.09819">
        <ele>1220.05</ele>
        <time>2014-05-30T07:28:58Z</time>
      </trkpt>
      <trkpt lat="46.54518" lon="6.09823">
        <ele>1220.53</ele>
        <time>2014-05-30T07:28:59Z</time>
      </trkpt>
      <trkpt lat="46.54515" lon="6.09827">
        <ele>1220.53</ele>
        <time>2014-05-30T07:29:00Z</time>
      </trkpt>
      <trkpt lat="46.54512" lon="6.09831">
        <ele>1220.53</ele>
        <time>2014-05-30T07:29:01Z</time>
      </trkpt>
      <trkpt lat="46.54508" lon="6.09836">
        <ele>1220.53</ele>
        <time>2014-05-30T07:29:02Z</time>
      </trkpt>
      <trkpt lat="46.54505" lon="6.09841">
        <ele>1220.05</ele>
        <time>2014-05-30T07:29:03Z</time>
      </trkpt>
      <trkpt lat="46.54502" lon="6.09847">
        <ele>1220.05</ele>
        <time>2014-05-30T07:29:04Z</time>
      </trkpt>
      <trkpt lat="46.54499" lon="6.09852">
        <ele>1220.05</ele>
        <time>2014-05-30T07:29:05Z</time>
      </trkpt>
      <trkpt lat="46.54496" lon="6.09858">
        <ele>1220.05</ele>
        <time>2014-05-30T07:29:06Z</time>
      </trkpt>
      <trkpt lat="46.54494" lon="6.09865">
        <ele>1219.57</ele>
        <time>2014-05-30T07:29:07Z</time>
      </trkpt>
      <trkpt lat="46.54489" lon="6.0988">
        <ele>1219.09</ele>
        <time>2014-05-30T07:29:09Z</time>
      </trkpt>
      <trkpt lat="46.54485" lon="6.09886">
        <ele>1218.13</ele>
        <time>2014-05-30T07:29:10Z</time>
      </trkpt>
      <trkpt lat="46.54481" lon="6.09892">
        <ele>1218.13</ele>
        <time>2014-05-30T07:29:11Z</time>
      </trkpt>
      <trkpt lat="46.54476" lon="6.09897">
        <ele>1217.65</ele>
        <time>2014-05-30T07:29:12Z</time>
      </trkpt>
      <trkpt lat="46.5447" lon="6.09902">
        <ele>1216.69</ele>
        <time>2014-05-30T07:29:13Z</time>
      </trkpt>
      <trkpt lat="46.54464" lon="6.09905">
        <ele>1216.69</ele>
        <time>2014-05-30T07:29:14Z</time>
      </trkpt>
      <trkpt lat="46.54458" lon="6.09909">
        <ele>1216.69</ele>
        <time>2014-05-30T07:29:15Z</time>
      </trkpt>
      <trkpt lat="46.54452" lon="6.09912">
        <ele>1216.21</ele>
        <time>2014-05-30T07:29:16Z</time>
      </trkpt>
      <trkpt lat="46.54435" lon="6.09925">
        <ele>1215.24</ele>
        <time>2014-05-30T07:29:19Z</time>
      </trkpt>
      <trkpt lat="46.5443" lon="6.09931">
        <ele>1215.72</ele>
        <time>2014-05-30T07:29:20Z</time>
      </trkpt>
      <trkpt lat="46.54426" lon="6.09937">
        <ele>1215.24</ele>
        <time>2014-05-30T07:29:21Z</time>
      </trkpt>
      <trkpt lat="46.54423" lon="6.09944">
        <ele>1215.24</ele>
        <time>2014-05-30T07:29:22Z</time>
      </trkpt>
      <trkpt lat="46.5442" lon="6.0995">
        <ele>1215.24</ele>
        <time>2014-05-30T07:29:23Z</time>
      </trkpt>
      <trkpt lat="46.54419" lon="6.09957">
        <ele>1215.72</ele>
        <time>2014-05-30T07:29:24Z</time>
      </trkpt>
      <trkpt lat="46.54418" lon="6.09963">
        <ele>1215.72</ele>
        <time>2014-05-30T07:29:25Z</time>
      </trkpt>
      <trkpt lat="46.54417" lon="6.09969">
        <ele>1216.21</ele>
        <time>2014-05-30T07:29:26Z</time>
      </trkpt>
      <trkpt lat="46.54414" lon="6.09986">
        <ele>1216.69</ele>
        <time>2014-05-30T07:29:29Z</time>
      </trkpt>
      <trkpt lat="46.5441" lon="6.09997">
        <ele>1216.69</ele>
        <time>2014-05-30T07:29:31Z</time>
      </trkpt>
      <trkpt lat="46.54402" lon="6.10013">
        <ele>1216.69</ele>
        <time>2014-05-30T07:29:34Z</time>
      </trkpt>
      <trkpt lat="46.544" lon="6.10018">
        <ele>1216.21</ele>
        <time>2014-05-30T07:29:35Z</time>
      </trkpt>
      <trkpt lat="46.54398" lon="6.10022">
        <ele>1216.69</ele>
        <time>2014-05-30T07:29:36Z</time>
      </trkpt>
      <trkpt lat="46.54373" lon="6.10054">
        <ele>1216.69</ele>
        <time>2014-05-30T07:29:44Z</time>
      </trkpt>
      <trkpt lat="46.54369" lon="6.10057">
        <ele>1216.21</ele>
        <time>2014-05-30T07:29:45Z</time>
      </trkpt>
      <trkpt lat="46.54347" lon="6.10072">
        <ele>1214.28</ele>
        <time>2014-05-30T07:29:49Z</time>
      </trkpt>
      <trkpt lat="46.54335" lon="6.1008">
        <ele>1212.84</ele>
        <time>2014-05-30T07:29:51Z</time>
      </trkpt>
      <trkpt lat="46.54329" lon="6.10087">
        <ele>1212.84</ele>
        <time>2014-05-30T07:29:52Z</time>
      </trkpt>
      <trkpt lat="46.54311" lon="6.10107">
        <ele>1210.92</ele>
        <time>2014-05-30T07:29:55Z</time>
      </trkpt>
      <trkpt lat="46.54304" lon="6.10112">
        <ele>1210.92</ele>
        <time>2014-05-30T07:29:56Z</time>
      </trkpt>
      <trkpt lat="46.54297" lon="6.10115">
        <ele>1210.44</ele>
        <time>2014-05-30T07:29:57Z</time>
      </trkpt>
      <trkpt lat="46.54272" lon="6.10125">
        <ele>1207.07</ele>
        <time>2014-05-30T07:30:00Z</time>
      </trkpt>
      <trkpt lat="46.54254" lon="6.10132">
        <ele>1205.63</ele>
        <time>2014-05-30T07:30:02Z</time>
      </trkpt>
      <trkpt lat="46.54228" lon="6.10143">
        <ele>1204.19</ele>
        <time>2014-05-30T07:30:05Z</time>
      </trkpt>
      <trkpt lat="46.54181" lon="6.10171">
        <ele>1203.71</ele>
        <time>2014-05-30T07:30:12Z</time>
      </trkpt>
      <trkpt lat="46.54171" lon="6.10176">
        <ele>1204.67</ele>
        <time>2014-05-30T07:30:14Z</time>
      </trkpt>
      <trkpt lat="46.54167" lon="6.10179">
        <ele>1204.67</ele>
        <time>2014-05-30T07:30:15Z</time>
      </trkpt>
      <trkpt lat="46.54153" lon="6.10186">
        <ele>1204.67</ele>
        <time>2014-05-30T07:30:18Z</time>
      </trkpt>
      <trkpt lat="46.54148" lon="6.10187">
        <ele>1204.67</ele>
        <time>2014-05-30T07:30:19Z</time>
      </trkpt>
      <trkpt lat="46.54143" lon="6.10189">
        <ele>1204.67</ele>
        <time>2014-05-30T07:30:20Z</time>
      </trkpt>
      <trkpt lat="46.54105" lon="6.10203">
        <ele>1202.27</ele>
        <time>2014-05-30T07:30:26Z</time>
      </trkpt>
      <trkpt lat="46.54093" lon="6.10207">
        <ele>1202.27</ele>
        <time>2014-05-30T07:30:28Z</time>
      </trkpt>
      <trkpt lat="46.54088" lon="6.10207">
        <ele>1203.23</ele>
        <time>2014-05-30T07:30:29Z</time>
      </trkpt>
      <trkpt lat="46.54082" lon="6.10208">
        <ele>1204.19</ele>
        <time>2014-05-30T07:30:30Z</time>
      </trkpt>
      <trkpt lat="46.54077" lon="6.10208">
        <ele>1204.67</ele>
        <time>2014-05-30T07:30:31Z</time>
      </trkpt>
      <trkpt lat="46.54072" lon="6.10209">
        <ele>1205.15</ele>
        <time>2014-05-30T07:30:32Z</time>
      </trkpt>
      <trkpt lat="46.54067" lon="6.1021">
        <ele>1205.63</ele>
        <time>2014-05-30T07:30:33Z</time>
      </trkpt>
      <trkpt lat="46.54063" lon="6.10211">
        <ele>1206.11</ele>
        <time>2014-05-30T07:30:34Z</time>
      </trkpt>
      <trkpt lat="46.54026" lon="6.10226">
        <ele>1208.51</ele>
        <time>2014-05-30T07:30:46Z</time>
      </trkpt>
      <trkpt lat="46.53999" lon="6.10236">
        <ele>1209.96</ele>
        <time>2014-05-30T07:30:57Z</time>
      </trkpt>
      <trkpt lat="46.53962" lon="6.10248">
        <ele>1211.88</ele>
        <time>2014-05-30T07:31:12Z</time>
      </trkpt>
      <trkpt lat="46.53924" lon="6.10233">
        <ele>1212.84</ele>
        <time>2014-05-30T07:31:25Z</time>
      </trkpt>
      <trkpt lat="46.5388" lon="6.10211">
        <ele>1212.84</ele>
        <time>2014-05-30T07:31:38Z</time>
      </trkpt>
      <trkpt lat="46.53845" lon="6.1019">
        <ele>1216.21</ele>
        <time>2014-05-30T07:31:50Z</time>
      </trkpt>
      <trkpt lat="46.53816" lon="6.10156">
        <ele>1216.69</ele>
        <time>2014-05-30T07:32:02Z</time>
      </trkpt>
      <trkpt lat="46.53783" lon="6.10142">
        <ele>1215.24</ele>
        <time>2014-05-30T07:32:12Z</time>
      </trkpt>
      <trkpt lat="46.53777" lon="6.10142">
        <ele>1215.24</ele>
        <time>2014-05-30T07:32:13Z</time>
      </trkpt>
      <trkpt lat="46.53771" lon="6.10144">
        <ele>1214.28</ele>
        <time>2014-05-30T07:32:14Z</time>
      </trkpt>
      <trkpt lat="46.53765" lon="6.10145">
        <ele>1214.28</ele>
        <time>2014-05-30T07:32:15Z</time>
      </trkpt>
      <trkpt lat="46.53759" lon="6.10146">
        <ele>1213.8</ele>
        <time>2014-05-30T07:32:16Z</time>
      </trkpt>
      <trkpt lat="46.53703" lon="6.1016">
        <ele>1215.72</ele>
        <time>2014-05-30T07:32:28Z</time>
      </trkpt>
      <trkpt lat="46.53655" lon="6.1018">
        <ele>1217.17</ele>
        <time>2014-05-30T07:32:44Z</time>
      </trkpt>
      <trkpt lat="46.53615" lon="6.10177">
        <ele>1217.65</ele>
        <time>2014-05-30T07:32:57Z</time>
      </trkpt>
      <trkpt lat="46.5361" lon="6.10173">
        <ele>1217.65</ele>
        <time>2014-05-30T07:32:59Z</time>
      </trkpt>
      <trkpt lat="46.53609" lon="6.10171">
        <ele>1217.65</ele>
        <time>2014-05-30T07:33:00Z</time>
      </trkpt>
      <trkpt lat="46.53607" lon="6.10168">
        <ele>1218.13</ele>
        <time>2014-05-30T07:33:01Z</time>
      </trkpt>
      <trkpt lat="46.53605" lon="6.10165">
        <ele>1218.61</ele>
        <time>2014-05-30T07:33:02Z</time>
      </trkpt>
      <trkpt lat="46.53603" lon="6.10163">
        <ele>1218.13</ele>
        <time>2014-05-30T07:33:03Z</time>
      </trkpt>
      <trkpt lat="46.53601" lon="6.1016">
        <ele>1218.61</ele>
        <time>2014-05-30T07:33:04Z</time>
      </trkpt>
      <trkpt lat="46.53599" lon="6.10157">
        <ele>1219.09</ele>
        <time>2014-05-30T07:33:05Z</time>
      </trkpt>
      <trkpt lat="46.53597" lon="6.10155">
        <ele>1218.61</ele>
        <time>2014-05-30T07:33:06Z</time>
      </trkpt>
      <trkpt lat="46.53595" lon="6.10152">
        <ele>1219.09</ele>
        <time>2014-05-30T07:33:07Z</time>
      </trkpt>
      <trkpt lat="46.53593" lon="6.10149">
        <ele>1219.09</ele>
        <time>2014-05-30T07:33:08Z</time>
      </trkpt>
      <trkpt lat="46.53591" lon="6.10145">
        <ele>1219.09</ele>
        <time>2014-05-30T07:33:09Z</time>
      </trkpt>
      <trkpt lat="46.53568" lon="6.1011">
        <ele>1221.01</ele>
        <time>2014-05-30T07:33:21Z</time>
      </trkpt>
      <trkpt lat="46.53545" lon="6.10079">
        <ele>1223.42</ele>
        <time>2014-05-30T07:33:32Z</time>
      </trkpt>
      <trkpt lat="46.53523" lon="6.10068">
        <ele>1225.34</ele>
        <time>2014-05-30T07:33:40Z</time>
      </trkpt>
      <trkpt lat="46.53519" lon="6.10069">
        <ele>1225.34</ele>
        <time>2014-05-30T07:33:41Z</time>
      </trkpt>
      <trkpt lat="46.53516" lon="6.10069">
        <ele>1225.82</ele>
        <time>2014-05-30T07:33:42Z</time>
      </trkpt>
      <trkpt lat="46.53482" lon="6.10079">
        <ele>1228.7</ele>
        <time>2014-05-30T07:33:55Z</time>
      </trkpt>
      <trkpt lat="46.53441" lon="6.10089">
        <ele>1228.7</ele>
        <time>2014-05-30T07:34:08Z</time>
      </trkpt>
      <trkpt lat="46.53429" lon="6.10087">
        <ele>1228.7</ele>
        <time>2014-05-30T07:34:11Z</time>
      </trkpt>
      <trkpt lat="46.53394" lon="6.10066">
        <ele>1227.26</ele>
        <time>2014-05-30T07:34:20Z</time>
      </trkpt>
      <trkpt lat="46.5339" lon="6.10061">
        <ele>1226.78</ele>
        <time>2014-05-30T07:34:21Z</time>
      </trkpt>
      <trkpt lat="46.53368" lon="6.10017">
        <ele>1226.78</ele>
        <time>2014-05-30T07:34:29Z</time>
      </trkpt>
      <trkpt lat="46.53366" lon="6.10012">
        <ele>1226.78</ele>
        <time>2014-05-30T07:34:30Z</time>
      </trkpt>
      <trkpt lat="46.53344" lon="6.09958">
        <ele>1225.82</ele>
        <time>2014-05-30T07:34:40Z</time>
      </trkpt>
      <trkpt lat="46.53341" lon="6.09952">
        <ele>1225.82</ele>
        <time>2014-05-30T07:34:41Z</time>
      </trkpt>
      <trkpt lat="46.53339" lon="6.09946">
        <ele>1226.3</ele>
        <time>2014-05-30T07:34:42Z</time>
      </trkpt>
      <trkpt lat="46.53336" lon="6.0994">
        <ele>1226.3</ele>
        <time>2014-05-30T07:34:43Z</time>
      </trkpt>
      <trkpt lat="46.53333" lon="6.09935">
        <ele>1226.3</ele>
        <time>2014-05-30T07:34:44Z</time>
      </trkpt>
      <trkpt lat="46.53311" lon="6.09887">
        <ele>1228.7</ele>
        <time>2014-05-30T07:34:56Z</time>
      </trkpt>
      <trkpt lat="46.53286" lon="6.09839">
        <ele>1230.14</ele>
        <time>2014-05-30T07:35:10Z</time>
      </trkpt>
      <trkpt lat="46.53265" lon="6.09797">
        <ele>1231.59</ele>
        <time>2014-05-30T07:35:22Z</time>
      </trkpt>
      <trkpt lat="46.53255" lon="6.09775">
        <ele>1232.07</ele>
        <time>2014-05-30T07:35:28Z</time>
      </trkpt>
      <trkpt lat="46.53254" lon="6.09771">
        <ele>1232.07</ele>
        <time>2014-05-30T07:35:29Z</time>
      </trkpt>
      <trkpt lat="46.53229" lon="6.09734">
        <ele>1233.99</ele>
        <time>2014-05-30T07:35:41Z</time>
      </trkpt>
      <trkpt lat="46.53225" lon="6.09729">
        <ele>1233.99</ele>
        <time>2014-05-30T07:35:43Z</time>
      </trkpt>
      <trkpt lat="46.532" lon="6.0969">
        <ele>1234.95</ele>
        <time>2014-05-30T07:35:55Z</time>
      </trkpt>
      <trkpt lat="46.53176" lon="6.09652">
        <ele>1237.83</ele>
        <time>2014-05-30T07:36:07Z</time>
      </trkpt>
      <trkpt lat="46.53145" lon="6.09612">
        <ele>1237.83</ele>
        <time>2014-05-30T07:36:19Z</time>
      </trkpt>
      <trkpt lat="46.53115" lon="6.09566">
        <ele>1240.24</ele>
        <time>2014-05-30T07:36:33Z</time>
      </trkpt>
      <trkpt lat="46.53098" lon="6.0954">
        <ele>1241.68</ele>
        <time>2014-05-30T07:36:41Z</time>
      </trkpt>
      <trkpt lat="46.53069" lon="6.09507">
        <ele>1243.12</ele>
        <time>2014-05-30T07:36:53Z</time>
      </trkpt>
      <trkpt lat="46.53039" lon="6.09481">
        <ele>1245.53</ele>
        <time>2014-05-30T07:37:04Z</time>
      </trkpt>
      <trkpt lat="46.53016" lon="6.09459">
        <ele>1248.89</ele>
        <time>2014-05-30T07:37:14Z</time>
      </trkpt>
      <trkpt lat="46.52987" lon="6.09436">
        <ele>1250.81</ele>
        <time>2014-05-30T07:37:26Z</time>
      </trkpt>
      <trkpt lat="46.52983" lon="6.09432">
        <ele>1251.77</ele>
        <time>2014-05-30T07:37:28Z</time>
      </trkpt>
      <trkpt lat="46.52982" lon="6.0943">
        <ele>1252.25</ele>
        <time>2014-05-30T07:37:29Z</time>
      </trkpt>
      <trkpt lat="46.52953" lon="6.09397">
        <ele>1253.7</ele>
        <time>2014-05-30T07:37:41Z</time>
      </trkpt>
      <trkpt lat="46.52928" lon="6.09375">
        <ele>1256.58</ele>
        <time>2014-05-30T07:37:51Z</time>
      </trkpt>
      <trkpt lat="46.5291" lon="6.09365">
        <ele>1257.54</ele>
        <time>2014-05-30T07:37:57Z</time>
      </trkpt>
      <trkpt lat="46.52908" lon="6.09364">
        <ele>1258.5</ele>
        <time>2014-05-30T07:37:58Z</time>
      </trkpt>
      <trkpt lat="46.52904" lon="6.09364">
        <ele>1258.98</ele>
        <time>2014-05-30T07:38:00Z</time>
      </trkpt>
      <trkpt lat="46.52903" lon="6.09367">
        <ele>1258.98</ele>
        <time>2014-05-30T07:38:01Z</time>
      </trkpt>
      <trkpt lat="46.52903" lon="6.09368">
        <ele>1258.98</ele>
        <time>2014-05-30T07:38:02Z</time>
      </trkpt>
      <trkpt lat="46.52901" lon="6.0937">
        <ele>1259.46</ele>
        <time>2014-05-30T07:38:04Z</time>
      </trkpt>
      <trkpt lat="46.52898" lon="6.09369">
        <ele>1259.94</ele>
        <time>2014-05-30T07:38:06Z</time>
      </trkpt>
      <trkpt lat="46.52896" lon="6.09368">
        <ele>1259.94</ele>
        <time>2014-05-30T07:38:15Z</time>
      </trkpt>
      <trkpt lat="46.52896" lon="6.09368">
        <ele>1260.43</ele>
        <time>2014-05-30T07:38:55Z</time>
      </trkpt>
      <trkpt lat="46.52895" lon="6.09362">
        <ele>1259.94</ele>
        <time>2014-05-30T07:39:23Z</time>
      </trkpt>
      <trkpt lat="46.52885" lon="6.09328">
        <ele>1258.98</ele>
        <time>2014-05-30T07:39:28Z</time>
      </trkpt>
      <trkpt lat="46.52868" lon="6.0928">
        <ele>1256.58</ele>
        <time>2014-05-30T07:39:33Z</time>
      </trkpt>
      <trkpt lat="46.52851" lon="6.09234">
        <ele>1254.18</ele>
        <time>2014-05-30T07:39:37Z</time>
      </trkpt>
      <trkpt lat="46.52846" lon="6.09222">
        <ele>1253.22</ele>
        <time>2014-05-30T07:39:38Z</time>
      </trkpt>
      <trkpt lat="46.52785" lon="6.09124">
        <ele>1251.77</ele>
        <time>2014-05-30T07:39:49Z</time>
      </trkpt>
      <trkpt lat="46.52768" lon="6.09099">
        <ele>1251.29</ele>
        <time>2014-05-30T07:39:53Z</time>
      </trkpt>
      <trkpt lat="46.52763" lon="6.09094">
        <ele>1251.29</ele>
        <time>2014-05-30T07:39:54Z</time>
      </trkpt>
      <trkpt lat="46.52751" lon="6.09086">
        <ele>1250.81</ele>
        <time>2014-05-30T07:39:56Z</time>
      </trkpt>
      <trkpt lat="46.52745" lon="6.09083">
        <ele>1250.81</ele>
        <time>2014-05-30T07:39:57Z</time>
      </trkpt>
      <trkpt lat="46.52738" lon="6.09078">
        <ele>1250.33</ele>
        <time>2014-05-30T07:39:58Z</time>
      </trkpt>
      <trkpt lat="46.52731" lon="6.09072">
        <ele>1249.85</ele>
        <time>2014-05-30T07:39:59Z</time>
      </trkpt>
      <trkpt lat="46.52725" lon="6.09064">
        <ele>1249.37</ele>
        <time>2014-05-30T07:40:00Z</time>
      </trkpt>
      <trkpt lat="46.52698" lon="6.0903">
        <ele>1246.49</ele>
        <time>2014-05-30T07:40:04Z</time>
      </trkpt>
      <trkpt lat="46.52677" lon="6.09">
        <ele>1243.12</ele>
        <time>2014-05-30T07:40:07Z</time>
      </trkpt>
      <trkpt lat="46.52645" lon="6.08957">
        <ele>1240.24</ele>
        <time>2014-05-30T07:40:11Z</time>
      </trkpt>
      <trkpt lat="46.52631" lon="6.08936">
        <ele>1238.8</ele>
        <time>2014-05-30T07:40:13Z</time>
      </trkpt>
      <trkpt lat="46.52623" lon="6.08929">
        <ele>1238.32</ele>
        <time>2014-05-30T07:40:14Z</time>
      </trkpt>
      <trkpt lat="46.52615" lon="6.08925">
        <ele>1238.32</ele>
        <time>2014-05-30T07:40:15Z</time>
      </trkpt>
      <trkpt lat="46.52607" lon="6.08922">
        <ele>1238.32</ele>
        <time>2014-05-30T07:40:16Z</time>
      </trkpt>
      <trkpt lat="46.52599" lon="6.0892">
        <ele>1238.8</ele>
        <time>2014-05-30T07:40:17Z</time>
      </trkpt>
      <trkpt lat="46.52593" lon="6.08916">
        <ele>1239.28</ele>
        <time>2014-05-30T07:40:18Z</time>
      </trkpt>
      <trkpt lat="46.52587" lon="6.08912">
        <ele>1239.28</ele>
        <time>2014-05-30T07:40:19Z</time>
      </trkpt>
      <trkpt lat="46.52582" lon="6.08906">
        <ele>1239.76</ele>
        <time>2014-05-30T07:40:20Z</time>
      </trkpt>
      <trkpt lat="46.52577" lon="6.08899">
        <ele>1240.24</ele>
        <time>2014-05-30T07:40:21Z</time>
      </trkpt>
      <trkpt lat="46.52572" lon="6.08893">
        <ele>1240.24</ele>
        <time>2014-05-30T07:40:22Z</time>
      </trkpt>
      <trkpt lat="46.52547" lon="6.08855">
        <ele>1240.24</ele>
        <time>2014-05-30T07:40:28Z</time>
      </trkpt>
      <trkpt lat="46.52534" lon="6.08839">
        <ele>1240.24</ele>
        <time>2014-05-30T07:40:31Z</time>
      </trkpt>
      <trkpt lat="46.52531" lon="6.08834">
        <ele>1239.76</ele>
        <time>2014-05-30T07:40:32Z</time>
      </trkpt>
      <trkpt lat="46.52511" lon="6.08806">
        <ele>1239.28</ele>
        <time>2014-05-30T07:40:40Z</time>
      </trkpt>
      <trkpt lat="46.52484" lon="6.08773">
        <ele>1240.72</ele>
        <time>2014-05-30T07:40:51Z</time>
      </trkpt>
      <trkpt lat="46.52461" lon="6.08736">
        <ele>1243.6</ele>
        <time>2014-05-30T07:41:04Z</time>
      </trkpt>
      <trkpt lat="46.52444" lon="6.08693">
        <ele>1246.49</ele>
        <time>2014-05-30T07:41:17Z</time>
      </trkpt>
      <trkpt lat="46.52443" lon="6.08691">
        <ele>1246.49</ele>
        <time>2014-05-30T07:41:18Z</time>
      </trkpt>
      <trkpt lat="46.52442" lon="6.08688">
        <ele>1246.49</ele>
        <time>2014-05-30T07:41:19Z</time>
      </trkpt>
      <trkpt lat="46.52432" lon="6.08653">
        <ele>1247.45</ele>
        <time>2014-05-30T07:41:29Z</time>
      </trkpt>
      <trkpt lat="46.5241" lon="6.08615">
        <ele>1249.37</ele>
        <time>2014-05-30T07:41:41Z</time>
      </trkpt>
      <trkpt lat="46.5237" lon="6.08568">
        <ele>1248.89</ele>
        <time>2014-05-30T07:41:55Z</time>
      </trkpt>
      <trkpt lat="46.52347" lon="6.08543">
        <ele>1247.93</ele>
        <time>2014-05-30T07:42:01Z</time>
      </trkpt>
      <trkpt lat="46.52339" lon="6.08534">
        <ele>1247.45</ele>
        <time>2014-05-30T07:42:03Z</time>
      </trkpt>
      <trkpt lat="46.52336" lon="6.08529">
        <ele>1247.45</ele>
        <time>2014-05-30T07:42:04Z</time>
      </trkpt>
      <trkpt lat="46.52314" lon="6.08503">
        <ele>1247.45</ele>
        <time>2014-05-30T07:42:10Z</time>
      </trkpt>
      <trkpt lat="46.52312" lon="6.08498">
        <ele>1246.97</ele>
        <time>2014-05-30T07:42:11Z</time>
      </trkpt>
      <trkpt lat="46.52309" lon="6.08494">
        <ele>1246.97</ele>
        <time>2014-05-30T07:42:12Z</time>
      </trkpt>
      <trkpt lat="46.52303" lon="6.08484">
        <ele>1246.49</ele>
        <time>2014-05-30T07:42:14Z</time>
      </trkpt>
      <trkpt lat="46.52292" lon="6.08463">
        <ele>1246.97</ele>
        <time>2014-05-30T07:42:18Z</time>
      </trkpt>
      <trkpt lat="46.52258" lon="6.0842">
        <ele>1247.93</ele>
        <time>2014-05-30T07:42:29Z</time>
      </trkpt>
      <trkpt lat="46.52256" lon="6.08417">
        <ele>1248.41</ele>
        <time>2014-05-30T07:42:30Z</time>
      </trkpt>
      <trkpt lat="46.52252" lon="6.08413">
        <ele>1247.93</ele>
        <time>2014-05-30T07:42:31Z</time>
      </trkpt>
      <trkpt lat="46.52248" lon="6.0841">
        <ele>1247.93</ele>
        <time>2014-05-30T07:42:32Z</time>
      </trkpt>
      <trkpt lat="46.52238" lon="6.08395">
        <ele>1247.45</ele>
        <time>2014-05-30T07:42:35Z</time>
      </trkpt>
      <trkpt lat="46.52212" lon="6.08357">
        <ele>1246.01</ele>
        <time>2014-05-30T07:42:42Z</time>
      </trkpt>
      <trkpt lat="46.52208" lon="6.08352">
        <ele>1245.53</ele>
        <time>2014-05-30T07:42:43Z</time>
      </trkpt>
      <trkpt lat="46.52158" lon="6.08313">
        <ele>1243.6</ele>
        <time>2014-05-30T07:42:52Z</time>
      </trkpt>
      <trkpt lat="46.52153" lon="6.08309">
        <ele>1243.12</ele>
        <time>2014-05-30T07:42:53Z</time>
      </trkpt>
      <trkpt lat="46.52149" lon="6.08303">
        <ele>1243.12</ele>
        <time>2014-05-30T07:42:54Z</time>
      </trkpt>
      <trkpt lat="46.52145" lon="6.08296">
        <ele>1243.12</ele>
        <time>2014-05-30T07:42:55Z</time>
      </trkpt>
      <trkpt lat="46.52143" lon="6.08289">
        <ele>1243.6</ele>
        <time>2014-05-30T07:42:56Z</time>
      </trkpt>
      <trkpt lat="46.5214" lon="6.08282">
        <ele>1243.12</ele>
        <time>2014-05-30T07:42:57Z</time>
      </trkpt>
      <trkpt lat="46.52139" lon="6.08274">
        <ele>1242.64</ele>
        <time>2014-05-30T07:42:58Z</time>
      </trkpt>
      <trkpt lat="46.52136" lon="6.08266">
        <ele>1241.68</ele>
        <time>2014-05-30T07:42:59Z</time>
      </trkpt>
      <trkpt lat="46.52133" lon="6.08258">
        <ele>1242.16</ele>
        <time>2014-05-30T07:43:00Z</time>
      </trkpt>
      <trkpt lat="46.52129" lon="6.08251">
        <ele>1241.68</ele>
        <time>2014-05-30T07:43:01Z</time>
      </trkpt>
      <trkpt lat="46.52123" lon="6.08244">
        <ele>1240.72</ele>
        <time>2014-05-30T07:43:02Z</time>
      </trkpt>
      <trkpt lat="46.52117" lon="6.08239">
        <ele>1240.24</ele>
        <time>2014-05-30T07:43:03Z</time>
      </trkpt>
      <trkpt lat="46.52111" lon="6.08235">
        <ele>1239.28</ele>
        <time>2014-05-30T07:43:04Z</time>
      </trkpt>
      <trkpt lat="46.52105" lon="6.0823">
        <ele>1239.28</ele>
        <time>2014-05-30T07:43:05Z</time>
      </trkpt>
      <trkpt lat="46.5207" lon="6.08206">
        <ele>1236.39</ele>
        <time>2014-05-30T07:43:10Z</time>
      </trkpt>
      <trkpt lat="46.52064" lon="6.08198">
        <ele>1236.39</ele>
        <time>2014-05-30T07:43:11Z</time>
      </trkpt>
      <trkpt lat="46.52059" lon="6.08188">
        <ele>1235.91</ele>
        <time>2014-05-30T07:43:12Z</time>
      </trkpt>
      <trkpt lat="46.52054" lon="6.08179">
        <ele>1234.95</ele>
        <time>2014-05-30T07:43:13Z</time>
      </trkpt>
      <trkpt lat="46.5205" lon="6.08169">
        <ele>1234.95</ele>
        <time>2014-05-30T07:43:14Z</time>
      </trkpt>
      <trkpt lat="46.52037" lon="6.08137">
        <ele>1236.39</ele>
        <time>2014-05-30T07:43:18Z</time>
      </trkpt>
      <trkpt lat="46.52023" lon="6.08089">
        <ele>1235.91</ele>
        <time>2014-05-30T07:43:24Z</time>
      </trkpt>
      <trkpt lat="46.52021" lon="6.08082">
        <ele>1235.91</ele>
        <time>2014-05-30T07:43:25Z</time>
      </trkpt>
      <trkpt lat="46.52014" lon="6.08069">
        <ele>1235.91</ele>
        <time>2014-05-30T07:43:27Z</time>
      </trkpt>
      <trkpt lat="46.52005" lon="6.08055">
        <ele>1236.39</ele>
        <time>2014-05-30T07:43:30Z</time>
      </trkpt>
      <trkpt lat="46.51992" lon="6.08039">
        <ele>1236.39</ele>
        <time>2014-05-30T07:43:34Z</time>
      </trkpt>
      <trkpt lat="46.51976" lon="6.08019">
        <ele>1236.39</ele>
        <time>2014-05-30T07:43:39Z</time>
      </trkpt>
      <trkpt lat="46.51973" lon="6.08015">
        <ele>1236.87</ele>
        <time>2014-05-30T07:43:40Z</time>
      </trkpt>
      <trkpt lat="46.51945" lon="6.07978">
        <ele>1235.91</ele>
        <time>2014-05-30T07:43:48Z</time>
      </trkpt>
      <trkpt lat="46.51937" lon="6.07963">
        <ele>1235.91</ele>
        <time>2014-05-30T07:43:51Z</time>
      </trkpt>
      <trkpt lat="46.51934" lon="6.07958">
        <ele>1235.91</ele>
        <time>2014-05-30T07:43:52Z</time>
      </trkpt>
      <trkpt lat="46.51926" lon="6.07944">
        <ele>1235.91</ele>
        <time>2014-05-30T07:43:55Z</time>
      </trkpt>
      <trkpt lat="46.51899" lon="6.07896">
        <ele>1237.83</ele>
        <time>2014-05-30T07:44:07Z</time>
      </trkpt>
      <trkpt lat="46.51885" lon="6.07853">
        <ele>1240.72</ele>
        <time>2014-05-30T07:44:20Z</time>
      </trkpt>
      <trkpt lat="46.51872" lon="6.07814">
        <ele>1242.64</ele>
        <time>2014-05-30T07:44:32Z</time>
      </trkpt>
      <trkpt lat="46.5184" lon="6.07814">
        <ele>1244.08</ele>
        <time>2014-05-30T07:44:43Z</time>
      </trkpt>
      <trkpt lat="46.51829" lon="6.0783">
        <ele>1245.04</ele>
        <time>2014-05-30T07:44:49Z</time>
      </trkpt>
      <trkpt lat="46.51815" lon="6.07874">
        <ele>1246.97</ele>
        <time>2014-05-30T07:45:01Z</time>
      </trkpt>
      <trkpt lat="46.51812" lon="6.07876">
        <ele>1246.97</ele>
        <time>2014-05-30T07:45:02Z</time>
      </trkpt>
      <trkpt lat="46.51809" lon="6.07879">
        <ele>1246.97</ele>
        <time>2014-05-30T07:45:03Z</time>
      </trkpt>
      <trkpt lat="46.51778" lon="6.07889">
        <ele>1248.89</ele>
        <time>2014-05-30T07:45:16Z</time>
      </trkpt>
      <trkpt lat="46.5175" lon="6.07874">
        <ele>1250.33</ele>
        <time>2014-05-30T07:45:28Z</time>
      </trkpt>
      <trkpt lat="46.51727" lon="6.07862">
        <ele>1251.77</ele>
        <time>2014-05-30T07:45:38Z</time>
      </trkpt>
      <trkpt lat="46.51703" lon="6.07848">
        <ele>1254.66</ele>
        <time>2014-05-30T07:45:50Z</time>
      </trkpt>
      <trkpt lat="46.51699" lon="6.07846">
        <ele>1255.14</ele>
        <time>2014-05-30T07:45:52Z</time>
      </trkpt>
      <trkpt lat="46.51692" lon="6.07838">
        <ele>1256.1</ele>
        <time>2014-05-30T07:45:56Z</time>
      </trkpt>
      <trkpt lat="46.5169" lon="6.07836">
        <ele>1256.58</ele>
        <time>2014-05-30T07:45:57Z</time>
      </trkpt>
      <trkpt lat="46.51664" lon="6.07817">
        <ele>1259.94</ele>
        <time>2014-05-30T07:46:11Z</time>
      </trkpt>
      <trkpt lat="46.51644" lon="6.07808">
        <ele>1260.91</ele>
        <time>2014-05-30T07:46:22Z</time>
      </trkpt>
      <trkpt lat="46.51627" lon="6.07806">
        <ele>1262.83</ele>
        <time>2014-05-30T07:46:29Z</time>
      </trkpt>
      <trkpt lat="46.51625" lon="6.07806">
        <ele>1263.31</ele>
        <time>2014-05-30T07:46:30Z</time>
      </trkpt>
      <trkpt lat="46.51623" lon="6.07806">
        <ele>1263.31</ele>
        <time>2014-05-30T07:46:31Z</time>
      </trkpt>
      <trkpt lat="46.51621" lon="6.07807">
        <ele>1263.79</ele>
        <time>2014-05-30T07:46:32Z</time>
      </trkpt>
      <trkpt lat="46.51619" lon="6.07808">
        <ele>1263.79</ele>
        <time>2014-05-30T07:46:33Z</time>
      </trkpt>
      <trkpt lat="46.51617" lon="6.0781">
        <ele>1264.27</ele>
        <time>2014-05-30T07:46:34Z</time>
      </trkpt>
      <trkpt lat="46.51616" lon="6.07812">
        <ele>1264.27</ele>
        <time>2014-05-30T07:46:35Z</time>
      </trkpt>
      <trkpt lat="46.51615" lon="6.07813">
        <ele>1264.27</ele>
        <time>2014-05-30T07:46:36Z</time>
      </trkpt>
      <trkpt lat="46.51613" lon="6.07815">
        <ele>1264.27</ele>
        <time>2014-05-30T07:46:37Z</time>
      </trkpt>
      <trkpt lat="46.51612" lon="6.07818">
        <ele>1264.75</ele>
        <time>2014-05-30T07:46:38Z</time>
      </trkpt>
      <trkpt lat="46.51612" lon="6.07821">
        <ele>1265.23</ele>
        <time>2014-05-30T07:46:39Z</time>
      </trkpt>
      <trkpt lat="46.51611" lon="6.07824">
        <ele>1265.23</ele>
        <time>2014-05-30T07:46:40Z</time>
      </trkpt>
      <trkpt lat="46.51611" lon="6.07827">
        <ele>1265.23</ele>
        <time>2014-05-30T07:46:41Z</time>
      </trkpt>
      <trkpt lat="46.51611" lon="6.07829">
        <ele>1265.71</ele>
        <time>2014-05-30T07:46:42Z</time>
      </trkpt>
      <trkpt lat="46.51612" lon="6.07832">
        <ele>1266.19</ele>
        <time>2014-05-30T07:46:43Z</time>
      </trkpt>
      <trkpt lat="46.51612" lon="6.07879">
        <ele>1268.6</ele>
        <time>2014-05-30T07:46:58Z</time>
      </trkpt>
      <trkpt lat="46.516" lon="6.07916">
        <ele>1270.04</ele>
        <time>2014-05-30T07:47:10Z</time>
      </trkpt>
      <trkpt lat="46.51588" lon="6.07956">
        <ele>1270.52</ele>
        <time>2014-05-30T07:47:21Z</time>
      </trkpt>
      <trkpt lat="46.51565" lon="6.07986">
        <ele>1271</ele>
        <time>2014-05-30T07:47:32Z</time>
      </trkpt>
      <trkpt lat="46.51534" lon="6.0798">
        <ele>1271.48</ele>
        <time>2014-05-30T07:47:42Z</time>
      </trkpt>
      <trkpt lat="46.5153" lon="6.07977">
        <ele>1271</ele>
        <time>2014-05-30T07:47:43Z</time>
      </trkpt>
      <trkpt lat="46.51501" lon="6.07945">
        <ele>1269.56</ele>
        <time>2014-05-30T07:47:50Z</time>
      </trkpt>
      <trkpt lat="46.51496" lon="6.07942">
        <ele>1270.04</ele>
        <time>2014-05-30T07:47:51Z</time>
      </trkpt>
      <trkpt lat="46.51493" lon="6.07939">
        <ele>1270.04</ele>
        <time>2014-05-30T07:47:52Z</time>
      </trkpt>
      <trkpt lat="46.5149" lon="6.07936">
        <ele>1270.04</ele>
        <time>2014-05-30T07:47:53Z</time>
      </trkpt>
      <trkpt lat="46.51487" lon="6.07933">
        <ele>1270.04</ele>
        <time>2014-05-30T07:47:54Z</time>
      </trkpt>
      <trkpt lat="46.51453" lon="6.07891">
        <ele>1272.44</ele>
        <time>2014-05-30T07:48:07Z</time>
      </trkpt>
      <trkpt lat="46.51419" lon="6.07864">
        <ele>1272.44</ele>
        <time>2014-05-30T07:48:18Z</time>
      </trkpt>
      <trkpt lat="46.51385" lon="6.07815">
        <ele>1273.88</ele>
        <time>2014-05-30T07:48:31Z</time>
      </trkpt>
      <trkpt lat="46.51366" lon="6.0776">
        <ele>1275.33</ele>
        <time>2014-05-30T07:48:43Z</time>
      </trkpt>
      <trkpt lat="46.51358" lon="6.07746">
        <ele>1274.85</ele>
        <time>2014-05-30T07:48:46Z</time>
      </trkpt>
      <trkpt lat="46.51327" lon="6.077">
        <ele>1274.85</ele>
        <time>2014-05-30T07:48:57Z</time>
      </trkpt>
      <trkpt lat="46.51318" lon="6.07679">
        <ele>1274.36</ele>
        <time>2014-05-30T07:49:01Z</time>
      </trkpt>
      <trkpt lat="46.51316" lon="6.07674">
        <ele>1274.85</ele>
        <time>2014-05-30T07:49:02Z</time>
      </trkpt>
      <trkpt lat="46.513" lon="6.07634">
        <ele>1275.33</ele>
        <time>2014-05-30T07:49:10Z</time>
      </trkpt>
      <trkpt lat="46.51297" lon="6.0763">
        <ele>1275.33</ele>
        <time>2014-05-30T07:49:11Z</time>
      </trkpt>
      <trkpt lat="46.51293" lon="6.07626">
        <ele>1275.33</ele>
        <time>2014-05-30T07:49:12Z</time>
      </trkpt>
      <trkpt lat="46.5129" lon="6.07623">
        <ele>1274.85</ele>
        <time>2014-05-30T07:49:13Z</time>
      </trkpt>
      <trkpt lat="46.51286" lon="6.07622">
        <ele>1274.85</ele>
        <time>2014-05-30T07:49:14Z</time>
      </trkpt>
      <trkpt lat="46.51281" lon="6.07621">
        <ele>1274.85</ele>
        <time>2014-05-30T07:49:15Z</time>
      </trkpt>
      <trkpt lat="46.51276" lon="6.07621">
        <ele>1274.85</ele>
        <time>2014-05-30T07:49:16Z</time>
      </trkpt>
      <trkpt lat="46.51271" lon="6.07621">
        <ele>1274.36</ele>
        <time>2014-05-30T07:49:17Z</time>
      </trkpt>
      <trkpt lat="46.5126" lon="6.07622">
        <ele>1273.88</ele>
        <time>2014-05-30T07:49:19Z</time>
      </trkpt>
      <trkpt lat="46.51255" lon="6.07621">
        <ele>1273.4</ele>
        <time>2014-05-30T07:49:20Z</time>
      </trkpt>
      <trkpt lat="46.51239" lon="6.07616">
        <ele>1273.4</ele>
        <time>2014-05-30T07:49:23Z</time>
      </trkpt>
      <trkpt lat="46.51227" lon="6.07606">
        <ele>1273.88</ele>
        <time>2014-05-30T07:49:26Z</time>
      </trkpt>
      <trkpt lat="46.51223" lon="6.07601">
        <ele>1274.36</ele>
        <time>2014-05-30T07:49:27Z</time>
      </trkpt>
      <trkpt lat="46.5122" lon="6.07596">
        <ele>1274.85</ele>
        <time>2014-05-30T07:49:28Z</time>
      </trkpt>
      <trkpt lat="46.51212" lon="6.07575">
        <ele>1274.36</ele>
        <time>2014-05-30T07:49:32Z</time>
      </trkpt>
      <trkpt lat="46.5121" lon="6.07563">
        <ele>1274.85</ele>
        <time>2014-05-30T07:49:34Z</time>
      </trkpt>
      <trkpt lat="46.51209" lon="6.07557">
        <ele>1274.36</ele>
        <time>2014-05-30T07:49:35Z</time>
      </trkpt>
      <trkpt lat="46.51208" lon="6.07552">
        <ele>1274.36</ele>
        <time>2014-05-30T07:49:36Z</time>
      </trkpt>
      <trkpt lat="46.51188" lon="6.07501">
        <ele>1277.25</ele>
        <time>2014-05-30T07:49:47Z</time>
      </trkpt>
      <trkpt lat="46.51186" lon="6.07497">
        <ele>1277.73</ele>
        <time>2014-05-30T07:49:48Z</time>
      </trkpt>
      <trkpt lat="46.51185" lon="6.07494">
        <ele>1277.73</ele>
        <time>2014-05-30T07:49:49Z</time>
      </trkpt>
      <trkpt lat="46.51177" lon="6.07483">
        <ele>1279.17</ele>
        <time>2014-05-30T07:49:52Z</time>
      </trkpt>
      <trkpt lat="46.51155" lon="6.07448">
        <ele>1279.17</ele>
        <time>2014-05-30T07:50:00Z</time>
      </trkpt>
      <trkpt lat="46.51153" lon="6.07444">
        <ele>1279.17</ele>
        <time>2014-05-30T07:50:01Z</time>
      </trkpt>
      <trkpt lat="46.5115" lon="6.0744">
        <ele>1278.69</ele>
        <time>2014-05-30T07:50:02Z</time>
      </trkpt>
      <trkpt lat="46.51138" lon="6.07424">
        <ele>1278.21</ele>
        <time>2014-05-30T07:50:06Z</time>
      </trkpt>
      <trkpt lat="46.51135" lon="6.07419">
        <ele>1278.21</ele>
        <time>2014-05-30T07:50:07Z</time>
      </trkpt>
      <trkpt lat="46.51132" lon="6.07415">
        <ele>1277.73</ele>
        <time>2014-05-30T07:50:08Z</time>
      </trkpt>
      <trkpt lat="46.51124" lon="6.07406">
        <ele>1277.25</ele>
        <time>2014-05-30T07:50:10Z</time>
      </trkpt>
      <trkpt lat="46.5112" lon="6.07401">
        <ele>1276.77</ele>
        <time>2014-05-30T07:50:11Z</time>
      </trkpt>
      <trkpt lat="46.51116" lon="6.07396">
        <ele>1275.81</ele>
        <time>2014-05-30T07:50:12Z</time>
      </trkpt>
      <trkpt lat="46.511" lon="6.07376">
        <ele>1273.4</ele>
        <time>2014-05-30T07:50:15Z</time>
      </trkpt>
      <trkpt lat="46.51092" lon="6.07366">
        <ele>1271.96</ele>
        <time>2014-05-30T07:50:16Z</time>
      </trkpt>
      <trkpt lat="46.51068" lon="6.07331">
        <ele>1269.08</ele>
        <time>2014-05-30T07:50:19Z</time>
      </trkpt>
      <trkpt lat="46.51052" lon="6.07308">
        <ele>1268.12</ele>
        <time>2014-05-30T07:50:21Z</time>
      </trkpt>
      <trkpt lat="46.51031" lon="6.0727">
        <ele>1265.23</ele>
        <time>2014-05-30T07:50:24Z</time>
      </trkpt>
      <trkpt lat="46.51003" lon="6.07218">
        <ele>1261.39</ele>
        <time>2014-05-30T07:50:28Z</time>
      </trkpt>
      <trkpt lat="46.50996" lon="6.07206">
        <ele>1260.91</ele>
        <time>2014-05-30T07:50:29Z</time>
      </trkpt>
      <trkpt lat="46.50968" lon="6.07149">
        <ele>1257.54</ele>
        <time>2014-05-30T07:50:34Z</time>
      </trkpt>
      <trkpt lat="46.50964" lon="6.07136">
        <ele>1257.06</ele>
        <time>2014-05-30T07:50:35Z</time>
      </trkpt>
      <trkpt lat="46.50958" lon="6.07108">
        <ele>1256.1</ele>
        <time>2014-05-30T07:50:37Z</time>
      </trkpt>
      <trkpt lat="46.5095" lon="6.07082">
        <ele>1254.66</ele>
        <time>2014-05-30T07:50:39Z</time>
      </trkpt>
      <trkpt lat="46.50941" lon="6.07062">
        <ele>1255.14</ele>
        <time>2014-05-30T07:50:41Z</time>
      </trkpt>
      <trkpt lat="46.50936" lon="6.07055">
        <ele>1255.14</ele>
        <time>2014-05-30T07:50:42Z</time>
      </trkpt>
      <trkpt lat="46.5093" lon="6.0705">
        <ele>1256.1</ele>
        <time>2014-05-30T07:50:43Z</time>
      </trkpt>
      <trkpt lat="46.50926" lon="6.07046">
        <ele>1256.58</ele>
        <time>2014-05-30T07:50:44Z</time>
      </trkpt>
      <trkpt lat="46.50921" lon="6.07043">
        <ele>1256.58</ele>
        <time>2014-05-30T07:50:45Z</time>
      </trkpt>
      <trkpt lat="46.50917" lon="6.0704">
        <ele>1256.58</ele>
        <time>2014-05-30T07:50:46Z</time>
      </trkpt>
      <trkpt lat="46.50893" lon="6.0703">
        <ele>1255.62</ele>
        <time>2014-05-30T07:50:51Z</time>
      </trkpt>
      <trkpt lat="46.5086" lon="6.06997">
        <ele>1253.22</ele>
        <time>2014-05-30T07:50:58Z</time>
      </trkpt>
      <trkpt lat="46.50842" lon="6.06979">
        <ele>1251.29</ele>
        <time>2014-05-30T07:51:02Z</time>
      </trkpt>
      <trkpt lat="46.50822" lon="6.06963">
        <ele>1251.77</ele>
        <time>2014-05-30T07:51:10Z</time>
      </trkpt>
      <trkpt lat="46.50819" lon="6.06962">
        <ele>1252.25</ele>
        <time>2014-05-30T07:51:21Z</time>
      </trkpt>
      <trkpt lat="46.50821" lon="6.06961">
        <ele>1251.77</ele>
        <time>2014-05-30T07:51:27Z</time>
      </trkpt>
      <trkpt lat="46.50825" lon="6.06953">
        <ele>1249.37</ele>
        <time>2014-05-30T07:51:31Z</time>
      </trkpt>
      <trkpt lat="46.50835" lon="6.06966">
        <ele>1249.85</ele>
        <time>2014-05-30T07:51:42Z</time>
      </trkpt>
      <trkpt lat="46.50835" lon="6.06968">
        <ele>1250.33</ele>
        <time>2014-05-30T07:51:44Z</time>
      </trkpt>
      <trkpt lat="46.50832" lon="6.06965">
        <ele>1249.85</ele>
        <time>2014-05-30T07:51:47Z</time>
      </trkpt>
      <trkpt lat="46.50812" lon="6.06936">
        <ele>1248.41</ele>
        <time>2014-05-30T07:51:57Z</time>
      </trkpt>
      <trkpt lat="46.50809" lon="6.06932">
        <ele>1248.41</ele>
        <time>2014-05-30T07:51:58Z</time>
      </trkpt>
      <trkpt lat="46.50805" lon="6.06926">
        <ele>1247.45</ele>
        <time>2014-05-30T07:51:59Z</time>
      </trkpt>
      <trkpt lat="46.50801" lon="6.06919">
        <ele>1247.45</ele>
        <time>2014-05-30T07:52:00Z</time>
      </trkpt>
      <trkpt lat="46.50797" lon="6.06912">
        <ele>1247.45</ele>
        <time>2014-05-30T07:52:01Z</time>
      </trkpt>
      <trkpt lat="46.50779" lon="6.06881">
        <ele>1246.01</ele>
        <time>2014-05-30T07:52:05Z</time>
      </trkpt>
      <trkpt lat="46.50774" lon="6.06873">
        <ele>1246.01</ele>
        <time>2014-05-30T07:52:06Z</time>
      </trkpt>
      <trkpt lat="46.50769" lon="6.06865">
        <ele>1245.53</ele>
        <time>2014-05-30T07:52:07Z</time>
      </trkpt>
      <trkpt lat="46.50765" lon="6.06855">
        <ele>1244.56</ele>
        <time>2014-05-30T07:52:08Z</time>
      </trkpt>
      <trkpt lat="46.50761" lon="6.06845">
        <ele>1244.56</ele>
        <time>2014-05-30T07:52:09Z</time>
      </trkpt>
      <trkpt lat="46.50753" lon="6.06826">
        <ele>1244.08</ele>
        <time>2014-05-30T07:52:11Z</time>
      </trkpt>
      <trkpt lat="46.50734" lon="6.06781">
        <ele>1243.12</ele>
        <time>2014-05-30T07:52:16Z</time>
      </trkpt>
      <trkpt lat="46.50716" lon="6.06726">
        <ele>1243.12</ele>
        <time>2014-05-30T07:52:23Z</time>
      </trkpt>
      <trkpt lat="46.50711" lon="6.06679">
        <ele>1242.64</ele>
        <time>2014-05-30T07:52:29Z</time>
      </trkpt>
      <trkpt lat="46.50709" lon="6.06672">
        <ele>1243.12</ele>
        <time>2014-05-30T07:52:30Z</time>
      </trkpt>
      <trkpt lat="46.50706" lon="6.06667">
        <ele>1243.6</ele>
        <time>2014-05-30T07:52:31Z</time>
      </trkpt>
      <trkpt lat="46.50703" lon="6.06661">
        <ele>1243.6</ele>
        <time>2014-05-30T07:52:32Z</time>
      </trkpt>
      <trkpt lat="46.50701" lon="6.06656">
        <ele>1243.6</ele>
        <time>2014-05-30T07:52:33Z</time>
      </trkpt>
      <trkpt lat="46.50698" lon="6.06651">
        <ele>1243.6</ele>
        <time>2014-05-30T07:52:34Z</time>
      </trkpt>
      <trkpt lat="46.50695" lon="6.06645">
        <ele>1243.12</ele>
        <time>2014-05-30T07:52:35Z</time>
      </trkpt>
      <trkpt lat="46.50691" lon="6.0664">
        <ele>1243.12</ele>
        <time>2014-05-30T07:52:36Z</time>
      </trkpt>
      <trkpt lat="46.50688" lon="6.06635">
        <ele>1243.12</ele>
        <time>2014-05-30T07:52:37Z</time>
      </trkpt>
      <trkpt lat="46.50685" lon="6.0663">
        <ele>1243.12</ele>
        <time>2014-05-30T07:52:38Z</time>
      </trkpt>
      <trkpt lat="46.5068" lon="6.06626">
        <ele>1243.12</ele>
        <time>2014-05-30T07:52:39Z</time>
      </trkpt>
      <trkpt lat="46.50677" lon="6.06622">
        <ele>1243.12</ele>
        <time>2014-05-30T07:52:40Z</time>
      </trkpt>
      <trkpt lat="46.50673" lon="6.06618">
        <ele>1242.64</ele>
        <time>2014-05-30T07:52:41Z</time>
      </trkpt>
      <trkpt lat="46.50669" lon="6.06613">
        <ele>1242.64</ele>
        <time>2014-05-30T07:52:42Z</time>
      </trkpt>
      <trkpt lat="46.50665" lon="6.06608">
        <ele>1242.64</ele>
        <time>2014-05-30T07:52:43Z</time>
      </trkpt>
      <trkpt lat="46.50662" lon="6.06603">
        <ele>1242.64</ele>
        <time>2014-05-30T07:52:44Z</time>
      </trkpt>
      <trkpt lat="46.50655" lon="6.06592">
        <ele>1242.16</ele>
        <time>2014-05-30T07:52:46Z</time>
      </trkpt>
      <trkpt lat="46.50652" lon="6.06585">
        <ele>1242.16</ele>
        <time>2014-05-30T07:52:47Z</time>
      </trkpt>
      <trkpt lat="46.50648" lon="6.06571">
        <ele>1242.16</ele>
        <time>2014-05-30T07:52:49Z</time>
      </trkpt>
      <trkpt lat="46.50646" lon="6.06565">
        <ele>1242.64</ele>
        <time>2014-05-30T07:52:50Z</time>
      </trkpt>
      <trkpt lat="46.50644" lon="6.06558">
        <ele>1242.64</ele>
        <time>2014-05-30T07:52:51Z</time>
      </trkpt>
      <trkpt lat="46.50641" lon="6.06545">
        <ele>1242.64</ele>
        <time>2014-05-30T07:52:53Z</time>
      </trkpt>
      <trkpt lat="46.50639" lon="6.06539">
        <ele>1242.64</ele>
        <time>2014-05-30T07:52:54Z</time>
      </trkpt>
      <trkpt lat="46.50637" lon="6.06533">
        <ele>1242.64</ele>
        <time>2014-05-30T07:52:55Z</time>
      </trkpt>
      <trkpt lat="46.5063" lon="6.06513">
        <ele>1243.12</ele>
        <time>2014-05-30T07:52:58Z</time>
      </trkpt>
      <trkpt lat="46.50626" lon="6.06507">
        <ele>1242.64</ele>
        <time>2014-05-30T07:52:59Z</time>
      </trkpt>
      <trkpt lat="46.50622" lon="6.06502">
        <ele>1242.16</ele>
        <time>2014-05-30T07:53:00Z</time>
      </trkpt>
      <trkpt lat="46.50617" lon="6.06498">
        <ele>1242.16</ele>
        <time>2014-05-30T07:53:01Z</time>
      </trkpt>
      <trkpt lat="46.50613" lon="6.06494">
        <ele>1242.64</ele>
        <time>2014-05-30T07:53:02Z</time>
      </trkpt>
      <trkpt lat="46.50609" lon="6.06489">
        <ele>1242.64</ele>
        <time>2014-05-30T07:53:03Z</time>
      </trkpt>
      <trkpt lat="46.50607" lon="6.06485">
        <ele>1242.64</ele>
        <time>2014-05-30T07:53:04Z</time>
      </trkpt>
      <trkpt lat="46.50604" lon="6.0648">
        <ele>1242.16</ele>
        <time>2014-05-30T07:53:05Z</time>
      </trkpt>
      <trkpt lat="46.50601" lon="6.06474">
        <ele>1242.16</ele>
        <time>2014-05-30T07:53:06Z</time>
      </trkpt>
      <trkpt lat="46.50571" lon="6.06422">
        <ele>1242.64</ele>
        <time>2014-05-30T07:53:15Z</time>
      </trkpt>
      <trkpt lat="46.50568" lon="6.06417">
        <ele>1242.64</ele>
        <time>2014-05-30T07:53:16Z</time>
      </trkpt>
      <trkpt lat="46.50561" lon="6.06407">
        <ele>1242.64</ele>
        <time>2014-05-30T07:53:18Z</time>
      </trkpt>
      <trkpt lat="46.50558" lon="6.06402">
        <ele>1242.64</ele>
        <time>2014-05-30T07:53:19Z</time>
      </trkpt>
      <trkpt lat="46.50555" lon="6.06396">
        <ele>1243.12</ele>
        <time>2014-05-30T07:53:20Z</time>
      </trkpt>
      <trkpt lat="46.50551" lon="6.06391">
        <ele>1242.64</ele>
        <time>2014-05-30T07:53:21Z</time>
      </trkpt>
      <trkpt lat="46.50549" lon="6.06384">
        <ele>1242.16</ele>
        <time>2014-05-30T07:53:22Z</time>
      </trkpt>
      <trkpt lat="46.50546" lon="6.06378">
        <ele>1242.16</ele>
        <time>2014-05-30T07:53:23Z</time>
      </trkpt>
      <trkpt lat="46.50542" lon="6.06372">
        <ele>1241.68</ele>
        <time>2014-05-30T07:53:24Z</time>
      </trkpt>
      <trkpt lat="46.50538" lon="6.06367">
        <ele>1241.68</ele>
        <time>2014-05-30T07:53:25Z</time>
      </trkpt>
      <trkpt lat="46.50533" lon="6.06362">
        <ele>1241.2</ele>
        <time>2014-05-30T07:53:26Z</time>
      </trkpt>
      <trkpt lat="46.50528" lon="6.06359">
        <ele>1240.72</ele>
        <time>2014-05-30T07:53:27Z</time>
      </trkpt>
      <trkpt lat="46.50521" lon="6.06356">
        <ele>1240.24</ele>
        <time>2014-05-30T07:53:28Z</time>
      </trkpt>
      <trkpt lat="46.50514" lon="6.06354">
        <ele>1239.76</ele>
        <time>2014-05-30T07:53:29Z</time>
      </trkpt>
      <trkpt lat="46.50506" lon="6.06352">
        <ele>1239.76</ele>
        <time>2014-05-30T07:53:30Z</time>
      </trkpt>
      <trkpt lat="46.50498" lon="6.06351">
        <ele>1239.28</ele>
        <time>2014-05-30T07:53:31Z</time>
      </trkpt>
      <trkpt lat="46.50426" lon="6.06335">
        <ele>1238.32</ele>
        <time>2014-05-30T07:53:42Z</time>
      </trkpt>
      <trkpt lat="46.50421" lon="6.06332">
        <ele>1238.8</ele>
        <time>2014-05-30T07:53:43Z</time>
      </trkpt>
      <trkpt lat="46.50418" lon="6.06328">
        <ele>1238.32</ele>
        <time>2014-05-30T07:53:44Z</time>
      </trkpt>
      <trkpt lat="46.50415" lon="6.06322">
        <ele>1238.8</ele>
        <time>2014-05-30T07:53:45Z</time>
      </trkpt>
      <trkpt lat="46.50413" lon="6.06318">
        <ele>1238.8</ele>
        <time>2014-05-30T07:53:46Z</time>
      </trkpt>
      <trkpt lat="46.50412" lon="6.06316">
        <ele>1238.32</ele>
        <time>2014-05-30T07:53:49Z</time>
      </trkpt>
      <trkpt lat="46.50414" lon="6.06318">
        <ele>1238.32</ele>
        <time>2014-05-30T07:53:51Z</time>
      </trkpt>
      <trkpt lat="46.50416" lon="6.06319">
        <ele>1238.32</ele>
        <time>2014-05-30T07:53:52Z</time>
      </trkpt>
      <trkpt lat="46.50417" lon="6.06321">
        <ele>1237.83</ele>
        <time>2014-05-30T07:53:53Z</time>
      </trkpt>
      <trkpt lat="46.50418" lon="6.06323">
        <ele>1237.83</ele>
        <time>2014-05-30T07:53:54Z</time>
      </trkpt>
      <trkpt lat="46.50418" lon="6.06325">
        <ele>1238.32</ele>
        <time>2014-05-30T07:53:55Z</time>
      </trkpt>
      <trkpt lat="46.50417" lon="6.06329">
        <ele>1238.32</ele>
        <time>2014-05-30T07:53:56Z</time>
      </trkpt>
      <trkpt lat="46.50416" lon="6.06332">
        <ele>1238.32</ele>
        <time>2014-05-30T07:53:57Z</time>
      </trkpt>
      <trkpt lat="46.50414" lon="6.06336">
        <ele>1238.32</ele>
        <time>2014-05-30T07:53:58Z</time>
      </trkpt>
      <trkpt lat="46.50413" lon="6.06339">
        <ele>1238.8</ele>
        <time>2014-05-30T07:53:59Z</time>
      </trkpt>
      <trkpt lat="46.50412" lon="6.06343">
        <ele>1238.32</ele>
        <time>2014-05-30T07:54:00Z</time>
      </trkpt>
      <trkpt lat="46.5041" lon="6.06347">
        <ele>1237.83</ele>
        <time>2014-05-30T07:54:01Z</time>
      </trkpt>
      <trkpt lat="46.50409" lon="6.06349">
        <ele>1238.32</ele>
        <time>2014-05-30T07:54:02Z</time>
      </trkpt>
      <trkpt lat="46.50407" lon="6.06351">
        <ele>1237.83</ele>
        <time>2014-05-30T07:54:03Z</time>
      </trkpt>
      <trkpt lat="46.50405" lon="6.06351">
        <ele>1238.32</ele>
        <time>2014-05-30T07:54:06Z</time>
      </trkpt>
      <trkpt lat="46.50404" lon="6.06349">
        <ele>1238.32</ele>
        <time>2014-05-30T07:54:07Z</time>
      </trkpt>
      <trkpt lat="46.50404" lon="6.06347">
        <ele>1238.8</ele>
        <time>2014-05-30T07:54:08Z</time>
      </trkpt>
      <trkpt lat="46.50407" lon="6.06342">
        <ele>1238.8</ele>
        <time>2014-05-30T07:54:12Z</time>
      </trkpt>
      <trkpt lat="46.50408" lon="6.06341">
        <ele>1238.8</ele>
        <time>2014-05-30T07:54:25Z</time>
      </trkpt>
      <trkpt lat="46.50414" lon="6.06327">
        <ele>1239.28</ele>
        <time>2014-05-30T07:56:10Z</time>
      </trkpt>
      <trkpt lat="46.50415" lon="6.06324">
        <ele>1239.28</ele>
        <time>2014-05-30T07:56:11Z</time>
      </trkpt>
      <trkpt lat="46.50415" lon="6.0632">
        <ele>1239.28</ele>
        <time>2014-05-30T07:56:12Z</time>
      </trkpt>
      <trkpt lat="46.50414" lon="6.06312">
        <ele>1239.28</ele>
        <time>2014-05-30T07:56:14Z</time>
      </trkpt>
      <trkpt lat="46.50413" lon="6.06308">
        <ele>1239.28</ele>
        <time>2014-05-30T07:56:15Z</time>
      </trkpt>
      <trkpt lat="46.50412" lon="6.06304">
        <ele>1239.28</ele>
        <time>2014-05-30T07:56:16Z</time>
      </trkpt>
      <trkpt lat="46.50408" lon="6.06281">
        <ele>1239.76</ele>
        <time>2014-05-30T07:56:22Z</time>
      </trkpt>
      <trkpt lat="46.50408" lon="6.06279">
        <ele>1240.24</ele>
        <time>2014-05-30T07:56:23Z</time>
      </trkpt>
      <trkpt lat="46.50398" lon="6.06251">
        <ele>1241.2</ele>
        <time>2014-05-30T07:56:29Z</time>
      </trkpt>
      <trkpt lat="46.50395" lon="6.06247">
        <ele>1240.72</ele>
        <time>2014-05-30T07:56:30Z</time>
      </trkpt>
      <trkpt lat="46.50393" lon="6.06242">
        <ele>1241.68</ele>
        <time>2014-05-30T07:56:31Z</time>
      </trkpt>
      <trkpt lat="46.50392" lon="6.06239">
        <ele>1241.68</ele>
        <time>2014-05-30T07:56:32Z</time>
      </trkpt>
      <trkpt lat="46.5039" lon="6.06235">
        <ele>1242.16</ele>
        <time>2014-05-30T07:56:33Z</time>
      </trkpt>
      <trkpt lat="46.50371" lon="6.06209">
        <ele>1245.04</ele>
        <time>2014-05-30T07:56:44Z</time>
      </trkpt>
      <trkpt lat="46.50364" lon="6.06199">
        <ele>1246.01</ele>
        <time>2014-05-30T07:56:48Z</time>
      </trkpt>
      <trkpt lat="46.50362" lon="6.06197">
        <ele>1246.01</ele>
        <time>2014-05-30T07:56:49Z</time>
      </trkpt>
      <trkpt lat="46.50347" lon="6.06167">
        <ele>1248.89</ele>
        <time>2014-05-30T07:57:00Z</time>
      </trkpt>
      <trkpt lat="46.50331" lon="6.06129">
        <ele>1251.29</ele>
        <time>2014-05-30T07:57:13Z</time>
      </trkpt>
      <trkpt lat="46.50315" lon="6.0609">
        <ele>1251.77</ele>
        <time>2014-05-30T07:57:24Z</time>
      </trkpt>
      <trkpt lat="46.50293" lon="6.06036">
        <ele>1251.29</ele>
        <time>2014-05-30T07:57:37Z</time>
      </trkpt>
      <trkpt lat="46.50281" lon="6.05995">
        <ele>1251.29</ele>
        <time>2014-05-30T07:57:47Z</time>
      </trkpt>
      <trkpt lat="46.50274" lon="6.05974">
        <ele>1248.41</ele>
        <time>2014-05-30T07:57:51Z</time>
      </trkpt>
      <trkpt lat="46.5027" lon="6.05969">
        <ele>1247.45</ele>
        <time>2014-05-30T07:57:52Z</time>
      </trkpt>
      <trkpt lat="46.50264" lon="6.05966">
        <ele>1246.97</ele>
        <time>2014-05-30T07:57:53Z</time>
      </trkpt>
      <trkpt lat="46.50258" lon="6.05967">
        <ele>1246.97</ele>
        <time>2014-05-30T07:57:54Z</time>
      </trkpt>
      <trkpt lat="46.50252" lon="6.05966">
        <ele>1246.97</ele>
        <time>2014-05-30T07:57:55Z</time>
      </trkpt>
      <trkpt lat="46.50247" lon="6.05965">
        <ele>1246.49</ele>
        <time>2014-05-30T07:57:56Z</time>
      </trkpt>
      <trkpt lat="46.50242" lon="6.05963">
        <ele>1246.49</ele>
        <time>2014-05-30T07:57:57Z</time>
      </trkpt>
      <trkpt lat="46.50237" lon="6.05959">
        <ele>1246.01</ele>
        <time>2014-05-30T07:57:58Z</time>
      </trkpt>
      <trkpt lat="46.50233" lon="6.05956">
        <ele>1245.53</ele>
        <time>2014-05-30T07:57:59Z</time>
      </trkpt>
      <trkpt lat="46.50228" lon="6.05953">
        <ele>1245.04</ele>
        <time>2014-05-30T07:58:00Z</time>
      </trkpt>
      <trkpt lat="46.50205" lon="6.05927">
        <ele>1248.41</ele>
        <time>2014-05-30T07:58:08Z</time>
      </trkpt>
      <trkpt lat="46.50203" lon="6.05918">
        <ele>1248.89</ele>
        <time>2014-05-30T07:58:10Z</time>
      </trkpt>
      <trkpt lat="46.502" lon="6.059">
        <ele>1248.41</ele>
        <time>2014-05-30T07:58:15Z</time>
      </trkpt>
      <trkpt lat="46.50196" lon="6.05896">
        <ele>1248.41</ele>
        <time>2014-05-30T07:58:16Z</time>
      </trkpt>
      <trkpt lat="46.50193" lon="6.05892">
        <ele>1247.93</ele>
        <time>2014-05-30T07:58:17Z</time>
      </trkpt>
      <trkpt lat="46.5019" lon="6.05888">
        <ele>1247.93</ele>
        <time>2014-05-30T07:58:18Z</time>
      </trkpt>
      <trkpt lat="46.50187" lon="6.05883">
        <ele>1247.45</ele>
        <time>2014-05-30T07:58:19Z</time>
      </trkpt>
      <trkpt lat="46.50185" lon="6.0588">
        <ele>1246.97</ele>
        <time>2014-05-30T07:58:20Z</time>
      </trkpt>
      <trkpt lat="46.50183" lon="6.05877">
        <ele>1246.49</ele>
        <time>2014-05-30T07:58:21Z</time>
      </trkpt>
      <trkpt lat="46.50181" lon="6.05875">
        <ele>1246.01</ele>
        <time>2014-05-30T07:58:22Z</time>
      </trkpt>
      <trkpt lat="46.50178" lon="6.05874">
        <ele>1245.53</ele>
        <time>2014-05-30T07:58:23Z</time>
      </trkpt>
      <trkpt lat="46.50175" lon="6.05873">
        <ele>1245.53</ele>
        <time>2014-05-30T07:58:25Z</time>
      </trkpt>
      <trkpt lat="46.50173" lon="6.05874">
        <ele>1245.53</ele>
        <time>2014-05-30T07:58:26Z</time>
      </trkpt>
      <trkpt lat="46.50171" lon="6.05875">
        <ele>1245.53</ele>
        <time>2014-05-30T07:58:27Z</time>
      </trkpt>
      <trkpt lat="46.50158" lon="6.05879">
        <ele>1243.6</ele>
        <time>2014-05-30T07:58:31Z</time>
      </trkpt>
      <trkpt lat="46.50154" lon="6.05882">
        <ele>1243.12</ele>
        <time>2014-05-30T07:58:32Z</time>
      </trkpt>
      <trkpt lat="46.50149" lon="6.05884">
        <ele>1242.64</ele>
        <time>2014-05-30T07:58:33Z</time>
      </trkpt>
      <trkpt lat="46.50145" lon="6.05885">
        <ele>1242.64</ele>
        <time>2014-05-30T07:58:34Z</time>
      </trkpt>
      <trkpt lat="46.50141" lon="6.05887">
        <ele>1242.64</ele>
        <time>2014-05-30T07:58:35Z</time>
      </trkpt>
      <trkpt lat="46.50138" lon="6.05889">
        <ele>1242.16</ele>
        <time>2014-05-30T07:58:36Z</time>
      </trkpt>
      <trkpt lat="46.50126" lon="6.05899">
        <ele>1240.24</ele>
        <time>2014-05-30T07:58:40Z</time>
      </trkpt>
      <trkpt lat="46.50123" lon="6.05899">
        <ele>1239.76</ele>
        <time>2014-05-30T07:58:52Z</time>
      </trkpt>
      <trkpt lat="46.50119" lon="6.05901">
        <ele>1238.8</ele>
        <time>2014-05-30T07:59:06Z</time>
      </trkpt>
      <trkpt lat="46.50113" lon="6.05895">
        <ele>1237.83</ele>
        <time>2014-05-30T07:59:14Z</time>
      </trkpt>
      <trkpt lat="46.5011" lon="6.05892">
        <ele>1237.35</ele>
        <time>2014-05-30T07:59:27Z</time>
      </trkpt>
      <trkpt lat="46.50098" lon="6.0588">
        <ele>1233.99</ele>
        <time>2014-05-30T07:59:40Z</time>
      </trkpt>
      <trkpt lat="46.50092" lon="6.05874">
        <ele>1233.03</ele>
        <time>2014-05-30T07:59:42Z</time>
      </trkpt>
      <trkpt lat="46.50087" lon="6.05873">
        <ele>1232.07</ele>
        <time>2014-05-30T07:59:43Z</time>
      </trkpt>
      <trkpt lat="46.50075" lon="6.05872">
        <ele>1228.22</ele>
        <time>2014-05-30T07:59:45Z</time>
      </trkpt>
      <trkpt lat="46.50068" lon="6.05874">
        <ele>1227.74</ele>
        <time>2014-05-30T07:59:46Z</time>
      </trkpt>
      <trkpt lat="46.50061" lon="6.05875">
        <ele>1226.78</ele>
        <time>2014-05-30T07:59:47Z</time>
      </trkpt>
      <trkpt lat="46.50051" lon="6.05875">
        <ele>1223.9</ele>
        <time>2014-05-30T07:59:49Z</time>
      </trkpt>
      <trkpt lat="46.50049" lon="6.05873">
        <ele>1223.42</ele>
        <time>2014-05-30T07:59:50Z</time>
      </trkpt>
      <trkpt lat="46.50049" lon="6.05873">
        <ele>1223.42</ele>
        <time>2014-05-30T07:59:56Z</time>
      </trkpt>
      <trkpt lat="46.50052" lon="6.05874">
        <ele>1223.9</ele>
        <time>2014-05-30T07:59:59Z</time>
      </trkpt>
      <trkpt lat="46.50053" lon="6.05874">
        <ele>1223.9</ele>
        <time>2014-05-30T08:00:00Z</time>
      </trkpt>
      <trkpt lat="46.50063" lon="6.05874">
        <ele>1225.82</ele>
        <time>2014-05-30T08:00:11Z</time>
      </trkpt>
      <trkpt lat="46.50065" lon="6.05873">
        <ele>1227.26</ele>
        <time>2014-05-30T08:00:20Z</time>
      </trkpt>
      <trkpt lat="46.50065" lon="6.05872">
        <ele>1226.78</ele>
        <time>2014-05-30T08:00:24Z</time>
      </trkpt>
      <trkpt lat="46.50051" lon="6.05874">
        <ele>1225.34</ele>
        <time>2014-05-30T08:00:28Z</time>
      </trkpt>
      <trkpt lat="46.50046" lon="6.05874">
        <ele>1224.86</ele>
        <time>2014-05-30T08:00:29Z</time>
      </trkpt>
      <trkpt lat="46.50041" lon="6.05872">
        <ele>1224.38</ele>
        <time>2014-05-30T08:00:30Z</time>
      </trkpt>
      <trkpt lat="46.50031" lon="6.05865">
        <ele>1222.45</ele>
        <time>2014-05-30T08:00:32Z</time>
      </trkpt>
      <trkpt lat="46.49992" lon="6.05838">
        <ele>1220.05</ele>
        <time>2014-05-30T08:00:42Z</time>
      </trkpt>
      <trkpt lat="46.49991" lon="6.05838">
        <ele>1219.57</ele>
        <time>2014-05-30T08:00:43Z</time>
      </trkpt>
      <trkpt lat="46.49989" lon="6.05836">
        <ele>1219.09</ele>
        <time>2014-05-30T08:00:57Z</time>
      </trkpt>
      <trkpt lat="46.49988" lon="6.05836">
        <ele>1219.09</ele>
        <time>2014-05-30T08:01:00Z</time>
      </trkpt>
      <trkpt lat="46.49987" lon="6.05837">
        <ele>1218.13</ele>
        <time>2014-05-30T08:01:12Z</time>
      </trkpt>
      <trkpt lat="46.49989" lon="6.05836">
        <ele>1217.17</ele>
        <time>2014-05-30T08:07:05Z</time>
      </trkpt>
      <trkpt lat="46.49988" lon="6.05835">
        <ele>1217.17</ele>
        <time>2014-05-30T08:07:06Z</time>
      </trkpt>
      <trkpt lat="46.49986" lon="6.05833">
        <ele>1216.69</ele>
        <time>2014-05-30T08:07:07Z</time>
      </trkpt>
      <trkpt lat="46.49985" lon="6.05831">
        <ele>1216.69</ele>
        <time>2014-05-30T08:07:08Z</time>
      </trkpt>
      <trkpt lat="46.49983" lon="6.0583">
        <ele>1216.21</ele>
        <time>2014-05-30T08:07:09Z</time>
      </trkpt>
      <trkpt lat="46.4998" lon="6.05829">
        <ele>1216.21</ele>
        <time>2014-05-30T08:07:10Z</time>
      </trkpt>
      <trkpt lat="46.49976" lon="6.05829">
        <ele>1216.21</ele>
        <time>2014-05-30T08:07:11Z</time>
      </trkpt>
      <trkpt lat="46.49942" lon="6.05827">
        <ele>1216.69</ele>
        <time>2014-05-30T08:07:22Z</time>
      </trkpt>
      <trkpt lat="46.4994" lon="6.05827">
        <ele>1216.69</ele>
        <time>2014-05-30T08:07:23Z</time>
      </trkpt>
      <trkpt lat="46.49938" lon="6.05826">
        <ele>1216.21</ele>
        <time>2014-05-30T08:07:24Z</time>
      </trkpt>
      <trkpt lat="46.49931" lon="6.05824">
        <ele>1217.17</ele>
        <time>2014-05-30T08:07:28Z</time>
      </trkpt>
      <trkpt lat="46.4993" lon="6.05823">
        <ele>1217.65</ele>
        <time>2014-05-30T08:07:29Z</time>
      </trkpt>
      <trkpt lat="46.49928" lon="6.05821">
        <ele>1218.13</ele>
        <time>2014-05-30T08:07:30Z</time>
      </trkpt>
      <trkpt lat="46.49926" lon="6.0582">
        <ele>1217.65</ele>
        <time>2014-05-30T08:07:31Z</time>
      </trkpt>
      <trkpt lat="46.49924" lon="6.05819">
        <ele>1217.65</ele>
        <time>2014-05-30T08:07:32Z</time>
      </trkpt>
      <trkpt lat="46.49923" lon="6.05819">
        <ele>1217.65</ele>
        <time>2014-05-30T08:07:33Z</time>
      </trkpt>
      <trkpt lat="46.49912" lon="6.05815">
        <ele>1220.05</ele>
        <time>2014-05-30T08:07:41Z</time>
      </trkpt>
      <trkpt lat="46.4991" lon="6.05814">
        <ele>1220.05</ele>
        <time>2014-05-30T08:07:42Z</time>
      </trkpt>
      <trkpt lat="46.49897" lon="6.05807">
        <ele>1221.49</ele>
        <time>2014-05-30T08:07:49Z</time>
      </trkpt>
      <trkpt lat="46.49894" lon="6.05805">
        <ele>1221.97</ele>
        <time>2014-05-30T08:07:51Z</time>
      </trkpt>
      <trkpt lat="46.49893" lon="6.05805">
        <ele>1221.97</ele>
        <time>2014-05-30T08:07:52Z</time>
      </trkpt>
      <trkpt lat="46.49881" lon="6.05804">
        <ele>1224.38</ele>
        <time>2014-05-30T08:07:59Z</time>
      </trkpt>
      <trkpt lat="46.49863" lon="6.05812">
        <ele>1224.38</ele>
        <time>2014-05-30T08:08:10Z</time>
      </trkpt>
      <trkpt lat="46.49861" lon="6.05813">
        <ele>1224.38</ele>
        <time>2014-05-30T08:08:11Z</time>
      </trkpt>
      <trkpt lat="46.49825" lon="6.05827">
        <ele>1222.93</ele>
        <time>2014-05-30T08:08:23Z</time>
      </trkpt>
      <trkpt lat="46.4982" lon="6.05828">
        <ele>1221.97</ele>
        <time>2014-05-30T08:08:24Z</time>
      </trkpt>
      <trkpt lat="46.49809" lon="6.05826">
        <ele>1220.53</ele>
        <time>2014-05-30T08:08:26Z</time>
      </trkpt>
      <trkpt lat="46.49803" lon="6.05822">
        <ele>1220.05</ele>
        <time>2014-05-30T08:08:27Z</time>
      </trkpt>
      <trkpt lat="46.49798" lon="6.05817">
        <ele>1220.05</ele>
        <time>2014-05-30T08:08:28Z</time>
      </trkpt>
      <trkpt lat="46.49788" lon="6.05807">
        <ele>1217.65</ele>
        <time>2014-05-30T08:08:30Z</time>
      </trkpt>
      <trkpt lat="46.49774" lon="6.05797">
        <ele>1213.8</ele>
        <time>2014-05-30T08:08:33Z</time>
      </trkpt>
      <trkpt lat="46.49768" lon="6.05793">
        <ele>1212.36</ele>
        <time>2014-05-30T08:08:34Z</time>
      </trkpt>
      <trkpt lat="46.49761" lon="6.05788">
        <ele>1210.44</ele>
        <time>2014-05-30T08:08:35Z</time>
      </trkpt>
      <trkpt lat="46.49755" lon="6.05781">
        <ele>1209</ele>
        <time>2014-05-30T08:08:36Z</time>
      </trkpt>
      <trkpt lat="46.49748" lon="6.05774">
        <ele>1208.51</ele>
        <time>2014-05-30T08:08:37Z</time>
      </trkpt>
      <trkpt lat="46.49742" lon="6.05769">
        <ele>1208.51</ele>
        <time>2014-05-30T08:08:38Z</time>
      </trkpt>
      <trkpt lat="46.49736" lon="6.05763">
        <ele>1207.55</ele>
        <time>2014-05-30T08:08:39Z</time>
      </trkpt>
      <trkpt lat="46.49731" lon="6.05756">
        <ele>1207.07</ele>
        <time>2014-05-30T08:08:40Z</time>
      </trkpt>
      <trkpt lat="46.49722" lon="6.05744">
        <ele>1205.63</ele>
        <time>2014-05-30T08:08:42Z</time>
      </trkpt>
      <trkpt lat="46.49708" lon="6.05722">
        <ele>1204.67</ele>
        <time>2014-05-30T08:08:46Z</time>
      </trkpt>
      <trkpt lat="46.497" lon="6.05713">
        <ele>1203.23</ele>
        <time>2014-05-30T08:08:48Z</time>
      </trkpt>
      <trkpt lat="46.49695" lon="6.0571">
        <ele>1203.71</ele>
        <time>2014-05-30T08:08:49Z</time>
      </trkpt>
      <trkpt lat="46.4969" lon="6.0571">
        <ele>1203.23</ele>
        <time>2014-05-30T08:08:50Z</time>
      </trkpt>
      <trkpt lat="46.49686" lon="6.05711">
        <ele>1203.71</ele>
        <time>2014-05-30T08:08:51Z</time>
      </trkpt>
      <trkpt lat="46.49683" lon="6.05712">
        <ele>1203.23</ele>
        <time>2014-05-30T08:08:52Z</time>
      </trkpt>
      <trkpt lat="46.4968" lon="6.05714">
        <ele>1203.71</ele>
        <time>2014-05-30T08:08:53Z</time>
      </trkpt>
      <trkpt lat="46.49678" lon="6.05715">
        <ele>1203.71</ele>
        <time>2014-05-30T08:08:54Z</time>
      </trkpt>
      <trkpt lat="46.49676" lon="6.05717">
        <ele>1203.71</ele>
        <time>2014-05-30T08:08:55Z</time>
      </trkpt>
      <trkpt lat="46.49664" lon="6.0572">
        <ele>1202.27</ele>
        <time>2014-05-30T08:08:59Z</time>
      </trkpt>
      <trkpt lat="46.49661" lon="6.05719">
        <ele>1202.27</ele>
        <time>2014-05-30T08:09:00Z</time>
      </trkpt>
      <trkpt lat="46.49659" lon="6.05717">
        <ele>1202.75</ele>
        <time>2014-05-30T08:09:01Z</time>
      </trkpt>
      <trkpt lat="46.49657" lon="6.05715">
        <ele>1202.75</ele>
        <time>2014-05-30T08:09:02Z</time>
      </trkpt>
      <trkpt lat="46.49656" lon="6.05713">
        <ele>1202.75</ele>
        <time>2014-05-30T08:09:03Z</time>
      </trkpt>
      <trkpt lat="46.49654" lon="6.05711">
        <ele>1202.75</ele>
        <time>2014-05-30T08:09:04Z</time>
      </trkpt>
      <trkpt lat="46.49642" lon="6.0569">
        <ele>1203.71</ele>
        <time>2014-05-30T08:09:14Z</time>
      </trkpt>
      <trkpt lat="46.4964" lon="6.05688">
        <ele>1203.71</ele>
        <time>2014-05-30T08:09:15Z</time>
      </trkpt>
      <trkpt lat="46.4964" lon="6.05686">
        <ele>1203.71</ele>
        <time>2014-05-30T08:09:16Z</time>
      </trkpt>
      <trkpt lat="46.49636" lon="6.0568">
        <ele>1203.23</ele>
        <time>2014-05-30T08:09:29Z</time>
      </trkpt>
      <trkpt lat="46.49633" lon="6.05677">
        <ele>1203.23</ele>
        <time>2014-05-30T08:09:31Z</time>
      </trkpt>
      <trkpt lat="46.49631" lon="6.05675">
        <ele>1202.75</ele>
        <time>2014-05-30T08:09:32Z</time>
      </trkpt>
      <trkpt lat="46.4962" lon="6.05664">
        <ele>1201.79</ele>
        <time>2014-05-30T08:09:35Z</time>
      </trkpt>
      <trkpt lat="46.49616" lon="6.05661">
        <ele>1201.79</ele>
        <time>2014-05-30T08:09:36Z</time>
      </trkpt>
      <trkpt lat="46.49599" lon="6.05649">
        <ele>1201.3</ele>
        <time>2014-05-30T08:09:41Z</time>
      </trkpt>
      <trkpt lat="46.49595" lon="6.05646">
        <ele>1200.82</ele>
        <time>2014-05-30T08:09:42Z</time>
      </trkpt>
      <trkpt lat="46.49589" lon="6.05644">
        <ele>1199.86</ele>
        <time>2014-05-30T08:09:43Z</time>
      </trkpt>
      <trkpt lat="46.49583" lon="6.05641">
        <ele>1199.38</ele>
        <time>2014-05-30T08:09:44Z</time>
      </trkpt>
      <trkpt lat="46.49577" lon="6.05638">
        <ele>1198.9</ele>
        <time>2014-05-30T08:09:45Z</time>
      </trkpt>
      <trkpt lat="46.49562" lon="6.05628">
        <ele>1198.9</ele>
        <time>2014-05-30T08:09:48Z</time>
      </trkpt>
      <trkpt lat="46.49557" lon="6.05626">
        <ele>1198.42</ele>
        <time>2014-05-30T08:09:49Z</time>
      </trkpt>
      <trkpt lat="46.49551" lon="6.05623">
        <ele>1198.42</ele>
        <time>2014-05-30T08:09:50Z</time>
      </trkpt>
      <trkpt lat="46.49546" lon="6.05618">
        <ele>1197.94</ele>
        <time>2014-05-30T08:09:51Z</time>
      </trkpt>
      <trkpt lat="46.4954" lon="6.05612">
        <ele>1196.98</ele>
        <time>2014-05-30T08:09:52Z</time>
      </trkpt>
      <trkpt lat="46.49535" lon="6.05604">
        <ele>1196.02</ele>
        <time>2014-05-30T08:09:53Z</time>
      </trkpt>
      <trkpt lat="46.4953" lon="6.05596">
        <ele>1195.54</ele>
        <time>2014-05-30T08:09:54Z</time>
      </trkpt>
      <trkpt lat="46.49493" lon="6.05536">
        <ele>1192.65</ele>
        <time>2014-05-30T08:10:01Z</time>
      </trkpt>
      <trkpt lat="46.49488" lon="6.05529">
        <ele>1191.69</ele>
        <time>2014-05-30T08:10:02Z</time>
      </trkpt>
      <trkpt lat="46.49481" lon="6.05524">
        <ele>1191.21</ele>
        <time>2014-05-30T08:10:03Z</time>
      </trkpt>
      <trkpt lat="46.49474" lon="6.05521">
        <ele>1190.73</ele>
        <time>2014-05-30T08:10:04Z</time>
      </trkpt>
      <trkpt lat="46.49466" lon="6.05521">
        <ele>1189.77</ele>
        <time>2014-05-30T08:10:05Z</time>
      </trkpt>
      <trkpt lat="46.49458" lon="6.05523">
        <ele>1189.29</ele>
        <time>2014-05-30T08:10:06Z</time>
      </trkpt>
      <trkpt lat="46.4945" lon="6.05526">
        <ele>1187.37</ele>
        <time>2014-05-30T08:10:07Z</time>
      </trkpt>
      <trkpt lat="46.49442" lon="6.05527">
        <ele>1185.92</ele>
        <time>2014-05-30T08:10:08Z</time>
      </trkpt>
      <trkpt lat="46.49435" lon="6.05524">
        <ele>1185.92</ele>
        <time>2014-05-30T08:10:09Z</time>
      </trkpt>
      <trkpt lat="46.4943" lon="6.05519">
        <ele>1185.92</ele>
        <time>2014-05-30T08:10:10Z</time>
      </trkpt>
      <trkpt lat="46.49422" lon="6.05507">
        <ele>1185.92</ele>
        <time>2014-05-30T08:10:12Z</time>
      </trkpt>
      <trkpt lat="46.49418" lon="6.05504">
        <ele>1185.44</ele>
        <time>2014-05-30T08:10:13Z</time>
      </trkpt>
      <trkpt lat="46.49416" lon="6.05503">
        <ele>1184.48</ele>
        <time>2014-05-30T08:10:21Z</time>
      </trkpt>
      <trkpt lat="46.49409" lon="6.05497">
        <ele>1184</ele>
        <time>2014-05-30T08:10:27Z</time>
      </trkpt>
      <trkpt lat="46.49405" lon="6.05493">
        <ele>1183.52</ele>
        <time>2014-05-30T08:10:28Z</time>
      </trkpt>
      <trkpt lat="46.494" lon="6.05488">
        <ele>1183.04</ele>
        <time>2014-05-30T08:10:29Z</time>
      </trkpt>
      <trkpt lat="46.49394" lon="6.05481">
        <ele>1181.6</ele>
        <time>2014-05-30T08:10:30Z</time>
      </trkpt>
      <trkpt lat="46.49367" lon="6.05454">
        <ele>1177.75</ele>
        <time>2014-05-30T08:10:34Z</time>
      </trkpt>
      <trkpt lat="46.4935" lon="6.05432">
        <ele>1176.79</ele>
        <time>2014-05-30T08:10:37Z</time>
      </trkpt>
      <trkpt lat="46.4933" lon="6.05392">
        <ele>1172.95</ele>
        <time>2014-05-30T08:10:42Z</time>
      </trkpt>
      <trkpt lat="46.49316" lon="6.05364">
        <ele>1168.14</ele>
        <time>2014-05-30T08:10:45Z</time>
      </trkpt>
      <trkpt lat="46.493" lon="6.05343">
        <ele>1165.26</ele>
        <time>2014-05-30T08:10:48Z</time>
      </trkpt>
      <trkpt lat="46.49291" lon="6.05316">
        <ele>1159.97</ele>
        <time>2014-05-30T08:10:51Z</time>
      </trkpt>
      <trkpt lat="46.49298" lon="6.05272">
        <ele>1158.53</ele>
        <time>2014-05-30T08:10:56Z</time>
      </trkpt>
      <trkpt lat="46.49292" lon="6.05259">
        <ele>1159.97</ele>
        <time>2014-05-30T08:10:59Z</time>
      </trkpt>
      <trkpt lat="46.49277" lon="6.05222">
        <ele>1160.45</ele>
        <time>2014-05-30T08:11:08Z</time>
      </trkpt>
      <trkpt lat="46.49274" lon="6.05208">
        <ele>1159.97</ele>
        <time>2014-05-30T08:11:10Z</time>
      </trkpt>
      <trkpt lat="46.49264" lon="6.05182">
        <ele>1157.56</ele>
        <time>2014-05-30T08:11:13Z</time>
      </trkpt>
      <trkpt lat="46.49259" lon="6.05166">
        <ele>1157.08</ele>
        <time>2014-05-30T08:11:15Z</time>
      </trkpt>
      <trkpt lat="46.49227" lon="6.05152">
        <ele>1153.72</ele>
        <time>2014-05-30T08:11:21Z</time>
      </trkpt>
      <trkpt lat="46.4922" lon="6.05152">
        <ele>1153.24</ele>
        <time>2014-05-30T08:11:22Z</time>
      </trkpt>
      <trkpt lat="46.4918" lon="6.05176">
        <ele>1150.84</ele>
        <time>2014-05-30T08:11:29Z</time>
      </trkpt>
      <trkpt lat="46.49172" lon="6.05177">
        <ele>1149.87</ele>
        <time>2014-05-30T08:11:30Z</time>
      </trkpt>
      <trkpt lat="46.49155" lon="6.0518">
        <ele>1147.47</ele>
        <time>2014-05-30T08:11:32Z</time>
      </trkpt>
      <trkpt lat="46.49129" lon="6.052">
        <ele>1145.07</ele>
        <time>2014-05-30T08:11:36Z</time>
      </trkpt>
      <trkpt lat="46.49105" lon="6.0523">
        <ele>1142.18</ele>
        <time>2014-05-30T08:11:40Z</time>
      </trkpt>
      <trkpt lat="46.49099" lon="6.05238">
        <ele>1141.7</ele>
        <time>2014-05-30T08:11:41Z</time>
      </trkpt>
      <trkpt lat="46.4909" lon="6.05257">
        <ele>1139.3</ele>
        <time>2014-05-30T08:11:43Z</time>
      </trkpt>
      <trkpt lat="46.49074" lon="6.05292">
        <ele>1134.01</ele>
        <time>2014-05-30T08:11:47Z</time>
      </trkpt>
      <trkpt lat="46.4907" lon="6.05292">
        <ele>1133.05</ele>
        <time>2014-05-30T08:11:48Z</time>
      </trkpt>
      <trkpt lat="46.49065" lon="6.0529">
        <ele>1132.57</ele>
        <time>2014-05-30T08:11:49Z</time>
      </trkpt>
      <trkpt lat="46.4906" lon="6.05287">
        <ele>1131.13</ele>
        <time>2014-05-30T08:11:50Z</time>
      </trkpt>
      <trkpt lat="46.49054" lon="6.05285">
        <ele>1129.69</ele>
        <time>2014-05-30T08:11:51Z</time>
      </trkpt>
      <trkpt lat="46.49036" lon="6.05284">
        <ele>1126.32</ele>
        <time>2014-05-30T08:11:54Z</time>
      </trkpt>
      <trkpt lat="46.4903" lon="6.05282">
        <ele>1125.84</ele>
        <time>2014-05-30T08:11:55Z</time>
      </trkpt>
      <trkpt lat="46.49026" lon="6.05279">
        <ele>1125.36</ele>
        <time>2014-05-30T08:11:56Z</time>
      </trkpt>
      <trkpt lat="46.49023" lon="6.05273">
        <ele>1125.36</ele>
        <time>2014-05-30T08:11:57Z</time>
      </trkpt>
      <trkpt lat="46.49018" lon="6.05258">
        <ele>1123.44</ele>
        <time>2014-05-30T08:11:59Z</time>
      </trkpt>
      <trkpt lat="46.49014" lon="6.0525">
        <ele>1122.96</ele>
        <time>2014-05-30T08:12:00Z</time>
      </trkpt>
      <trkpt lat="46.49011" lon="6.05241">
        <ele>1122.48</ele>
        <time>2014-05-30T08:12:01Z</time>
      </trkpt>
      <trkpt lat="46.49008" lon="6.05231">
        <ele>1122</ele>
        <time>2014-05-30T08:12:02Z</time>
      </trkpt>
      <trkpt lat="46.49006" lon="6.05222">
        <ele>1120.55</ele>
        <time>2014-05-30T08:12:03Z</time>
      </trkpt>
      <trkpt lat="46.49003" lon="6.05216">
        <ele>1118.15</ele>
        <time>2014-05-30T08:12:04Z</time>
      </trkpt>
      <trkpt lat="46.48998" lon="6.05211">
        <ele>1117.67</ele>
        <time>2014-05-30T08:12:05Z</time>
      </trkpt>
      <trkpt lat="46.48992" lon="6.0521">
        <ele>1116.23</ele>
        <time>2014-05-30T08:12:06Z</time>
      </trkpt>
      <trkpt lat="46.48985" lon="6.0521">
        <ele>1114.79</ele>
        <time>2014-05-30T08:12:07Z</time>
      </trkpt>
      <trkpt lat="46.4897" lon="6.05209">
        <ele>1110.94</ele>
        <time>2014-05-30T08:12:09Z</time>
      </trkpt>
      <trkpt lat="46.48965" lon="6.05205">
        <ele>1109.5</ele>
        <time>2014-05-30T08:12:10Z</time>
      </trkpt>
      <trkpt lat="46.48962" lon="6.05199">
        <ele>1108.54</ele>
        <time>2014-05-30T08:12:11Z</time>
      </trkpt>
      <trkpt lat="46.48962" lon="6.05193">
        <ele>1107.1</ele>
        <time>2014-05-30T08:12:12Z</time>
      </trkpt>
      <trkpt lat="46.48961" lon="6.05186">
        <ele>1106.13</ele>
        <time>2014-05-30T08:12:13Z</time>
      </trkpt>
      <trkpt lat="46.48958" lon="6.05178">
        <ele>1104.69</ele>
        <time>2014-05-30T08:12:14Z</time>
      </trkpt>
      <trkpt lat="46.48956" lon="6.0517">
        <ele>1103.25</ele>
        <time>2014-05-30T08:12:15Z</time>
      </trkpt>
      <trkpt lat="46.48954" lon="6.05162">
        <ele>1102.77</ele>
        <time>2014-05-30T08:12:16Z</time>
      </trkpt>
      <trkpt lat="46.48952" lon="6.05154">
        <ele>1100.85</ele>
        <time>2014-05-30T08:12:17Z</time>
      </trkpt>
      <trkpt lat="46.48949" lon="6.05147">
        <ele>1098.44</ele>
        <time>2014-05-30T08:12:18Z</time>
      </trkpt>
      <trkpt lat="46.48944" lon="6.0514">
        <ele>1096.04</ele>
        <time>2014-05-30T08:12:19Z</time>
      </trkpt>
      <trkpt lat="46.48939" lon="6.05135">
        <ele>1094.12</ele>
        <time>2014-05-30T08:12:20Z</time>
      </trkpt>
      <trkpt lat="46.48933" lon="6.05133">
        <ele>1093.64</ele>
        <time>2014-05-30T08:12:21Z</time>
      </trkpt>
      <trkpt lat="46.48926" lon="6.05131">
        <ele>1091.71</ele>
        <time>2014-05-30T08:12:22Z</time>
      </trkpt>
      <trkpt lat="46.48919" lon="6.05132">
        <ele>1090.27</ele>
        <time>2014-05-30T08:12:23Z</time>
      </trkpt>
      <trkpt lat="46.48912" lon="6.05132">
        <ele>1088.35</ele>
        <time>2014-05-30T08:12:24Z</time>
      </trkpt>
      <trkpt lat="46.48906" lon="6.05133">
        <ele>1085.95</ele>
        <time>2014-05-30T08:12:25Z</time>
      </trkpt>
      <trkpt lat="46.48903" lon="6.05133">
        <ele>1084.02</ele>
        <time>2014-05-30T08:12:26Z</time>
      </trkpt>
      <trkpt lat="46.48901" lon="6.05131">
        <ele>1083.54</ele>
        <time>2014-05-30T08:12:35Z</time>
      </trkpt>
      <trkpt lat="46.48899" lon="6.05127">
        <ele>1083.54</ele>
        <time>2014-05-30T08:13:01Z</time>
      </trkpt>
      <trkpt lat="46.48898" lon="6.05126">
        <ele>1083.54</ele>
        <time>2014-05-30T08:13:02Z</time>
      </trkpt>
      <trkpt lat="46.48897" lon="6.05126">
        <ele>1084.02</ele>
        <time>2014-05-30T08:13:14Z</time>
      </trkpt>
      <trkpt lat="46.48897" lon="6.05128">
        <ele>1083.54</ele>
        <time>2014-05-30T08:14:40Z</time>
      </trkpt>
      <trkpt lat="46.48896" lon="6.05131">
        <ele>1083.54</ele>
        <time>2014-05-30T08:14:41Z</time>
      </trkpt>
      <trkpt lat="46.48894" lon="6.05134">
        <ele>1084.02</ele>
        <time>2014-05-30T08:14:42Z</time>
      </trkpt>
      <trkpt lat="46.48892" lon="6.05136">
        <ele>1083.54</ele>
        <time>2014-05-30T08:14:43Z</time>
      </trkpt>
      <trkpt lat="46.48889" lon="6.05139">
        <ele>1083.54</ele>
        <time>2014-05-30T08:14:44Z</time>
      </trkpt>
      <trkpt lat="46.48887" lon="6.05143">
        <ele>1083.06</ele>
        <time>2014-05-30T08:14:45Z</time>
      </trkpt>
      <trkpt lat="46.48885" lon="6.05148">
        <ele>1083.06</ele>
        <time>2014-05-30T08:14:46Z</time>
      </trkpt>
      <trkpt lat="46.48883" lon="6.05155">
        <ele>1082.58</ele>
        <time>2014-05-30T08:14:47Z</time>
      </trkpt>
      <trkpt lat="46.48882" lon="6.05163">
        <ele>1082.1</ele>
        <time>2014-05-30T08:14:48Z</time>
      </trkpt>
      <trkpt lat="46.48881" lon="6.05172">
        <ele>1081.62</ele>
        <time>2014-05-30T08:14:49Z</time>
      </trkpt>
      <trkpt lat="46.4888" lon="6.05182">
        <ele>1080.66</ele>
        <time>2014-05-30T08:14:50Z</time>
      </trkpt>
      <trkpt lat="46.4888" lon="6.05192">
        <ele>1080.18</ele>
        <time>2014-05-30T08:14:51Z</time>
      </trkpt>
      <trkpt lat="46.48881" lon="6.05212">
        <ele>1079.7</ele>
        <time>2014-05-30T08:14:53Z</time>
      </trkpt>
      <trkpt lat="46.48884" lon="6.05258">
        <ele>1079.22</ele>
        <time>2014-05-30T08:14:58Z</time>
      </trkpt>
      <trkpt lat="46.48885" lon="6.05266">
        <ele>1079.7</ele>
        <time>2014-05-30T08:14:59Z</time>
      </trkpt>
      <trkpt lat="46.48887" lon="6.05293">
        <ele>1079.7</ele>
        <time>2014-05-30T08:15:03Z</time>
      </trkpt>
      <trkpt lat="46.48886" lon="6.05299">
        <ele>1079.7</ele>
        <time>2014-05-30T08:15:04Z</time>
      </trkpt>
      <trkpt lat="46.48885" lon="6.05304">
        <ele>1080.18</ele>
        <time>2014-05-30T08:15:05Z</time>
      </trkpt>
      <trkpt lat="46.48872" lon="6.05357">
        <ele>1081.14</ele>
        <time>2014-05-30T08:15:17Z</time>
      </trkpt>
      <trkpt lat="46.48868" lon="6.05369">
        <ele>1081.14</ele>
        <time>2014-05-30T08:15:19Z</time>
      </trkpt>
      <trkpt lat="46.48867" lon="6.05375">
        <ele>1081.62</ele>
        <time>2014-05-30T08:15:20Z</time>
      </trkpt>
      <trkpt lat="46.48859" lon="6.05422">
        <ele>1082.58</ele>
        <time>2014-05-30T08:15:32Z</time>
      </trkpt>
      <trkpt lat="46.48843" lon="6.0547">
        <ele>1084.99</ele>
        <time>2014-05-30T08:15:45Z</time>
      </trkpt>
      <trkpt lat="46.4883" lon="6.05525">
        <ele>1086.91</ele>
        <time>2014-05-30T08:15:59Z</time>
      </trkpt>
      <trkpt lat="46.48857" lon="6.05593">
        <ele>1088.35</ele>
        <time>2014-05-30T08:16:16Z</time>
      </trkpt>
      <trkpt lat="46.48873" lon="6.05666">
        <ele>1088.35</ele>
        <time>2014-05-30T08:16:32Z</time>
      </trkpt>
      <trkpt lat="46.4887" lon="6.0571">
        <ele>1087.39</ele>
        <time>2014-05-30T08:16:44Z</time>
      </trkpt>
      <trkpt lat="46.48864" lon="6.05724">
        <ele>1087.39</ele>
        <time>2014-05-30T08:16:49Z</time>
      </trkpt>
      <trkpt lat="46.48863" lon="6.05729">
        <ele>1087.39</ele>
        <time>2014-05-30T08:16:50Z</time>
      </trkpt>
      <trkpt lat="46.48861" lon="6.05774">
        <ele>1089.31</ele>
        <time>2014-05-30T08:17:00Z</time>
      </trkpt>
      <trkpt lat="46.4887" lon="6.05849">
        <ele>1090.75</ele>
        <time>2014-05-30T08:17:17Z</time>
      </trkpt>
      <trkpt lat="46.48868" lon="6.05898">
        <ele>1091.23</ele>
        <time>2014-05-30T08:17:28Z</time>
      </trkpt>
      <trkpt lat="46.48867" lon="6.05904">
        <ele>1091.23</ele>
        <time>2014-05-30T08:17:29Z</time>
      </trkpt>
      <trkpt lat="46.48861" lon="6.0592">
        <ele>1090.27</ele>
        <time>2014-05-30T08:17:32Z</time>
      </trkpt>
      <trkpt lat="46.48832" lon="6.05977">
        <ele>1091.23</ele>
        <time>2014-05-30T08:17:45Z</time>
      </trkpt>
      <trkpt lat="46.4881" lon="6.06045">
        <ele>1090.75</ele>
        <time>2014-05-30T08:17:58Z</time>
      </trkpt>
      <trkpt lat="46.48806" lon="6.06059">
        <ele>1089.79</ele>
        <time>2014-05-30T08:18:00Z</time>
      </trkpt>
      <trkpt lat="46.488" lon="6.06104">
        <ele>1089.31</ele>
        <time>2014-05-30T08:18:07Z</time>
      </trkpt>
      <trkpt lat="46.48792" lon="6.062">
        <ele>1091.23</ele>
        <time>2014-05-30T08:18:24Z</time>
      </trkpt>
      <trkpt lat="46.48776" lon="6.06259">
        <ele>1094.12</ele>
        <time>2014-05-30T08:18:39Z</time>
      </trkpt>
      <trkpt lat="46.48759" lon="6.06323">
        <ele>1094.6</ele>
        <time>2014-05-30T08:18:55Z</time>
      </trkpt>
      <trkpt lat="46.48743" lon="6.06374">
        <ele>1096.52</ele>
        <time>2014-05-30T08:19:09Z</time>
      </trkpt>
      <trkpt lat="46.48728" lon="6.06422">
        <ele>1099.89</ele>
        <time>2014-05-30T08:19:23Z</time>
      </trkpt>
      <trkpt lat="46.48709" lon="6.06463">
        <ele>1103.25</ele>
        <time>2014-05-30T08:19:38Z</time>
      </trkpt>
      <trkpt lat="46.48685" lon="6.06484">
        <ele>1106.13</ele>
        <time>2014-05-30T08:19:51Z</time>
      </trkpt>
      <trkpt lat="46.48659" lon="6.06497">
        <ele>1108.54</ele>
        <time>2014-05-30T08:20:05Z</time>
      </trkpt>
      <trkpt lat="46.48658" lon="6.06496">
        <ele>1108.54</ele>
        <time>2014-05-30T08:20:06Z</time>
      </trkpt>
      <trkpt lat="46.48653" lon="6.06489">
        <ele>1109.02</ele>
        <time>2014-05-30T08:20:14Z</time>
      </trkpt>
      <trkpt lat="46.48652" lon="6.06488">
        <ele>1109.02</ele>
        <time>2014-05-30T08:20:15Z</time>
      </trkpt>
      <trkpt lat="46.4864" lon="6.06443">
        <ele>1110.46</ele>
        <time>2014-05-30T08:20:30Z</time>
      </trkpt>
      <trkpt lat="46.48626" lon="6.06385">
        <ele>1112.38</ele>
        <time>2014-05-30T08:20:45Z</time>
      </trkpt>
      <trkpt lat="46.48614" lon="6.06339">
        <ele>1113.82</ele>
        <time>2014-05-30T08:20:58Z</time>
      </trkpt>
      <trkpt lat="46.48601" lon="6.06284">
        <ele>1115.27</ele>
        <time>2014-05-30T08:21:12Z</time>
      </trkpt>
      <trkpt lat="46.48587" lon="6.06227">
        <ele>1114.79</ele>
        <time>2014-05-30T08:21:24Z</time>
      </trkpt>
      <trkpt lat="46.48573" lon="6.06174">
        <ele>1113.82</ele>
        <time>2014-05-30T08:21:34Z</time>
      </trkpt>
      <trkpt lat="46.48572" lon="6.06167">
        <ele>1113.82</ele>
        <time>2014-05-30T08:21:35Z</time>
      </trkpt>
      <trkpt lat="46.4857" lon="6.06153">
        <ele>1113.34</ele>
        <time>2014-05-30T08:21:37Z</time>
      </trkpt>
      <trkpt lat="46.48569" lon="6.06146">
        <ele>1113.82</ele>
        <time>2014-05-30T08:21:38Z</time>
      </trkpt>
      <trkpt lat="46.48567" lon="6.06139">
        <ele>1113.34</ele>
        <time>2014-05-30T08:21:39Z</time>
      </trkpt>
      <trkpt lat="46.48556" lon="6.0609">
        <ele>1112.86</ele>
        <time>2014-05-30T08:21:47Z</time>
      </trkpt>
      <trkpt lat="46.48554" lon="6.06086">
        <ele>1112.38</ele>
        <time>2014-05-30T08:21:48Z</time>
      </trkpt>
      <trkpt lat="46.48553" lon="6.06083">
        <ele>1112.38</ele>
        <time>2014-05-30T08:21:49Z</time>
      </trkpt>
      <trkpt lat="46.48551" lon="6.06081">
        <ele>1112.38</ele>
        <time>2014-05-30T08:21:50Z</time>
      </trkpt>
      <trkpt lat="46.48551" lon="6.06078">
        <ele>1112.38</ele>
        <time>2014-05-30T08:21:51Z</time>
      </trkpt>
      <trkpt lat="46.48549" lon="6.0608">
        <ele>1111.9</ele>
        <time>2014-05-30T08:22:03Z</time>
      </trkpt>
      <trkpt lat="46.48549" lon="6.06079">
        <ele>1112.38</ele>
        <time>2014-05-30T08:22:24Z</time>
      </trkpt>
      <trkpt lat="46.48546" lon="6.06073">
        <ele>1112.38</ele>
        <time>2014-05-30T08:24:21Z</time>
      </trkpt>
      <trkpt lat="46.48546" lon="6.06073">
        <ele>1109.5</ele>
        <time>2014-05-30T08:24:26Z</time>
      </trkpt>
      <trkpt lat="46.48546" lon="6.06073">
        <ele>1115.27</ele>
        <time>2014-05-30T08:45:15Z</time>
      </trkpt>
      <trkpt lat="46.48546" lon="6.06073">
        <ele>1112.86</ele>
        <time>2014-05-30T08:45:17Z</time>
      </trkpt>
      <trkpt lat="46.48546" lon="6.06073">
        <ele>1114.31</ele>
        <time>2014-05-30T08:45:20Z</time>
      </trkpt>
      <trkpt lat="46.48556" lon="6.06072">
        <ele>1111.9</ele>
        <time>2014-05-30T08:45:24Z</time>
      </trkpt>
      <trkpt lat="46.48548" lon="6.06076">
        <ele>1112.86</ele>
        <time>2014-05-30T08:46:00Z</time>
      </trkpt>
      <trkpt lat="46.48549" lon="6.06079">
        <ele>1112.86</ele>
        <time>2014-05-30T08:46:03Z</time>
      </trkpt>
      <trkpt lat="46.48551" lon="6.06087">
        <ele>1113.34</ele>
        <time>2014-05-30T08:46:07Z</time>
      </trkpt>
      <trkpt lat="46.4856" lon="6.06108">
        <ele>1113.34</ele>
        <time>2014-05-30T08:46:16Z</time>
      </trkpt>
      <trkpt lat="46.4857" lon="6.06142">
        <ele>1114.31</ele>
        <time>2014-05-30T08:46:24Z</time>
      </trkpt>
      <trkpt lat="46.48579" lon="6.06185">
        <ele>1115.27</ele>
        <time>2014-05-30T08:46:31Z</time>
      </trkpt>
      <trkpt lat="46.48582" lon="6.06197">
        <ele>1119.11</ele>
        <time>2014-05-30T08:46:33Z</time>
      </trkpt>
      <trkpt lat="46.48583" lon="6.06203">
        <ele>1115.75</ele>
        <time>2014-05-30T08:46:34Z</time>
      </trkpt>
      <trkpt lat="46.48585" lon="6.06215">
        <ele>1114.79</ele>
        <time>2014-05-30T08:46:36Z</time>
      </trkpt>
      <trkpt lat="46.48593" lon="6.06256">
        <ele>1107.58</ele>
        <time>2014-05-30T08:46:43Z</time>
      </trkpt>
      <trkpt lat="46.48594" lon="6.06261">
        <ele>1116.23</ele>
        <time>2014-05-30T08:46:44Z</time>
      </trkpt>
      <trkpt lat="46.48601" lon="6.06296">
        <ele>1116.23</ele>
        <time>2014-05-30T08:46:50Z</time>
      </trkpt>
      <trkpt lat="46.48606" lon="6.06314">
        <ele>1116.71</ele>
        <time>2014-05-30T08:46:53Z</time>
      </trkpt>
      <trkpt lat="46.48608" lon="6.0632">
        <ele>1116.71</ele>
        <time>2014-05-30T08:46:54Z</time>
      </trkpt>
      <trkpt lat="46.48609" lon="6.06326">
        <ele>1116.23</ele>
        <time>2014-05-30T08:46:55Z</time>
      </trkpt>
      <trkpt lat="46.48611" lon="6.06332">
        <ele>1115.75</ele>
        <time>2014-05-30T08:46:56Z</time>
      </trkpt>
      <trkpt lat="46.48612" lon="6.06339">
        <ele>1116.23</ele>
        <time>2014-05-30T08:46:57Z</time>
      </trkpt>
      <trkpt lat="46.48614" lon="6.06346">
        <ele>1115.75</ele>
        <time>2014-05-30T08:46:58Z</time>
      </trkpt>
      <trkpt lat="46.48616" lon="6.06353">
        <ele>1115.27</ele>
        <time>2014-05-30T08:46:59Z</time>
      </trkpt>
      <trkpt lat="46.48638" lon="6.06453">
        <ele>1111.9</ele>
        <time>2014-05-30T08:47:11Z</time>
      </trkpt>
      <trkpt lat="46.48647" lon="6.06497">
        <ele>1110.94</ele>
        <time>2014-05-30T08:47:16Z</time>
      </trkpt>
      <trkpt lat="46.48677" lon="6.0661">
        <ele>1108.54</ele>
        <time>2014-05-30T08:47:28Z</time>
      </trkpt>
      <trkpt lat="46.4868" lon="6.06619">
        <ele>1108.54</ele>
        <time>2014-05-30T08:47:29Z</time>
      </trkpt>
      <trkpt lat="46.48685" lon="6.06627">
        <ele>1108.06</ele>
        <time>2014-05-30T08:47:30Z</time>
      </trkpt>
      <trkpt lat="46.48692" lon="6.06631">
        <ele>1107.58</ele>
        <time>2014-05-30T08:47:31Z</time>
      </trkpt>
      <trkpt lat="46.48699" lon="6.06635">
        <ele>1108.06</ele>
        <time>2014-05-30T08:47:32Z</time>
      </trkpt>
      <trkpt lat="46.48706" lon="6.06639">
        <ele>1106.61</ele>
        <time>2014-05-30T08:47:33Z</time>
      </trkpt>
      <trkpt lat="46.48761" lon="6.06667">
        <ele>1103.73</ele>
        <time>2014-05-30T08:47:40Z</time>
      </trkpt>
      <trkpt lat="46.48789" lon="6.06683">
        <ele>1102.77</ele>
        <time>2014-05-30T08:47:44Z</time>
      </trkpt>
      <trkpt lat="46.48801" lon="6.06692">
        <ele>1102.29</ele>
        <time>2014-05-30T08:47:46Z</time>
      </trkpt>
      <trkpt lat="46.48813" lon="6.06698">
        <ele>1101.81</ele>
        <time>2014-05-30T08:47:48Z</time>
      </trkpt>
      <trkpt lat="46.48818" lon="6.06701">
        <ele>1102.29</ele>
        <time>2014-05-30T08:47:49Z</time>
      </trkpt>
      <trkpt lat="46.48823" lon="6.06705">
        <ele>1102.29</ele>
        <time>2014-05-30T08:47:50Z</time>
      </trkpt>
      <trkpt lat="46.48827" lon="6.06708">
        <ele>1102.29</ele>
        <time>2014-05-30T08:47:51Z</time>
      </trkpt>
      <trkpt lat="46.48832" lon="6.0671">
        <ele>1102.29</ele>
        <time>2014-05-30T08:47:52Z</time>
      </trkpt>
      <trkpt lat="46.48836" lon="6.06711">
        <ele>1102.29</ele>
        <time>2014-05-30T08:47:53Z</time>
      </trkpt>
      <trkpt lat="46.48875" lon="6.06731">
        <ele>1102.77</ele>
        <time>2014-05-30T08:48:04Z</time>
      </trkpt>
      <trkpt lat="46.48921" lon="6.06755">
        <ele>1101.81</ele>
        <time>2014-05-30T08:48:16Z</time>
      </trkpt>
      <trkpt lat="46.48944" lon="6.06761">
        <ele>1101.33</ele>
        <time>2014-05-30T08:48:22Z</time>
      </trkpt>
      <trkpt lat="46.48949" lon="6.06761">
        <ele>1100.85</ele>
        <time>2014-05-30T08:48:23Z</time>
      </trkpt>
      <trkpt lat="46.48953" lon="6.06762">
        <ele>1100.37</ele>
        <time>2014-05-30T08:48:24Z</time>
      </trkpt>
      <trkpt lat="46.48983" lon="6.06762">
        <ele>1099.89</ele>
        <time>2014-05-30T08:48:31Z</time>
      </trkpt>
      <trkpt lat="46.48987" lon="6.0676">
        <ele>1099.89</ele>
        <time>2014-05-30T08:48:32Z</time>
      </trkpt>
      <trkpt lat="46.4899" lon="6.06755">
        <ele>1099.89</ele>
        <time>2014-05-30T08:48:33Z</time>
      </trkpt>
      <trkpt lat="46.48992" lon="6.06749">
        <ele>1099.4</ele>
        <time>2014-05-30T08:48:34Z</time>
      </trkpt>
      <trkpt lat="46.48993" lon="6.06742">
        <ele>1099.89</ele>
        <time>2014-05-30T08:48:35Z</time>
      </trkpt>
      <trkpt lat="46.48993" lon="6.06735">
        <ele>1099.89</ele>
        <time>2014-05-30T08:48:36Z</time>
      </trkpt>
      <trkpt lat="46.48994" lon="6.06699">
        <ele>1097.96</ele>
        <time>2014-05-30T08:48:41Z</time>
      </trkpt>
      <trkpt lat="46.48992" lon="6.06681">
        <ele>1098.44</ele>
        <time>2014-05-30T08:48:50Z</time>
      </trkpt>
      <trkpt lat="46.48992" lon="6.06681">
        <ele>1094.12</ele>
        <time>2014-05-30T08:48:56Z</time>
      </trkpt>
      <trkpt lat="46.48992" lon="6.06681">
        <ele>1098.92</ele>
        <time>2014-05-30T08:48:57Z</time>
      </trkpt>
      <trkpt lat="46.48993" lon="6.06685">
        <ele>1097</ele>
        <time>2014-05-30T08:55:50Z</time>
      </trkpt>
      <trkpt lat="46.48994" lon="6.06686">
        <ele>1097</ele>
        <time>2014-05-30T08:55:51Z</time>
      </trkpt>
      <trkpt lat="46.48995" lon="6.06688">
        <ele>1096.52</ele>
        <time>2014-05-30T08:56:01Z</time>
      </trkpt>
      <trkpt lat="46.48997" lon="6.06688">
        <ele>1096.52</ele>
        <time>2014-05-30T08:56:02Z</time>
      </trkpt>
      <trkpt lat="46.49" lon="6.06688">
        <ele>1097</ele>
        <time>2014-05-30T08:56:03Z</time>
      </trkpt>
      <trkpt lat="46.49013" lon="6.06694">
        <ele>1097.48</ele>
        <time>2014-05-30T08:56:07Z</time>
      </trkpt>
      <trkpt lat="46.49029" lon="6.06706">
        <ele>1097.96</ele>
        <time>2014-05-30T08:56:11Z</time>
      </trkpt>
      <trkpt lat="46.49033" lon="6.06709">
        <ele>1097.48</ele>
        <time>2014-05-30T08:56:12Z</time>
      </trkpt>
      <trkpt lat="46.49036" lon="6.06713">
        <ele>1098.44</ele>
        <time>2014-05-30T08:56:13Z</time>
      </trkpt>
      <trkpt lat="46.49038" lon="6.06719">
        <ele>1097.96</ele>
        <time>2014-05-30T08:56:14Z</time>
      </trkpt>
      <trkpt lat="46.49038" lon="6.06724">
        <ele>1097.48</ele>
        <time>2014-05-30T08:56:15Z</time>
      </trkpt>
      <trkpt lat="46.49038" lon="6.06727">
        <ele>1097.48</ele>
        <time>2014-05-30T08:56:16Z</time>
      </trkpt>
      <trkpt lat="46.49038" lon="6.0673">
        <ele>1097.96</ele>
        <time>2014-05-30T08:56:26Z</time>
      </trkpt>
      <trkpt lat="46.49038" lon="6.0673">
        <ele>1097.48</ele>
        <time>2014-05-30T08:58:05Z</time>
      </trkpt>
      <trkpt lat="46.4904" lon="6.06729">
        <ele>1097.96</ele>
        <time>2014-05-30T08:59:56Z</time>
      </trkpt>
      <trkpt lat="46.49042" lon="6.06728">
        <ele>1097.48</ele>
        <time>2014-05-30T08:59:57Z</time>
      </trkpt>
      <trkpt lat="46.49043" lon="6.06726">
        <ele>1097.48</ele>
        <time>2014-05-30T08:59:58Z</time>
      </trkpt>
      <trkpt lat="46.49041" lon="6.06721">
        <ele>1097.96</ele>
        <time>2014-05-30T09:00:00Z</time>
      </trkpt>
      <trkpt lat="46.49039" lon="6.06717">
        <ele>1097.48</ele>
        <time>2014-05-30T09:00:01Z</time>
      </trkpt>
      <trkpt lat="46.49036" lon="6.06714">
        <ele>1097.96</ele>
        <time>2014-05-30T09:00:02Z</time>
      </trkpt>
      <trkpt lat="46.49033" lon="6.06711">
        <ele>1098.44</ele>
        <time>2014-05-30T09:00:03Z</time>
      </trkpt>
      <trkpt lat="46.4903" lon="6.06709">
        <ele>1098.44</ele>
        <time>2014-05-30T09:00:04Z</time>
      </trkpt>
      <trkpt lat="46.48997" lon="6.06693">
        <ele>1097</ele>
        <time>2014-05-30T09:00:13Z</time>
      </trkpt>
      <trkpt lat="46.48994" lon="6.06689">
        <ele>1097</ele>
        <time>2014-05-30T09:00:14Z</time>
      </trkpt>
      <trkpt lat="46.48994" lon="6.06686">
        <ele>1096.52</ele>
        <time>2014-05-30T09:00:15Z</time>
      </trkpt>
      <trkpt lat="46.48993" lon="6.06684">
        <ele>1097.48</ele>
        <time>2014-05-30T09:00:26Z</time>
      </trkpt>
      <trkpt lat="46.48993" lon="6.06684">
        <ele>1096.52</ele>
        <time>2014-05-30T09:00:39Z</time>
      </trkpt>
      <trkpt lat="46.48992" lon="6.06686">
        <ele>1096.52</ele>
        <time>2014-05-30T09:00:40Z</time>
      </trkpt>
      <trkpt lat="46.48992" lon="6.06689">
        <ele>1097</ele>
        <time>2014-05-30T09:00:41Z</time>
      </trkpt>
      <trkpt lat="46.48992" lon="6.06691">
        <ele>1097</ele>
        <time>2014-05-30T09:00:42Z</time>
      </trkpt>
      <trkpt lat="46.48992" lon="6.06693">
        <ele>1097</ele>
        <time>2014-05-30T09:00:43Z</time>
      </trkpt>
      <trkpt lat="46.48991" lon="6.06696">
        <ele>1097</ele>
        <time>2014-05-30T09:00:44Z</time>
      </trkpt>
      <trkpt lat="46.4899" lon="6.06698">
        <ele>1097</ele>
        <time>2014-05-30T09:00:45Z</time>
      </trkpt>
      <trkpt lat="46.48988" lon="6.06701">
        <ele>1097.48</ele>
        <time>2014-05-30T09:00:46Z</time>
      </trkpt>
      <trkpt lat="46.48987" lon="6.06702">
        <ele>1097</ele>
        <time>2014-05-30T09:00:47Z</time>
      </trkpt>
      <trkpt lat="46.48984" lon="6.06702">
        <ele>1097</ele>
        <time>2014-05-30T09:00:49Z</time>
      </trkpt>
      <trkpt lat="46.48983" lon="6.06703">
        <ele>1097</ele>
        <time>2014-05-30T09:00:52Z</time>
      </trkpt>
      <trkpt lat="46.48984" lon="6.06705">
        <ele>1097.48</ele>
        <time>2014-05-30T09:00:53Z</time>
      </trkpt>
      <trkpt lat="46.48985" lon="6.06706">
        <ele>1097</ele>
        <time>2014-05-30T09:00:54Z</time>
      </trkpt>
      <trkpt lat="46.48986" lon="6.06707">
        <ele>1097</ele>
        <time>2014-05-30T09:00:55Z</time>
      </trkpt>
      <trkpt lat="46.48987" lon="6.06709">
        <ele>1097</ele>
        <time>2014-05-30T09:00:56Z</time>
      </trkpt>
      <trkpt lat="46.48988" lon="6.06713">
        <ele>1097.48</ele>
        <time>2014-05-30T09:00:57Z</time>
      </trkpt>
      <trkpt lat="46.48989" lon="6.06717">
        <ele>1097</ele>
        <time>2014-05-30T09:00:58Z</time>
      </trkpt>
      <trkpt lat="46.4899" lon="6.0672">
        <ele>1097.96</ele>
        <time>2014-05-30T09:00:59Z</time>
      </trkpt>
      <trkpt lat="46.4899" lon="6.06724">
        <ele>1097.96</ele>
        <time>2014-05-30T09:01:00Z</time>
      </trkpt>
      <trkpt lat="46.4899" lon="6.06728">
        <ele>1097.48</ele>
        <time>2014-05-30T09:01:01Z</time>
      </trkpt>
      <trkpt lat="46.48989" lon="6.06744">
        <ele>1098.44</ele>
        <time>2014-05-30T09:01:06Z</time>
      </trkpt>
      <trkpt lat="46.48989" lon="6.06746">
        <ele>1097.96</ele>
        <time>2014-05-30T09:01:07Z</time>
      </trkpt>
      <trkpt lat="46.48989" lon="6.06749">
        <ele>1098.44</ele>
        <time>2014-05-30T09:01:08Z</time>
      </trkpt>
      <trkpt lat="46.48988" lon="6.06752">
        <ele>1098.44</ele>
        <time>2014-05-30T09:01:09Z</time>
      </trkpt>
      <trkpt lat="46.48986" lon="6.06754">
        <ele>1098.44</ele>
        <time>2014-05-30T09:01:10Z</time>
      </trkpt>
      <trkpt lat="46.48984" lon="6.06756">
        <ele>1098.92</ele>
        <time>2014-05-30T09:01:11Z</time>
      </trkpt>
      <trkpt lat="46.48982" lon="6.06756">
        <ele>1098.92</ele>
        <time>2014-05-30T09:01:12Z</time>
      </trkpt>
      <trkpt lat="46.4898" lon="6.06755">
        <ele>1098.44</ele>
        <time>2014-05-30T09:01:13Z</time>
      </trkpt>
      <trkpt lat="46.48977" lon="6.06756">
        <ele>1098.92</ele>
        <time>2014-05-30T09:01:14Z</time>
      </trkpt>
      <trkpt lat="46.48974" lon="6.06756">
        <ele>1099.4</ele>
        <time>2014-05-30T09:01:15Z</time>
      </trkpt>
      <trkpt lat="46.48971" lon="6.06756">
        <ele>1098.92</ele>
        <time>2014-05-30T09:01:16Z</time>
      </trkpt>
      <trkpt lat="46.48934" lon="6.06756">
        <ele>1100.85</ele>
        <time>2014-05-30T09:01:28Z</time>
      </trkpt>
      <trkpt lat="46.48932" lon="6.06759">
        <ele>1101.33</ele>
        <time>2014-05-30T09:01:29Z</time>
      </trkpt>
      <trkpt lat="46.4893" lon="6.06763">
        <ele>1101.81</ele>
        <time>2014-05-30T09:01:30Z</time>
      </trkpt>
      <trkpt lat="46.48929" lon="6.06767">
        <ele>1101.81</ele>
        <time>2014-05-30T09:01:31Z</time>
      </trkpt>
      <trkpt lat="46.48929" lon="6.06772">
        <ele>1101.81</ele>
        <time>2014-05-30T09:01:32Z</time>
      </trkpt>
      <trkpt lat="46.4893" lon="6.06839">
        <ele>1102.77</ele>
        <time>2014-05-30T09:01:46Z</time>
      </trkpt>
      <trkpt lat="46.48936" lon="6.06887">
        <ele>1106.13</ele>
        <time>2014-05-30T09:01:58Z</time>
      </trkpt>
      <trkpt lat="46.48933" lon="6.06934">
        <ele>1107.58</ele>
        <time>2014-05-30T09:02:11Z</time>
      </trkpt>
      <trkpt lat="46.48925" lon="6.06973">
        <ele>1109.98</ele>
        <time>2014-05-30T09:02:23Z</time>
      </trkpt>
      <trkpt lat="46.48914" lon="6.07005">
        <ele>1111.9</ele>
        <time>2014-05-30T09:02:35Z</time>
      </trkpt>
      <trkpt lat="46.48907" lon="6.07028">
        <ele>1114.31</ele>
        <time>2014-05-30T09:02:48Z</time>
      </trkpt>
      <trkpt lat="46.48907" lon="6.07032">
        <ele>1114.31</ele>
        <time>2014-05-30T09:02:59Z</time>
      </trkpt>
      <trkpt lat="46.48905" lon="6.07033">
        <ele>1114.31</ele>
        <time>2014-05-30T09:03:07Z</time>
      </trkpt>
      <trkpt lat="46.48903" lon="6.07033">
        <ele>1114.79</ele>
        <time>2014-05-30T09:03:08Z</time>
      </trkpt>
      <trkpt lat="46.48901" lon="6.07034">
        <ele>1114.79</ele>
        <time>2014-05-30T09:03:09Z</time>
      </trkpt>
      <trkpt lat="46.48899" lon="6.07036">
        <ele>1115.27</ele>
        <time>2014-05-30T09:03:10Z</time>
      </trkpt>
      <trkpt lat="46.48896" lon="6.07037">
        <ele>1115.27</ele>
        <time>2014-05-30T09:03:11Z</time>
      </trkpt>
      <trkpt lat="46.48893" lon="6.07037">
        <ele>1115.27</ele>
        <time>2014-05-30T09:03:12Z</time>
      </trkpt>
      <trkpt lat="46.4889" lon="6.07037">
        <ele>1115.27</ele>
        <time>2014-05-30T09:03:13Z</time>
      </trkpt>
      <trkpt lat="46.48859" lon="6.07043">
        <ele>1114.31</ele>
        <time>2014-05-30T09:03:26Z</time>
      </trkpt>
      <trkpt lat="46.48843" lon="6.07045">
        <ele>1113.34</ele>
        <time>2014-05-30T09:03:39Z</time>
      </trkpt>
      <trkpt lat="46.48823" lon="6.07047">
        <ele>1111.9</ele>
        <time>2014-05-30T09:03:50Z</time>
      </trkpt>
      <trkpt lat="46.48819" lon="6.07047">
        <ele>1110.94</ele>
        <time>2014-05-30T09:03:56Z</time>
      </trkpt>
      <trkpt lat="46.48815" lon="6.07047">
        <ele>1110.94</ele>
        <time>2014-05-30T09:04:00Z</time>
      </trkpt>
      <trkpt lat="46.48814" lon="6.07047">
        <ele>1110.46</ele>
        <time>2014-05-30T09:04:01Z</time>
      </trkpt>
      <trkpt lat="46.48807" lon="6.07046">
        <ele>1109.98</ele>
        <time>2014-05-30T09:04:07Z</time>
      </trkpt>
      <trkpt lat="46.488" lon="6.07045">
        <ele>1109.98</ele>
        <time>2014-05-30T09:04:15Z</time>
      </trkpt>
      <trkpt lat="46.48798" lon="6.07044">
        <ele>1109.5</ele>
        <time>2014-05-30T09:04:16Z</time>
      </trkpt>
      <trkpt lat="46.48797" lon="6.07044">
        <ele>1109.5</ele>
        <time>2014-05-30T09:04:17Z</time>
      </trkpt>
      <trkpt lat="46.48795" lon="6.07043">
        <ele>1108.54</ele>
        <time>2014-05-30T09:04:18Z</time>
      </trkpt>
      <trkpt lat="46.48792" lon="6.07042">
        <ele>1108.54</ele>
        <time>2014-05-30T09:04:19Z</time>
      </trkpt>
      <trkpt lat="46.48789" lon="6.0704">
        <ele>1108.54</ele>
        <time>2014-05-30T09:04:20Z</time>
      </trkpt>
      <trkpt lat="46.48787" lon="6.07038">
        <ele>1108.54</ele>
        <time>2014-05-30T09:04:21Z</time>
      </trkpt>
      <trkpt lat="46.48784" lon="6.07035">
        <ele>1108.06</ele>
        <time>2014-05-30T09:04:22Z</time>
      </trkpt>
      <trkpt lat="46.48781" lon="6.07031">
        <ele>1108.06</ele>
        <time>2014-05-30T09:04:23Z</time>
      </trkpt>
      <trkpt lat="46.4878" lon="6.07027">
        <ele>1108.54</ele>
        <time>2014-05-30T09:04:24Z</time>
      </trkpt>
      <trkpt lat="46.48778" lon="6.07023">
        <ele>1108.54</ele>
        <time>2014-05-30T09:04:25Z</time>
      </trkpt>
      <trkpt lat="46.48775" lon="6.07019">
        <ele>1108.54</ele>
        <time>2014-05-30T09:04:26Z</time>
      </trkpt>
      <trkpt lat="46.48748" lon="6.06991">
        <ele>1108.06</ele>
        <time>2014-05-30T09:04:38Z</time>
      </trkpt>
      <trkpt lat="46.48733" lon="6.07027">
        <ele>1108.54</ele>
        <time>2014-05-30T09:04:49Z</time>
      </trkpt>
      <trkpt lat="46.48709" lon="6.07091">
        <ele>1108.06</ele>
        <time>2014-05-30T09:05:03Z</time>
      </trkpt>
      <trkpt lat="46.48682" lon="6.07159">
        <ele>1107.1</ele>
        <time>2014-05-30T09:05:16Z</time>
      </trkpt>
      <trkpt lat="46.48645" lon="6.07253">
        <ele>1103.73</ele>
        <time>2014-05-30T09:05:28Z</time>
      </trkpt>
      <trkpt lat="46.48642" lon="6.07262">
        <ele>1103.73</ele>
        <time>2014-05-30T09:05:29Z</time>
      </trkpt>
      <trkpt lat="46.4864" lon="6.07272">
        <ele>1103.25</ele>
        <time>2014-05-30T09:05:30Z</time>
      </trkpt>
      <trkpt lat="46.48639" lon="6.07283">
        <ele>1102.77</ele>
        <time>2014-05-30T09:05:31Z</time>
      </trkpt>
      <trkpt lat="46.4864" lon="6.07294">
        <ele>1102.77</ele>
        <time>2014-05-30T09:05:32Z</time>
      </trkpt>
      <trkpt lat="46.48642" lon="6.07305">
        <ele>1103.25</ele>
        <time>2014-05-30T09:05:33Z</time>
      </trkpt>
      <trkpt lat="46.48644" lon="6.07315">
        <ele>1102.77</ele>
        <time>2014-05-30T09:05:34Z</time>
      </trkpt>
      <trkpt lat="46.48647" lon="6.07326">
        <ele>1101.81</ele>
        <time>2014-05-30T09:05:35Z</time>
      </trkpt>
      <trkpt lat="46.4865" lon="6.07335">
        <ele>1101.33</ele>
        <time>2014-05-30T09:05:36Z</time>
      </trkpt>
      <trkpt lat="46.48652" lon="6.07343">
        <ele>1101.33</ele>
        <time>2014-05-30T09:05:37Z</time>
      </trkpt>
      <trkpt lat="46.48674" lon="6.07411">
        <ele>1097.96</ele>
        <time>2014-05-30T09:05:45Z</time>
      </trkpt>
      <trkpt lat="46.48698" lon="6.07489">
        <ele>1096.04</ele>
        <time>2014-05-30T09:05:53Z</time>
      </trkpt>
      <trkpt lat="46.48718" lon="6.07563">
        <ele>1093.64</ele>
        <time>2014-05-30T09:06:01Z</time>
      </trkpt>
      <trkpt lat="46.48741" lon="6.07669">
        <ele>1090.75</ele>
        <time>2014-05-30T09:06:14Z</time>
      </trkpt>
      <trkpt lat="46.4874" lon="6.07681">
        <ele>1089.31</ele>
        <time>2014-05-30T09:06:17Z</time>
      </trkpt>
      <trkpt lat="46.48725" lon="6.07752">
        <ele>1087.87</ele>
        <time>2014-05-30T09:06:29Z</time>
      </trkpt>
      <trkpt lat="46.48715" lon="6.07789">
        <ele>1086.43</ele>
        <time>2014-05-30T09:06:34Z</time>
      </trkpt>
      <trkpt lat="46.48686" lon="6.07912">
        <ele>1083.06</ele>
        <time>2014-05-30T09:06:49Z</time>
      </trkpt>
      <trkpt lat="46.48679" lon="6.08002">
        <ele>1079.22</ele>
        <time>2014-05-30T09:06:59Z</time>
      </trkpt>
      <trkpt lat="46.48679" lon="6.08011">
        <ele>1079.22</ele>
        <time>2014-05-30T09:07:00Z</time>
      </trkpt>
      <trkpt lat="46.48686" lon="6.08068">
        <ele>1079.22</ele>
        <time>2014-05-30T09:07:06Z</time>
      </trkpt>
      <trkpt lat="46.48701" lon="6.08123">
        <ele>1077.78</ele>
        <time>2014-05-30T09:07:14Z</time>
      </trkpt>
      <trkpt lat="46.48702" lon="6.08129">
        <ele>1077.29</ele>
        <time>2014-05-30T09:07:15Z</time>
      </trkpt>
      <trkpt lat="46.487" lon="6.08135">
        <ele>1077.29</ele>
        <time>2014-05-30T09:07:16Z</time>
      </trkpt>
      <trkpt lat="46.48698" lon="6.0814">
        <ele>1077.78</ele>
        <time>2014-05-30T09:07:17Z</time>
      </trkpt>
      <trkpt lat="46.48694" lon="6.08143">
        <ele>1077.29</ele>
        <time>2014-05-30T09:07:18Z</time>
      </trkpt>
      <trkpt lat="46.48691" lon="6.08147">
        <ele>1077.29</ele>
        <time>2014-05-30T09:07:19Z</time>
      </trkpt>
      <trkpt lat="46.48688" lon="6.0815">
        <ele>1077.78</ele>
        <time>2014-05-30T09:07:20Z</time>
      </trkpt>
      <trkpt lat="46.48651" lon="6.0818">
        <ele>1078.26</ele>
        <time>2014-05-30T09:07:32Z</time>
      </trkpt>
      <trkpt lat="46.48643" lon="6.08185">
        <ele>1078.26</ele>
        <time>2014-05-30T09:07:34Z</time>
      </trkpt>
      <trkpt lat="46.48639" lon="6.08188">
        <ele>1078.26</ele>
        <time>2014-05-30T09:07:35Z</time>
      </trkpt>
      <trkpt lat="46.48627" lon="6.08195">
        <ele>1078.74</ele>
        <time>2014-05-30T09:07:38Z</time>
      </trkpt>
      <trkpt lat="46.48619" lon="6.082">
        <ele>1078.74</ele>
        <time>2014-05-30T09:07:40Z</time>
      </trkpt>
      <trkpt lat="46.48615" lon="6.08202">
        <ele>1079.22</ele>
        <time>2014-05-30T09:07:41Z</time>
      </trkpt>
      <trkpt lat="46.48552" lon="6.0824">
        <ele>1080.66</ele>
        <time>2014-05-30T09:07:58Z</time>
      </trkpt>
      <trkpt lat="46.48508" lon="6.08299">
        <ele>1082.58</ele>
        <time>2014-05-30T09:08:14Z</time>
      </trkpt>
      <trkpt lat="46.48483" lon="6.08386">
        <ele>1084.99</ele>
        <time>2014-05-30T09:08:32Z</time>
      </trkpt>
      <trkpt lat="46.48478" lon="6.08459">
        <ele>1086.91</ele>
        <time>2014-05-30T09:08:47Z</time>
      </trkpt>
      <trkpt lat="46.48482" lon="6.08533">
        <ele>1088.35</ele>
        <time>2014-05-30T09:09:02Z</time>
      </trkpt>
      <trkpt lat="46.48491" lon="6.08615">
        <ele>1090.27</ele>
        <time>2014-05-30T09:09:18Z</time>
      </trkpt>
      <trkpt lat="46.48484" lon="6.08677">
        <ele>1092.2</ele>
        <time>2014-05-30T09:09:31Z</time>
      </trkpt>
      <trkpt lat="46.48482" lon="6.08677">
        <ele>1092.2</ele>
        <time>2014-05-30T09:09:32Z</time>
      </trkpt>
      <trkpt lat="46.48479" lon="6.08676">
        <ele>1091.71</ele>
        <time>2014-05-30T09:09:33Z</time>
      </trkpt>
      <trkpt lat="46.48476" lon="6.08672">
        <ele>1091.23</ele>
        <time>2014-05-30T09:09:34Z</time>
      </trkpt>
      <trkpt lat="46.48474" lon="6.08666">
        <ele>1091.23</ele>
        <time>2014-05-30T09:09:35Z</time>
      </trkpt>
      <trkpt lat="46.48472" lon="6.08659">
        <ele>1090.27</ele>
        <time>2014-05-30T09:09:36Z</time>
      </trkpt>
      <trkpt lat="46.4847" lon="6.08651">
        <ele>1089.79</ele>
        <time>2014-05-30T09:09:37Z</time>
      </trkpt>
      <trkpt lat="46.48459" lon="6.08622">
        <ele>1087.39</ele>
        <time>2014-05-30T09:09:40Z</time>
      </trkpt>
      <trkpt lat="46.48452" lon="6.08614">
        <ele>1086.43</ele>
        <time>2014-05-30T09:09:41Z</time>
      </trkpt>
      <trkpt lat="46.48443" lon="6.08609">
        <ele>1085.47</ele>
        <time>2014-05-30T09:09:42Z</time>
      </trkpt>
      <trkpt lat="46.48434" lon="6.08607">
        <ele>1084.99</ele>
        <time>2014-05-30T09:09:43Z</time>
      </trkpt>
      <trkpt lat="46.48425" lon="6.08606">
        <ele>1084.99</ele>
        <time>2014-05-30T09:09:44Z</time>
      </trkpt>
      <trkpt lat="46.48416" lon="6.08607">
        <ele>1084.99</ele>
        <time>2014-05-30T09:09:45Z</time>
      </trkpt>
      <trkpt lat="46.48369" lon="6.08609">
        <ele>1083.54</ele>
        <time>2014-05-30T09:09:51Z</time>
      </trkpt>
      <trkpt lat="46.48362" lon="6.08607">
        <ele>1083.54</ele>
        <time>2014-05-30T09:09:52Z</time>
      </trkpt>
      <trkpt lat="46.48356" lon="6.08604">
        <ele>1083.54</ele>
        <time>2014-05-30T09:09:53Z</time>
      </trkpt>
      <trkpt lat="46.48351" lon="6.086">
        <ele>1084.02</ele>
        <time>2014-05-30T09:09:54Z</time>
      </trkpt>
      <trkpt lat="46.48347" lon="6.08596">
        <ele>1084.99</ele>
        <time>2014-05-30T09:09:55Z</time>
      </trkpt>
      <trkpt lat="46.48343" lon="6.08591">
        <ele>1084.5</ele>
        <time>2014-05-30T09:09:56Z</time>
      </trkpt>
      <trkpt lat="46.4833" lon="6.08573">
        <ele>1087.39</ele>
        <time>2014-05-30T09:10:00Z</time>
      </trkpt>
      <trkpt lat="46.48314" lon="6.08551">
        <ele>1088.83</ele>
        <time>2014-05-30T09:10:05Z</time>
      </trkpt>
      <trkpt lat="46.48274" lon="6.08486">
        <ele>1090.27</ele>
        <time>2014-05-30T09:10:21Z</time>
      </trkpt>
      <trkpt lat="46.48268" lon="6.08472">
        <ele>1090.27</ele>
        <time>2014-05-30T09:10:24Z</time>
      </trkpt>
      <trkpt lat="46.48266" lon="6.08466">
        <ele>1089.79</ele>
        <time>2014-05-30T09:10:25Z</time>
      </trkpt>
      <trkpt lat="46.48263" lon="6.08415">
        <ele>1089.79</ele>
        <time>2014-05-30T09:10:34Z</time>
      </trkpt>
      <trkpt lat="46.48262" lon="6.084">
        <ele>1089.79</ele>
        <time>2014-05-30T09:10:36Z</time>
      </trkpt>
      <trkpt lat="46.48257" lon="6.0838">
        <ele>1089.31</ele>
        <time>2014-05-30T09:10:39Z</time>
      </trkpt>
      <trkpt lat="46.48254" lon="6.08373">
        <ele>1088.83</ele>
        <time>2014-05-30T09:10:40Z</time>
      </trkpt>
      <trkpt lat="46.4825" lon="6.08367">
        <ele>1088.83</ele>
        <time>2014-05-30T09:10:41Z</time>
      </trkpt>
      <trkpt lat="46.482" lon="6.08295">
        <ele>1088.83</ele>
        <time>2014-05-30T09:10:55Z</time>
      </trkpt>
      <trkpt lat="46.48194" lon="6.08279">
        <ele>1089.31</ele>
        <time>2014-05-30T09:10:58Z</time>
      </trkpt>
      <trkpt lat="46.48193" lon="6.08274">
        <ele>1088.83</ele>
        <time>2014-05-30T09:10:59Z</time>
      </trkpt>
      <trkpt lat="46.48191" lon="6.08268">
        <ele>1088.83</ele>
        <time>2014-05-30T09:11:00Z</time>
      </trkpt>
      <trkpt lat="46.48181" lon="6.08201">
        <ele>1092.2</ele>
        <time>2014-05-30T09:11:13Z</time>
      </trkpt>
      <trkpt lat="46.48165" lon="6.08181">
        <ele>1094.12</ele>
        <time>2014-05-30T09:11:24Z</time>
      </trkpt>
      <trkpt lat="46.48165" lon="6.08181">
        <ele>1094.12</ele>
        <time>2014-05-30T09:11:43Z</time>
      </trkpt>
      <trkpt lat="46.48168" lon="6.08181">
        <ele>1093.64</ele>
        <time>2014-05-30T09:11:59Z</time>
      </trkpt>
      <trkpt lat="46.48186" lon="6.08211">
        <ele>1091.71</ele>
        <time>2014-05-30T09:12:09Z</time>
      </trkpt>
      <trkpt lat="46.48193" lon="6.08266">
        <ele>1090.27</ele>
        <time>2014-05-30T09:12:17Z</time>
      </trkpt>
      <trkpt lat="46.48198" lon="6.08286">
        <ele>1089.31</ele>
        <time>2014-05-30T09:12:20Z</time>
      </trkpt>
      <trkpt lat="46.48201" lon="6.08292">
        <ele>1089.31</ele>
        <time>2014-05-30T09:12:21Z</time>
      </trkpt>
      <trkpt lat="46.48206" lon="6.08302">
        <ele>1089.31</ele>
        <time>2014-05-30T09:12:23Z</time>
      </trkpt>
      <trkpt lat="46.48218" lon="6.08319">
        <ele>1088.83</ele>
        <time>2014-05-30T09:12:27Z</time>
      </trkpt>
      <trkpt lat="46.48221" lon="6.08324">
        <ele>1088.83</ele>
        <time>2014-05-30T09:12:28Z</time>
      </trkpt>
      <trkpt lat="46.48245" lon="6.08358">
        <ele>1088.35</ele>
        <time>2014-05-30T09:12:36Z</time>
      </trkpt>
      <trkpt lat="46.48248" lon="6.08362">
        <ele>1088.35</ele>
        <time>2014-05-30T09:12:37Z</time>
      </trkpt>
      <trkpt lat="46.48259" lon="6.0838">
        <ele>1089.31</ele>
        <time>2014-05-30T09:12:41Z</time>
      </trkpt>
      <trkpt lat="46.4826" lon="6.08385">
        <ele>1089.31</ele>
        <time>2014-05-30T09:12:42Z</time>
      </trkpt>
      <trkpt lat="46.48262" lon="6.08391">
        <ele>1089.79</ele>
        <time>2014-05-30T09:12:43Z</time>
      </trkpt>
      <trkpt lat="46.48268" lon="6.08465">
        <ele>1090.75</ele>
        <time>2014-05-30T09:12:56Z</time>
      </trkpt>
      <trkpt lat="46.48271" lon="6.08477">
        <ele>1091.23</ele>
        <time>2014-05-30T09:12:58Z</time>
      </trkpt>
      <trkpt lat="46.48273" lon="6.08483">
        <ele>1090.75</ele>
        <time>2014-05-30T09:12:59Z</time>
      </trkpt>
      <trkpt lat="46.48276" lon="6.08488">
        <ele>1091.23</ele>
        <time>2014-05-30T09:13:00Z</time>
      </trkpt>
      <trkpt lat="46.48289" lon="6.08511">
        <ele>1090.75</ele>
        <time>2014-05-30T09:13:05Z</time>
      </trkpt>
      <trkpt lat="46.48302" lon="6.08531">
        <ele>1090.27</ele>
        <time>2014-05-30T09:13:14Z</time>
      </trkpt>
      <trkpt lat="46.48306" lon="6.08538">
        <ele>1090.27</ele>
        <time>2014-05-30T09:13:25Z</time>
      </trkpt>
      <trkpt lat="46.48307" lon="6.08539">
        <ele>1090.27</ele>
        <time>2014-05-30T09:13:26Z</time>
      </trkpt>
      <trkpt lat="46.48308" lon="6.08539">
        <ele>1090.27</ele>
        <time>2014-05-30T09:13:27Z</time>
      </trkpt>
      <trkpt lat="46.48309" lon="6.08539">
        <ele>1090.27</ele>
        <time>2014-05-30T09:13:28Z</time>
      </trkpt>
      <trkpt lat="46.4831" lon="6.08541">
        <ele>1090.27</ele>
        <time>2014-05-30T09:13:29Z</time>
      </trkpt>
      <trkpt lat="46.48311" lon="6.08544">
        <ele>1090.27</ele>
        <time>2014-05-30T09:13:30Z</time>
      </trkpt>
      <trkpt lat="46.48313" lon="6.08547">
        <ele>1090.27</ele>
        <time>2014-05-30T09:13:31Z</time>
      </trkpt>
      <trkpt lat="46.48325" lon="6.08562">
        <ele>1088.83</ele>
        <time>2014-05-30T09:13:35Z</time>
      </trkpt>
      <trkpt lat="46.48328" lon="6.08567">
        <ele>1088.83</ele>
        <time>2014-05-30T09:13:36Z</time>
      </trkpt>
      <trkpt lat="46.48331" lon="6.08573">
        <ele>1088.83</ele>
        <time>2014-05-30T09:13:37Z</time>
      </trkpt>
      <trkpt lat="46.48334" lon="6.08579">
        <ele>1088.83</ele>
        <time>2014-05-30T09:13:38Z</time>
      </trkpt>
      <trkpt lat="46.48338" lon="6.08584">
        <ele>1088.35</ele>
        <time>2014-05-30T09:13:39Z</time>
      </trkpt>
      <trkpt lat="46.48342" lon="6.0859">
        <ele>1087.39</ele>
        <time>2014-05-30T09:13:40Z</time>
      </trkpt>
      <trkpt lat="46.48348" lon="6.08595">
        <ele>1087.39</ele>
        <time>2014-05-30T09:13:41Z</time>
      </trkpt>
      <trkpt lat="46.4836" lon="6.08606">
        <ele>1085.95</ele>
        <time>2014-05-30T09:13:43Z</time>
      </trkpt>
      <trkpt lat="46.48367" lon="6.0861">
        <ele>1085.47</ele>
        <time>2014-05-30T09:13:44Z</time>
      </trkpt>
      <trkpt lat="46.48374" lon="6.08611">
        <ele>1084.99</ele>
        <time>2014-05-30T09:13:45Z</time>
      </trkpt>
      <trkpt lat="46.48381" lon="6.08611">
        <ele>1084.99</ele>
        <time>2014-05-30T09:13:46Z</time>
      </trkpt>
      <trkpt lat="46.48388" lon="6.08611">
        <ele>1084.99</ele>
        <time>2014-05-30T09:13:47Z</time>
      </trkpt>
      <trkpt lat="46.4843" lon="6.08608">
        <ele>1084.99</ele>
        <time>2014-05-30T09:13:54Z</time>
      </trkpt>
      <trkpt lat="46.48436" lon="6.08609">
        <ele>1084.99</ele>
        <time>2014-05-30T09:13:55Z</time>
      </trkpt>
      <trkpt lat="46.48451" lon="6.08615">
        <ele>1084.99</ele>
        <time>2014-05-30T09:13:58Z</time>
      </trkpt>
      <trkpt lat="46.48459" lon="6.08622">
        <ele>1084.99</ele>
        <time>2014-05-30T09:14:00Z</time>
      </trkpt>
      <trkpt lat="46.48465" lon="6.08633">
        <ele>1085.95</ele>
        <time>2014-05-30T09:14:02Z</time>
      </trkpt>
      <trkpt lat="46.48468" lon="6.08639">
        <ele>1086.91</ele>
        <time>2014-05-30T09:14:03Z</time>
      </trkpt>
      <trkpt lat="46.4847" lon="6.08645">
        <ele>1086.91</ele>
        <time>2014-05-30T09:14:04Z</time>
      </trkpt>
      <trkpt lat="46.48474" lon="6.08656">
        <ele>1088.35</ele>
        <time>2014-05-30T09:14:06Z</time>
      </trkpt>
      <trkpt lat="46.48475" lon="6.08661">
        <ele>1088.83</ele>
        <time>2014-05-30T09:14:07Z</time>
      </trkpt>
      <trkpt lat="46.48476" lon="6.08667">
        <ele>1089.79</ele>
        <time>2014-05-30T09:14:08Z</time>
      </trkpt>
      <trkpt lat="46.48478" lon="6.08672">
        <ele>1089.79</ele>
        <time>2014-05-30T09:14:09Z</time>
      </trkpt>
      <trkpt lat="46.48479" lon="6.08679">
        <ele>1090.27</ele>
        <time>2014-05-30T09:14:10Z</time>
      </trkpt>
      <trkpt lat="46.48479" lon="6.08684">
        <ele>1091.23</ele>
        <time>2014-05-30T09:14:11Z</time>
      </trkpt>
      <trkpt lat="46.48481" lon="6.08693">
        <ele>1092.68</ele>
        <time>2014-05-30T09:14:13Z</time>
      </trkpt>
      <trkpt lat="46.48469" lon="6.08747">
        <ele>1093.64</ele>
        <time>2014-05-30T09:14:28Z</time>
      </trkpt>
      <trkpt lat="46.48456" lon="6.08802">
        <ele>1094.6</ele>
        <time>2014-05-30T09:14:43Z</time>
      </trkpt>
      <trkpt lat="46.48433" lon="6.08837">
        <ele>1096.04</ele>
        <time>2014-05-30T09:14:57Z</time>
      </trkpt>
      <trkpt lat="46.48389" lon="6.08874">
        <ele>1097</ele>
        <time>2014-05-30T09:15:14Z</time>
      </trkpt>
      <trkpt lat="46.48338" lon="6.08891">
        <ele>1097.96</ele>
        <time>2014-05-30T09:15:30Z</time>
      </trkpt>
      <trkpt lat="46.48283" lon="6.08891">
        <ele>1099.4</ele>
        <time>2014-05-30T09:15:45Z</time>
      </trkpt>
      <trkpt lat="46.48215" lon="6.08878">
        <ele>1100.85</ele>
        <time>2014-05-30T09:16:03Z</time>
      </trkpt>
      <trkpt lat="46.48163" lon="6.08868">
        <ele>1101.81</ele>
        <time>2014-05-30T09:16:17Z</time>
      </trkpt>
      <trkpt lat="46.4816" lon="6.08865">
        <ele>1101.81</ele>
        <time>2014-05-30T09:16:18Z</time>
      </trkpt>
      <trkpt lat="46.48124" lon="6.08823">
        <ele>1103.73</ele>
        <time>2014-05-30T09:16:31Z</time>
      </trkpt>
      <trkpt lat="46.48084" lon="6.0876">
        <ele>1105.65</ele>
        <time>2014-05-30T09:16:47Z</time>
      </trkpt>
      <trkpt lat="46.48046" lon="6.08722">
        <ele>1107.58</ele>
        <time>2014-05-30T09:17:00Z</time>
      </trkpt>
      <trkpt lat="46.47981" lon="6.08684">
        <ele>1109.5</ele>
        <time>2014-05-30T09:17:19Z</time>
      </trkpt>
      <trkpt lat="46.47915" lon="6.08643">
        <ele>1110.94</ele>
        <time>2014-05-30T09:17:38Z</time>
      </trkpt>
      <trkpt lat="46.47853" lon="6.08615">
        <ele>1112.86</ele>
        <time>2014-05-30T09:17:56Z</time>
      </trkpt>
      <trkpt lat="46.47798" lon="6.08612">
        <ele>1114.31</ele>
        <time>2014-05-30T09:18:12Z</time>
      </trkpt>
      <trkpt lat="46.4775" lon="6.08612">
        <ele>1117.19</ele>
        <time>2014-05-30T09:18:27Z</time>
      </trkpt>
      <trkpt lat="46.47746" lon="6.0861">
        <ele>1117.19</ele>
        <time>2014-05-30T09:18:30Z</time>
      </trkpt>
      <trkpt lat="46.47744" lon="6.08609">
        <ele>1117.19</ele>
        <time>2014-05-30T09:18:32Z</time>
      </trkpt>
      <trkpt lat="46.47741" lon="6.08611">
        <ele>1117.19</ele>
        <time>2014-05-30T09:18:33Z</time>
      </trkpt>
      <trkpt lat="46.4774" lon="6.08617">
        <ele>1117.67</ele>
        <time>2014-05-30T09:18:34Z</time>
      </trkpt>
      <trkpt lat="46.47738" lon="6.08626">
        <ele>1117.67</ele>
        <time>2014-05-30T09:18:35Z</time>
      </trkpt>
      <trkpt lat="46.47736" lon="6.08635">
        <ele>1117.67</ele>
        <time>2014-05-30T09:18:36Z</time>
      </trkpt>
      <trkpt lat="46.47732" lon="6.08643">
        <ele>1117.19</ele>
        <time>2014-05-30T09:18:37Z</time>
      </trkpt>
      <trkpt lat="46.47693" lon="6.08711">
        <ele>1118.15</ele>
        <time>2014-05-30T09:18:47Z</time>
      </trkpt>
      <trkpt lat="46.47677" lon="6.08749">
        <ele>1120.55</ele>
        <time>2014-05-30T09:19:00Z</time>
      </trkpt>
      <trkpt lat="46.47673" lon="6.08756">
        <ele>1120.07</ele>
        <time>2014-05-30T09:19:03Z</time>
      </trkpt>
      <trkpt lat="46.47667" lon="6.08766">
        <ele>1121.03</ele>
        <time>2014-05-30T09:19:08Z</time>
      </trkpt>
      <trkpt lat="46.47662" lon="6.08772">
        <ele>1121.52</ele>
        <time>2014-05-30T09:19:12Z</time>
      </trkpt>
      <trkpt lat="46.47654" lon="6.08781">
        <ele>1123.92</ele>
        <time>2014-05-30T09:19:19Z</time>
      </trkpt>
      <trkpt lat="46.47641" lon="6.08799">
        <ele>1125.84</ele>
        <time>2014-05-30T09:19:31Z</time>
      </trkpt>
      <trkpt lat="46.47624" lon="6.08825">
        <ele>1127.28</ele>
        <time>2014-05-30T09:19:45Z</time>
      </trkpt>
      <trkpt lat="46.47624" lon="6.08856">
        <ele>1129.21</ele>
        <time>2014-05-30T09:19:58Z</time>
      </trkpt>
      <trkpt lat="46.47639" lon="6.08881">
        <ele>1131.13</ele>
        <time>2014-05-30T09:20:10Z</time>
      </trkpt>
      <trkpt lat="46.47648" lon="6.08899">
        <ele>1133.05</ele>
        <time>2014-05-30T09:20:19Z</time>
      </trkpt>
      <trkpt lat="46.47662" lon="6.08923">
        <ele>1134.49</ele>
        <time>2014-05-30T09:20:30Z</time>
      </trkpt>
      <trkpt lat="46.47676" lon="6.08944">
        <ele>1137.86</ele>
        <time>2014-05-30T09:20:41Z</time>
      </trkpt>
      <trkpt lat="46.4769" lon="6.08982">
        <ele>1140.74</ele>
        <time>2014-05-30T09:20:56Z</time>
      </trkpt>
      <trkpt lat="46.47704" lon="6.09012">
        <ele>1143.63</ele>
        <time>2014-05-30T09:21:08Z</time>
      </trkpt>
      <trkpt lat="46.47705" lon="6.09015">
        <ele>1143.14</ele>
        <time>2014-05-30T09:21:09Z</time>
      </trkpt>
      <trkpt lat="46.47708" lon="6.09022">
        <ele>1138.82</ele>
        <time>2014-05-30T09:21:12Z</time>
      </trkpt>
      <trkpt lat="46.47709" lon="6.09024">
        <ele>1143.14</ele>
        <time>2014-05-30T09:21:13Z</time>
      </trkpt>
      <trkpt lat="46.47726" lon="6.09057">
        <ele>1145.55</ele>
        <time>2014-05-30T09:21:27Z</time>
      </trkpt>
      <trkpt lat="46.4774" lon="6.09087">
        <ele>1147.47</ele>
        <time>2014-05-30T09:21:39Z</time>
      </trkpt>
      <trkpt lat="46.4775" lon="6.09114">
        <ele>1148.43</ele>
        <time>2014-05-30T09:21:51Z</time>
      </trkpt>
      <trkpt lat="46.47757" lon="6.09127">
        <ele>1148.43</ele>
        <time>2014-05-30T09:22:02Z</time>
      </trkpt>
      <trkpt lat="46.47757" lon="6.09128">
        <ele>1148.43</ele>
        <time>2014-05-30T09:22:23Z</time>
      </trkpt>
      <trkpt lat="46.47756" lon="6.09124">
        <ele>1147.95</ele>
        <time>2014-05-30T09:22:26Z</time>
      </trkpt>
      <trkpt lat="46.47748" lon="6.09106">
        <ele>1147.95</ele>
        <time>2014-05-30T09:22:38Z</time>
      </trkpt>
      <trkpt lat="46.47731" lon="6.09069">
        <ele>1146.03</ele>
        <time>2014-05-30T09:22:50Z</time>
      </trkpt>
      <trkpt lat="46.47707" lon="6.09021">
        <ele>1143.14</ele>
        <time>2014-05-30T09:22:57Z</time>
      </trkpt>
      <trkpt lat="46.47688" lon="6.08979">
        <ele>1140.74</ele>
        <time>2014-05-30T09:23:02Z</time>
      </trkpt>
      <trkpt lat="46.47669" lon="6.08935">
        <ele>1137.86</ele>
        <time>2014-05-30T09:23:07Z</time>
      </trkpt>
      <trkpt lat="46.47652" lon="6.08907">
        <ele>1134.49</ele>
        <time>2014-05-30T09:23:10Z</time>
      </trkpt>
      <trkpt lat="46.47634" lon="6.08878">
        <ele>1132.09</ele>
        <time>2014-05-30T09:23:13Z</time>
      </trkpt>
      <trkpt lat="46.47624" lon="6.08858">
        <ele>1130.65</ele>
        <time>2014-05-30T09:23:15Z</time>
      </trkpt>
      <trkpt lat="46.47622" lon="6.08848">
        <ele>1129.69</ele>
        <time>2014-05-30T09:23:16Z</time>
      </trkpt>
      <trkpt lat="46.47622" lon="6.08837">
        <ele>1128.73</ele>
        <time>2014-05-30T09:23:17Z</time>
      </trkpt>
      <trkpt lat="46.47624" lon="6.08826">
        <ele>1128.24</ele>
        <time>2014-05-30T09:23:18Z</time>
      </trkpt>
      <trkpt lat="46.47628" lon="6.08817">
        <ele>1127.76</ele>
        <time>2014-05-30T09:23:19Z</time>
      </trkpt>
      <trkpt lat="46.47632" lon="6.08808">
        <ele>1127.28</ele>
        <time>2014-05-30T09:23:20Z</time>
      </trkpt>
      <trkpt lat="46.47636" lon="6.08799">
        <ele>1127.28</ele>
        <time>2014-05-30T09:23:21Z</time>
      </trkpt>
      <trkpt lat="46.47642" lon="6.08792">
        <ele>1126.8</ele>
        <time>2014-05-30T09:23:22Z</time>
      </trkpt>
      <trkpt lat="46.47671" lon="6.08755">
        <ele>1122.48</ele>
        <time>2014-05-30T09:23:26Z</time>
      </trkpt>
      <trkpt lat="46.47698" lon="6.08706">
        <ele>1119.59</ele>
        <time>2014-05-30T09:23:30Z</time>
      </trkpt>
      <trkpt lat="46.47704" lon="6.08694">
        <ele>1119.11</ele>
        <time>2014-05-30T09:23:31Z</time>
      </trkpt>
      <trkpt lat="46.47731" lon="6.08647">
        <ele>1117.19</ele>
        <time>2014-05-30T09:23:35Z</time>
      </trkpt>
      <trkpt lat="46.47737" lon="6.08638">
        <ele>1117.19</ele>
        <time>2014-05-30T09:23:36Z</time>
      </trkpt>
      <trkpt lat="46.47747" lon="6.08622">
        <ele>1117.67</ele>
        <time>2014-05-30T09:23:38Z</time>
      </trkpt>
      <trkpt lat="46.47748" lon="6.08614">
        <ele>1117.19</ele>
        <time>2014-05-30T09:23:39Z</time>
      </trkpt>
      <trkpt lat="46.47746" lon="6.08607">
        <ele>1117.19</ele>
        <time>2014-05-30T09:23:40Z</time>
      </trkpt>
      <trkpt lat="46.47742" lon="6.08603">
        <ele>1117.19</ele>
        <time>2014-05-30T09:23:41Z</time>
      </trkpt>
      <trkpt lat="46.47737" lon="6.086">
        <ele>1116.71</ele>
        <time>2014-05-30T09:23:42Z</time>
      </trkpt>
      <trkpt lat="46.47733" lon="6.08598">
        <ele>1116.71</ele>
        <time>2014-05-30T09:23:43Z</time>
      </trkpt>
      <trkpt lat="46.4773" lon="6.08596">
        <ele>1117.19</ele>
        <time>2014-05-30T09:23:44Z</time>
      </trkpt>
      <trkpt lat="46.47728" lon="6.08592">
        <ele>1117.19</ele>
        <time>2014-05-30T09:23:45Z</time>
      </trkpt>
      <trkpt lat="46.47725" lon="6.08589">
        <ele>1117.19</ele>
        <time>2014-05-30T09:23:46Z</time>
      </trkpt>
      <trkpt lat="46.47703" lon="6.08547">
        <ele>1119.59</ele>
        <time>2014-05-30T09:23:58Z</time>
      </trkpt>
      <trkpt lat="46.47674" lon="6.08488">
        <ele>1120.55</ele>
        <time>2014-05-30T09:24:13Z</time>
      </trkpt>
      <trkpt lat="46.47644" lon="6.08424">
        <ele>1121.52</ele>
        <time>2014-05-30T09:24:27Z</time>
      </trkpt>
      <trkpt lat="46.47642" lon="6.08419">
        <ele>1121.52</ele>
        <time>2014-05-30T09:24:28Z</time>
      </trkpt>
      <trkpt lat="46.47593" lon="6.08371">
        <ele>1122.96</ele>
        <time>2014-05-30T09:24:43Z</time>
      </trkpt>
      <trkpt lat="46.47574" lon="6.08344">
        <ele>1123.44</ele>
        <time>2014-05-30T09:24:50Z</time>
      </trkpt>
      <trkpt lat="46.47572" lon="6.08338">
        <ele>1123.44</ele>
        <time>2014-05-30T09:24:51Z</time>
      </trkpt>
      <trkpt lat="46.4757" lon="6.08333">
        <ele>1123.92</ele>
        <time>2014-05-30T09:24:52Z</time>
      </trkpt>
      <trkpt lat="46.47543" lon="6.08262">
        <ele>1125.36</ele>
        <time>2014-05-30T09:25:06Z</time>
      </trkpt>
      <trkpt lat="46.47523" lon="6.08208">
        <ele>1125.84</ele>
        <time>2014-05-30T09:25:16Z</time>
      </trkpt>
      <trkpt lat="46.47487" lon="6.08137">
        <ele>1126.8</ele>
        <time>2014-05-30T09:25:30Z</time>
      </trkpt>
      <trkpt lat="46.47481" lon="6.08128">
        <ele>1127.28</ele>
        <time>2014-05-30T09:25:32Z</time>
      </trkpt>
      <trkpt lat="46.47424" lon="6.08069">
        <ele>1127.28</ele>
        <time>2014-05-30T09:25:47Z</time>
      </trkpt>
      <trkpt lat="46.47411" lon="6.08061">
        <ele>1127.28</ele>
        <time>2014-05-30T09:25:50Z</time>
      </trkpt>
      <trkpt lat="46.47329" lon="6.08021">
        <ele>1127.76</ele>
        <time>2014-05-30T09:26:07Z</time>
      </trkpt>
      <trkpt lat="46.47257" lon="6.07975">
        <ele>1130.17</ele>
        <time>2014-05-30T09:26:24Z</time>
      </trkpt>
      <trkpt lat="46.47208" lon="6.07922">
        <ele>1133.05</ele>
        <time>2014-05-30T09:26:39Z</time>
      </trkpt>
      <trkpt lat="46.47172" lon="6.07882">
        <ele>1134.97</ele>
        <time>2014-05-30T09:26:50Z</time>
      </trkpt>
      <trkpt lat="46.47166" lon="6.07874">
        <ele>1135.45</ele>
        <time>2014-05-30T09:26:52Z</time>
      </trkpt>
      <trkpt lat="46.47163" lon="6.0787">
        <ele>1135.45</ele>
        <time>2014-05-30T09:26:53Z</time>
      </trkpt>
      <trkpt lat="46.47104" lon="6.07808">
        <ele>1136.9</ele>
        <time>2014-05-30T09:27:10Z</time>
      </trkpt>
      <trkpt lat="46.47062" lon="6.07762">
        <ele>1138.82</ele>
        <time>2014-05-30T09:27:23Z</time>
      </trkpt>
      <trkpt lat="46.47059" lon="6.07759">
        <ele>1139.3</ele>
        <time>2014-05-30T09:27:24Z</time>
      </trkpt>
      <trkpt lat="46.47056" lon="6.07755">
        <ele>1139.3</ele>
        <time>2014-05-30T09:27:25Z</time>
      </trkpt>
      <trkpt lat="46.47012" lon="6.07706">
        <ele>1142.66</ele>
        <time>2014-05-30T09:27:38Z</time>
      </trkpt>
      <trkpt lat="46.46972" lon="6.07646">
        <ele>1144.59</ele>
        <time>2014-05-30T09:27:53Z</time>
      </trkpt>
      <trkpt lat="46.46937" lon="6.07607">
        <ele>1145.55</ele>
        <time>2014-05-30T09:28:04Z</time>
      </trkpt>
      <trkpt lat="46.46905" lon="6.07566">
        <ele>1146.51</ele>
        <time>2014-05-30T09:28:14Z</time>
      </trkpt>
      <trkpt lat="46.4687" lon="6.07496">
        <ele>1147.95</ele>
        <time>2014-05-30T09:28:28Z</time>
      </trkpt>
      <trkpt lat="46.46867" lon="6.07492">
        <ele>1148.43</ele>
        <time>2014-05-30T09:28:29Z</time>
      </trkpt>
      <trkpt lat="46.4686" lon="6.07484">
        <ele>1147.95</ele>
        <time>2014-05-30T09:28:31Z</time>
      </trkpt>
      <trkpt lat="46.46794" lon="6.07422">
        <ele>1147.95</ele>
        <time>2014-05-30T09:28:48Z</time>
      </trkpt>
      <trkpt lat="46.46714" lon="6.07383">
        <ele>1148.91</ele>
        <time>2014-05-30T09:29:06Z</time>
      </trkpt>
      <trkpt lat="46.46706" lon="6.07379">
        <ele>1148.43</ele>
        <time>2014-05-30T09:29:08Z</time>
      </trkpt>
      <trkpt lat="46.46702" lon="6.07376">
        <ele>1148.43</ele>
        <time>2014-05-30T09:29:09Z</time>
      </trkpt>
      <trkpt lat="46.46699" lon="6.07372">
        <ele>1148.43</ele>
        <time>2014-05-30T09:29:10Z</time>
      </trkpt>
      <trkpt lat="46.46696" lon="6.07368">
        <ele>1148.43</ele>
        <time>2014-05-30T09:29:11Z</time>
      </trkpt>
      <trkpt lat="46.46694" lon="6.07362">
        <ele>1148.91</ele>
        <time>2014-05-30T09:29:12Z</time>
      </trkpt>
      <trkpt lat="46.46693" lon="6.07356">
        <ele>1148.43</ele>
        <time>2014-05-30T09:29:13Z</time>
      </trkpt>
      <trkpt lat="46.46692" lon="6.07349">
        <ele>1148.91</ele>
        <time>2014-05-30T09:29:14Z</time>
      </trkpt>
      <trkpt lat="46.46692" lon="6.07343">
        <ele>1148.43</ele>
        <time>2014-05-30T09:29:15Z</time>
      </trkpt>
      <trkpt lat="46.46692" lon="6.07336">
        <ele>1148.91</ele>
        <time>2014-05-30T09:29:16Z</time>
      </trkpt>
      <trkpt lat="46.46692" lon="6.07329">
        <ele>1148.91</ele>
        <time>2014-05-30T09:29:17Z</time>
      </trkpt>
      <trkpt lat="46.46694" lon="6.07316">
        <ele>1148.91</ele>
        <time>2014-05-30T09:29:19Z</time>
      </trkpt>
      <trkpt lat="46.46696" lon="6.07297">
        <ele>1149.39</ele>
        <time>2014-05-30T09:29:22Z</time>
      </trkpt>
      <trkpt lat="46.46695" lon="6.0729">
        <ele>1149.39</ele>
        <time>2014-05-30T09:29:23Z</time>
      </trkpt>
      <trkpt lat="46.46691" lon="6.07272">
        <ele>1149.39</ele>
        <time>2014-05-30T09:29:25Z</time>
      </trkpt>
      <trkpt lat="46.46685" lon="6.07253">
        <ele>1148.91</ele>
        <time>2014-05-30T09:29:27Z</time>
      </trkpt>
      <trkpt lat="46.46684" lon="6.07245">
        <ele>1148.91</ele>
        <time>2014-05-30T09:29:28Z</time>
      </trkpt>
      <trkpt lat="46.46684" lon="6.07242">
        <ele>1149.87</ele>
        <time>2014-05-30T09:29:29Z</time>
      </trkpt>
      <trkpt lat="46.46683" lon="6.07239">
        <ele>1149.87</ele>
        <time>2014-05-30T09:29:30Z</time>
      </trkpt>
      <trkpt lat="46.4668" lon="6.07238">
        <ele>1149.87</ele>
        <time>2014-05-30T09:29:31Z</time>
      </trkpt>
      <trkpt lat="46.46676" lon="6.07238">
        <ele>1149.87</ele>
        <time>2014-05-30T09:29:32Z</time>
      </trkpt>
      <trkpt lat="46.46672" lon="6.0724">
        <ele>1149.39</ele>
        <time>2014-05-30T09:29:33Z</time>
      </trkpt>
      <trkpt lat="46.46667" lon="6.07241">
        <ele>1149.87</ele>
        <time>2014-05-30T09:29:34Z</time>
      </trkpt>
      <trkpt lat="46.46628" lon="6.07255">
        <ele>1149.87</ele>
        <time>2014-05-30T09:29:47Z</time>
      </trkpt>
      <trkpt lat="46.4662" lon="6.07257">
        <ele>1149.39</ele>
        <time>2014-05-30T09:29:57Z</time>
      </trkpt>
      <trkpt lat="46.46596" lon="6.07261">
        <ele>1150.84</ele>
        <time>2014-05-30T09:30:06Z</time>
      </trkpt>
      <trkpt lat="46.4654" lon="6.07268">
        <ele>1151.8</ele>
        <time>2014-05-30T09:30:21Z</time>
      </trkpt>
      <trkpt lat="46.46521" lon="6.07273">
        <ele>1152.76</ele>
        <time>2014-05-30T09:30:26Z</time>
      </trkpt>
      <trkpt lat="46.46497" lon="6.07274">
        <ele>1152.76</ele>
        <time>2014-05-30T09:30:33Z</time>
      </trkpt>
      <trkpt lat="46.46491" lon="6.07289">
        <ele>1153.72</ele>
        <time>2014-05-30T09:30:38Z</time>
      </trkpt>
      <trkpt lat="46.46489" lon="6.07289">
        <ele>1153.72</ele>
        <time>2014-05-30T09:30:39Z</time>
      </trkpt>
      <trkpt lat="46.46488" lon="6.07289">
        <ele>1153.72</ele>
        <time>2014-05-30T09:30:40Z</time>
      </trkpt>
      <trkpt lat="46.46486" lon="6.07289">
        <ele>1154.68</ele>
        <time>2014-05-30T09:30:41Z</time>
      </trkpt>
      <trkpt lat="46.46485" lon="6.0729">
        <ele>1154.68</ele>
        <time>2014-05-30T09:30:42Z</time>
      </trkpt>
      <trkpt lat="46.46484" lon="6.0729">
        <ele>1154.2</ele>
        <time>2014-05-30T09:30:43Z</time>
      </trkpt>
      <trkpt lat="46.46477" lon="6.07293">
        <ele>1155.16</ele>
        <time>2014-05-30T09:30:53Z</time>
      </trkpt>
      <trkpt lat="46.46467" lon="6.07299">
        <ele>1155.16</ele>
        <time>2014-05-30T09:31:01Z</time>
      </trkpt>
      <trkpt lat="46.46465" lon="6.073">
        <ele>1155.64</ele>
        <time>2014-05-30T09:31:02Z</time>
      </trkpt>
      <trkpt lat="46.46463" lon="6.07301">
        <ele>1155.64</ele>
        <time>2014-05-30T09:31:03Z</time>
      </trkpt>
      <trkpt lat="46.46462" lon="6.07303">
        <ele>1155.64</ele>
        <time>2014-05-30T09:31:04Z</time>
      </trkpt>
      <trkpt lat="46.4646" lon="6.07304">
        <ele>1155.64</ele>
        <time>2014-05-30T09:31:05Z</time>
      </trkpt>
      <trkpt lat="46.46423" lon="6.07325">
        <ele>1157.56</ele>
        <time>2014-05-30T09:31:18Z</time>
      </trkpt>
      <trkpt lat="46.46399" lon="6.07365">
        <ele>1159.01</ele>
        <time>2014-05-30T09:31:30Z</time>
      </trkpt>
      <trkpt lat="46.46365" lon="6.07405">
        <ele>1161.41</ele>
        <time>2014-05-30T09:31:45Z</time>
      </trkpt>
      <trkpt lat="46.4634" lon="6.07406">
        <ele>1162.85</ele>
        <time>2014-05-30T09:31:57Z</time>
      </trkpt>
      <trkpt lat="46.46338" lon="6.07406">
        <ele>1162.85</ele>
        <time>2014-05-30T09:31:58Z</time>
      </trkpt>
      <trkpt lat="46.46325" lon="6.07405">
        <ele>1163.33</ele>
        <time>2014-05-30T09:32:04Z</time>
      </trkpt>
      <trkpt lat="46.46298" lon="6.07433">
        <ele>1164.77</ele>
        <time>2014-05-30T09:32:16Z</time>
      </trkpt>
      <trkpt lat="46.46268" lon="6.07485">
        <ele>1166.7</ele>
        <time>2014-05-30T09:32:32Z</time>
      </trkpt>
      <trkpt lat="46.46241" lon="6.0753">
        <ele>1168.14</ele>
        <time>2014-05-30T09:32:45Z</time>
      </trkpt>
      <trkpt lat="46.46203" lon="6.07557">
        <ele>1170.54</ele>
        <time>2014-05-30T09:32:59Z</time>
      </trkpt>
      <trkpt lat="46.46167" lon="6.07539">
        <ele>1172.47</ele>
        <time>2014-05-30T09:33:11Z</time>
      </trkpt>
      <trkpt lat="46.46127" lon="6.07497">
        <ele>1174.87</ele>
        <time>2014-05-30T09:33:27Z</time>
      </trkpt>
      <trkpt lat="46.46094" lon="6.07496">
        <ele>1176.79</ele>
        <time>2014-05-30T09:33:39Z</time>
      </trkpt>
      <trkpt lat="46.46072" lon="6.07505">
        <ele>1179.67</ele>
        <time>2014-05-30T09:33:50Z</time>
      </trkpt>
      <trkpt lat="46.46059" lon="6.0751">
        <ele>1181.6</ele>
        <time>2014-05-30T09:33:56Z</time>
      </trkpt>
      <trkpt lat="46.46034" lon="6.07527">
        <ele>1184.96</ele>
        <time>2014-05-30T09:34:09Z</time>
      </trkpt>
      <trkpt lat="46.46009" lon="6.07556">
        <ele>1185.92</ele>
        <time>2014-05-30T09:34:23Z</time>
      </trkpt>
      <trkpt lat="46.45981" lon="6.07586">
        <ele>1187.85</ele>
        <time>2014-05-30T09:34:37Z</time>
      </trkpt>
      <trkpt lat="46.45954" lon="6.07619">
        <ele>1189.29</ele>
        <time>2014-05-30T09:34:51Z</time>
      </trkpt>
      <trkpt lat="46.45925" lon="6.07652">
        <ele>1190.73</ele>
        <time>2014-05-30T09:35:06Z</time>
      </trkpt>
      <trkpt lat="46.45901" lon="6.0768">
        <ele>1191.69</ele>
        <time>2014-05-30T09:35:18Z</time>
      </trkpt>
      <trkpt lat="46.45875" lon="6.07711">
        <ele>1193.13</ele>
        <time>2014-05-30T09:35:31Z</time>
      </trkpt>
      <trkpt lat="46.45848" lon="6.07743">
        <ele>1195.54</ele>
        <time>2014-05-30T09:35:45Z</time>
      </trkpt>
      <trkpt lat="46.45824" lon="6.07779">
        <ele>1198.42</ele>
        <time>2014-05-30T09:35:58Z</time>
      </trkpt>
      <trkpt lat="46.45821" lon="6.07785">
        <ele>1199.38</ele>
        <time>2014-05-30T09:36:00Z</time>
      </trkpt>
      <trkpt lat="46.45802" lon="6.07827">
        <ele>1201.79</ele>
        <time>2014-05-30T09:36:13Z</time>
      </trkpt>
      <trkpt lat="46.45779" lon="6.07861">
        <ele>1203.23</ele>
        <time>2014-05-30T09:36:25Z</time>
      </trkpt>
      <trkpt lat="46.45773" lon="6.07891">
        <ele>1205.15</ele>
        <time>2014-05-30T09:36:34Z</time>
      </trkpt>
      <trkpt lat="46.45771" lon="6.07893">
        <ele>1205.15</ele>
        <time>2014-05-30T09:36:35Z</time>
      </trkpt>
      <trkpt lat="46.45757" lon="6.07915">
        <ele>1207.55</ele>
        <time>2014-05-30T09:36:46Z</time>
      </trkpt>
      <trkpt lat="46.45754" lon="6.07921">
        <ele>1208.03</ele>
        <time>2014-05-30T09:36:48Z</time>
      </trkpt>
      <trkpt lat="46.45743" lon="6.07944">
        <ele>1211.4</ele>
        <time>2014-05-30T09:36:57Z</time>
      </trkpt>
      <trkpt lat="46.45733" lon="6.07978">
        <ele>1209.48</ele>
        <time>2014-05-30T09:37:05Z</time>
      </trkpt>
      <trkpt lat="46.45727" lon="6.08015">
        <ele>1210.44</ele>
        <time>2014-05-30T09:37:14Z</time>
      </trkpt>
      <trkpt lat="46.45719" lon="6.08055">
        <ele>1211.4</ele>
        <time>2014-05-30T09:37:24Z</time>
      </trkpt>
      <trkpt lat="46.4571" lon="6.08094">
        <ele>1210.92</ele>
        <time>2014-05-30T09:37:35Z</time>
      </trkpt>
      <trkpt lat="46.45708" lon="6.08104">
        <ele>1210.92</ele>
        <time>2014-05-30T09:37:40Z</time>
      </trkpt>
      <trkpt lat="46.45703" lon="6.08104">
        <ele>1210.92</ele>
        <time>2014-05-30T09:37:44Z</time>
      </trkpt>
      <trkpt lat="46.45699" lon="6.08104">
        <ele>1210.92</ele>
        <time>2014-05-30T09:37:48Z</time>
      </trkpt>
      <trkpt lat="46.45699" lon="6.0811">
        <ele>1211.4</ele>
        <time>2014-05-30T09:37:54Z</time>
      </trkpt>
      <trkpt lat="46.45691" lon="6.08092">
        <ele>1210.44</ele>
        <time>2014-05-30T09:38:01Z</time>
      </trkpt>
      <trkpt lat="46.45654" lon="6.08076">
        <ele>1209</ele>
        <time>2014-05-30T09:38:13Z</time>
      </trkpt>
      <trkpt lat="46.45652" lon="6.08075">
        <ele>1209</ele>
        <time>2014-05-30T09:38:23Z</time>
      </trkpt>
      <trkpt lat="46.45652" lon="6.08075">
        <ele>1209</ele>
        <time>2014-05-30T09:38:27Z</time>
      </trkpt>
      <trkpt lat="46.45646" lon="6.0808">
        <ele>1210.44</ele>
        <time>2014-05-30T09:38:32Z</time>
      </trkpt>
      <trkpt lat="46.45637" lon="6.08091">
        <ele>1210.92</ele>
        <time>2014-05-30T09:38:39Z</time>
      </trkpt>
      <trkpt lat="46.45631" lon="6.08103">
        <ele>1211.4</ele>
        <time>2014-05-30T09:38:46Z</time>
      </trkpt>
      <trkpt lat="46.45622" lon="6.08121">
        <ele>1211.88</ele>
        <time>2014-05-30T09:38:53Z</time>
      </trkpt>
      <trkpt lat="46.45618" lon="6.08134">
        <ele>1211.88</ele>
        <time>2014-05-30T09:38:58Z</time>
      </trkpt>
      <trkpt lat="46.45614" lon="6.08148">
        <ele>1211.4</ele>
        <time>2014-05-30T09:39:04Z</time>
      </trkpt>
      <trkpt lat="46.4561" lon="6.08157">
        <ele>1211.88</ele>
        <time>2014-05-30T09:39:08Z</time>
      </trkpt>
      <trkpt lat="46.45611" lon="6.0817">
        <ele>1212.36</ele>
        <time>2014-05-30T09:39:13Z</time>
      </trkpt>
      <trkpt lat="46.45604" lon="6.08188">
        <ele>1212.84</ele>
        <time>2014-05-30T09:39:26Z</time>
      </trkpt>
      <trkpt lat="46.45602" lon="6.08196">
        <ele>1211.88</ele>
        <time>2014-05-30T09:39:32Z</time>
      </trkpt>
      <trkpt lat="46.4559" lon="6.08231">
        <ele>1209.48</ele>
        <time>2014-05-30T09:39:41Z</time>
      </trkpt>
      <trkpt lat="46.45588" lon="6.08242">
        <ele>1209.48</ele>
        <time>2014-05-30T09:39:43Z</time>
      </trkpt>
      <trkpt lat="46.45579" lon="6.0826">
        <ele>1209.48</ele>
        <time>2014-05-30T09:39:48Z</time>
      </trkpt>
      <trkpt lat="46.45578" lon="6.08267">
        <ele>1209.48</ele>
        <time>2014-05-30T09:39:50Z</time>
      </trkpt>
      <trkpt lat="46.45578" lon="6.08277">
        <ele>1209.48</ele>
        <time>2014-05-30T09:39:53Z</time>
      </trkpt>
      <trkpt lat="46.45572" lon="6.08293">
        <ele>1209</ele>
        <time>2014-05-30T09:39:59Z</time>
      </trkpt>
      <trkpt lat="46.45573" lon="6.08318">
        <ele>1209.96</ele>
        <time>2014-05-30T09:40:07Z</time>
      </trkpt>
      <trkpt lat="46.45569" lon="6.08346">
        <ele>1210.44</ele>
        <time>2014-05-30T09:40:15Z</time>
      </trkpt>
      <trkpt lat="46.45564" lon="6.08361">
        <ele>1209.96</ele>
        <time>2014-05-30T09:40:20Z</time>
      </trkpt>
      <trkpt lat="46.45563" lon="6.08369">
        <ele>1209.96</ele>
        <time>2014-05-30T09:40:23Z</time>
      </trkpt>
      <trkpt lat="46.45558" lon="6.08395">
        <ele>1211.4</ele>
        <time>2014-05-30T09:40:32Z</time>
      </trkpt>
      <trkpt lat="46.45549" lon="6.08425">
        <ele>1212.84</ele>
        <time>2014-05-30T09:40:43Z</time>
      </trkpt>
      <trkpt lat="46.45551" lon="6.0843">
        <ele>1212.84</ele>
        <time>2014-05-30T09:40:45Z</time>
      </trkpt>
      <trkpt lat="46.45549" lon="6.08439">
        <ele>1212.84</ele>
        <time>2014-05-30T09:40:49Z</time>
      </trkpt>
      <trkpt lat="46.45543" lon="6.08461">
        <ele>1214.28</ele>
        <time>2014-05-30T09:40:58Z</time>
      </trkpt>
      <trkpt lat="46.4554" lon="6.08471">
        <ele>1214.76</ele>
        <time>2014-05-30T09:41:03Z</time>
      </trkpt>
      <trkpt lat="46.45535" lon="6.08479">
        <ele>1215.24</ele>
        <time>2014-05-30T09:41:08Z</time>
      </trkpt>
      <trkpt lat="46.45528" lon="6.08483">
        <ele>1215.24</ele>
        <time>2014-05-30T09:41:12Z</time>
      </trkpt>
      <trkpt lat="46.45524" lon="6.08493">
        <ele>1216.21</ele>
        <time>2014-05-30T09:41:18Z</time>
      </trkpt>
      <trkpt lat="46.45517" lon="6.08504">
        <ele>1218.13</ele>
        <time>2014-05-30T09:41:29Z</time>
      </trkpt>
      <trkpt lat="46.45514" lon="6.08508">
        <ele>1219.57</ele>
        <time>2014-05-30T09:41:35Z</time>
      </trkpt>
      <trkpt lat="46.45514" lon="6.08526">
        <ele>1215.72</ele>
        <time>2014-05-30T09:41:48Z</time>
      </trkpt>
      <trkpt lat="46.45514" lon="6.08526">
        <ele>1220.05</ele>
        <time>2014-05-30T09:41:49Z</time>
      </trkpt>
      <trkpt lat="46.45514" lon="6.08526">
        <ele>1212.36</ele>
        <time>2014-05-30T09:41:51Z</time>
      </trkpt>
      <trkpt lat="46.45514" lon="6.08526">
        <ele>1220.05</ele>
        <time>2014-05-30T09:41:52Z</time>
      </trkpt>
      <trkpt lat="46.45514" lon="6.08527">
        <ele>1215.72</ele>
        <time>2014-05-30T09:42:16Z</time>
      </trkpt>
      <trkpt lat="46.45514" lon="6.08527">
        <ele>1220.05</ele>
        <time>2014-05-30T09:42:17Z</time>
      </trkpt>
      <trkpt lat="46.45513" lon="6.08529">
        <ele>1215.24</ele>
        <time>2014-05-30T09:42:56Z</time>
      </trkpt>
      <trkpt lat="46.45513" lon="6.08529">
        <ele>1220.53</ele>
        <time>2014-05-30T09:42:57Z</time>
      </trkpt>
      <trkpt lat="46.45514" lon="6.08529">
        <ele>1218.61</ele>
        <time>2014-05-30T09:44:09Z</time>
      </trkpt>
      <trkpt lat="46.45517" lon="6.08526">
        <ele>1219.09</ele>
        <time>2014-05-30T09:44:14Z</time>
      </trkpt>
      <trkpt lat="46.45531" lon="6.08506">
        <ele>1216.69</ele>
        <time>2014-05-30T09:44:20Z</time>
      </trkpt>
      <trkpt lat="46.45541" lon="6.08492">
        <ele>1215.24</ele>
        <time>2014-05-30T09:44:23Z</time>
      </trkpt>
      <trkpt lat="46.45555" lon="6.08451">
        <ele>1212.84</ele>
        <time>2014-05-30T09:44:33Z</time>
      </trkpt>
      <trkpt lat="46.45561" lon="6.08436">
        <ele>1212.36</ele>
        <time>2014-05-30T09:44:36Z</time>
      </trkpt>
      <trkpt lat="46.45566" lon="6.08424">
        <ele>1212.36</ele>
        <time>2014-05-30T09:44:38Z</time>
      </trkpt>
      <trkpt lat="46.45572" lon="6.08399">
        <ele>1210.92</ele>
        <time>2014-05-30T09:44:41Z</time>
      </trkpt>
      <trkpt lat="46.45576" lon="6.08373">
        <ele>1210.44</ele>
        <time>2014-05-30T09:44:44Z</time>
      </trkpt>
      <trkpt lat="46.45582" lon="6.08311">
        <ele>1209</ele>
        <time>2014-05-30T09:44:53Z</time>
      </trkpt>
      <trkpt lat="46.45585" lon="6.08282">
        <ele>1209</ele>
        <time>2014-05-30T09:44:58Z</time>
      </trkpt>
      <trkpt lat="46.4559" lon="6.08265">
        <ele>1209</ele>
        <time>2014-05-30T09:45:02Z</time>
      </trkpt>
      <trkpt lat="46.45605" lon="6.08215">
        <ele>1210.44</ele>
        <time>2014-05-30T09:45:14Z</time>
      </trkpt>
      <trkpt lat="46.45611" lon="6.08184">
        <ele>1212.36</ele>
        <time>2014-05-30T09:45:25Z</time>
      </trkpt>
      <trkpt lat="46.45613" lon="6.08146">
        <ele>1210.92</ele>
        <time>2014-05-30T09:45:35Z</time>
      </trkpt>
      <trkpt lat="46.45616" lon="6.08132">
        <ele>1211.4</ele>
        <time>2014-05-30T09:45:40Z</time>
      </trkpt>
      <trkpt lat="46.45637" lon="6.08096">
        <ele>1210.44</ele>
        <time>2014-05-30T09:45:52Z</time>
      </trkpt>
      <trkpt lat="46.45645" lon="6.08083">
        <ele>1209.48</ele>
        <time>2014-05-30T09:45:56Z</time>
      </trkpt>
      <trkpt lat="46.45649" lon="6.08048">
        <ele>1208.51</ele>
        <time>2014-05-30T09:46:03Z</time>
      </trkpt>
      <trkpt lat="46.45649" lon="6.08045">
        <ele>1208.51</ele>
        <time>2014-05-30T09:46:04Z</time>
      </trkpt>
      <trkpt lat="46.45652" lon="6.08016">
        <ele>1209</ele>
        <time>2014-05-30T09:46:16Z</time>
      </trkpt>
      <trkpt lat="46.45651" lon="6.08002">
        <ele>1209</ele>
        <time>2014-05-30T09:46:27Z</time>
      </trkpt>
      <trkpt lat="46.45649" lon="6.07995">
        <ele>1209</ele>
        <time>2014-05-30T09:46:38Z</time>
      </trkpt>
      <trkpt lat="46.45649" lon="6.07995">
        <ele>1209.48</ele>
        <time>2014-05-30T09:46:50Z</time>
      </trkpt>
      <trkpt lat="46.45648" lon="6.07993">
        <ele>1209.96</ele>
        <time>2014-05-30T09:46:54Z</time>
      </trkpt>
      <trkpt lat="46.45641" lon="6.07987">
        <ele>1209.96</ele>
        <time>2014-05-30T09:46:59Z</time>
      </trkpt>
      <trkpt lat="46.45633" lon="6.07983">
        <ele>1210.44</ele>
        <time>2014-05-30T09:47:04Z</time>
      </trkpt>
      <trkpt lat="46.45606" lon="6.0799">
        <ele>1211.4</ele>
        <time>2014-05-30T09:47:20Z</time>
      </trkpt>
      <trkpt lat="46.45582" lon="6.07993">
        <ele>1213.32</ele>
        <time>2014-05-30T09:47:32Z</time>
      </trkpt>
      <trkpt lat="46.45552" lon="6.07995">
        <ele>1215.24</ele>
        <time>2014-05-30T09:47:45Z</time>
      </trkpt>
      <trkpt lat="46.4553" lon="6.07982">
        <ele>1216.69</ele>
        <time>2014-05-30T09:47:57Z</time>
      </trkpt>
      <trkpt lat="46.45513" lon="6.07975">
        <ele>1218.13</ele>
        <time>2014-05-30T09:48:05Z</time>
      </trkpt>
      <trkpt lat="46.45474" lon="6.07981">
        <ele>1220.53</ele>
        <time>2014-05-30T09:48:19Z</time>
      </trkpt>
      <trkpt lat="46.45451" lon="6.07992">
        <ele>1223.42</ele>
        <time>2014-05-30T09:48:32Z</time>
      </trkpt>
      <trkpt lat="46.45435" lon="6.07997">
        <ele>1225.34</ele>
        <time>2014-05-30T09:48:42Z</time>
      </trkpt>
      <trkpt lat="46.45429" lon="6.08001">
        <ele>1226.3</ele>
        <time>2014-05-30T09:48:46Z</time>
      </trkpt>
      <trkpt lat="46.45412" lon="6.08011">
        <ele>1229.18</ele>
        <time>2014-05-30T09:48:57Z</time>
      </trkpt>
      <trkpt lat="46.45383" lon="6.08021">
        <ele>1232.55</ele>
        <time>2014-05-30T09:49:11Z</time>
      </trkpt>
      <trkpt lat="46.45366" lon="6.08027">
        <ele>1233.99</ele>
        <time>2014-05-30T09:49:20Z</time>
      </trkpt>
      <trkpt lat="46.45344" lon="6.08038">
        <ele>1235.91</ele>
        <time>2014-05-30T09:49:30Z</time>
      </trkpt>
      <trkpt lat="46.45326" lon="6.08051">
        <ele>1237.83</ele>
        <time>2014-05-30T09:49:41Z</time>
      </trkpt>
      <trkpt lat="46.4532" lon="6.08051">
        <ele>1238.8</ele>
        <time>2014-05-30T09:49:48Z</time>
      </trkpt>
      <trkpt lat="46.45309" lon="6.08067">
        <ele>1239.28</ele>
        <time>2014-05-30T09:49:52Z</time>
      </trkpt>
      <trkpt lat="46.45277" lon="6.08107">
        <ele>1239.28</ele>
        <time>2014-05-30T09:50:05Z</time>
      </trkpt>
      <trkpt lat="46.45252" lon="6.08129">
        <ele>1239.28</ele>
        <time>2014-05-30T09:50:15Z</time>
      </trkpt>
      <trkpt lat="46.45237" lon="6.08139">
        <ele>1240.24</ele>
        <time>2014-05-30T09:50:22Z</time>
      </trkpt>
      <trkpt lat="46.45204" lon="6.08167">
        <ele>1240.72</ele>
        <time>2014-05-30T09:50:33Z</time>
      </trkpt>
      <trkpt lat="46.45174" lon="6.08177">
        <ele>1240.72</ele>
        <time>2014-05-30T09:50:42Z</time>
      </trkpt>
      <trkpt lat="46.45136" lon="6.0821">
        <ele>1241.68</ele>
        <time>2014-05-30T09:50:53Z</time>
      </trkpt>
      <trkpt lat="46.45123" lon="6.08227">
        <ele>1241.2</ele>
        <time>2014-05-30T09:50:57Z</time>
      </trkpt>
      <trkpt lat="46.45098" lon="6.08296">
        <ele>1242.64</ele>
        <time>2014-05-30T09:51:10Z</time>
      </trkpt>
      <trkpt lat="46.45082" lon="6.08353">
        <ele>1243.12</ele>
        <time>2014-05-30T09:51:22Z</time>
      </trkpt>
      <trkpt lat="46.45063" lon="6.08393">
        <ele>1243.6</ele>
        <time>2014-05-30T09:51:31Z</time>
      </trkpt>
      <trkpt lat="46.45061" lon="6.08401">
        <ele>1243.12</ele>
        <time>2014-05-30T09:51:40Z</time>
      </trkpt>
      <trkpt lat="46.45055" lon="6.08411">
        <ele>1243.6</ele>
        <time>2014-05-30T09:52:33Z</time>
      </trkpt>
      <trkpt lat="46.45044" lon="6.08432">
        <ele>1244.08</ele>
        <time>2014-05-30T09:52:37Z</time>
      </trkpt>
      <trkpt lat="46.45026" lon="6.08464">
        <ele>1244.56</ele>
        <time>2014-05-30T09:52:43Z</time>
      </trkpt>
      <trkpt lat="46.45014" lon="6.08489">
        <ele>1245.04</ele>
        <time>2014-05-30T09:52:48Z</time>
      </trkpt>
      <trkpt lat="46.45004" lon="6.0852">
        <ele>1245.53</ele>
        <time>2014-05-30T09:52:53Z</time>
      </trkpt>
      <trkpt lat="46.44999" lon="6.08542">
        <ele>1245.04</ele>
        <time>2014-05-30T09:52:56Z</time>
      </trkpt>
      <trkpt lat="46.44991" lon="6.08567">
        <ele>1245.04</ele>
        <time>2014-05-30T09:53:00Z</time>
      </trkpt>
      <trkpt lat="46.44989" lon="6.0858">
        <ele>1245.53</ele>
        <time>2014-05-30T09:53:02Z</time>
      </trkpt>
      <trkpt lat="46.44983" lon="6.08599">
        <ele>1245.53</ele>
        <time>2014-05-30T09:53:05Z</time>
      </trkpt>
      <trkpt lat="46.44971" lon="6.0863">
        <ele>1245.53</ele>
        <time>2014-05-30T09:53:10Z</time>
      </trkpt>
      <trkpt lat="46.44963" lon="6.08656">
        <ele>1245.53</ele>
        <time>2014-05-30T09:53:14Z</time>
      </trkpt>
      <trkpt lat="46.44966" lon="6.08717">
        <ele>1244.56</ele>
        <time>2014-05-30T09:53:25Z</time>
      </trkpt>
      <trkpt lat="46.44984" lon="6.08761">
        <ele>1244.08</ele>
        <time>2014-05-30T09:53:34Z</time>
      </trkpt>
      <trkpt lat="46.44994" lon="6.08772">
        <ele>1244.08</ele>
        <time>2014-05-30T09:53:38Z</time>
      </trkpt>
      <trkpt lat="46.45029" lon="6.08789">
        <ele>1243.12</ele>
        <time>2014-05-30T09:53:50Z</time>
      </trkpt>
      <trkpt lat="46.4504" lon="6.08792">
        <ele>1242.64</ele>
        <time>2014-05-30T09:53:53Z</time>
      </trkpt>
      <trkpt lat="46.45052" lon="6.088">
        <ele>1242.64</ele>
        <time>2014-05-30T09:53:56Z</time>
      </trkpt>
      <trkpt lat="46.45074" lon="6.08823">
        <ele>1243.6</ele>
        <time>2014-05-30T09:54:01Z</time>
      </trkpt>
      <trkpt lat="46.45083" lon="6.08832">
        <ele>1242.16</ele>
        <time>2014-05-30T09:54:03Z</time>
      </trkpt>
      <trkpt lat="46.45118" lon="6.0887">
        <ele>1241.68</ele>
        <time>2014-05-30T09:54:13Z</time>
      </trkpt>
      <trkpt lat="46.45132" lon="6.08885">
        <ele>1240.72</ele>
        <time>2014-05-30T09:54:16Z</time>
      </trkpt>
      <trkpt lat="46.45142" lon="6.08895">
        <ele>1240.24</ele>
        <time>2014-05-30T09:54:18Z</time>
      </trkpt>
      <trkpt lat="46.45158" lon="6.08912">
        <ele>1238.8</ele>
        <time>2014-05-30T09:54:21Z</time>
      </trkpt>
      <trkpt lat="46.45207" lon="6.08956">
        <ele>1234.95</ele>
        <time>2014-05-30T09:54:29Z</time>
      </trkpt>
      <trkpt lat="46.45213" lon="6.08961">
        <ele>1233.99</ele>
        <time>2014-05-30T09:54:30Z</time>
      </trkpt>
      <trkpt lat="46.45229" lon="6.0897">
        <ele>1233.03</ele>
        <time>2014-05-30T09:54:33Z</time>
      </trkpt>
      <trkpt lat="46.45268" lon="6.0898">
        <ele>1230.62</ele>
        <time>2014-05-30T09:54:39Z</time>
      </trkpt>
      <trkpt lat="46.453" lon="6.09026">
        <ele>1227.74</ele>
        <time>2014-05-30T09:54:45Z</time>
      </trkpt>
      <trkpt lat="46.45285" lon="6.09071">
        <ele>1225.34</ele>
        <time>2014-05-30T09:54:49Z</time>
      </trkpt>
      <trkpt lat="46.45287" lon="6.09108">
        <ele>1223.9</ele>
        <time>2014-05-30T09:54:52Z</time>
      </trkpt>
      <trkpt lat="46.45302" lon="6.09204">
        <ele>1221.49</ele>
        <time>2014-05-30T09:55:01Z</time>
      </trkpt>
      <trkpt lat="46.45316" lon="6.0924">
        <ele>1221.01</ele>
        <time>2014-05-30T09:55:05Z</time>
      </trkpt>
      <trkpt lat="46.45333" lon="6.09281">
        <ele>1219.57</ele>
        <time>2014-05-30T09:55:10Z</time>
      </trkpt>
      <trkpt lat="46.45341" lon="6.09299">
        <ele>1219.09</ele>
        <time>2014-05-30T09:55:12Z</time>
      </trkpt>
      <trkpt lat="46.45394" lon="6.09393">
        <ele>1216.69</ele>
        <time>2014-05-30T09:55:24Z</time>
      </trkpt>
      <trkpt lat="46.454" lon="6.09407">
        <ele>1217.65</ele>
        <time>2014-05-30T09:55:26Z</time>
      </trkpt>
      <trkpt lat="46.45407" lon="6.09437">
        <ele>1217.65</ele>
        <time>2014-05-30T09:55:30Z</time>
      </trkpt>
      <trkpt lat="46.45411" lon="6.0952">
        <ele>1208.51</ele>
        <time>2014-05-30T09:55:43Z</time>
      </trkpt>
      <trkpt lat="46.45412" lon="6.09526">
        <ele>1218.61</ele>
        <time>2014-05-30T09:55:44Z</time>
      </trkpt>
      <trkpt lat="46.45414" lon="6.09535">
        <ele>1219.57</ele>
        <time>2014-05-30T09:55:46Z</time>
      </trkpt>
      <trkpt lat="46.45429" lon="6.09585">
        <ele>1221.01</ele>
        <time>2014-05-30T09:55:59Z</time>
      </trkpt>
      <trkpt lat="46.45433" lon="6.09604">
        <ele>1219.09</ele>
        <time>2014-05-30T09:56:05Z</time>
      </trkpt>
      <trkpt lat="46.45435" lon="6.09678">
        <ele>1218.61</ele>
        <time>2014-05-30T09:56:17Z</time>
      </trkpt>
      <trkpt lat="46.45427" lon="6.09772">
        <ele>1218.13</ele>
        <time>2014-05-30T09:56:31Z</time>
      </trkpt>
      <trkpt lat="46.45441" lon="6.09901">
        <ele>1216.21</ele>
        <time>2014-05-30T09:56:46Z</time>
      </trkpt>
      <trkpt lat="46.45444" lon="6.09963">
        <ele>1213.32</ele>
        <time>2014-05-30T09:56:53Z</time>
      </trkpt>
      <trkpt lat="46.45443" lon="6.10061">
        <ele>1210.44</ele>
        <time>2014-05-30T09:57:03Z</time>
      </trkpt>
      <trkpt lat="46.45437" lon="6.10188">
        <ele>1206.11</ele>
        <time>2014-05-30T09:57:16Z</time>
      </trkpt>
      <trkpt lat="46.45431" lon="6.10373">
        <ele>1206.59</ele>
        <time>2014-05-30T09:57:35Z</time>
      </trkpt>
      <trkpt lat="46.45429" lon="6.10447">
        <ele>1207.55</ele>
        <time>2014-05-30T09:57:43Z</time>
      </trkpt>
      <trkpt lat="46.45425" lon="6.10564">
        <ele>1207.07</ele>
        <time>2014-05-30T09:57:58Z</time>
      </trkpt>
      <trkpt lat="46.45424" lon="6.10579">
        <ele>1207.07</ele>
        <time>2014-05-30T09:58:01Z</time>
      </trkpt>
      <trkpt lat="46.45422" lon="6.10587">
        <ele>1207.07</ele>
        <time>2014-05-30T09:58:11Z</time>
      </trkpt>
      <trkpt lat="46.45422" lon="6.10587">
        <ele>1207.07</ele>
        <time>2014-05-30T09:58:15Z</time>
      </trkpt>
      <trkpt lat="46.45414" lon="6.1058">
        <ele>1206.59</ele>
        <time>2014-05-30T09:58:25Z</time>
      </trkpt>
      <trkpt lat="46.45413" lon="6.10578">
        <ele>1206.11</ele>
        <time>2014-05-30T09:58:32Z</time>
      </trkpt>
      <trkpt lat="46.4541" lon="6.10576">
        <ele>1208.51</ele>
        <time>2014-05-30T09:58:35Z</time>
      </trkpt>
      <trkpt lat="46.45409" lon="6.10574">
        <ele>1207.55</ele>
        <time>2014-05-30T09:58:37Z</time>
      </trkpt>
      <trkpt lat="46.45404" lon="6.10573">
        <ele>1208.03</ele>
        <time>2014-05-30T09:58:41Z</time>
      </trkpt>
      <trkpt lat="46.45394" lon="6.10567">
        <ele>1207.55</ele>
        <time>2014-05-30T09:58:52Z</time>
      </trkpt>
      <trkpt lat="46.45393" lon="6.10564">
        <ele>1206.59</ele>
        <time>2014-05-30T09:58:54Z</time>
      </trkpt>
      <trkpt lat="46.45389" lon="6.10563">
        <ele>1207.55</ele>
        <time>2014-05-30T09:58:58Z</time>
      </trkpt>
      <trkpt lat="46.45377" lon="6.1056">
        <ele>1208.03</ele>
        <time>2014-05-30T09:59:15Z</time>
      </trkpt>
      <trkpt lat="46.45353" lon="6.10562">
        <ele>1207.07</ele>
        <time>2014-05-30T09:59:25Z</time>
      </trkpt>
      <trkpt lat="46.4532" lon="6.10557">
        <ele>1205.63</ele>
        <time>2014-05-30T09:59:34Z</time>
      </trkpt>
      <trkpt lat="46.45299" lon="6.10551">
        <ele>1206.59</ele>
        <time>2014-05-30T09:59:42Z</time>
      </trkpt>
      <trkpt lat="46.45298" lon="6.1055">
        <ele>1206.59</ele>
        <time>2014-05-30T09:59:54Z</time>
      </trkpt>
      <trkpt lat="46.45297" lon="6.10547">
        <ele>1207.07</ele>
        <time>2014-05-30T09:59:57Z</time>
      </trkpt>
      <trkpt lat="46.45287" lon="6.10553">
        <ele>1206.59</ele>
        <time>2014-05-30T10:00:12Z</time>
      </trkpt>
      <trkpt lat="46.45287" lon="6.10553">
        <ele>1207.07</ele>
        <time>2014-05-30T10:00:27Z</time>
      </trkpt>
      <trkpt lat="46.45281" lon="6.1056">
        <ele>1207.07</ele>
        <time>2014-05-30T10:00:56Z</time>
      </trkpt>
      <trkpt lat="46.45279" lon="6.10567">
        <ele>1207.07</ele>
        <time>2014-05-30T10:01:02Z</time>
      </trkpt>
      <trkpt lat="46.45278" lon="6.10602">
        <ele>1205.63</ele>
        <time>2014-05-30T10:01:11Z</time>
      </trkpt>
      <trkpt lat="46.45272" lon="6.10624">
        <ele>1205.15</ele>
        <time>2014-05-30T10:01:15Z</time>
      </trkpt>
      <trkpt lat="46.45265" lon="6.1065">
        <ele>1205.15</ele>
        <time>2014-05-30T10:01:26Z</time>
      </trkpt>
      <trkpt lat="46.45262" lon="6.10661">
        <ele>1204.67</ele>
        <time>2014-05-30T10:01:34Z</time>
      </trkpt>
      <trkpt lat="46.45256" lon="6.10701">
        <ele>1204.19</ele>
        <time>2014-05-30T10:01:42Z</time>
      </trkpt>
      <trkpt lat="46.45245" lon="6.10746">
        <ele>1202.75</ele>
        <time>2014-05-30T10:01:54Z</time>
      </trkpt>
      <trkpt lat="46.45237" lon="6.10783">
        <ele>1201.79</ele>
        <time>2014-05-30T10:02:04Z</time>
      </trkpt>
      <trkpt lat="46.45223" lon="6.1084">
        <ele>1202.27</ele>
        <time>2014-05-30T10:02:17Z</time>
      </trkpt>
      <trkpt lat="46.45204" lon="6.10894">
        <ele>1200.34</ele>
        <time>2014-05-30T10:02:30Z</time>
      </trkpt>
      <trkpt lat="46.45194" lon="6.10936">
        <ele>1198.42</ele>
        <time>2014-05-30T10:02:35Z</time>
      </trkpt>
      <trkpt lat="46.4518" lon="6.10984">
        <ele>1199.38</ele>
        <time>2014-05-30T10:02:44Z</time>
      </trkpt>
      <trkpt lat="46.45168" lon="6.11035">
        <ele>1197.46</ele>
        <time>2014-05-30T10:02:52Z</time>
      </trkpt>
      <trkpt lat="46.4516" lon="6.1106">
        <ele>1198.42</ele>
        <time>2014-05-30T10:02:57Z</time>
      </trkpt>
      <trkpt lat="46.45156" lon="6.11079">
        <ele>1199.38</ele>
        <time>2014-05-30T10:03:02Z</time>
      </trkpt>
      <trkpt lat="46.4514" lon="6.11148">
        <ele>1199.86</ele>
        <time>2014-05-30T10:03:17Z</time>
      </trkpt>
      <trkpt lat="46.45139" lon="6.11171">
        <ele>1200.82</ele>
        <time>2014-05-30T10:03:26Z</time>
      </trkpt>
      <trkpt lat="46.45123" lon="6.11176">
        <ele>1201.3</ele>
        <time>2014-05-30T10:03:32Z</time>
      </trkpt>
      <trkpt lat="46.45103" lon="6.11189">
        <ele>1203.23</ele>
        <time>2014-05-30T10:03:40Z</time>
      </trkpt>
      <trkpt lat="46.45091" lon="6.112">
        <ele>1201.79</ele>
        <time>2014-05-30T10:03:44Z</time>
      </trkpt>
      <trkpt lat="46.45054" lon="6.11243">
        <ele>1199.38</ele>
        <time>2014-05-30T10:03:53Z</time>
      </trkpt>
      <trkpt lat="46.45031" lon="6.11266">
        <ele>1199.86</ele>
        <time>2014-05-30T10:04:01Z</time>
      </trkpt>
      <trkpt lat="46.45015" lon="6.11284">
        <ele>1197.46</ele>
        <time>2014-05-30T10:04:05Z</time>
      </trkpt>
      <trkpt lat="46.45005" lon="6.11297">
        <ele>1195.54</ele>
        <time>2014-05-30T10:04:12Z</time>
      </trkpt>
      <trkpt lat="46.45002" lon="6.11305">
        <ele>1194.09</ele>
        <time>2014-05-30T10:04:25Z</time>
      </trkpt>
      <trkpt lat="46.45" lon="6.11304">
        <ele>1194.58</ele>
        <time>2014-05-30T10:04:45Z</time>
      </trkpt>
      <trkpt lat="46.45" lon="6.11305">
        <ele>1193.13</ele>
        <time>2014-05-30T10:05:04Z</time>
      </trkpt>
      <trkpt lat="46.44999" lon="6.11307">
        <ele>1193.13</ele>
        <time>2014-05-30T10:05:12Z</time>
      </trkpt>
      <trkpt lat="46.44989" lon="6.11331">
        <ele>1189.77</ele>
        <time>2014-05-30T10:05:17Z</time>
      </trkpt>
      <trkpt lat="46.44984" lon="6.1134">
        <ele>1188.81</ele>
        <time>2014-05-30T10:05:18Z</time>
      </trkpt>
      <trkpt lat="46.44967" lon="6.11373">
        <ele>1186.4</ele>
        <time>2014-05-30T10:05:21Z</time>
      </trkpt>
      <trkpt lat="46.44946" lon="6.11417">
        <ele>1182.56</ele>
        <time>2014-05-30T10:05:25Z</time>
      </trkpt>
      <trkpt lat="46.44934" lon="6.11436">
        <ele>1181.6</ele>
        <time>2014-05-30T10:05:27Z</time>
      </trkpt>
      <trkpt lat="46.44902" lon="6.11486">
        <ele>1182.56</ele>
        <time>2014-05-30T10:05:36Z</time>
      </trkpt>
      <trkpt lat="46.449" lon="6.11487">
        <ele>1182.56</ele>
        <time>2014-05-30T10:05:37Z</time>
      </trkpt>
      <trkpt lat="46.44888" lon="6.11505">
        <ele>1186.4</ele>
        <time>2014-05-30T10:05:48Z</time>
      </trkpt>
      <trkpt lat="46.44885" lon="6.11512">
        <ele>1187.85</ele>
        <time>2014-05-30T10:05:52Z</time>
      </trkpt>
      <trkpt lat="46.44881" lon="6.11516">
        <ele>1188.81</ele>
        <time>2014-05-30T10:05:55Z</time>
      </trkpt>
      <trkpt lat="46.44862" lon="6.11539">
        <ele>1190.73</ele>
        <time>2014-05-30T10:06:09Z</time>
      </trkpt>
      <trkpt lat="46.44856" lon="6.11544">
        <ele>1190.73</ele>
        <time>2014-05-30T10:06:12Z</time>
      </trkpt>
      <trkpt lat="46.44843" lon="6.11593">
        <ele>1191.21</ele>
        <time>2014-05-30T10:06:26Z</time>
      </trkpt>
      <trkpt lat="46.44831" lon="6.11631">
        <ele>1192.17</ele>
        <time>2014-05-30T10:06:40Z</time>
      </trkpt>
      <trkpt lat="46.44821" lon="6.11661">
        <ele>1189.29</ele>
        <time>2014-05-30T10:06:50Z</time>
      </trkpt>
      <trkpt lat="46.44804" lon="6.11677">
        <ele>1187.37</ele>
        <time>2014-05-30T10:06:58Z</time>
      </trkpt>
      <trkpt lat="46.44797" lon="6.11682">
        <ele>1185.92</ele>
        <time>2014-05-30T10:07:00Z</time>
      </trkpt>
      <trkpt lat="46.44778" lon="6.11704">
        <ele>1182.08</ele>
        <time>2014-05-30T10:07:07Z</time>
      </trkpt>
      <trkpt lat="46.44773" lon="6.11712">
        <ele>1181.12</ele>
        <time>2014-05-30T10:07:16Z</time>
      </trkpt>
      <trkpt lat="46.4477" lon="6.11714">
        <ele>1181.12</ele>
        <time>2014-05-30T10:07:24Z</time>
      </trkpt>
      <trkpt lat="46.44769" lon="6.11712">
        <ele>1181.12</ele>
        <time>2014-05-30T10:07:26Z</time>
      </trkpt>
      <trkpt lat="46.4476" lon="6.11713">
        <ele>1180.64</ele>
        <time>2014-05-30T10:07:30Z</time>
      </trkpt>
      <trkpt lat="46.44731" lon="6.11735">
        <ele>1180.16</ele>
        <time>2014-05-30T10:07:42Z</time>
      </trkpt>
      <trkpt lat="46.44714" lon="6.11745">
        <ele>1179.19</ele>
        <time>2014-05-30T10:07:48Z</time>
      </trkpt>
      <trkpt lat="46.44701" lon="6.11756">
        <ele>1178.23</ele>
        <time>2014-05-30T10:07:51Z</time>
      </trkpt>
      <trkpt lat="46.44675" lon="6.11787">
        <ele>1177.75</ele>
        <time>2014-05-30T10:08:02Z</time>
      </trkpt>
      <trkpt lat="46.44661" lon="6.11809">
        <ele>1176.79</ele>
        <time>2014-05-30T10:08:10Z</time>
      </trkpt>
      <trkpt lat="46.4466" lon="6.11862">
        <ele>1178.71</ele>
        <time>2014-05-30T10:08:27Z</time>
      </trkpt>
      <trkpt lat="46.44664" lon="6.11888">
        <ele>1182.08</ele>
        <time>2014-05-30T10:08:37Z</time>
      </trkpt>
      <trkpt lat="46.44669" lon="6.11907">
        <ele>1184.96</ele>
        <time>2014-05-30T10:08:45Z</time>
      </trkpt>
      <trkpt lat="46.4467" lon="6.11911">
        <ele>1184.48</ele>
        <time>2014-05-30T10:08:47Z</time>
      </trkpt>
      <trkpt lat="46.44671" lon="6.11933">
        <ele>1186.4</ele>
        <time>2014-05-30T10:08:57Z</time>
      </trkpt>
      <trkpt lat="46.44672" lon="6.11941">
        <ele>1187.37</ele>
        <time>2014-05-30T10:09:01Z</time>
      </trkpt>
      <trkpt lat="46.44675" lon="6.11964">
        <ele>1188.81</ele>
        <time>2014-05-30T10:09:13Z</time>
      </trkpt>
      <trkpt lat="46.4469" lon="6.1199">
        <ele>1191.69</ele>
        <time>2014-05-30T10:09:27Z</time>
      </trkpt>
      <trkpt lat="46.44693" lon="6.11994">
        <ele>1192.17</ele>
        <time>2014-05-30T10:09:29Z</time>
      </trkpt>
      <trkpt lat="46.44716" lon="6.12019">
        <ele>1192.65</ele>
        <time>2014-05-30T10:09:44Z</time>
      </trkpt>
      <trkpt lat="46.44722" lon="6.12022">
        <ele>1192.65</ele>
        <time>2014-05-30T10:09:55Z</time>
      </trkpt>
      <trkpt lat="46.44726" lon="6.12028">
        <ele>1192.17</ele>
        <time>2014-05-30T10:10:07Z</time>
      </trkpt>
      <trkpt lat="46.44727" lon="6.12031">
        <ele>1192.65</ele>
        <time>2014-05-30T10:10:39Z</time>
      </trkpt>
      <trkpt lat="46.44736" lon="6.12041">
        <ele>1192.65</ele>
        <time>2014-05-30T10:10:45Z</time>
      </trkpt>
      <trkpt lat="46.4476" lon="6.12058">
        <ele>1194.09</ele>
        <time>2014-05-30T10:11:00Z</time>
      </trkpt>
      <trkpt lat="46.44765" lon="6.1206">
        <ele>1195.06</ele>
        <time>2014-05-30T10:11:03Z</time>
      </trkpt>
      <trkpt lat="46.44782" lon="6.12069">
        <ele>1197.94</ele>
        <time>2014-05-30T10:11:15Z</time>
      </trkpt>
      <trkpt lat="46.44793" lon="6.12092">
        <ele>1199.38</ele>
        <time>2014-05-30T10:11:26Z</time>
      </trkpt>
      <trkpt lat="46.44791" lon="6.12107">
        <ele>1200.34</ele>
        <time>2014-05-30T10:11:33Z</time>
      </trkpt>
      <trkpt lat="46.44785" lon="6.12114">
        <ele>1200.82</ele>
        <time>2014-05-30T10:11:38Z</time>
      </trkpt>
      <trkpt lat="46.4478" lon="6.12105">
        <ele>1201.79</ele>
        <time>2014-05-30T10:11:47Z</time>
      </trkpt>
      <trkpt lat="46.44781" lon="6.1211">
        <ele>1201.3</ele>
        <time>2014-05-30T10:12:02Z</time>
      </trkpt>
      <trkpt lat="46.44798" lon="6.12144">
        <ele>1200.34</ele>
        <time>2014-05-30T10:12:14Z</time>
      </trkpt>
      <trkpt lat="46.44811" lon="6.12184">
        <ele>1198.9</ele>
        <time>2014-05-30T10:12:24Z</time>
      </trkpt>
      <trkpt lat="46.44811" lon="6.12189">
        <ele>1198.42</ele>
        <time>2014-05-30T10:12:25Z</time>
      </trkpt>
      <trkpt lat="46.44809" lon="6.12208">
        <ele>1196.98</ele>
        <time>2014-05-30T10:12:28Z</time>
      </trkpt>
      <trkpt lat="46.44806" lon="6.12235">
        <ele>1194.09</ele>
        <time>2014-05-30T10:12:31Z</time>
      </trkpt>
      <trkpt lat="46.44797" lon="6.12287">
        <ele>1190.73</ele>
        <time>2014-05-30T10:12:36Z</time>
      </trkpt>
      <trkpt lat="46.44796" lon="6.1234">
        <ele>1187.37</ele>
        <time>2014-05-30T10:12:40Z</time>
      </trkpt>
      <trkpt lat="46.44796" lon="6.12379">
        <ele>1184.96</ele>
        <time>2014-05-30T10:12:43Z</time>
      </trkpt>
      <trkpt lat="46.44786" lon="6.12431">
        <ele>1182.56</ele>
        <time>2014-05-30T10:12:48Z</time>
      </trkpt>
      <trkpt lat="46.44775" lon="6.12473">
        <ele>1181.6</ele>
        <time>2014-05-30T10:12:53Z</time>
      </trkpt>
      <trkpt lat="46.44768" lon="6.12508">
        <ele>1181.12</ele>
        <time>2014-05-30T10:12:58Z</time>
      </trkpt>
      <trkpt lat="46.44769" lon="6.1254">
        <ele>1180.16</ele>
        <time>2014-05-30T10:13:03Z</time>
      </trkpt>
      <trkpt lat="46.44772" lon="6.1255">
        <ele>1178.71</ele>
        <time>2014-05-30T10:13:06Z</time>
      </trkpt>
      <trkpt lat="46.44775" lon="6.12555">
        <ele>1178.71</ele>
        <time>2014-05-30T10:13:18Z</time>
      </trkpt>
      <trkpt lat="46.44772" lon="6.1256">
        <ele>1178.23</ele>
        <time>2014-05-30T10:13:28Z</time>
      </trkpt>
      <trkpt lat="46.44771" lon="6.12575">
        <ele>1177.75</ele>
        <time>2014-05-30T10:13:41Z</time>
      </trkpt>
      <trkpt lat="46.44773" lon="6.12619">
        <ele>1176.79</ele>
        <time>2014-05-30T10:13:52Z</time>
      </trkpt>
      <trkpt lat="46.44759" lon="6.12675">
        <ele>1177.27</ele>
        <time>2014-05-30T10:14:03Z</time>
      </trkpt>
      <trkpt lat="46.44749" lon="6.12728">
        <ele>1179.67</ele>
        <time>2014-05-30T10:14:15Z</time>
      </trkpt>
      <trkpt lat="46.44742" lon="6.12774">
        <ele>1180.64</ele>
        <time>2014-05-30T10:14:26Z</time>
      </trkpt>
      <trkpt lat="46.44733" lon="6.12833">
        <ele>1178.23</ele>
        <time>2014-05-30T10:14:36Z</time>
      </trkpt>
      <trkpt lat="46.44733" lon="6.12848">
        <ele>1177.75</ele>
        <time>2014-05-30T10:14:38Z</time>
      </trkpt>
      <trkpt lat="46.44731" lon="6.12861">
        <ele>1178.23</ele>
        <time>2014-05-30T10:14:40Z</time>
      </trkpt>
      <trkpt lat="46.44726" lon="6.12889">
        <ele>1177.75</ele>
        <time>2014-05-30T10:14:46Z</time>
      </trkpt>
      <trkpt lat="46.44724" lon="6.12906">
        <ele>1179.19</ele>
        <time>2014-05-30T10:14:51Z</time>
      </trkpt>
      <trkpt lat="46.44723" lon="6.12923">
        <ele>1180.64</ele>
        <time>2014-05-30T10:14:56Z</time>
      </trkpt>
      <trkpt lat="46.44719" lon="6.12951">
        <ele>1183.52</ele>
        <time>2014-05-30T10:15:07Z</time>
      </trkpt>
      <trkpt lat="46.44719" lon="6.12971">
        <ele>1185.44</ele>
        <time>2014-05-30T10:15:14Z</time>
      </trkpt>
      <trkpt lat="46.44718" lon="6.13">
        <ele>1187.37</ele>
        <time>2014-05-30T10:15:25Z</time>
      </trkpt>
      <trkpt lat="46.44723" lon="6.13047">
        <ele>1188.33</ele>
        <time>2014-05-30T10:15:39Z</time>
      </trkpt>
      <trkpt lat="46.44715" lon="6.13081">
        <ele>1187.85</ele>
        <time>2014-05-30T10:15:50Z</time>
      </trkpt>
      <trkpt lat="46.44714" lon="6.13085">
        <ele>1187.85</ele>
        <time>2014-05-30T10:16:05Z</time>
      </trkpt>
      <trkpt lat="46.44714" lon="6.13132">
        <ele>1183.52</ele>
        <time>2014-05-30T10:16:11Z</time>
      </trkpt>
      <trkpt lat="46.44716" lon="6.13168">
        <ele>1180.16</ele>
        <time>2014-05-30T10:16:14Z</time>
      </trkpt>
      <trkpt lat="46.44717" lon="6.13216">
        <ele>1176.79</ele>
        <time>2014-05-30T10:16:18Z</time>
      </trkpt>
      <trkpt lat="46.44717" lon="6.13225">
        <ele>1175.83</ele>
        <time>2014-05-30T10:16:19Z</time>
      </trkpt>
      <trkpt lat="46.44723" lon="6.13243">
        <ele>1173.91</ele>
        <time>2014-05-30T10:16:22Z</time>
      </trkpt>
      <trkpt lat="46.44742" lon="6.13242">
        <ele>1172.95</ele>
        <time>2014-05-30T10:16:26Z</time>
      </trkpt>
      <trkpt lat="46.44752" lon="6.13233">
        <ele>1171.98</ele>
        <time>2014-05-30T10:16:29Z</time>
      </trkpt>
      <trkpt lat="46.44759" lon="6.13248">
        <ele>1170.06</ele>
        <time>2014-05-30T10:16:33Z</time>
      </trkpt>
      <trkpt lat="46.44758" lon="6.13254">
        <ele>1169.1</ele>
        <time>2014-05-30T10:16:34Z</time>
      </trkpt>
      <trkpt lat="46.44747" lon="6.13304">
        <ele>1165.26</ele>
        <time>2014-05-30T10:16:40Z</time>
      </trkpt>
      <trkpt lat="46.44739" lon="6.13325">
        <ele>1162.37</ele>
        <time>2014-05-30T10:16:43Z</time>
      </trkpt>
      <trkpt lat="46.44729" lon="6.13347">
        <ele>1159.01</ele>
        <time>2014-05-30T10:16:46Z</time>
      </trkpt>
      <trkpt lat="46.4472" lon="6.13369">
        <ele>1156.12</ele>
        <time>2014-05-30T10:16:49Z</time>
      </trkpt>
      <trkpt lat="46.44713" lon="6.13394">
        <ele>1152.28</ele>
        <time>2014-05-30T10:16:52Z</time>
      </trkpt>
      <trkpt lat="46.44707" lon="6.13442">
        <ele>1146.51</ele>
        <time>2014-05-30T10:16:56Z</time>
      </trkpt>
      <trkpt lat="46.44681" lon="6.13475">
        <ele>1142.66</ele>
        <time>2014-05-30T10:17:03Z</time>
      </trkpt>
      <trkpt lat="46.44678" lon="6.13474">
        <ele>1142.66</ele>
        <time>2014-05-30T10:17:04Z</time>
      </trkpt>
      <trkpt lat="46.44652" lon="6.13452">
        <ele>1145.55</ele>
        <time>2014-05-30T10:17:17Z</time>
      </trkpt>
      <trkpt lat="46.44648" lon="6.13446">
        <ele>1146.51</ele>
        <time>2014-05-30T10:17:20Z</time>
      </trkpt>
      <trkpt lat="46.4464" lon="6.13434">
        <ele>1147.95</ele>
        <time>2014-05-30T10:17:26Z</time>
      </trkpt>
      <trkpt lat="46.4462" lon="6.13396">
        <ele>1150.35</ele>
        <time>2014-05-30T10:17:40Z</time>
      </trkpt>
      <trkpt lat="46.44593" lon="6.13375">
        <ele>1152.28</ele>
        <time>2014-05-30T10:17:52Z</time>
      </trkpt>
      <trkpt lat="46.44559" lon="6.13374">
        <ele>1153.72</ele>
        <time>2014-05-30T10:18:07Z</time>
      </trkpt>
      <trkpt lat="46.44523" lon="6.13395">
        <ele>1154.68</ele>
        <time>2014-05-30T10:18:20Z</time>
      </trkpt>
      <trkpt lat="46.44484" lon="6.13412">
        <ele>1154.2</ele>
        <time>2014-05-30T10:18:33Z</time>
      </trkpt>
      <trkpt lat="46.44459" lon="6.13406">
        <ele>1157.08</ele>
        <time>2014-05-30T10:18:43Z</time>
      </trkpt>
      <trkpt lat="46.44438" lon="6.13388">
        <ele>1159.01</ele>
        <time>2014-05-30T10:18:55Z</time>
      </trkpt>
      <trkpt lat="46.44426" lon="6.13382">
        <ele>1159.01</ele>
        <time>2014-05-30T10:19:05Z</time>
      </trkpt>
      <trkpt lat="46.44425" lon="6.13381">
        <ele>1159.01</ele>
        <time>2014-05-30T10:19:07Z</time>
      </trkpt>
      <trkpt lat="46.44423" lon="6.13378">
        <ele>1158.53</ele>
        <time>2014-05-30T10:19:09Z</time>
      </trkpt>
      <trkpt lat="46.4442" lon="6.13377">
        <ele>1158.53</ele>
        <time>2014-05-30T10:19:20Z</time>
      </trkpt>
      <trkpt lat="46.4442" lon="6.13377">
        <ele>1155.64</ele>
        <time>2014-05-30T10:19:23Z</time>
      </trkpt>
      <trkpt lat="46.4442" lon="6.13377">
        <ele>1156.6</ele>
        <time>2014-05-30T10:29:26Z</time>
      </trkpt>
      <trkpt lat="46.4442" lon="6.13377">
        <ele>1157.56</ele>
        <time>2014-05-30T10:29:27Z</time>
      </trkpt>
      <trkpt lat="46.4442" lon="6.13377">
        <ele>1156.6</ele>
        <time>2014-05-30T10:29:28Z</time>
      </trkpt>
      <trkpt lat="46.44423" lon="6.13362">
        <ele>1158.05</ele>
        <time>2014-05-30T10:29:31Z</time>
      </trkpt>
      <trkpt lat="46.44415" lon="6.13358">
        <ele>1156.6</ele>
        <time>2014-05-30T10:29:33Z</time>
      </trkpt>
      <trkpt lat="46.44419" lon="6.13367">
        <ele>1155.16</ele>
        <time>2014-05-30T10:29:42Z</time>
      </trkpt>
      <trkpt lat="46.44418" lon="6.13369">
        <ele>1165.26</ele>
        <time>2014-05-30T10:30:23Z</time>
      </trkpt>
      <trkpt lat="46.44418" lon="6.13369">
        <ele>1163.33</ele>
        <time>2014-05-30T10:30:24Z</time>
      </trkpt>
      <trkpt lat="46.44418" lon="6.13369">
        <ele>1159.97</ele>
        <time>2014-05-30T10:30:25Z</time>
      </trkpt>
      <trkpt lat="46.44418" lon="6.13369">
        <ele>1157.56</ele>
        <time>2014-05-30T10:30:27Z</time>
      </trkpt>
      <trkpt lat="46.44429" lon="6.13374">
        <ele>1156.6</ele>
        <time>2014-05-30T10:30:31Z</time>
      </trkpt>
      <trkpt lat="46.44405" lon="6.13364">
        <ele>1152.76</ele>
        <time>2014-05-30T10:31:08Z</time>
      </trkpt>
      <trkpt lat="46.44405" lon="6.13364">
        <ele>1149.87</ele>
        <time>2014-05-30T10:31:09Z</time>
      </trkpt>
      <trkpt lat="46.44405" lon="6.13365">
        <ele>1160.93</ele>
        <time>2014-05-30T10:31:10Z</time>
      </trkpt>
      <trkpt lat="46.44406" lon="6.13365">
        <ele>1158.53</ele>
        <time>2014-05-30T10:31:11Z</time>
      </trkpt>
      <trkpt lat="46.44408" lon="6.13366">
        <ele>1150.35</ele>
        <time>2014-05-30T10:31:18Z</time>
      </trkpt>
      <trkpt lat="46.44408" lon="6.13366">
        <ele>1153.72</ele>
        <time>2014-05-30T10:31:19Z</time>
      </trkpt>
      <trkpt lat="46.44408" lon="6.13365">
        <ele>1160.45</ele>
        <time>2014-05-30T10:31:20Z</time>
      </trkpt>
      <trkpt lat="46.44405" lon="6.13364">
        <ele>1157.08</ele>
        <time>2014-05-30T10:31:24Z</time>
      </trkpt>
      <trkpt lat="46.44417" lon="6.13367">
        <ele>1158.53</ele>
        <time>2014-05-30T10:32:00Z</time>
      </trkpt>
      <trkpt lat="46.44422" lon="6.13368">
        <ele>1158.53</ele>
        <time>2014-05-30T10:32:03Z</time>
      </trkpt>
      <trkpt lat="46.44428" lon="6.13359">
        <ele>1151.8</ele>
        <time>2014-05-30T10:32:08Z</time>
      </trkpt>
      <trkpt lat="46.44429" lon="6.13356">
        <ele>1157.56</ele>
        <time>2014-05-30T10:32:09Z</time>
      </trkpt>
      <trkpt lat="46.44431" lon="6.1335">
        <ele>1159.01</ele>
        <time>2014-05-30T10:32:11Z</time>
      </trkpt>
      <trkpt lat="46.44434" lon="6.13332">
        <ele>1159.01</ele>
        <time>2014-05-30T10:32:17Z</time>
      </trkpt>
      <trkpt lat="46.44431" lon="6.1329">
        <ele>1159.49</ele>
        <time>2014-05-30T10:32:29Z</time>
      </trkpt>
      <trkpt lat="46.44416" lon="6.13234">
        <ele>1160.45</ele>
        <time>2014-05-30T10:32:45Z</time>
      </trkpt>
      <trkpt lat="46.444" lon="6.13203">
        <ele>1161.89</ele>
        <time>2014-05-30T10:32:56Z</time>
      </trkpt>
      <trkpt lat="46.44385" lon="6.13204">
        <ele>1163.33</ele>
        <time>2014-05-30T10:33:02Z</time>
      </trkpt>
      <trkpt lat="46.44368" lon="6.13216">
        <ele>1165.26</ele>
        <time>2014-05-30T10:33:12Z</time>
      </trkpt>
      <trkpt lat="46.44355" lon="6.13224">
        <ele>1167.18</ele>
        <time>2014-05-30T10:33:23Z</time>
      </trkpt>
      <trkpt lat="46.44344" lon="6.13224">
        <ele>1168.62</ele>
        <time>2014-05-30T10:33:29Z</time>
      </trkpt>
      <trkpt lat="46.4433" lon="6.13222">
        <ele>1170.06</ele>
        <time>2014-05-30T10:33:39Z</time>
      </trkpt>
      <trkpt lat="46.44309" lon="6.13212">
        <ele>1172.47</ele>
        <time>2014-05-30T10:33:53Z</time>
      </trkpt>
      <trkpt lat="46.44291" lon="6.13192">
        <ele>1174.39</ele>
        <time>2014-05-30T10:34:06Z</time>
      </trkpt>
      <trkpt lat="46.44289" lon="6.13192">
        <ele>1174.39</ele>
        <time>2014-05-30T10:34:07Z</time>
      </trkpt>
      <trkpt lat="46.44265" lon="6.13195">
        <ele>1176.79</ele>
        <time>2014-05-30T10:34:20Z</time>
      </trkpt>
      <trkpt lat="46.4424" lon="6.1321">
        <ele>1178.71</ele>
        <time>2014-05-30T10:34:35Z</time>
      </trkpt>
      <trkpt lat="46.44218" lon="6.13214">
        <ele>1180.16</ele>
        <time>2014-05-30T10:34:47Z</time>
      </trkpt>
      <trkpt lat="46.44211" lon="6.1322">
        <ele>1180.16</ele>
        <time>2014-05-30T10:34:51Z</time>
      </trkpt>
      <trkpt lat="46.4418" lon="6.13224">
        <ele>1185.44</ele>
        <time>2014-05-30T10:35:03Z</time>
      </trkpt>
      <trkpt lat="46.44178" lon="6.13222">
        <ele>1180.64</ele>
        <time>2014-05-30T10:35:04Z</time>
      </trkpt>
      <trkpt lat="46.44171" lon="6.13216">
        <ele>1185.44</ele>
        <time>2014-05-30T10:35:08Z</time>
      </trkpt>
      <trkpt lat="46.44168" lon="6.13212">
        <ele>1181.12</ele>
        <time>2014-05-30T10:35:10Z</time>
      </trkpt>
      <trkpt lat="46.44166" lon="6.1321">
        <ele>1181.12</ele>
        <time>2014-05-30T10:35:11Z</time>
      </trkpt>
      <trkpt lat="46.44165" lon="6.13207">
        <ele>1182.56</ele>
        <time>2014-05-30T10:35:12Z</time>
      </trkpt>
      <trkpt lat="46.44161" lon="6.132">
        <ele>1181.6</ele>
        <time>2014-05-30T10:35:15Z</time>
      </trkpt>
      <trkpt lat="46.44157" lon="6.13188">
        <ele>1181.6</ele>
        <time>2014-05-30T10:35:21Z</time>
      </trkpt>
      <trkpt lat="46.44157" lon="6.13184">
        <ele>1182.56</ele>
        <time>2014-05-30T10:35:25Z</time>
      </trkpt>
      <trkpt lat="46.44163" lon="6.13202">
        <ele>1181.6</ele>
        <time>2014-05-30T10:35:32Z</time>
      </trkpt>
      <trkpt lat="46.44162" lon="6.13232">
        <ele>1181.12</ele>
        <time>2014-05-30T10:35:40Z</time>
      </trkpt>
      <trkpt lat="46.44156" lon="6.13239">
        <ele>1181.6</ele>
        <time>2014-05-30T10:35:44Z</time>
      </trkpt>
      <trkpt lat="46.44129" lon="6.13249">
        <ele>1183.52</ele>
        <time>2014-05-30T10:35:57Z</time>
      </trkpt>
      <trkpt lat="46.44111" lon="6.13259">
        <ele>1184.96</ele>
        <time>2014-05-30T10:36:06Z</time>
      </trkpt>
      <trkpt lat="46.44098" lon="6.13262">
        <ele>1186.4</ele>
        <time>2014-05-30T10:36:12Z</time>
      </trkpt>
      <trkpt lat="46.44085" lon="6.13264">
        <ele>1188.33</ele>
        <time>2014-05-30T10:36:19Z</time>
      </trkpt>
      <trkpt lat="46.44068" lon="6.13262">
        <ele>1189.77</ele>
        <time>2014-05-30T10:36:30Z</time>
      </trkpt>
      <trkpt lat="46.4405" lon="6.13253">
        <ele>1192.65</ele>
        <time>2014-05-30T10:36:41Z</time>
      </trkpt>
      <trkpt lat="46.44035" lon="6.13239">
        <ele>1194.58</ele>
        <time>2014-05-30T10:36:52Z</time>
      </trkpt>
      <trkpt lat="46.44023" lon="6.13227">
        <ele>1197.46</ele>
        <time>2014-05-30T10:37:01Z</time>
      </trkpt>
      <trkpt lat="46.44009" lon="6.13223">
        <ele>1200.34</ele>
        <time>2014-05-30T10:37:13Z</time>
      </trkpt>
      <trkpt lat="46.43989" lon="6.13237">
        <ele>1203.23</ele>
        <time>2014-05-30T10:37:28Z</time>
      </trkpt>
      <trkpt lat="46.43981" lon="6.13258">
        <ele>1206.59</ele>
        <time>2014-05-30T10:37:40Z</time>
      </trkpt>
      <trkpt lat="46.43981" lon="6.13274">
        <ele>1208.03</ele>
        <time>2014-05-30T10:37:47Z</time>
      </trkpt>
      <trkpt lat="46.43976" lon="6.13303">
        <ele>1211.4</ele>
        <time>2014-05-30T10:38:01Z</time>
      </trkpt>
      <trkpt lat="46.43969" lon="6.1333">
        <ele>1214.76</ele>
        <time>2014-05-30T10:38:15Z</time>
      </trkpt>
      <trkpt lat="46.43959" lon="6.13361">
        <ele>1217.65</ele>
        <time>2014-05-30T10:38:31Z</time>
      </trkpt>
      <trkpt lat="46.43951" lon="6.13402">
        <ele>1220.05</ele>
        <time>2014-05-30T10:38:48Z</time>
      </trkpt>
      <trkpt lat="46.43941" lon="6.13428">
        <ele>1223.42</ele>
        <time>2014-05-30T10:39:00Z</time>
      </trkpt>
      <trkpt lat="46.43928" lon="6.13446">
        <ele>1226.78</ele>
        <time>2014-05-30T10:39:11Z</time>
      </trkpt>
      <trkpt lat="46.43909" lon="6.13444">
        <ele>1229.18</ele>
        <time>2014-05-30T10:39:24Z</time>
      </trkpt>
      <trkpt lat="46.43894" lon="6.13425">
        <ele>1231.59</ele>
        <time>2014-05-30T10:39:37Z</time>
      </trkpt>
      <trkpt lat="46.43881" lon="6.13406">
        <ele>1233.99</ele>
        <time>2014-05-30T10:39:50Z</time>
      </trkpt>
      <trkpt lat="46.43876" lon="6.13397">
        <ele>1235.43</ele>
        <time>2014-05-30T10:40:00Z</time>
      </trkpt>
      <trkpt lat="46.43883" lon="6.13393">
        <ele>1234.95</ele>
        <time>2014-05-30T10:40:04Z</time>
      </trkpt>
      <trkpt lat="46.43889" lon="6.13397">
        <ele>1233.99</ele>
        <time>2014-05-30T10:40:09Z</time>
      </trkpt>
      <trkpt lat="46.43884" lon="6.13402">
        <ele>1233.99</ele>
        <time>2014-05-30T10:40:14Z</time>
      </trkpt>
      <trkpt lat="46.4388" lon="6.13402">
        <ele>1231.11</ele>
        <time>2014-05-30T10:40:17Z</time>
      </trkpt>
      <trkpt lat="46.43881" lon="6.13402">
        <ele>1233.99</ele>
        <time>2014-05-30T10:40:18Z</time>
      </trkpt>
      <trkpt lat="46.43881" lon="6.13402">
        <ele>1226.78</ele>
        <time>2014-05-30T10:40:19Z</time>
      </trkpt>
      <trkpt lat="46.43881" lon="6.13402">
        <ele>1235.91</ele>
        <time>2014-05-30T10:40:20Z</time>
      </trkpt>
      <trkpt lat="46.43881" lon="6.13402">
        <ele>1229.18</ele>
        <time>2014-05-30T10:40:21Z</time>
      </trkpt>
      <trkpt lat="46.43881" lon="6.13402">
        <ele>1234.95</ele>
        <time>2014-05-30T10:40:22Z</time>
      </trkpt>
      <trkpt lat="46.43881" lon="6.13402">
        <ele>1230.62</ele>
        <time>2014-05-30T10:40:29Z</time>
      </trkpt>
      <trkpt lat="46.43881" lon="6.13402">
        <ele>1236.39</ele>
        <time>2014-05-30T10:40:30Z</time>
      </trkpt>
      <trkpt lat="46.43866" lon="6.13394">
        <ele>1235.91</ele>
        <time>2014-05-30T10:41:20Z</time>
      </trkpt>
      <trkpt lat="46.43851" lon="6.13395">
        <ele>1239.28</ele>
        <time>2014-05-30T10:41:30Z</time>
      </trkpt>
      <trkpt lat="46.43849" lon="6.13397">
        <ele>1239.28</ele>
        <time>2014-05-30T10:41:31Z</time>
      </trkpt>
      <trkpt lat="46.43843" lon="6.134">
        <ele>1241.2</ele>
        <time>2014-05-30T10:41:35Z</time>
      </trkpt>
      <trkpt lat="46.43841" lon="6.13401">
        <ele>1241.68</ele>
        <time>2014-05-30T10:41:36Z</time>
      </trkpt>
      <trkpt lat="46.43834" lon="6.1341">
        <ele>1242.64</ele>
        <time>2014-05-30T10:41:42Z</time>
      </trkpt>
      <trkpt lat="46.43821" lon="6.1342">
        <ele>1245.04</ele>
        <time>2014-05-30T10:41:50Z</time>
      </trkpt>
      <trkpt lat="46.43815" lon="6.13421">
        <ele>1245.53</ele>
        <time>2014-05-30T10:41:54Z</time>
      </trkpt>
      <trkpt lat="46.43808" lon="6.13416">
        <ele>1247.45</ele>
        <time>2014-05-30T10:42:00Z</time>
      </trkpt>
      <trkpt lat="46.43806" lon="6.13382">
        <ele>1248.89</ele>
        <time>2014-05-30T10:42:13Z</time>
      </trkpt>
      <trkpt lat="46.43806" lon="6.13374">
        <ele>1249.85</ele>
        <time>2014-05-30T10:42:16Z</time>
      </trkpt>
      <trkpt lat="46.43804" lon="6.13359">
        <ele>1249.85</ele>
        <time>2014-05-30T10:42:22Z</time>
      </trkpt>
      <trkpt lat="46.43804" lon="6.1335">
        <ele>1250.81</ele>
        <time>2014-05-30T10:42:25Z</time>
      </trkpt>
      <trkpt lat="46.43806" lon="6.13311">
        <ele>1252.74</ele>
        <time>2014-05-30T10:42:38Z</time>
      </trkpt>
      <trkpt lat="46.43806" lon="6.13305">
        <ele>1253.22</ele>
        <time>2014-05-30T10:42:40Z</time>
      </trkpt>
      <trkpt lat="46.43808" lon="6.13295">
        <ele>1254.18</ele>
        <time>2014-05-30T10:42:44Z</time>
      </trkpt>
      <trkpt lat="46.43807" lon="6.13283">
        <ele>1254.66</ele>
        <time>2014-05-30T10:42:48Z</time>
      </trkpt>
      <trkpt lat="46.43798" lon="6.13245">
        <ele>1257.54</ele>
        <time>2014-05-30T10:43:00Z</time>
      </trkpt>
      <trkpt lat="46.43799" lon="6.13222">
        <ele>1259.94</ele>
        <time>2014-05-30T10:43:09Z</time>
      </trkpt>
      <trkpt lat="46.43796" lon="6.13207">
        <ele>1260.43</ele>
        <time>2014-05-30T10:43:14Z</time>
      </trkpt>
      <trkpt lat="46.43778" lon="6.13177">
        <ele>1263.31</ele>
        <time>2014-05-30T10:43:28Z</time>
      </trkpt>
      <trkpt lat="46.43762" lon="6.13158">
        <ele>1266.67</ele>
        <time>2014-05-30T10:43:40Z</time>
      </trkpt>
      <trkpt lat="46.4375" lon="6.1313">
        <ele>1269.08</ele>
        <time>2014-05-30T10:43:54Z</time>
      </trkpt>
      <trkpt lat="46.43748" lon="6.13123">
        <ele>1269.08</ele>
        <time>2014-05-30T10:43:56Z</time>
      </trkpt>
      <trkpt lat="46.43744" lon="6.13087">
        <ele>1269.56</ele>
        <time>2014-05-30T10:44:06Z</time>
      </trkpt>
      <trkpt lat="46.43739" lon="6.13032">
        <ele>1269.08</ele>
        <time>2014-05-30T10:44:22Z</time>
      </trkpt>
      <trkpt lat="46.43738" lon="6.13028">
        <ele>1265.23</ele>
        <time>2014-05-30T10:44:31Z</time>
      </trkpt>
      <trkpt lat="46.43738" lon="6.13028">
        <ele>1270.52</ele>
        <time>2014-05-30T10:44:32Z</time>
      </trkpt>
      <trkpt lat="46.43738" lon="6.13028">
        <ele>1268.12</ele>
        <time>2014-05-30T10:44:39Z</time>
      </trkpt>
      <trkpt lat="46.43738" lon="6.13028">
        <ele>1269.56</ele>
        <time>2014-05-30T10:44:40Z</time>
      </trkpt>
      <trkpt lat="46.43738" lon="6.13028">
        <ele>1272.92</ele>
        <time>2014-05-30T10:44:54Z</time>
      </trkpt>
      <trkpt lat="46.43738" lon="6.13028">
        <ele>1271</ele>
        <time>2014-05-30T10:44:55Z</time>
      </trkpt>
      <trkpt lat="46.43738" lon="6.13028">
        <ele>1267.64</ele>
        <time>2014-05-30T10:45:39Z</time>
      </trkpt>
      <trkpt lat="46.43738" lon="6.13028">
        <ele>1271</ele>
        <time>2014-05-30T10:45:41Z</time>
      </trkpt>
      <trkpt lat="46.43738" lon="6.13028">
        <ele>1270.04</ele>
        <time>2014-05-30T10:45:42Z</time>
      </trkpt>
      <trkpt lat="46.43738" lon="6.13029">
        <ele>1263.31</ele>
        <time>2014-05-30T10:45:44Z</time>
      </trkpt>
      <trkpt lat="46.43738" lon="6.13029">
        <ele>1266.67</ele>
        <time>2014-05-30T10:45:45Z</time>
      </trkpt>
      <trkpt lat="46.43738" lon="6.13029">
        <ele>1271</ele>
        <time>2014-05-30T10:45:47Z</time>
      </trkpt>
      <trkpt lat="46.43738" lon="6.13029">
        <ele>1268.12</ele>
        <time>2014-05-30T10:46:23Z</time>
      </trkpt>
      <trkpt lat="46.43738" lon="6.13029">
        <ele>1270.04</ele>
        <time>2014-05-30T10:46:26Z</time>
      </trkpt>
      <trkpt lat="46.43738" lon="6.13029">
        <ele>1274.36</ele>
        <time>2014-05-30T10:46:28Z</time>
      </trkpt>
      <trkpt lat="46.43738" lon="6.13029">
        <ele>1267.64</ele>
        <time>2014-05-30T10:46:29Z</time>
      </trkpt>
      <trkpt lat="46.43738" lon="6.13029">
        <ele>1263.79</ele>
        <time>2014-05-30T10:46:32Z</time>
      </trkpt>
      <trkpt lat="46.43738" lon="6.13029">
        <ele>1268.12</ele>
        <time>2014-05-30T10:46:33Z</time>
      </trkpt>
      <trkpt lat="46.43738" lon="6.13029">
        <ele>1273.4</ele>
        <time>2014-05-30T10:46:35Z</time>
      </trkpt>
      <trkpt lat="46.43738" lon="6.13029">
        <ele>1271</ele>
        <time>2014-05-30T10:46:36Z</time>
      </trkpt>
      <trkpt lat="46.43738" lon="6.13029">
        <ele>1266.19</ele>
        <time>2014-05-30T10:46:40Z</time>
      </trkpt>
      <trkpt lat="46.43738" lon="6.13029">
        <ele>1269.56</ele>
        <time>2014-05-30T10:46:42Z</time>
      </trkpt>
      <trkpt lat="46.43737" lon="6.12996">
        <ele>1269.08</ele>
        <time>2014-05-30T10:47:06Z</time>
      </trkpt>
      <trkpt lat="46.43737" lon="6.12897">
        <ele>1267.64</ele>
        <time>2014-05-30T10:47:18Z</time>
      </trkpt>
      <trkpt lat="46.43715" lon="6.12792">
        <ele>1267.16</ele>
        <time>2014-05-30T10:47:31Z</time>
      </trkpt>
      <trkpt lat="46.43705" lon="6.12724">
        <ele>1270.52</ele>
        <time>2014-05-30T10:47:43Z</time>
      </trkpt>
      <trkpt lat="46.43708" lon="6.12668">
        <ele>1273.88</ele>
        <time>2014-05-30T10:47:57Z</time>
      </trkpt>
      <trkpt lat="46.43696" lon="6.12631">
        <ele>1276.29</ele>
        <time>2014-05-30T10:48:10Z</time>
      </trkpt>
      <trkpt lat="46.43691" lon="6.12601">
        <ele>1278.21</ele>
        <time>2014-05-30T10:48:20Z</time>
      </trkpt>
      <trkpt lat="46.43687" lon="6.12582">
        <ele>1279.17</ele>
        <time>2014-05-30T10:48:27Z</time>
      </trkpt>
      <trkpt lat="46.43677" lon="6.1255">
        <ele>1282.06</ele>
        <time>2014-05-30T10:48:41Z</time>
      </trkpt>
      <trkpt lat="46.43674" lon="6.12535">
        <ele>1283.98</ele>
        <time>2014-05-30T10:48:46Z</time>
      </trkpt>
      <trkpt lat="46.4367" lon="6.12509">
        <ele>1285.42</ele>
        <time>2014-05-30T10:48:54Z</time>
      </trkpt>
      <trkpt lat="46.43669" lon="6.12497">
        <ele>1287.34</ele>
        <time>2014-05-30T10:48:58Z</time>
      </trkpt>
      <trkpt lat="46.43663" lon="6.12458">
        <ele>1289.75</ele>
        <time>2014-05-30T10:49:10Z</time>
      </trkpt>
      <trkpt lat="46.43658" lon="6.12411">
        <ele>1290.71</ele>
        <time>2014-05-30T10:49:23Z</time>
      </trkpt>
      <trkpt lat="46.43648" lon="6.12372">
        <ele>1292.15</ele>
        <time>2014-05-30T10:49:34Z</time>
      </trkpt>
      <trkpt lat="46.43627" lon="6.12329">
        <ele>1294.07</ele>
        <time>2014-05-30T10:49:47Z</time>
      </trkpt>
      <trkpt lat="46.43609" lon="6.12281">
        <ele>1295.51</ele>
        <time>2014-05-30T10:50:00Z</time>
      </trkpt>
      <trkpt lat="46.43608" lon="6.1223">
        <ele>1296.96</ele>
        <time>2014-05-30T10:50:12Z</time>
      </trkpt>
      <trkpt lat="46.43613" lon="6.1218">
        <ele>1298.4</ele>
        <time>2014-05-30T10:50:24Z</time>
      </trkpt>
      <trkpt lat="46.43616" lon="6.12141">
        <ele>1299.36</ele>
        <time>2014-05-30T10:50:36Z</time>
      </trkpt>
      <trkpt lat="46.4362" lon="6.12092">
        <ele>1301.28</ele>
        <time>2014-05-30T10:50:50Z</time>
      </trkpt>
      <trkpt lat="46.43616" lon="6.12053">
        <ele>1305.13</ele>
        <time>2014-05-30T10:51:03Z</time>
      </trkpt>
      <trkpt lat="46.4361" lon="6.12017">
        <ele>1307.53</ele>
        <time>2014-05-30T10:51:17Z</time>
      </trkpt>
      <trkpt lat="46.43609" lon="6.11994">
        <ele>1310.9</ele>
        <time>2014-05-30T10:51:27Z</time>
      </trkpt>
      <trkpt lat="46.43608" lon="6.11991">
        <ele>1310.9</ele>
        <time>2014-05-30T10:51:28Z</time>
      </trkpt>
      <trkpt lat="46.43608" lon="6.11975">
        <ele>1312.34</ele>
        <time>2014-05-30T10:51:35Z</time>
      </trkpt>
      <trkpt lat="46.43609" lon="6.11962">
        <ele>1313.78</ele>
        <time>2014-05-30T10:51:41Z</time>
      </trkpt>
      <trkpt lat="46.43609" lon="6.11953">
        <ele>1314.74</ele>
        <time>2014-05-30T10:51:46Z</time>
      </trkpt>
      <trkpt lat="46.43608" lon="6.11917">
        <ele>1319.55</ele>
        <time>2014-05-30T10:52:02Z</time>
      </trkpt>
      <trkpt lat="46.4361" lon="6.1191">
        <ele>1319.07</ele>
        <time>2014-05-30T10:52:06Z</time>
      </trkpt>
      <trkpt lat="46.43604" lon="6.11893">
        <ele>1317.14</ele>
        <time>2014-05-30T10:52:18Z</time>
      </trkpt>
      <trkpt lat="46.43604" lon="6.11893">
        <ele>1313.78</ele>
        <time>2014-05-30T10:52:21Z</time>
      </trkpt>
      <trkpt lat="46.43604" lon="6.11893">
        <ele>1316.66</ele>
        <time>2014-05-30T10:52:24Z</time>
      </trkpt>
      <trkpt lat="46.43604" lon="6.11893">
        <ele>1319.55</ele>
        <time>2014-05-30T10:52:54Z</time>
      </trkpt>
      <trkpt lat="46.43603" lon="6.11893">
        <ele>1316.18</ele>
        <time>2014-05-30T10:52:57Z</time>
      </trkpt>
      <trkpt lat="46.43603" lon="6.11893">
        <ele>1316.18</ele>
        <time>2014-05-30T10:52:58Z</time>
      </trkpt>
      <trkpt lat="46.43603" lon="6.11893">
        <ele>1316.66</ele>
        <time>2014-05-30T10:53:04Z</time>
      </trkpt>
      <trkpt lat="46.436" lon="6.11877">
        <ele>1316.18</ele>
        <time>2014-05-30T10:53:09Z</time>
      </trkpt>
      <trkpt lat="46.4359" lon="6.11856">
        <ele>1315.7</ele>
        <time>2014-05-30T10:53:13Z</time>
      </trkpt>
      <trkpt lat="46.43541" lon="6.11752">
        <ele>1315.22</ele>
        <time>2014-05-30T10:53:28Z</time>
      </trkpt>
      <trkpt lat="46.43517" lon="6.11694">
        <ele>1316.66</ele>
        <time>2014-05-30T10:53:40Z</time>
      </trkpt>
      <trkpt lat="46.43502" lon="6.11664">
        <ele>1319.55</ele>
        <time>2014-05-30T10:53:49Z</time>
      </trkpt>
      <trkpt lat="46.43489" lon="6.11638">
        <ele>1320.99</ele>
        <time>2014-05-30T10:53:59Z</time>
      </trkpt>
      <trkpt lat="46.43474" lon="6.11611">
        <ele>1322.91</ele>
        <time>2014-05-30T10:54:11Z</time>
      </trkpt>
      <trkpt lat="46.43472" lon="6.11607">
        <ele>1324.35</ele>
        <time>2014-05-30T10:54:13Z</time>
      </trkpt>
      <trkpt lat="46.43466" lon="6.11592">
        <ele>1326.76</ele>
        <time>2014-05-30T10:54:21Z</time>
      </trkpt>
      <trkpt lat="46.43463" lon="6.11585">
        <ele>1327.72</ele>
        <time>2014-05-30T10:54:25Z</time>
      </trkpt>
      <trkpt lat="46.43456" lon="6.11571">
        <ele>1331.08</ele>
        <time>2014-05-30T10:54:34Z</time>
      </trkpt>
      <trkpt lat="46.43455" lon="6.11569">
        <ele>1331.08</ele>
        <time>2014-05-30T10:54:35Z</time>
      </trkpt>
      <trkpt lat="46.43453" lon="6.11566">
        <ele>1331.08</ele>
        <time>2014-05-30T10:54:37Z</time>
      </trkpt>
      <trkpt lat="46.43449" lon="6.11551">
        <ele>1334.93</ele>
        <time>2014-05-30T10:54:45Z</time>
      </trkpt>
      <trkpt lat="46.43446" lon="6.11532">
        <ele>1337.33</ele>
        <time>2014-05-30T10:54:53Z</time>
      </trkpt>
      <trkpt lat="46.43446" lon="6.11527">
        <ele>1337.81</ele>
        <time>2014-05-30T10:54:55Z</time>
      </trkpt>
      <trkpt lat="46.43434" lon="6.115">
        <ele>1340.7</ele>
        <time>2014-05-30T10:55:09Z</time>
      </trkpt>
      <trkpt lat="46.43431" lon="6.11494">
        <ele>1341.66</ele>
        <time>2014-05-30T10:55:13Z</time>
      </trkpt>
      <trkpt lat="46.43427" lon="6.11484">
        <ele>1342.62</ele>
        <time>2014-05-30T10:55:19Z</time>
      </trkpt>
      <trkpt lat="46.43422" lon="6.11475">
        <ele>1343.1</ele>
        <time>2014-05-30T10:55:24Z</time>
      </trkpt>
      <trkpt lat="46.43408" lon="6.11449">
        <ele>1345.02</ele>
        <time>2014-05-30T10:55:40Z</time>
      </trkpt>
      <trkpt lat="46.43406" lon="6.11444">
        <ele>1345.98</ele>
        <time>2014-05-30T10:55:43Z</time>
      </trkpt>
      <trkpt lat="46.43399" lon="6.1143">
        <ele>1347.91</ele>
        <time>2014-05-30T10:55:52Z</time>
      </trkpt>
      <trkpt lat="46.43396" lon="6.11426">
        <ele>1348.87</ele>
        <time>2014-05-30T10:55:55Z</time>
      </trkpt>
      <trkpt lat="46.43389" lon="6.11415">
        <ele>1350.31</ele>
        <time>2014-05-30T10:56:03Z</time>
      </trkpt>
      <trkpt lat="46.4338" lon="6.11409">
        <ele>1352.23</ele>
        <time>2014-05-30T10:56:11Z</time>
      </trkpt>
      <trkpt lat="46.43374" lon="6.11409">
        <ele>1353.19</ele>
        <time>2014-05-30T10:56:23Z</time>
      </trkpt>
      <trkpt lat="46.43372" lon="6.11411">
        <ele>1354.63</ele>
        <time>2014-05-30T10:56:27Z</time>
      </trkpt>
      <trkpt lat="46.4336" lon="6.11413">
        <ele>1356.56</ele>
        <time>2014-05-30T10:56:40Z</time>
      </trkpt>
      <trkpt lat="46.43356" lon="6.11413">
        <ele>1358</ele>
        <time>2014-05-30T10:56:57Z</time>
      </trkpt>
      <trkpt lat="46.43352" lon="6.11414">
        <ele>1358.96</ele>
        <time>2014-05-30T10:57:09Z</time>
      </trkpt>
      <trkpt lat="46.43351" lon="6.11416">
        <ele>1359.44</ele>
        <time>2014-05-30T10:57:23Z</time>
      </trkpt>
      <trkpt lat="46.43345" lon="6.11419">
        <ele>1360.4</ele>
        <time>2014-05-30T10:57:30Z</time>
      </trkpt>
      <trkpt lat="46.43338" lon="6.1142">
        <ele>1362.33</ele>
        <time>2014-05-30T10:57:37Z</time>
      </trkpt>
      <trkpt lat="46.43326" lon="6.11412">
        <ele>1364.73</ele>
        <time>2014-05-30T10:57:52Z</time>
      </trkpt>
      <trkpt lat="46.43323" lon="6.11411">
        <ele>1365.21</ele>
        <time>2014-05-30T10:57:59Z</time>
      </trkpt>
      <trkpt lat="46.43322" lon="6.11409">
        <ele>1366.17</ele>
        <time>2014-05-30T10:58:10Z</time>
      </trkpt>
      <trkpt lat="46.43315" lon="6.11404">
        <ele>1366.65</ele>
        <time>2014-05-30T10:58:19Z</time>
      </trkpt>
      <trkpt lat="46.43305" lon="6.114">
        <ele>1368.09</ele>
        <time>2014-05-30T10:58:27Z</time>
      </trkpt>
      <trkpt lat="46.43301" lon="6.11398">
        <ele>1369.05</ele>
        <time>2014-05-30T10:58:32Z</time>
      </trkpt>
      <trkpt lat="46.433" lon="6.11397">
        <ele>1369.54</ele>
        <time>2014-05-30T10:58:34Z</time>
      </trkpt>
      <trkpt lat="46.43293" lon="6.11394">
        <ele>1371.46</ele>
        <time>2014-05-30T10:58:40Z</time>
      </trkpt>
      <trkpt lat="46.43289" lon="6.11388">
        <ele>1373.86</ele>
        <time>2014-05-30T10:58:53Z</time>
      </trkpt>
      <trkpt lat="46.43284" lon="6.11385">
        <ele>1376.75</ele>
        <time>2014-05-30T10:59:07Z</time>
      </trkpt>
      <trkpt lat="46.43284" lon="6.11385">
        <ele>1379.15</ele>
        <time>2014-05-30T10:59:19Z</time>
      </trkpt>
      <trkpt lat="46.43277" lon="6.11383">
        <ele>1380.11</ele>
        <time>2014-05-30T10:59:29Z</time>
      </trkpt>
      <trkpt lat="46.43277" lon="6.11383">
        <ele>1381.07</ele>
        <time>2014-05-30T10:59:32Z</time>
      </trkpt>
      <trkpt lat="46.43277" lon="6.11383">
        <ele>1382.03</ele>
        <time>2014-05-30T10:59:36Z</time>
      </trkpt>
      <trkpt lat="46.43277" lon="6.11384">
        <ele>1383.96</ele>
        <time>2014-05-30T10:59:49Z</time>
      </trkpt>
      <trkpt lat="46.43272" lon="6.11389">
        <ele>1385.4</ele>
        <time>2014-05-30T11:00:01Z</time>
      </trkpt>
      <trkpt lat="46.43267" lon="6.11394">
        <ele>1389.24</ele>
        <time>2014-05-30T11:00:13Z</time>
      </trkpt>
      <trkpt lat="46.43263" lon="6.11401">
        <ele>1390.2</ele>
        <time>2014-05-30T11:00:24Z</time>
      </trkpt>
      <trkpt lat="46.43264" lon="6.11409">
        <ele>1390.68</ele>
        <time>2014-05-30T11:00:34Z</time>
      </trkpt>
      <trkpt lat="46.4326" lon="6.11414">
        <ele>1393.09</ele>
        <time>2014-05-30T11:00:43Z</time>
      </trkpt>
      <trkpt lat="46.43256" lon="6.11429">
        <ele>1395.49</ele>
        <time>2014-05-30T11:00:54Z</time>
      </trkpt>
      <trkpt lat="46.43252" lon="6.1144">
        <ele>1398.37</ele>
        <time>2014-05-30T11:01:07Z</time>
      </trkpt>
      <trkpt lat="46.43251" lon="6.11444">
        <ele>1397.89</ele>
        <time>2014-05-30T11:01:09Z</time>
      </trkpt>
      <trkpt lat="46.43251" lon="6.11446">
        <ele>1398.86</ele>
        <time>2014-05-30T11:01:11Z</time>
      </trkpt>
      <trkpt lat="46.43248" lon="6.11452">
        <ele>1399.82</ele>
        <time>2014-05-30T11:01:19Z</time>
      </trkpt>
      <trkpt lat="46.43241" lon="6.11455">
        <ele>1402.22</ele>
        <time>2014-05-30T11:01:30Z</time>
      </trkpt>
      <trkpt lat="46.43234" lon="6.11452">
        <ele>1404.14</ele>
        <time>2014-05-30T11:01:42Z</time>
      </trkpt>
      <trkpt lat="46.43231" lon="6.11448">
        <ele>1405.58</ele>
        <time>2014-05-30T11:01:53Z</time>
      </trkpt>
      <trkpt lat="46.43226" lon="6.11447">
        <ele>1406.55</ele>
        <time>2014-05-30T11:02:08Z</time>
      </trkpt>
      <trkpt lat="46.43226" lon="6.11447">
        <ele>1407.99</ele>
        <time>2014-05-30T11:02:21Z</time>
      </trkpt>
      <trkpt lat="46.43218" lon="6.11441">
        <ele>1409.91</ele>
        <time>2014-05-30T11:02:33Z</time>
      </trkpt>
      <trkpt lat="46.43214" lon="6.11435">
        <ele>1412.31</ele>
        <time>2014-05-30T11:02:45Z</time>
      </trkpt>
      <trkpt lat="46.43204" lon="6.11431">
        <ele>1414.72</ele>
        <time>2014-05-30T11:02:57Z</time>
      </trkpt>
      <trkpt lat="46.43197" lon="6.11425">
        <ele>1417.12</ele>
        <time>2014-05-30T11:03:10Z</time>
      </trkpt>
      <trkpt lat="46.43191" lon="6.11422">
        <ele>1419.52</ele>
        <time>2014-05-30T11:03:23Z</time>
      </trkpt>
      <trkpt lat="46.43185" lon="6.11419">
        <ele>1421.93</ele>
        <time>2014-05-30T11:03:35Z</time>
      </trkpt>
      <trkpt lat="46.43181" lon="6.11416">
        <ele>1422.89</ele>
        <time>2014-05-30T11:03:49Z</time>
      </trkpt>
      <trkpt lat="46.43175" lon="6.11411">
        <ele>1425.29</ele>
        <time>2014-05-30T11:04:00Z</time>
      </trkpt>
      <trkpt lat="46.43168" lon="6.11405">
        <ele>1428.66</ele>
        <time>2014-05-30T11:04:13Z</time>
      </trkpt>
      <trkpt lat="46.43168" lon="6.11405">
        <ele>1428.66</ele>
        <time>2014-05-30T11:04:17Z</time>
      </trkpt>
      <trkpt lat="46.43161" lon="6.11402">
        <ele>1431.54</ele>
        <time>2014-05-30T11:04:30Z</time>
      </trkpt>
      <trkpt lat="46.43153" lon="6.11398">
        <ele>1433.46</ele>
        <time>2014-05-30T11:04:44Z</time>
      </trkpt>
      <trkpt lat="46.43145" lon="6.114">
        <ele>1435.87</ele>
        <time>2014-05-30T11:04:57Z</time>
      </trkpt>
      <trkpt lat="46.4314" lon="6.11397">
        <ele>1437.31</ele>
        <time>2014-05-30T11:05:10Z</time>
      </trkpt>
      <trkpt lat="46.43135" lon="6.1139">
        <ele>1439.23</ele>
        <time>2014-05-30T11:05:24Z</time>
      </trkpt>
      <trkpt lat="46.43134" lon="6.1139">
        <ele>1438.27</ele>
        <time>2014-05-30T11:05:35Z</time>
      </trkpt>
      <trkpt lat="46.43135" lon="6.1139">
        <ele>1437.79</ele>
        <time>2014-05-30T11:06:55Z</time>
      </trkpt>
      <trkpt lat="46.43135" lon="6.1139">
        <ele>1437.31</ele>
        <time>2014-05-30T11:08:06Z</time>
      </trkpt>
      <trkpt lat="46.43134" lon="6.11389">
        <ele>1438.27</ele>
        <time>2014-05-30T11:08:10Z</time>
      </trkpt>
      <trkpt lat="46.43122" lon="6.11369">
        <ele>1441.63</ele>
        <time>2014-05-30T11:08:25Z</time>
      </trkpt>
      <trkpt lat="46.43121" lon="6.11367">
        <ele>1441.15</ele>
        <time>2014-05-30T11:08:26Z</time>
      </trkpt>
      <trkpt lat="46.43113" lon="6.11352">
        <ele>1442.6</ele>
        <time>2014-05-30T11:08:36Z</time>
      </trkpt>
      <trkpt lat="46.43112" lon="6.11343">
        <ele>1442.6</ele>
        <time>2014-05-30T11:08:41Z</time>
      </trkpt>
      <trkpt lat="46.43112" lon="6.11338">
        <ele>1442.6</ele>
        <time>2014-05-30T11:08:44Z</time>
      </trkpt>
      <trkpt lat="46.43116" lon="6.11314">
        <ele>1444.04</ele>
        <time>2014-05-30T11:09:01Z</time>
      </trkpt>
      <trkpt lat="46.43117" lon="6.11311">
        <ele>1445.48</ele>
        <time>2014-05-30T11:09:12Z</time>
      </trkpt>
      <trkpt lat="46.43117" lon="6.11302">
        <ele>1446.44</ele>
        <time>2014-05-30T11:09:22Z</time>
      </trkpt>
      <trkpt lat="46.43115" lon="6.11282">
        <ele>1449.81</ele>
        <time>2014-05-30T11:09:36Z</time>
      </trkpt>
      <trkpt lat="46.43113" lon="6.11267">
        <ele>1452.21</ele>
        <time>2014-05-30T11:09:50Z</time>
      </trkpt>
      <trkpt lat="46.43113" lon="6.11263">
        <ele>1454.13</ele>
        <time>2014-05-30T11:10:05Z</time>
      </trkpt>
      <trkpt lat="46.43109" lon="6.11254">
        <ele>1455.09</ele>
        <time>2014-05-30T11:10:17Z</time>
      </trkpt>
      <trkpt lat="46.4311" lon="6.11245">
        <ele>1457.5</ele>
        <time>2014-05-30T11:10:30Z</time>
      </trkpt>
      <trkpt lat="46.4311" lon="6.11243">
        <ele>1460.38</ele>
        <time>2014-05-30T11:10:39Z</time>
      </trkpt>
      <trkpt lat="46.43109" lon="6.11239">
        <ele>1461.82</ele>
        <time>2014-05-30T11:10:48Z</time>
      </trkpt>
      <trkpt lat="46.43109" lon="6.11219">
        <ele>1463.74</ele>
        <time>2014-05-30T11:11:02Z</time>
      </trkpt>
      <trkpt lat="46.43112" lon="6.11215">
        <ele>1465.19</ele>
        <time>2014-05-30T11:11:14Z</time>
      </trkpt>
      <trkpt lat="46.43112" lon="6.11209">
        <ele>1465.67</ele>
        <time>2014-05-30T11:11:24Z</time>
      </trkpt>
      <trkpt lat="46.43114" lon="6.11194">
        <ele>1466.63</ele>
        <time>2014-05-30T11:11:38Z</time>
      </trkpt>
      <trkpt lat="46.43116" lon="6.11189">
        <ele>1466.15</ele>
        <time>2014-05-30T11:11:42Z</time>
      </trkpt>
      <trkpt lat="46.43116" lon="6.11186">
        <ele>1466.15</ele>
        <time>2014-05-30T11:11:44Z</time>
      </trkpt>
      <trkpt lat="46.43117" lon="6.11186">
        <ele>1465.19</ele>
        <time>2014-05-30T11:11:49Z</time>
      </trkpt>
      <trkpt lat="46.43117" lon="6.11183">
        <ele>1466.15</ele>
        <time>2014-05-30T11:11:51Z</time>
      </trkpt>
      <trkpt lat="46.4312" lon="6.11171">
        <ele>1467.11</ele>
        <time>2014-05-30T11:12:04Z</time>
      </trkpt>
      <trkpt lat="46.4312" lon="6.1117">
        <ele>1468.07</ele>
        <time>2014-05-30T11:12:09Z</time>
      </trkpt>
      <trkpt lat="46.43123" lon="6.11161">
        <ele>1469.51</ele>
        <time>2014-05-30T11:12:21Z</time>
      </trkpt>
      <trkpt lat="46.43125" lon="6.11153">
        <ele>1470.95</ele>
        <time>2014-05-30T11:12:34Z</time>
      </trkpt>
      <trkpt lat="46.43128" lon="6.11148">
        <ele>1474.32</ele>
        <time>2014-05-30T11:12:44Z</time>
      </trkpt>
      <trkpt lat="46.43129" lon="6.1114">
        <ele>1475.76</ele>
        <time>2014-05-30T11:12:54Z</time>
      </trkpt>
      <trkpt lat="46.43132" lon="6.11136">
        <ele>1476.72</ele>
        <time>2014-05-30T11:13:06Z</time>
      </trkpt>
      <trkpt lat="46.43134" lon="6.11136">
        <ele>1479.13</ele>
        <time>2014-05-30T11:13:16Z</time>
      </trkpt>
      <trkpt lat="46.43134" lon="6.11129">
        <ele>1480.57</ele>
        <time>2014-05-30T11:13:27Z</time>
      </trkpt>
      <trkpt lat="46.43134" lon="6.11128">
        <ele>1480.09</ele>
        <time>2014-05-30T11:13:28Z</time>
      </trkpt>
      <trkpt lat="46.43135" lon="6.11128">
        <ele>1482.01</ele>
        <time>2014-05-30T11:13:35Z</time>
      </trkpt>
      <trkpt lat="46.43134" lon="6.11123">
        <ele>1482.01</ele>
        <time>2014-05-30T11:13:40Z</time>
      </trkpt>
      <trkpt lat="46.43139" lon="6.11118">
        <ele>1483.45</ele>
        <time>2014-05-30T11:13:54Z</time>
      </trkpt>
      <trkpt lat="46.4314" lon="6.1111">
        <ele>1485.85</ele>
        <time>2014-05-30T11:14:06Z</time>
      </trkpt>
      <trkpt lat="46.4314" lon="6.11103">
        <ele>1487.78</ele>
        <time>2014-05-30T11:14:17Z</time>
      </trkpt>
      <trkpt lat="46.43142" lon="6.11098">
        <ele>1490.18</ele>
        <time>2014-05-30T11:14:29Z</time>
      </trkpt>
      <trkpt lat="46.43144" lon="6.1109">
        <ele>1490.66</ele>
        <time>2014-05-30T11:14:42Z</time>
      </trkpt>
      <trkpt lat="46.43145" lon="6.11082">
        <ele>1491.14</ele>
        <time>2014-05-30T11:14:56Z</time>
      </trkpt>
      <trkpt lat="46.43147" lon="6.11078">
        <ele>1491.14</ele>
        <time>2014-05-30T11:15:07Z</time>
      </trkpt>
      <trkpt lat="46.43147" lon="6.11076">
        <ele>1491.14</ele>
        <time>2014-05-30T11:15:19Z</time>
      </trkpt>
      <trkpt lat="46.43147" lon="6.11075">
        <ele>1491.62</ele>
        <time>2014-05-30T11:16:16Z</time>
      </trkpt>
      <trkpt lat="46.43151" lon="6.11068">
        <ele>1491.14</ele>
        <time>2014-05-30T11:16:21Z</time>
      </trkpt>
      <trkpt lat="46.43154" lon="6.11068">
        <ele>1490.66</ele>
        <time>2014-05-30T11:16:32Z</time>
      </trkpt>
      <trkpt lat="46.43154" lon="6.11068">
        <ele>1490.18</ele>
        <time>2014-05-30T11:17:37Z</time>
      </trkpt>
      <trkpt lat="46.43154" lon="6.11067">
        <ele>1491.14</ele>
        <time>2014-05-30T11:18:42Z</time>
      </trkpt>
      <trkpt lat="46.43153" lon="6.11064">
        <ele>1490.18</ele>
        <time>2014-05-30T11:18:44Z</time>
      </trkpt>
      <trkpt lat="46.4315" lon="6.11053">
        <ele>1490.18</ele>
        <time>2014-05-30T11:18:48Z</time>
      </trkpt>
      <trkpt lat="46.43152" lon="6.11042">
        <ele>1489.22</ele>
        <time>2014-05-30T11:18:50Z</time>
      </trkpt>
      <trkpt lat="46.43157" lon="6.11012">
        <ele>1487.3</ele>
        <time>2014-05-30T11:18:55Z</time>
      </trkpt>
      <trkpt lat="46.43161" lon="6.10995">
        <ele>1486.34</ele>
        <time>2014-05-30T11:18:58Z</time>
      </trkpt>
      <trkpt lat="46.43162" lon="6.10985">
        <ele>1485.37</ele>
        <time>2014-05-30T11:19:01Z</time>
      </trkpt>
      <trkpt lat="46.43165" lon="6.10969">
        <ele>1481.53</ele>
        <time>2014-05-30T11:19:03Z</time>
      </trkpt>
      <trkpt lat="46.43168" lon="6.10941">
        <ele>1480.57</ele>
        <time>2014-05-30T11:19:06Z</time>
      </trkpt>
      <trkpt lat="46.43172" lon="6.1092">
        <ele>1481.05</ele>
        <time>2014-05-30T11:19:10Z</time>
      </trkpt>
      <trkpt lat="46.43176" lon="6.109">
        <ele>1482.97</ele>
        <time>2014-05-30T11:19:18Z</time>
      </trkpt>
      <trkpt lat="46.43177" lon="6.10896">
        <ele>1483.93</ele>
        <time>2014-05-30T11:19:20Z</time>
      </trkpt>
      <trkpt lat="46.4318" lon="6.10879">
        <ele>1485.85</ele>
        <time>2014-05-30T11:19:28Z</time>
      </trkpt>
      <trkpt lat="46.43182" lon="6.10868">
        <ele>1485.85</ele>
        <time>2014-05-30T11:19:36Z</time>
      </trkpt>
      <trkpt lat="46.43182" lon="6.10861">
        <ele>1487.3</ele>
        <time>2014-05-30T11:19:48Z</time>
      </trkpt>
      <trkpt lat="46.43186" lon="6.10846">
        <ele>1489.22</ele>
        <time>2014-05-30T11:20:01Z</time>
      </trkpt>
      <trkpt lat="46.43188" lon="6.10837">
        <ele>1491.14</ele>
        <time>2014-05-30T11:20:12Z</time>
      </trkpt>
      <trkpt lat="46.43187" lon="6.10837">
        <ele>1491.14</ele>
        <time>2014-05-30T11:20:13Z</time>
      </trkpt>
      <trkpt lat="46.43187" lon="6.10835">
        <ele>1491.14</ele>
        <time>2014-05-30T11:20:17Z</time>
      </trkpt>
      <trkpt lat="46.43189" lon="6.10824">
        <ele>1493.06</ele>
        <time>2014-05-30T11:20:25Z</time>
      </trkpt>
      <trkpt lat="46.43198" lon="6.1081">
        <ele>1493.55</ele>
        <time>2014-05-30T11:20:34Z</time>
      </trkpt>
      <trkpt lat="46.432" lon="6.10799">
        <ele>1494.03</ele>
        <time>2014-05-30T11:20:40Z</time>
      </trkpt>
      <trkpt lat="46.432" lon="6.10778">
        <ele>1494.03</ele>
        <time>2014-05-30T11:20:55Z</time>
      </trkpt>
      <trkpt lat="46.43201" lon="6.10777">
        <ele>1494.51</ele>
        <time>2014-05-30T11:20:56Z</time>
      </trkpt>
      <trkpt lat="46.43202" lon="6.10764">
        <ele>1493.55</ele>
        <time>2014-05-30T11:21:06Z</time>
      </trkpt>
      <trkpt lat="46.43204" lon="6.10755">
        <ele>1494.51</ele>
        <time>2014-05-30T11:21:14Z</time>
      </trkpt>
      <trkpt lat="46.43207" lon="6.10744">
        <ele>1494.51</ele>
        <time>2014-05-30T11:21:21Z</time>
      </trkpt>
      <trkpt lat="46.43209" lon="6.10735">
        <ele>1495.95</ele>
        <time>2014-05-30T11:21:28Z</time>
      </trkpt>
      <trkpt lat="46.4321" lon="6.10728">
        <ele>1497.39</ele>
        <time>2014-05-30T11:21:36Z</time>
      </trkpt>
      <trkpt lat="46.4321" lon="6.10726">
        <ele>1497.39</ele>
        <time>2014-05-30T11:21:40Z</time>
      </trkpt>
      <trkpt lat="46.43211" lon="6.10716">
        <ele>1498.83</ele>
        <time>2014-05-30T11:21:48Z</time>
      </trkpt>
      <trkpt lat="46.43213" lon="6.10706">
        <ele>1500.76</ele>
        <time>2014-05-30T11:22:02Z</time>
      </trkpt>
      <trkpt lat="46.43217" lon="6.10693">
        <ele>1502.68</ele>
        <time>2014-05-30T11:22:14Z</time>
      </trkpt>
      <trkpt lat="46.4322" lon="6.10679">
        <ele>1504.6</ele>
        <time>2014-05-30T11:22:27Z</time>
      </trkpt>
      <trkpt lat="46.43221" lon="6.10667">
        <ele>1507.97</ele>
        <time>2014-05-30T11:22:41Z</time>
      </trkpt>
      <trkpt lat="46.43223" lon="6.1066">
        <ele>1508.93</ele>
        <time>2014-05-30T11:22:54Z</time>
      </trkpt>
      <trkpt lat="46.43223" lon="6.10656">
        <ele>1510.85</ele>
        <time>2014-05-30T11:23:10Z</time>
      </trkpt>
      <trkpt lat="46.43226" lon="6.1065">
        <ele>1512.29</ele>
        <time>2014-05-30T11:23:25Z</time>
      </trkpt>
      <trkpt lat="46.43229" lon="6.10635">
        <ele>1515.18</ele>
        <time>2014-05-30T11:23:42Z</time>
      </trkpt>
      <trkpt lat="46.43233" lon="6.10628">
        <ele>1516.14</ele>
        <time>2014-05-30T11:23:55Z</time>
      </trkpt>
      <trkpt lat="46.43233" lon="6.10625">
        <ele>1517.1</ele>
        <time>2014-05-30T11:24:08Z</time>
      </trkpt>
      <trkpt lat="46.43235" lon="6.10615">
        <ele>1518.06</ele>
        <time>2014-05-30T11:24:34Z</time>
      </trkpt>
      <trkpt lat="46.4324" lon="6.10604">
        <ele>1520.46</ele>
        <time>2014-05-30T11:24:49Z</time>
      </trkpt>
      <trkpt lat="46.43243" lon="6.10594">
        <ele>1523.35</ele>
        <time>2014-05-30T11:25:04Z</time>
      </trkpt>
      <trkpt lat="46.43243" lon="6.10594">
        <ele>1523.35</ele>
        <time>2014-05-30T11:25:05Z</time>
      </trkpt>
      <trkpt lat="46.43247" lon="6.10583">
        <ele>1525.75</ele>
        <time>2014-05-30T11:25:21Z</time>
      </trkpt>
      <trkpt lat="46.43249" lon="6.10576">
        <ele>1528.15</ele>
        <time>2014-05-30T11:25:37Z</time>
      </trkpt>
      <trkpt lat="46.43252" lon="6.1057">
        <ele>1531.52</ele>
        <time>2014-05-30T11:25:52Z</time>
      </trkpt>
      <trkpt lat="46.43253" lon="6.10565">
        <ele>1532.96</ele>
        <time>2014-05-30T11:25:59Z</time>
      </trkpt>
      <trkpt lat="46.43256" lon="6.1056">
        <ele>1533.92</ele>
        <time>2014-05-30T11:26:12Z</time>
      </trkpt>
      <trkpt lat="46.43257" lon="6.10552">
        <ele>1535.84</ele>
        <time>2014-05-30T11:26:25Z</time>
      </trkpt>
      <trkpt lat="46.4326" lon="6.10546">
        <ele>1538.73</ele>
        <time>2014-05-30T11:26:41Z</time>
      </trkpt>
      <trkpt lat="46.43261" lon="6.10542">
        <ele>1539.69</ele>
        <time>2014-05-30T11:26:51Z</time>
      </trkpt>
      <trkpt lat="46.43261" lon="6.10535">
        <ele>1541.13</ele>
        <time>2014-05-30T11:27:04Z</time>
      </trkpt>
      <trkpt lat="46.43263" lon="6.10531">
        <ele>1543.53</ele>
        <time>2014-05-30T11:27:16Z</time>
      </trkpt>
      <trkpt lat="46.43265" lon="6.1052">
        <ele>1545.94</ele>
        <time>2014-05-30T11:27:29Z</time>
      </trkpt>
      <trkpt lat="46.43266" lon="6.1051">
        <ele>1547.38</ele>
        <time>2014-05-30T11:27:41Z</time>
      </trkpt>
      <trkpt lat="46.43267" lon="6.10499">
        <ele>1548.82</ele>
        <time>2014-05-30T11:27:56Z</time>
      </trkpt>
      <trkpt lat="46.43267" lon="6.10495">
        <ele>1550.26</ele>
        <time>2014-05-30T11:28:02Z</time>
      </trkpt>
      <trkpt lat="46.43267" lon="6.1048">
        <ele>1550.26</ele>
        <time>2014-05-30T11:28:17Z</time>
      </trkpt>
      <trkpt lat="46.43267" lon="6.1047">
        <ele>1551.71</ele>
        <time>2014-05-30T11:28:31Z</time>
      </trkpt>
      <trkpt lat="46.43267" lon="6.10467">
        <ele>1552.19</ele>
        <time>2014-05-30T11:28:35Z</time>
      </trkpt>
      <trkpt lat="46.43268" lon="6.1046">
        <ele>1554.11</ele>
        <time>2014-05-30T11:28:47Z</time>
      </trkpt>
      <trkpt lat="46.43267" lon="6.10456">
        <ele>1555.07</ele>
        <time>2014-05-30T11:28:51Z</time>
      </trkpt>
      <trkpt lat="46.43267" lon="6.10454">
        <ele>1555.55</ele>
        <time>2014-05-30T11:28:53Z</time>
      </trkpt>
      <trkpt lat="46.43266" lon="6.10442">
        <ele>1555.07</ele>
        <time>2014-05-30T11:29:04Z</time>
      </trkpt>
      <trkpt lat="46.43267" lon="6.10427">
        <ele>1555.55</ele>
        <time>2014-05-30T11:29:17Z</time>
      </trkpt>
      <trkpt lat="46.43267" lon="6.10412">
        <ele>1557.47</ele>
        <time>2014-05-30T11:29:32Z</time>
      </trkpt>
      <trkpt lat="46.43267" lon="6.10404">
        <ele>1558.92</ele>
        <time>2014-05-30T11:29:46Z</time>
      </trkpt>
      <trkpt lat="46.43266" lon="6.10395">
        <ele>1561.8</ele>
        <time>2014-05-30T11:29:59Z</time>
      </trkpt>
      <trkpt lat="46.43265" lon="6.10385">
        <ele>1562.76</ele>
        <time>2014-05-30T11:30:12Z</time>
      </trkpt>
      <trkpt lat="46.43265" lon="6.10378">
        <ele>1560.84</ele>
        <time>2014-05-30T11:30:23Z</time>
      </trkpt>
      <trkpt lat="46.43266" lon="6.10377">
        <ele>1561.32</ele>
        <time>2014-05-30T11:30:43Z</time>
      </trkpt>
      <trkpt lat="46.43266" lon="6.10377">
        <ele>1560.84</ele>
        <time>2014-05-30T11:31:13Z</time>
      </trkpt>
      <trkpt lat="46.43266" lon="6.10377">
        <ele>1561.8</ele>
        <time>2014-05-30T11:31:33Z</time>
      </trkpt>
      <trkpt lat="46.43266" lon="6.10377">
        <ele>1561.8</ele>
        <time>2014-05-30T11:31:47Z</time>
      </trkpt>
      <trkpt lat="46.43266" lon="6.10379">
        <ele>1560.84</ele>
        <time>2014-05-30T11:31:59Z</time>
      </trkpt>
      <trkpt lat="46.43265" lon="6.10376">
        <ele>1562.28</ele>
        <time>2014-05-30T11:35:17Z</time>
      </trkpt>
      <trkpt lat="46.43264" lon="6.10367">
        <ele>1560.36</ele>
        <time>2014-05-30T11:35:24Z</time>
      </trkpt>
      <trkpt lat="46.43258" lon="6.1035">
        <ele>1559.4</ele>
        <time>2014-05-30T11:35:31Z</time>
      </trkpt>
      <trkpt lat="46.43257" lon="6.10342">
        <ele>1560.36</ele>
        <time>2014-05-30T11:35:35Z</time>
      </trkpt>
      <trkpt lat="46.43254" lon="6.10341">
        <ele>1559.88</ele>
        <time>2014-05-30T11:35:37Z</time>
      </trkpt>
      <trkpt lat="46.4324" lon="6.10325">
        <ele>1560.36</ele>
        <time>2014-05-30T11:35:51Z</time>
      </trkpt>
      <trkpt lat="46.43239" lon="6.10326">
        <ele>1560.36</ele>
        <time>2014-05-30T11:35:54Z</time>
      </trkpt>
      <trkpt lat="46.43235" lon="6.1033">
        <ele>1561.8</ele>
        <time>2014-05-30T11:35:59Z</time>
      </trkpt>
      <trkpt lat="46.4323" lon="6.10334">
        <ele>1563.72</ele>
        <time>2014-05-30T11:36:05Z</time>
      </trkpt>
      <trkpt lat="46.43228" lon="6.10335">
        <ele>1563.72</ele>
        <time>2014-05-30T11:36:07Z</time>
      </trkpt>
      <trkpt lat="46.43216" lon="6.10337">
        <ele>1566.61</ele>
        <time>2014-05-30T11:36:20Z</time>
      </trkpt>
      <trkpt lat="46.43209" lon="6.10335">
        <ele>1567.09</ele>
        <time>2014-05-30T11:36:27Z</time>
      </trkpt>
      <trkpt lat="46.43207" lon="6.10332">
        <ele>1568.53</ele>
        <time>2014-05-30T11:36:30Z</time>
      </trkpt>
      <trkpt lat="46.43203" lon="6.10325">
        <ele>1570.45</ele>
        <time>2014-05-30T11:36:39Z</time>
      </trkpt>
      <trkpt lat="46.43202" lon="6.10324">
        <ele>1569.97</ele>
        <time>2014-05-30T11:36:40Z</time>
      </trkpt>
      <trkpt lat="46.43192" lon="6.1032">
        <ele>1571.41</ele>
        <time>2014-05-30T11:36:51Z</time>
      </trkpt>
      <trkpt lat="46.4319" lon="6.10321">
        <ele>1571.89</ele>
        <time>2014-05-30T11:36:56Z</time>
      </trkpt>
      <trkpt lat="46.43177" lon="6.10316">
        <ele>1573.82</ele>
        <time>2014-05-30T11:37:10Z</time>
      </trkpt>
      <trkpt lat="46.43173" lon="6.10305">
        <ele>1576.7</ele>
        <time>2014-05-30T11:37:21Z</time>
      </trkpt>
      <trkpt lat="46.43161" lon="6.10302">
        <ele>1577.66</ele>
        <time>2014-05-30T11:37:31Z</time>
      </trkpt>
      <trkpt lat="46.43149" lon="6.103">
        <ele>1580.54</ele>
        <time>2014-05-30T11:37:45Z</time>
      </trkpt>
      <trkpt lat="46.43144" lon="6.10295">
        <ele>1583.43</ele>
        <time>2014-05-30T11:37:57Z</time>
      </trkpt>
      <trkpt lat="46.43139" lon="6.10292">
        <ele>1584.87</ele>
        <time>2014-05-30T11:38:08Z</time>
      </trkpt>
      <trkpt lat="46.43135" lon="6.1029">
        <ele>1587.27</ele>
        <time>2014-05-30T11:38:21Z</time>
      </trkpt>
      <trkpt lat="46.43131" lon="6.10289">
        <ele>1589.2</ele>
        <time>2014-05-30T11:38:30Z</time>
      </trkpt>
      <trkpt lat="46.43128" lon="6.10285">
        <ele>1591.6</ele>
        <time>2014-05-30T11:38:42Z</time>
      </trkpt>
      <trkpt lat="46.43121" lon="6.10281">
        <ele>1594</ele>
        <time>2014-05-30T11:38:55Z</time>
      </trkpt>
      <trkpt lat="46.43118" lon="6.10278">
        <ele>1594.48</ele>
        <time>2014-05-30T11:39:00Z</time>
      </trkpt>
      <trkpt lat="46.43111" lon="6.10273">
        <ele>1597.37</ele>
        <time>2014-05-30T11:39:14Z</time>
      </trkpt>
      <trkpt lat="46.43104" lon="6.10269">
        <ele>1599.29</ele>
        <time>2014-05-30T11:39:27Z</time>
      </trkpt>
      <trkpt lat="46.43099" lon="6.10265">
        <ele>1601.21</ele>
        <time>2014-05-30T11:39:39Z</time>
      </trkpt>
      <trkpt lat="46.43092" lon="6.10261">
        <ele>1604.1</ele>
        <time>2014-05-30T11:39:51Z</time>
      </trkpt>
      <trkpt lat="46.43087" lon="6.1026">
        <ele>1605.54</ele>
        <time>2014-05-30T11:40:02Z</time>
      </trkpt>
      <trkpt lat="46.43083" lon="6.10252">
        <ele>1608.9</ele>
        <time>2014-05-30T11:40:13Z</time>
      </trkpt>
      <trkpt lat="46.43081" lon="6.10251">
        <ele>1609.38</ele>
        <time>2014-05-30T11:40:15Z</time>
      </trkpt>
      <trkpt lat="46.43072" lon="6.10253">
        <ele>1611.79</ele>
        <time>2014-05-30T11:40:27Z</time>
      </trkpt>
      <trkpt lat="46.43066" lon="6.10251">
        <ele>1613.71</ele>
        <time>2014-05-30T11:40:36Z</time>
      </trkpt>
      <trkpt lat="46.43062" lon="6.10246">
        <ele>1613.71</ele>
        <time>2014-05-30T11:40:41Z</time>
      </trkpt>
      <trkpt lat="46.43058" lon="6.10228">
        <ele>1613.71</ele>
        <time>2014-05-30T11:40:54Z</time>
      </trkpt>
      <trkpt lat="46.43054" lon="6.10221">
        <ele>1614.19</ele>
        <time>2014-05-30T11:41:00Z</time>
      </trkpt>
      <trkpt lat="46.43044" lon="6.10216">
        <ele>1615.15</ele>
        <time>2014-05-30T11:41:13Z</time>
      </trkpt>
      <trkpt lat="46.43037" lon="6.10219">
        <ele>1617.07</ele>
        <time>2014-05-30T11:41:25Z</time>
      </trkpt>
      <trkpt lat="46.43027" lon="6.10219">
        <ele>1619.96</ele>
        <time>2014-05-30T11:41:39Z</time>
      </trkpt>
      <trkpt lat="46.43011" lon="6.10206">
        <ele>1621.88</ele>
        <time>2014-05-30T11:41:55Z</time>
      </trkpt>
      <trkpt lat="46.42996" lon="6.10196">
        <ele>1622.84</ele>
        <time>2014-05-30T11:42:08Z</time>
      </trkpt>
      <trkpt lat="46.42991" lon="6.10194">
        <ele>1622.36</ele>
        <time>2014-05-30T11:42:12Z</time>
      </trkpt>
      <trkpt lat="46.42975" lon="6.10181">
        <ele>1622.36</ele>
        <time>2014-05-30T11:42:26Z</time>
      </trkpt>
      <trkpt lat="46.42965" lon="6.10175">
        <ele>1624.77</ele>
        <time>2014-05-30T11:42:38Z</time>
      </trkpt>
      <trkpt lat="46.4296" lon="6.1017">
        <ele>1626.21</ele>
        <time>2014-05-30T11:42:44Z</time>
      </trkpt>
      <trkpt lat="46.42955" lon="6.10167">
        <ele>1626.21</ele>
        <time>2014-05-30T11:42:50Z</time>
      </trkpt>
      <trkpt lat="46.42944" lon="6.10163">
        <ele>1628.13</ele>
        <time>2014-05-30T11:43:04Z</time>
      </trkpt>
      <trkpt lat="46.42935" lon="6.1016">
        <ele>1630.53</ele>
        <time>2014-05-30T11:43:18Z</time>
      </trkpt>
      <trkpt lat="46.42934" lon="6.1016">
        <ele>1630.05</ele>
        <time>2014-05-30T11:43:20Z</time>
      </trkpt>
      <trkpt lat="46.42931" lon="6.10161">
        <ele>1631.98</ele>
        <time>2014-05-30T11:43:24Z</time>
      </trkpt>
      <trkpt lat="46.42926" lon="6.10159">
        <ele>1633.42</ele>
        <time>2014-05-30T11:43:30Z</time>
      </trkpt>
      <trkpt lat="46.4292" lon="6.10157">
        <ele>1634.38</ele>
        <time>2014-05-30T11:43:35Z</time>
      </trkpt>
      <trkpt lat="46.42917" lon="6.10153">
        <ele>1634.86</ele>
        <time>2014-05-30T11:43:39Z</time>
      </trkpt>
      <trkpt lat="46.42899" lon="6.10143">
        <ele>1636.3</ele>
        <time>2014-05-30T11:43:56Z</time>
      </trkpt>
      <trkpt lat="46.42883" lon="6.10133">
        <ele>1637.74</ele>
        <time>2014-05-30T11:44:12Z</time>
      </trkpt>
      <trkpt lat="46.4288" lon="6.10131">
        <ele>1638.22</ele>
        <time>2014-05-30T11:44:15Z</time>
      </trkpt>
      <trkpt lat="46.42873" lon="6.10127">
        <ele>1638.22</ele>
        <time>2014-05-30T11:44:21Z</time>
      </trkpt>
      <trkpt lat="46.42868" lon="6.10126">
        <ele>1639.19</ele>
        <time>2014-05-30T11:44:25Z</time>
      </trkpt>
      <trkpt lat="46.42851" lon="6.10119">
        <ele>1641.11</ele>
        <time>2014-05-30T11:44:42Z</time>
      </trkpt>
      <trkpt lat="46.42844" lon="6.10118">
        <ele>1642.55</ele>
        <time>2014-05-30T11:44:49Z</time>
      </trkpt>
      <trkpt lat="46.4284" lon="6.10115">
        <ele>1643.99</ele>
        <time>2014-05-30T11:44:54Z</time>
      </trkpt>
      <trkpt lat="46.42828" lon="6.10117">
        <ele>1646.4</ele>
        <time>2014-05-30T11:45:07Z</time>
      </trkpt>
      <trkpt lat="46.42814" lon="6.10113">
        <ele>1649.28</ele>
        <time>2014-05-30T11:45:22Z</time>
      </trkpt>
      <trkpt lat="46.4281" lon="6.10111">
        <ele>1649.76</ele>
        <time>2014-05-30T11:45:27Z</time>
      </trkpt>
      <trkpt lat="46.42808" lon="6.10108">
        <ele>1650.24</ele>
        <time>2014-05-30T11:45:30Z</time>
      </trkpt>
      <trkpt lat="46.42792" lon="6.10106">
        <ele>1651.68</ele>
        <time>2014-05-30T11:45:47Z</time>
      </trkpt>
      <trkpt lat="46.42773" lon="6.10099">
        <ele>1653.12</ele>
        <time>2014-05-30T11:46:02Z</time>
      </trkpt>
      <trkpt lat="46.42767" lon="6.10097">
        <ele>1653.6</ele>
        <time>2014-05-30T11:46:09Z</time>
      </trkpt>
      <trkpt lat="46.4276" lon="6.10096">
        <ele>1656.01</ele>
        <time>2014-05-30T11:46:16Z</time>
      </trkpt>
      <trkpt lat="46.42744" lon="6.10089">
        <ele>1657.45</ele>
        <time>2014-05-30T11:46:31Z</time>
      </trkpt>
      <trkpt lat="46.42729" lon="6.10083">
        <ele>1658.41</ele>
        <time>2014-05-30T11:46:46Z</time>
      </trkpt>
      <trkpt lat="46.42729" lon="6.10084">
        <ele>1658.41</ele>
        <time>2014-05-30T11:46:47Z</time>
      </trkpt>
      <trkpt lat="46.42731" lon="6.10092">
        <ele>1658.41</ele>
        <time>2014-05-30T11:46:52Z</time>
      </trkpt>
      <trkpt lat="46.42729" lon="6.10105">
        <ele>1659.37</ele>
        <time>2014-05-30T11:47:06Z</time>
      </trkpt>
      <trkpt lat="46.42729" lon="6.10106">
        <ele>1658.89</ele>
        <time>2014-05-30T11:47:32Z</time>
      </trkpt>
      <trkpt lat="46.42728" lon="6.10105">
        <ele>1659.37</ele>
        <time>2014-05-30T11:48:17Z</time>
      </trkpt>
      <trkpt lat="46.42724" lon="6.10091">
        <ele>1657.45</ele>
        <time>2014-05-30T11:48:22Z</time>
      </trkpt>
      <trkpt lat="46.42722" lon="6.10083">
        <ele>1657.93</ele>
        <time>2014-05-30T11:48:26Z</time>
      </trkpt>
      <trkpt lat="46.42718" lon="6.10078">
        <ele>1658.89</ele>
        <time>2014-05-30T11:48:30Z</time>
      </trkpt>
      <trkpt lat="46.42712" lon="6.10074">
        <ele>1658.89</ele>
        <time>2014-05-30T11:48:34Z</time>
      </trkpt>
      <trkpt lat="46.42692" lon="6.10064">
        <ele>1659.85</ele>
        <time>2014-05-30T11:48:48Z</time>
      </trkpt>
      <trkpt lat="46.42686" lon="6.10066">
        <ele>1660.33</ele>
        <time>2014-05-30T11:48:52Z</time>
      </trkpt>
      <trkpt lat="46.42681" lon="6.1006">
        <ele>1660.81</ele>
        <time>2014-05-30T11:48:57Z</time>
      </trkpt>
      <trkpt lat="46.42679" lon="6.1006">
        <ele>1660.81</ele>
        <time>2014-05-30T11:48:59Z</time>
      </trkpt>
      <trkpt lat="46.42672" lon="6.10053">
        <ele>1661.78</ele>
        <time>2014-05-30T11:49:06Z</time>
      </trkpt>
      <trkpt lat="46.42653" lon="6.10042">
        <ele>1663.22</ele>
        <time>2014-05-30T11:49:22Z</time>
      </trkpt>
      <trkpt lat="46.42649" lon="6.10041">
        <ele>1664.18</ele>
        <time>2014-05-30T11:49:25Z</time>
      </trkpt>
      <trkpt lat="46.42642" lon="6.10035">
        <ele>1665.14</ele>
        <time>2014-05-30T11:49:32Z</time>
      </trkpt>
      <trkpt lat="46.42621" lon="6.10026">
        <ele>1666.58</ele>
        <time>2014-05-30T11:49:48Z</time>
      </trkpt>
      <trkpt lat="46.42614" lon="6.10021">
        <ele>1668.02</ele>
        <time>2014-05-30T11:49:54Z</time>
      </trkpt>
      <trkpt lat="46.42609" lon="6.10021">
        <ele>1668.51</ele>
        <time>2014-05-30T11:49:58Z</time>
      </trkpt>
      <trkpt lat="46.42602" lon="6.1002">
        <ele>1668.51</ele>
        <time>2014-05-30T11:50:04Z</time>
      </trkpt>
      <trkpt lat="46.426" lon="6.1002">
        <ele>1668.51</ele>
        <time>2014-05-30T11:50:06Z</time>
      </trkpt>
      <trkpt lat="46.42594" lon="6.10023">
        <ele>1668.99</ele>
        <time>2014-05-30T11:50:11Z</time>
      </trkpt>
      <trkpt lat="46.42588" lon="6.10023">
        <ele>1669.47</ele>
        <time>2014-05-30T11:50:16Z</time>
      </trkpt>
      <trkpt lat="46.42578" lon="6.10025">
        <ele>1670.43</ele>
        <time>2014-05-30T11:50:24Z</time>
      </trkpt>
      <trkpt lat="46.42576" lon="6.10025">
        <ele>1670.91</ele>
        <time>2014-05-30T11:50:26Z</time>
      </trkpt>
      <trkpt lat="46.42571" lon="6.10023">
        <ele>1671.39</ele>
        <time>2014-05-30T11:50:30Z</time>
      </trkpt>
      <trkpt lat="46.42563" lon="6.10026">
        <ele>1671.87</ele>
        <time>2014-05-30T11:50:42Z</time>
      </trkpt>
      <trkpt lat="46.42565" lon="6.10033">
        <ele>1671.87</ele>
        <time>2014-05-30T11:50:54Z</time>
      </trkpt>
      <trkpt lat="46.42565" lon="6.10033">
        <ele>1672.35</ele>
        <time>2014-05-30T11:51:38Z</time>
      </trkpt>
      <trkpt lat="46.42565" lon="6.10033">
        <ele>1671.87</ele>
        <time>2014-05-30T11:51:44Z</time>
      </trkpt>
      <trkpt lat="46.42564" lon="6.10033">
        <ele>1671.39</ele>
        <time>2014-05-30T11:52:04Z</time>
      </trkpt>
      <trkpt lat="46.42564" lon="6.10033">
        <ele>1668.02</ele>
        <time>2014-05-30T11:55:40Z</time>
      </trkpt>
      <trkpt lat="46.42564" lon="6.10033">
        <ele>1671.39</ele>
        <time>2014-05-30T12:37:39Z</time>
      </trkpt>
      <trkpt lat="46.42564" lon="6.10033">
        <ele>1678.6</ele>
        <time>2014-05-30T12:37:41Z</time>
      </trkpt>
      <trkpt lat="46.42564" lon="6.10033">
        <ele>1669.95</ele>
        <time>2014-05-30T12:37:43Z</time>
      </trkpt>
      <trkpt lat="46.42564" lon="6.10033">
        <ele>1667.54</ele>
        <time>2014-05-30T12:37:44Z</time>
      </trkpt>
      <trkpt lat="46.42572" lon="6.10009">
        <ele>1667.54</ele>
        <time>2014-05-30T12:37:45Z</time>
      </trkpt>
      <trkpt lat="46.42571" lon="6.10008">
        <ele>1668.51</ele>
        <time>2014-05-30T12:37:46Z</time>
      </trkpt>
      <trkpt lat="46.42568" lon="6.10018">
        <ele>1652.16</ele>
        <time>2014-05-30T12:37:49Z</time>
      </trkpt>
      <trkpt lat="46.42568" lon="6.10018">
        <ele>1665.62</ele>
        <time>2014-05-30T12:37:50Z</time>
      </trkpt>
      <trkpt lat="46.42567" lon="6.10017">
        <ele>1670.43</ele>
        <time>2014-05-30T12:37:51Z</time>
      </trkpt>
      <trkpt lat="46.42567" lon="6.10018">
        <ele>1668.99</ele>
        <time>2014-05-30T12:37:52Z</time>
      </trkpt>
      <trkpt lat="46.42564" lon="6.10024">
        <ele>1670.91</ele>
        <time>2014-05-30T12:38:00Z</time>
      </trkpt>
      <trkpt lat="46.42551" lon="6.09996">
        <ele>1666.58</ele>
        <time>2014-05-30T12:38:12Z</time>
      </trkpt>
      <trkpt lat="46.42549" lon="6.09994">
        <ele>1672.83</ele>
        <time>2014-05-30T12:38:13Z</time>
      </trkpt>
      <trkpt lat="46.42514" lon="6.09971">
        <ele>1672.83</ele>
        <time>2014-05-30T12:38:27Z</time>
      </trkpt>
      <trkpt lat="46.42498" lon="6.09958">
        <ele>1672.35</ele>
        <time>2014-05-30T12:38:32Z</time>
      </trkpt>
      <trkpt lat="46.4249" lon="6.09953">
        <ele>1672.83</ele>
        <time>2014-05-30T12:38:36Z</time>
      </trkpt>
      <trkpt lat="46.42462" lon="6.09926">
        <ele>1670.91</ele>
        <time>2014-05-30T12:38:46Z</time>
      </trkpt>
      <trkpt lat="46.42455" lon="6.0992">
        <ele>1669.47</ele>
        <time>2014-05-30T12:38:48Z</time>
      </trkpt>
      <trkpt lat="46.42445" lon="6.09907">
        <ele>1668.02</ele>
        <time>2014-05-30T12:38:51Z</time>
      </trkpt>
      <trkpt lat="46.42436" lon="6.09903">
        <ele>1666.1</ele>
        <time>2014-05-30T12:38:53Z</time>
      </trkpt>
      <trkpt lat="46.42402" lon="6.09867">
        <ele>1661.78</ele>
        <time>2014-05-30T12:39:01Z</time>
      </trkpt>
      <trkpt lat="46.42388" lon="6.09853">
        <ele>1657.45</ele>
        <time>2014-05-30T12:39:04Z</time>
      </trkpt>
      <trkpt lat="46.42385" lon="6.09847">
        <ele>1656.97</ele>
        <time>2014-05-30T12:39:05Z</time>
      </trkpt>
      <trkpt lat="46.42377" lon="6.09835">
        <ele>1656.01</ele>
        <time>2014-05-30T12:39:07Z</time>
      </trkpt>
      <trkpt lat="46.42371" lon="6.09823">
        <ele>1653.6</ele>
        <time>2014-05-30T12:39:09Z</time>
      </trkpt>
      <trkpt lat="46.42356" lon="6.09801">
        <ele>1649.28</ele>
        <time>2014-05-30T12:39:13Z</time>
      </trkpt>
      <trkpt lat="46.42346" lon="6.09784">
        <ele>1645.91</ele>
        <time>2014-05-30T12:39:16Z</time>
      </trkpt>
      <trkpt lat="46.42333" lon="6.09766">
        <ele>1641.11</ele>
        <time>2014-05-30T12:39:20Z</time>
      </trkpt>
      <trkpt lat="46.42327" lon="6.09759">
        <ele>1639.19</ele>
        <time>2014-05-30T12:39:22Z</time>
      </trkpt>
      <trkpt lat="46.42319" lon="6.09753">
        <ele>1638.7</ele>
        <time>2014-05-30T12:39:24Z</time>
      </trkpt>
      <trkpt lat="46.42313" lon="6.0975">
        <ele>1637.26</ele>
        <time>2014-05-30T12:39:25Z</time>
      </trkpt>
      <trkpt lat="46.42293" lon="6.09732">
        <ele>1634.38</ele>
        <time>2014-05-30T12:39:31Z</time>
      </trkpt>
      <trkpt lat="46.42287" lon="6.09726">
        <ele>1632.94</ele>
        <time>2014-05-30T12:39:34Z</time>
      </trkpt>
      <trkpt lat="46.42269" lon="6.09713">
        <ele>1633.42</ele>
        <time>2014-05-30T12:39:42Z</time>
      </trkpt>
      <trkpt lat="46.42269" lon="6.09713">
        <ele>1632.94</ele>
        <time>2014-05-30T12:39:56Z</time>
      </trkpt>
      <trkpt lat="46.42269" lon="6.09714">
        <ele>1633.42</ele>
        <time>2014-05-30T12:40:55Z</time>
      </trkpt>
      <trkpt lat="46.42269" lon="6.09714">
        <ele>1633.42</ele>
        <time>2014-05-30T12:41:03Z</time>
      </trkpt>
      <trkpt lat="46.4225" lon="6.09699">
        <ele>1631.01</ele>
        <time>2014-05-30T12:41:11Z</time>
      </trkpt>
      <trkpt lat="46.42241" lon="6.09695">
        <ele>1630.05</ele>
        <time>2014-05-30T12:41:13Z</time>
      </trkpt>
      <trkpt lat="46.42221" lon="6.0968">
        <ele>1627.65</ele>
        <time>2014-05-30T12:41:20Z</time>
      </trkpt>
      <trkpt lat="46.42199" lon="6.09655">
        <ele>1628.61</ele>
        <time>2014-05-30T12:41:31Z</time>
      </trkpt>
      <trkpt lat="46.42189" lon="6.09645">
        <ele>1628.61</ele>
        <time>2014-05-30T12:41:39Z</time>
      </trkpt>
      <trkpt lat="46.4218" lon="6.09635">
        <ele>1629.57</ele>
        <time>2014-05-30T12:41:49Z</time>
      </trkpt>
      <trkpt lat="46.42175" lon="6.09632">
        <ele>1631.01</ele>
        <time>2014-05-30T12:41:55Z</time>
      </trkpt>
      <trkpt lat="46.42168" lon="6.09628">
        <ele>1633.42</ele>
        <time>2014-05-30T12:42:08Z</time>
      </trkpt>
      <trkpt lat="46.42163" lon="6.09625">
        <ele>1634.38</ele>
        <time>2014-05-30T12:42:20Z</time>
      </trkpt>
      <trkpt lat="46.42161" lon="6.09621">
        <ele>1634.38</ele>
        <time>2014-05-30T12:42:31Z</time>
      </trkpt>
      <trkpt lat="46.42159" lon="6.09619">
        <ele>1633.42</ele>
        <time>2014-05-30T12:42:36Z</time>
      </trkpt>
      <trkpt lat="46.42156" lon="6.09621">
        <ele>1631.49</ele>
        <time>2014-05-30T12:42:49Z</time>
      </trkpt>
      <trkpt lat="46.42156" lon="6.09621">
        <ele>1631.98</ele>
        <time>2014-05-30T12:43:03Z</time>
      </trkpt>
      <trkpt lat="46.42145" lon="6.0962">
        <ele>1630.05</ele>
        <time>2014-05-30T12:43:13Z</time>
      </trkpt>
      <trkpt lat="46.42139" lon="6.09616">
        <ele>1628.61</ele>
        <time>2014-05-30T12:43:23Z</time>
      </trkpt>
      <trkpt lat="46.42137" lon="6.09614">
        <ele>1627.17</ele>
        <time>2014-05-30T12:43:26Z</time>
      </trkpt>
      <trkpt lat="46.42131" lon="6.09604">
        <ele>1625.73</ele>
        <time>2014-05-30T12:43:29Z</time>
      </trkpt>
      <trkpt lat="46.4212" lon="6.09598">
        <ele>1623.8</ele>
        <time>2014-05-30T12:43:39Z</time>
      </trkpt>
      <trkpt lat="46.4211" lon="6.09588">
        <ele>1621.88</ele>
        <time>2014-05-30T12:43:59Z</time>
      </trkpt>
      <trkpt lat="46.42101" lon="6.09573">
        <ele>1616.59</ele>
        <time>2014-05-30T12:44:03Z</time>
      </trkpt>
      <trkpt lat="46.42093" lon="6.09565">
        <ele>1613.23</ele>
        <time>2014-05-30T12:44:09Z</time>
      </trkpt>
      <trkpt lat="46.42087" lon="6.09566">
        <ele>1612.75</ele>
        <time>2014-05-30T12:44:17Z</time>
      </trkpt>
      <trkpt lat="46.42085" lon="6.09565">
        <ele>1612.75</ele>
        <time>2014-05-30T12:44:21Z</time>
      </trkpt>
      <trkpt lat="46.4208" lon="6.09566">
        <ele>1612.27</ele>
        <time>2014-05-30T12:44:28Z</time>
      </trkpt>
      <trkpt lat="46.42074" lon="6.09564">
        <ele>1611.31</ele>
        <time>2014-05-30T12:44:41Z</time>
      </trkpt>
      <trkpt lat="46.4207" lon="6.0956">
        <ele>1610.35</ele>
        <time>2014-05-30T12:44:45Z</time>
      </trkpt>
      <trkpt lat="46.42065" lon="6.09555">
        <ele>1609.86</ele>
        <time>2014-05-30T12:44:49Z</time>
      </trkpt>
      <trkpt lat="46.42061" lon="6.09548">
        <ele>1608.42</ele>
        <time>2014-05-30T12:44:53Z</time>
      </trkpt>
      <trkpt lat="46.42056" lon="6.09542">
        <ele>1606.02</ele>
        <time>2014-05-30T12:44:56Z</time>
      </trkpt>
      <trkpt lat="46.42046" lon="6.09533">
        <ele>1602.66</ele>
        <time>2014-05-30T12:45:00Z</time>
      </trkpt>
      <trkpt lat="46.42032" lon="6.09522">
        <ele>1599.29</ele>
        <time>2014-05-30T12:45:05Z</time>
      </trkpt>
      <trkpt lat="46.42017" lon="6.09512">
        <ele>1594.96</ele>
        <time>2014-05-30T12:45:10Z</time>
      </trkpt>
      <trkpt lat="46.42013" lon="6.0951">
        <ele>1594</ele>
        <time>2014-05-30T12:45:12Z</time>
      </trkpt>
      <trkpt lat="46.42008" lon="6.09502">
        <ele>1591.12</ele>
        <time>2014-05-30T12:45:17Z</time>
      </trkpt>
      <trkpt lat="46.42006" lon="6.09501">
        <ele>1590.64</ele>
        <time>2014-05-30T12:45:28Z</time>
      </trkpt>
      <trkpt lat="46.42006" lon="6.09498">
        <ele>1588.72</ele>
        <time>2014-05-30T12:45:40Z</time>
      </trkpt>
      <trkpt lat="46.42003" lon="6.09492">
        <ele>1586.79</ele>
        <time>2014-05-30T12:45:57Z</time>
      </trkpt>
      <trkpt lat="46.42005" lon="6.09488">
        <ele>1586.31</ele>
        <time>2014-05-30T12:46:08Z</time>
      </trkpt>
      <trkpt lat="46.42006" lon="6.09483">
        <ele>1586.31</ele>
        <time>2014-05-30T12:46:10Z</time>
      </trkpt>
      <trkpt lat="46.42004" lon="6.09472">
        <ele>1582.47</ele>
        <time>2014-05-30T12:46:14Z</time>
      </trkpt>
      <trkpt lat="46.42002" lon="6.0947">
        <ele>1581.51</ele>
        <time>2014-05-30T12:46:26Z</time>
      </trkpt>
      <trkpt lat="46.41991" lon="6.09458">
        <ele>1578.14</ele>
        <time>2014-05-30T12:48:44Z</time>
      </trkpt>
      <trkpt lat="46.41988" lon="6.09455">
        <ele>1577.66</ele>
        <time>2014-05-30T12:48:45Z</time>
      </trkpt>
      <trkpt lat="46.41982" lon="6.09448">
        <ele>1574.78</ele>
        <time>2014-05-30T12:48:47Z</time>
      </trkpt>
      <trkpt lat="46.41968" lon="6.09432">
        <ele>1569.97</ele>
        <time>2014-05-30T12:48:51Z</time>
      </trkpt>
      <trkpt lat="46.41964" lon="6.09429">
        <ele>1569.01</ele>
        <time>2014-05-30T12:48:52Z</time>
      </trkpt>
      <trkpt lat="46.41946" lon="6.09418">
        <ele>1564.68</ele>
        <time>2014-05-30T12:48:56Z</time>
      </trkpt>
      <trkpt lat="46.41939" lon="6.09415">
        <ele>1561.32</ele>
        <time>2014-05-30T12:48:59Z</time>
      </trkpt>
      <trkpt lat="46.4194" lon="6.09419">
        <ele>1559.88</ele>
        <time>2014-05-30T12:49:09Z</time>
      </trkpt>
      <trkpt lat="46.41938" lon="6.09412">
        <ele>1558.43</ele>
        <time>2014-05-30T12:49:12Z</time>
      </trkpt>
      <trkpt lat="46.41931" lon="6.09398">
        <ele>1556.03</ele>
        <time>2014-05-30T12:49:16Z</time>
      </trkpt>
      <trkpt lat="46.4192" lon="6.09389">
        <ele>1551.71</ele>
        <time>2014-05-30T12:49:20Z</time>
      </trkpt>
      <trkpt lat="46.41911" lon="6.09383">
        <ele>1547.86</ele>
        <time>2014-05-30T12:49:25Z</time>
      </trkpt>
      <trkpt lat="46.41898" lon="6.09381">
        <ele>1545.94</ele>
        <time>2014-05-30T12:49:30Z</time>
      </trkpt>
      <trkpt lat="46.41894" lon="6.09378">
        <ele>1545.94</ele>
        <time>2014-05-30T12:49:31Z</time>
      </trkpt>
      <trkpt lat="46.41887" lon="6.09373">
        <ele>1544.5</ele>
        <time>2014-05-30T12:49:33Z</time>
      </trkpt>
      <trkpt lat="46.41878" lon="6.0936">
        <ele>1542.09</ele>
        <time>2014-05-30T12:49:37Z</time>
      </trkpt>
      <trkpt lat="46.41864" lon="6.09351">
        <ele>1538.25</ele>
        <time>2014-05-30T12:49:42Z</time>
      </trkpt>
      <trkpt lat="46.41855" lon="6.09344">
        <ele>1535.84</ele>
        <time>2014-05-30T12:49:45Z</time>
      </trkpt>
      <trkpt lat="46.41838" lon="6.09334">
        <ele>1531.52</ele>
        <time>2014-05-30T12:49:49Z</time>
      </trkpt>
      <trkpt lat="46.41829" lon="6.09327">
        <ele>1530.56</ele>
        <time>2014-05-30T12:49:51Z</time>
      </trkpt>
      <trkpt lat="46.41821" lon="6.09319">
        <ele>1527.19</ele>
        <time>2014-05-30T12:49:54Z</time>
      </trkpt>
      <trkpt lat="46.4182" lon="6.09318">
        <ele>1526.71</ele>
        <time>2014-05-30T12:49:55Z</time>
      </trkpt>
      <trkpt lat="46.41814" lon="6.09315">
        <ele>1526.23</ele>
        <time>2014-05-30T12:50:02Z</time>
      </trkpt>
      <trkpt lat="46.41812" lon="6.09315">
        <ele>1525.75</ele>
        <time>2014-05-30T12:50:04Z</time>
      </trkpt>
      <trkpt lat="46.41808" lon="6.09312">
        <ele>1525.27</ele>
        <time>2014-05-30T12:50:07Z</time>
      </trkpt>
      <trkpt lat="46.41805" lon="6.09307">
        <ele>1523.35</ele>
        <time>2014-05-30T12:50:15Z</time>
      </trkpt>
      <trkpt lat="46.41792" lon="6.09298">
        <ele>1521.42</ele>
        <time>2014-05-30T12:50:25Z</time>
      </trkpt>
      <trkpt lat="46.41781" lon="6.09288">
        <ele>1518.54</ele>
        <time>2014-05-30T12:50:35Z</time>
      </trkpt>
      <trkpt lat="46.41779" lon="6.09287">
        <ele>1518.54</ele>
        <time>2014-05-30T12:50:36Z</time>
      </trkpt>
      <trkpt lat="46.41772" lon="6.09281">
        <ele>1515.18</ele>
        <time>2014-05-30T12:50:46Z</time>
      </trkpt>
      <trkpt lat="46.41768" lon="6.09276">
        <ele>1513.73</ele>
        <time>2014-05-30T12:50:59Z</time>
      </trkpt>
      <trkpt lat="46.41766" lon="6.09275">
        <ele>1513.25</ele>
        <time>2014-05-30T12:51:01Z</time>
      </trkpt>
      <trkpt lat="46.41757" lon="6.09271">
        <ele>1510.37</ele>
        <time>2014-05-30T12:51:06Z</time>
      </trkpt>
      <trkpt lat="46.41758" lon="6.09265">
        <ele>1507</ele>
        <time>2014-05-30T12:51:15Z</time>
      </trkpt>
      <trkpt lat="46.41757" lon="6.09264">
        <ele>1507.48</ele>
        <time>2014-05-30T12:51:34Z</time>
      </trkpt>
      <trkpt lat="46.4175" lon="6.09248">
        <ele>1504.12</ele>
        <time>2014-05-30T12:51:40Z</time>
      </trkpt>
      <trkpt lat="46.41737" lon="6.09241">
        <ele>1500.27</ele>
        <time>2014-05-30T12:51:43Z</time>
      </trkpt>
      <trkpt lat="46.41732" lon="6.09237">
        <ele>1498.35</ele>
        <time>2014-05-30T12:51:44Z</time>
      </trkpt>
      <trkpt lat="46.41703" lon="6.09204">
        <ele>1494.51</ele>
        <time>2014-05-30T12:51:49Z</time>
      </trkpt>
      <trkpt lat="46.41676" lon="6.09169">
        <ele>1490.66</ele>
        <time>2014-05-30T12:51:56Z</time>
      </trkpt>
      <trkpt lat="46.41673" lon="6.09165">
        <ele>1489.7</ele>
        <time>2014-05-30T12:51:58Z</time>
      </trkpt>
      <trkpt lat="46.41671" lon="6.09165">
        <ele>1488.74</ele>
        <time>2014-05-30T12:52:00Z</time>
      </trkpt>
      <trkpt lat="46.41666" lon="6.09163">
        <ele>1487.78</ele>
        <time>2014-05-30T12:52:08Z</time>
      </trkpt>
      <trkpt lat="46.41666" lon="6.09163">
        <ele>1487.78</ele>
        <time>2014-05-30T12:52:53Z</time>
      </trkpt>
      <trkpt lat="46.41656" lon="6.0915">
        <ele>1486.34</ele>
        <time>2014-05-30T12:55:09Z</time>
      </trkpt>
      <trkpt lat="46.41636" lon="6.09113">
        <ele>1482.01</ele>
        <time>2014-05-30T12:55:15Z</time>
      </trkpt>
      <trkpt lat="46.41626" lon="6.09095">
        <ele>1479.13</ele>
        <time>2014-05-30T12:55:18Z</time>
      </trkpt>
      <trkpt lat="46.41622" lon="6.09089">
        <ele>1478.16</ele>
        <time>2014-05-30T12:55:19Z</time>
      </trkpt>
      <trkpt lat="46.41603" lon="6.09064">
        <ele>1474.8</ele>
        <time>2014-05-30T12:55:23Z</time>
      </trkpt>
      <trkpt lat="46.41583" lon="6.09035">
        <ele>1471.44</ele>
        <time>2014-05-30T12:55:28Z</time>
      </trkpt>
      <trkpt lat="46.4157" lon="6.09015">
        <ele>1468.55</ele>
        <time>2014-05-30T12:55:31Z</time>
      </trkpt>
      <trkpt lat="46.41563" lon="6.09002">
        <ele>1466.15</ele>
        <time>2014-05-30T12:55:34Z</time>
      </trkpt>
      <trkpt lat="46.41562" lon="6.09002">
        <ele>1465.19</ele>
        <time>2014-05-30T12:55:37Z</time>
      </trkpt>
      <trkpt lat="46.41571" lon="6.08982">
        <ele>1461.82</ele>
        <time>2014-05-30T12:55:42Z</time>
      </trkpt>
      <trkpt lat="46.41577" lon="6.08959">
        <ele>1457.98</ele>
        <time>2014-05-30T12:55:46Z</time>
      </trkpt>
      <trkpt lat="46.41577" lon="6.08954">
        <ele>1455.57</ele>
        <time>2014-05-30T12:55:50Z</time>
      </trkpt>
      <trkpt lat="46.41577" lon="6.08953">
        <ele>1455.57</ele>
        <time>2014-05-30T12:56:07Z</time>
      </trkpt>
      <trkpt lat="46.41578" lon="6.08949">
        <ele>1454.61</ele>
        <time>2014-05-30T12:56:21Z</time>
      </trkpt>
      <trkpt lat="46.41578" lon="6.08949">
        <ele>1453.17</ele>
        <time>2014-05-30T12:57:47Z</time>
      </trkpt>
      <trkpt lat="46.41581" lon="6.08947">
        <ele>1451.73</ele>
        <time>2014-05-30T13:08:07Z</time>
      </trkpt>
      <trkpt lat="46.41584" lon="6.08947">
        <ele>1452.21</ele>
        <time>2014-05-30T13:08:16Z</time>
      </trkpt>
      <trkpt lat="46.41587" lon="6.08941">
        <ele>1451.73</ele>
        <time>2014-05-30T13:08:20Z</time>
      </trkpt>
      <trkpt lat="46.4159" lon="6.08938">
        <ele>1449.81</ele>
        <time>2014-05-30T13:08:23Z</time>
      </trkpt>
      <trkpt lat="46.4159" lon="6.08935">
        <ele>1449.32</ele>
        <time>2014-05-30T13:08:25Z</time>
      </trkpt>
      <trkpt lat="46.41585" lon="6.08919">
        <ele>1445.48</ele>
        <time>2014-05-30T13:08:31Z</time>
      </trkpt>
      <trkpt lat="46.41584" lon="6.08918">
        <ele>1445.48</ele>
        <time>2014-05-30T13:08:32Z</time>
      </trkpt>
      <trkpt lat="46.41583" lon="6.08909">
        <ele>1443.56</ele>
        <time>2014-05-30T13:08:36Z</time>
      </trkpt>
      <trkpt lat="46.41582" lon="6.08879">
        <ele>1440.19</ele>
        <time>2014-05-30T13:08:41Z</time>
      </trkpt>
      <trkpt lat="46.41579" lon="6.0887">
        <ele>1439.23</ele>
        <time>2014-05-30T13:08:42Z</time>
      </trkpt>
      <trkpt lat="46.41572" lon="6.08852">
        <ele>1437.31</ele>
        <time>2014-05-30T13:08:44Z</time>
      </trkpt>
      <trkpt lat="46.41552" lon="6.08816">
        <ele>1432.5</ele>
        <time>2014-05-30T13:08:49Z</time>
      </trkpt>
      <trkpt lat="46.41547" lon="6.08792">
        <ele>1429.62</ele>
        <time>2014-05-30T13:08:53Z</time>
      </trkpt>
      <trkpt lat="46.41547" lon="6.0877">
        <ele>1425.29</ele>
        <time>2014-05-30T13:08:57Z</time>
      </trkpt>
      <trkpt lat="46.41547" lon="6.08765">
        <ele>1424.33</ele>
        <time>2014-05-30T13:08:58Z</time>
      </trkpt>
      <trkpt lat="46.41545" lon="6.08741">
        <ele>1422.41</ele>
        <time>2014-05-30T13:09:02Z</time>
      </trkpt>
      <trkpt lat="46.4153" lon="6.08724">
        <ele>1421.45</ele>
        <time>2014-05-30T13:09:08Z</time>
      </trkpt>
      <trkpt lat="46.41525" lon="6.08719">
        <ele>1421.93</ele>
        <time>2014-05-30T13:09:12Z</time>
      </trkpt>
      <trkpt lat="46.41522" lon="6.08717">
        <ele>1421.45</ele>
        <time>2014-05-30T13:09:31Z</time>
      </trkpt>
      <trkpt lat="46.41503" lon="6.08698">
        <ele>1420.97</ele>
        <time>2014-05-30T13:11:17Z</time>
      </trkpt>
      <trkpt lat="46.41476" lon="6.0867">
        <ele>1420.49</ele>
        <time>2014-05-30T13:11:25Z</time>
      </trkpt>
      <trkpt lat="46.41419" lon="6.08641">
        <ele>1418.56</ele>
        <time>2014-05-30T13:11:39Z</time>
      </trkpt>
      <trkpt lat="46.41389" lon="6.08631">
        <ele>1417.12</ele>
        <time>2014-05-30T13:11:44Z</time>
      </trkpt>
      <trkpt lat="46.41365" lon="6.08631">
        <ele>1416.64</ele>
        <time>2014-05-30T13:11:48Z</time>
      </trkpt>
      <trkpt lat="46.41347" lon="6.08638">
        <ele>1415.68</ele>
        <time>2014-05-30T13:11:51Z</time>
      </trkpt>
      <trkpt lat="46.41326" lon="6.08657">
        <ele>1415.2</ele>
        <time>2014-05-30T13:11:55Z</time>
      </trkpt>
      <trkpt lat="46.41281" lon="6.08673">
        <ele>1413.28</ele>
        <time>2014-05-30T13:12:02Z</time>
      </trkpt>
      <trkpt lat="46.4125" lon="6.0866">
        <ele>1412.31</ele>
        <time>2014-05-30T13:12:07Z</time>
      </trkpt>
      <trkpt lat="46.41233" lon="6.08639">
        <ele>1411.35</ele>
        <time>2014-05-30T13:12:10Z</time>
      </trkpt>
      <trkpt lat="46.41207" lon="6.08611">
        <ele>1407.51</ele>
        <time>2014-05-30T13:12:14Z</time>
      </trkpt>
      <trkpt lat="46.41201" lon="6.08602">
        <ele>1406.07</ele>
        <time>2014-05-30T13:12:15Z</time>
      </trkpt>
      <trkpt lat="46.41186" lon="6.08575">
        <ele>1401.74</ele>
        <time>2014-05-30T13:12:18Z</time>
      </trkpt>
      <trkpt lat="46.41172" lon="6.08548">
        <ele>1398.86</ele>
        <time>2014-05-30T13:12:25Z</time>
      </trkpt>
      <trkpt lat="46.41181" lon="6.08513">
        <ele>1392.13</ele>
        <time>2014-05-30T13:12:35Z</time>
      </trkpt>
      <trkpt lat="46.41182" lon="6.08507">
        <ele>1392.13</ele>
        <time>2014-05-30T13:12:36Z</time>
      </trkpt>
      <trkpt lat="46.41199" lon="6.08423">
        <ele>1392.61</ele>
        <time>2014-05-30T13:12:50Z</time>
      </trkpt>
      <trkpt lat="46.41208" lon="6.08386">
        <ele>1391.65</ele>
        <time>2014-05-30T13:12:55Z</time>
      </trkpt>
      <trkpt lat="46.41212" lon="6.08371">
        <ele>1391.17</ele>
        <time>2014-05-30T13:12:57Z</time>
      </trkpt>
      <trkpt lat="46.41226" lon="6.08325">
        <ele>1389.24</ele>
        <time>2014-05-30T13:13:03Z</time>
      </trkpt>
      <trkpt lat="46.41233" lon="6.08311">
        <ele>1388.28</ele>
        <time>2014-05-30T13:13:05Z</time>
      </trkpt>
      <trkpt lat="46.41236" lon="6.08305">
        <ele>1388.28</ele>
        <time>2014-05-30T13:13:06Z</time>
      </trkpt>
      <trkpt lat="46.41241" lon="6.08292">
        <ele>1386.84</ele>
        <time>2014-05-30T13:13:08Z</time>
      </trkpt>
      <trkpt lat="46.41238" lon="6.08261">
        <ele>1387.32</ele>
        <time>2014-05-30T13:13:16Z</time>
      </trkpt>
      <trkpt lat="46.41236" lon="6.0826">
        <ele>1387.32</ele>
        <time>2014-05-30T13:13:17Z</time>
      </trkpt>
      <trkpt lat="46.41221" lon="6.0824">
        <ele>1389.24</ele>
        <time>2014-05-30T13:13:29Z</time>
      </trkpt>
      <trkpt lat="46.41204" lon="6.08213">
        <ele>1390.2</ele>
        <time>2014-05-30T13:13:40Z</time>
      </trkpt>
      <trkpt lat="46.41185" lon="6.0819">
        <ele>1390.68</ele>
        <time>2014-05-30T13:13:51Z</time>
      </trkpt>
      <trkpt lat="46.41163" lon="6.08202">
        <ele>1392.13</ele>
        <time>2014-05-30T13:14:03Z</time>
      </trkpt>
      <trkpt lat="46.41148" lon="6.08247">
        <ele>1392.13</ele>
        <time>2014-05-30T13:14:17Z</time>
      </trkpt>
      <trkpt lat="46.41138" lon="6.08297">
        <ele>1393.57</ele>
        <time>2014-05-30T13:14:31Z</time>
      </trkpt>
      <trkpt lat="46.41129" lon="6.08337">
        <ele>1395.01</ele>
        <time>2014-05-30T13:14:44Z</time>
      </trkpt>
      <trkpt lat="46.41124" lon="6.08342">
        <ele>1395.97</ele>
        <time>2014-05-30T13:14:47Z</time>
      </trkpt>
      <trkpt lat="46.4111" lon="6.08324">
        <ele>1396.45</ele>
        <time>2014-05-30T13:14:55Z</time>
      </trkpt>
      <trkpt lat="46.41108" lon="6.08252">
        <ele>1396.93</ele>
        <time>2014-05-30T13:15:12Z</time>
      </trkpt>
      <trkpt lat="46.41101" lon="6.082">
        <ele>1398.86</ele>
        <time>2014-05-30T13:15:26Z</time>
      </trkpt>
      <trkpt lat="46.41082" lon="6.08188">
        <ele>1400.78</ele>
        <time>2014-05-30T13:15:36Z</time>
      </trkpt>
      <trkpt lat="46.41066" lon="6.08194">
        <ele>1402.7</ele>
        <time>2014-05-30T13:15:45Z</time>
      </trkpt>
      <trkpt lat="46.41044" lon="6.08204">
        <ele>1406.07</ele>
        <time>2014-05-30T13:15:59Z</time>
      </trkpt>
      <trkpt lat="46.41024" lon="6.08213">
        <ele>1408.95</ele>
        <time>2014-05-30T13:16:13Z</time>
      </trkpt>
      <trkpt lat="46.41021" lon="6.08214">
        <ele>1409.91</ele>
        <time>2014-05-30T13:16:15Z</time>
      </trkpt>
      <trkpt lat="46.41011" lon="6.08217">
        <ele>1410.87</ele>
        <time>2014-05-30T13:16:22Z</time>
      </trkpt>
      <trkpt lat="46.40991" lon="6.0822">
        <ele>1414.24</ele>
        <time>2014-05-30T13:16:35Z</time>
      </trkpt>
      <trkpt lat="46.40959" lon="6.08217">
        <ele>1415.68</ele>
        <time>2014-05-30T13:16:50Z</time>
      </trkpt>
      <trkpt lat="46.40929" lon="6.08217">
        <ele>1417.6</ele>
        <time>2014-05-30T13:17:06Z</time>
      </trkpt>
      <trkpt lat="46.40902" lon="6.08221">
        <ele>1420.97</ele>
        <time>2014-05-30T13:17:20Z</time>
      </trkpt>
      <trkpt lat="46.40898" lon="6.0822">
        <ele>1420.49</ele>
        <time>2014-05-30T13:17:22Z</time>
      </trkpt>
      <trkpt lat="46.40893" lon="6.08223">
        <ele>1420.49</ele>
        <time>2014-05-30T13:17:35Z</time>
      </trkpt>
      <trkpt lat="46.40893" lon="6.08222">
        <ele>1420.49</ele>
        <time>2014-05-30T13:21:02Z</time>
      </trkpt>
      <trkpt lat="46.40857" lon="6.0822">
        <ele>1419.52</ele>
        <time>2014-05-30T13:21:14Z</time>
      </trkpt>
      <trkpt lat="46.40817" lon="6.08199">
        <ele>1416.64</ele>
        <time>2014-05-30T13:21:24Z</time>
      </trkpt>
      <trkpt lat="46.40795" lon="6.08179">
        <ele>1413.76</ele>
        <time>2014-05-30T13:21:28Z</time>
      </trkpt>
      <trkpt lat="46.40768" lon="6.0815">
        <ele>1410.39</ele>
        <time>2014-05-30T13:21:33Z</time>
      </trkpt>
      <trkpt lat="46.40762" lon="6.08146">
        <ele>1409.91</ele>
        <time>2014-05-30T13:21:34Z</time>
      </trkpt>
      <trkpt lat="46.4075" lon="6.08139">
        <ele>1408.47</ele>
        <time>2014-05-30T13:21:36Z</time>
      </trkpt>
      <trkpt lat="46.40729" lon="6.08125">
        <ele>1405.58</ele>
        <time>2014-05-30T13:21:39Z</time>
      </trkpt>
      <trkpt lat="46.40723" lon="6.08118">
        <ele>1404.14</ele>
        <time>2014-05-30T13:21:40Z</time>
      </trkpt>
      <trkpt lat="46.40718" lon="6.08108">
        <ele>1402.7</ele>
        <time>2014-05-30T13:21:41Z</time>
      </trkpt>
      <trkpt lat="46.40715" lon="6.08098">
        <ele>1403.18</ele>
        <time>2014-05-30T13:21:42Z</time>
      </trkpt>
      <trkpt lat="46.40713" lon="6.08088">
        <ele>1402.7</ele>
        <time>2014-05-30T13:21:43Z</time>
      </trkpt>
      <trkpt lat="46.4071" lon="6.08079">
        <ele>1402.22</ele>
        <time>2014-05-30T13:21:44Z</time>
      </trkpt>
      <trkpt lat="46.40706" lon="6.08072">
        <ele>1400.78</ele>
        <time>2014-05-30T13:21:45Z</time>
      </trkpt>
      <trkpt lat="46.40701" lon="6.08067">
        <ele>1399.34</ele>
        <time>2014-05-30T13:21:46Z</time>
      </trkpt>
      <trkpt lat="46.40695" lon="6.08064">
        <ele>1399.34</ele>
        <time>2014-05-30T13:21:47Z</time>
      </trkpt>
      <trkpt lat="46.40689" lon="6.08062">
        <ele>1399.34</ele>
        <time>2014-05-30T13:21:48Z</time>
      </trkpt>
      <trkpt lat="46.40681" lon="6.0806">
        <ele>1399.34</ele>
        <time>2014-05-30T13:21:49Z</time>
      </trkpt>
      <trkpt lat="46.40635" lon="6.08053">
        <ele>1397.89</ele>
        <time>2014-05-30T13:21:55Z</time>
      </trkpt>
      <trkpt lat="46.4063" lon="6.0805">
        <ele>1397.89</ele>
        <time>2014-05-30T13:21:56Z</time>
      </trkpt>
      <trkpt lat="46.40626" lon="6.08045">
        <ele>1397.89</ele>
        <time>2014-05-30T13:21:57Z</time>
      </trkpt>
      <trkpt lat="46.40621" lon="6.08039">
        <ele>1397.89</ele>
        <time>2014-05-30T13:21:58Z</time>
      </trkpt>
      <trkpt lat="46.40618" lon="6.08031">
        <ele>1396.93</ele>
        <time>2014-05-30T13:21:59Z</time>
      </trkpt>
      <trkpt lat="46.40615" lon="6.08022">
        <ele>1396.45</ele>
        <time>2014-05-30T13:22:00Z</time>
      </trkpt>
      <trkpt lat="46.40613" lon="6.08011">
        <ele>1395.49</ele>
        <time>2014-05-30T13:22:01Z</time>
      </trkpt>
      <trkpt lat="46.4061" lon="6.07988">
        <ele>1394.53</ele>
        <time>2014-05-30T13:22:03Z</time>
      </trkpt>
      <trkpt lat="46.40609" lon="6.07977">
        <ele>1393.57</ele>
        <time>2014-05-30T13:22:04Z</time>
      </trkpt>
      <trkpt lat="46.40607" lon="6.07966">
        <ele>1393.57</ele>
        <time>2014-05-30T13:22:05Z</time>
      </trkpt>
      <trkpt lat="46.40602" lon="6.07944">
        <ele>1393.57</ele>
        <time>2014-05-30T13:22:07Z</time>
      </trkpt>
      <trkpt lat="46.40599" lon="6.07935">
        <ele>1394.05</ele>
        <time>2014-05-30T13:22:08Z</time>
      </trkpt>
      <trkpt lat="46.40595" lon="6.07926">
        <ele>1394.53</ele>
        <time>2014-05-30T13:22:09Z</time>
      </trkpt>
      <trkpt lat="46.40587" lon="6.07912">
        <ele>1395.01</ele>
        <time>2014-05-30T13:22:11Z</time>
      </trkpt>
      <trkpt lat="46.40583" lon="6.07908">
        <ele>1395.01</ele>
        <time>2014-05-30T13:22:12Z</time>
      </trkpt>
      <trkpt lat="46.4054" lon="6.07874">
        <ele>1393.09</ele>
        <time>2014-05-30T13:22:21Z</time>
      </trkpt>
      <trkpt lat="46.40526" lon="6.0786">
        <ele>1392.13</ele>
        <time>2014-05-30T13:22:24Z</time>
      </trkpt>
      <trkpt lat="46.40521" lon="6.07855">
        <ele>1391.65</ele>
        <time>2014-05-30T13:22:25Z</time>
      </trkpt>
      <trkpt lat="46.4051" lon="6.07846">
        <ele>1390.2</ele>
        <time>2014-05-30T13:22:27Z</time>
      </trkpt>
      <trkpt lat="46.40503" lon="6.07842">
        <ele>1389.72</ele>
        <time>2014-05-30T13:22:28Z</time>
      </trkpt>
      <trkpt lat="46.40496" lon="6.07839">
        <ele>1389.24</ele>
        <time>2014-05-30T13:22:29Z</time>
      </trkpt>
      <trkpt lat="46.40476" lon="6.0783">
        <ele>1388.76</ele>
        <time>2014-05-30T13:22:32Z</time>
      </trkpt>
      <trkpt lat="46.4043" lon="6.07794">
        <ele>1386.84</ele>
        <time>2014-05-30T13:22:39Z</time>
      </trkpt>
      <trkpt lat="46.40423" lon="6.0779">
        <ele>1386.36</ele>
        <time>2014-05-30T13:22:40Z</time>
      </trkpt>
      <trkpt lat="46.40416" lon="6.07789">
        <ele>1385.88</ele>
        <time>2014-05-30T13:22:41Z</time>
      </trkpt>
      <trkpt lat="46.40407" lon="6.07791">
        <ele>1385.4</ele>
        <time>2014-05-30T13:22:42Z</time>
      </trkpt>
      <trkpt lat="46.40399" lon="6.07793">
        <ele>1385.4</ele>
        <time>2014-05-30T13:22:43Z</time>
      </trkpt>
      <trkpt lat="46.40369" lon="6.07798">
        <ele>1384.44</ele>
        <time>2014-05-30T13:22:47Z</time>
      </trkpt>
      <trkpt lat="46.40363" lon="6.07796">
        <ele>1384.92</ele>
        <time>2014-05-30T13:22:48Z</time>
      </trkpt>
      <trkpt lat="46.40359" lon="6.07792">
        <ele>1385.4</ele>
        <time>2014-05-30T13:22:49Z</time>
      </trkpt>
      <trkpt lat="46.40357" lon="6.07786">
        <ele>1385.88</ele>
        <time>2014-05-30T13:22:50Z</time>
      </trkpt>
      <trkpt lat="46.40355" lon="6.0778">
        <ele>1386.36</ele>
        <time>2014-05-30T13:22:51Z</time>
      </trkpt>
      <trkpt lat="46.40353" lon="6.07774">
        <ele>1386.36</ele>
        <time>2014-05-30T13:22:52Z</time>
      </trkpt>
      <trkpt lat="46.40353" lon="6.07769">
        <ele>1386.84</ele>
        <time>2014-05-30T13:22:53Z</time>
      </trkpt>
      <trkpt lat="46.40351" lon="6.07763">
        <ele>1387.8</ele>
        <time>2014-05-30T13:22:54Z</time>
      </trkpt>
      <trkpt lat="46.4035" lon="6.07757">
        <ele>1387.32</ele>
        <time>2014-05-30T13:22:55Z</time>
      </trkpt>
      <trkpt lat="46.40348" lon="6.07751">
        <ele>1387.32</ele>
        <time>2014-05-30T13:22:56Z</time>
      </trkpt>
      <trkpt lat="46.40346" lon="6.07745">
        <ele>1387.32</ele>
        <time>2014-05-30T13:22:57Z</time>
      </trkpt>
      <trkpt lat="46.40344" lon="6.0774">
        <ele>1386.84</ele>
        <time>2014-05-30T13:22:58Z</time>
      </trkpt>
      <trkpt lat="46.40341" lon="6.07736">
        <ele>1386.36</ele>
        <time>2014-05-30T13:22:59Z</time>
      </trkpt>
      <trkpt lat="46.40338" lon="6.07733">
        <ele>1386.36</ele>
        <time>2014-05-30T13:23:00Z</time>
      </trkpt>
      <trkpt lat="46.4033" lon="6.07725">
        <ele>1389.24</ele>
        <time>2014-05-30T13:23:05Z</time>
      </trkpt>
      <trkpt lat="46.4033" lon="6.07724">
        <ele>1385.88</ele>
        <time>2014-05-30T13:23:06Z</time>
      </trkpt>
      <trkpt lat="46.4033" lon="6.07724">
        <ele>1374.34</ele>
        <time>2014-05-30T13:23:08Z</time>
      </trkpt>
      <trkpt lat="46.4033" lon="6.07725">
        <ele>1386.36</ele>
        <time>2014-05-30T13:23:09Z</time>
      </trkpt>
      <trkpt lat="46.40328" lon="6.07724">
        <ele>1385.88</ele>
        <time>2014-05-30T13:23:35Z</time>
      </trkpt>
      <trkpt lat="46.40325" lon="6.07726">
        <ele>1385.4</ele>
        <time>2014-05-30T13:23:37Z</time>
      </trkpt>
      <trkpt lat="46.40324" lon="6.07727">
        <ele>1385.4</ele>
        <time>2014-05-30T13:23:38Z</time>
      </trkpt>
      <trkpt lat="46.40323" lon="6.07729">
        <ele>1385.4</ele>
        <time>2014-05-30T13:23:39Z</time>
      </trkpt>
      <trkpt lat="46.40322" lon="6.0773">
        <ele>1385.88</ele>
        <time>2014-05-30T13:23:40Z</time>
      </trkpt>
      <trkpt lat="46.40321" lon="6.07731">
        <ele>1385.88</ele>
        <time>2014-05-30T13:23:41Z</time>
      </trkpt>
      <trkpt lat="46.4032" lon="6.07732">
        <ele>1385.4</ele>
        <time>2014-05-30T13:23:42Z</time>
      </trkpt>
      <trkpt lat="46.40318" lon="6.07732">
        <ele>1385.88</ele>
        <time>2014-05-30T13:23:43Z</time>
      </trkpt>
      <trkpt lat="46.40318" lon="6.07731">
        <ele>1386.36</ele>
        <time>2014-05-30T13:23:44Z</time>
      </trkpt>
      <trkpt lat="46.4032" lon="6.07728">
        <ele>1386.36</ele>
        <time>2014-05-30T13:23:46Z</time>
      </trkpt>
      <trkpt lat="46.40321" lon="6.07727">
        <ele>1385.88</ele>
        <time>2014-05-30T13:23:47Z</time>
      </trkpt>
      <trkpt lat="46.40322" lon="6.07725">
        <ele>1385.88</ele>
        <time>2014-05-30T13:23:48Z</time>
      </trkpt>
      <trkpt lat="46.40323" lon="6.07721">
        <ele>1385.4</ele>
        <time>2014-05-30T13:24:01Z</time>
      </trkpt>
      <trkpt lat="46.40324" lon="6.0772">
        <ele>1385.4</ele>
        <time>2014-05-30T13:24:10Z</time>
      </trkpt>
      <trkpt lat="46.40327" lon="6.07719">
        <ele>1384.92</ele>
        <time>2014-05-30T13:24:15Z</time>
      </trkpt>
      <trkpt lat="46.40328" lon="6.07714">
        <ele>1384.44</ele>
        <time>2014-05-30T13:24:19Z</time>
      </trkpt>
      <trkpt lat="46.40328" lon="6.07712">
        <ele>1384.44</ele>
        <time>2014-05-30T13:24:20Z</time>
      </trkpt>
      <trkpt lat="46.40329" lon="6.07709">
        <ele>1384.44</ele>
        <time>2014-05-30T13:24:21Z</time>
      </trkpt>
      <trkpt lat="46.4033" lon="6.07706">
        <ele>1384.44</ele>
        <time>2014-05-30T13:24:22Z</time>
      </trkpt>
      <trkpt lat="46.4033" lon="6.07702">
        <ele>1383.96</ele>
        <time>2014-05-30T13:24:23Z</time>
      </trkpt>
      <trkpt lat="46.4033" lon="6.07698">
        <ele>1383.47</ele>
        <time>2014-05-30T13:24:24Z</time>
      </trkpt>
      <trkpt lat="46.4033" lon="6.07694">
        <ele>1383.96</ele>
        <time>2014-05-30T13:24:25Z</time>
      </trkpt>
      <trkpt lat="46.40328" lon="6.07674">
        <ele>1382.03</ele>
        <time>2014-05-30T13:24:34Z</time>
      </trkpt>
      <trkpt lat="46.40328" lon="6.07674">
        <ele>1382.51</ele>
        <time>2014-05-30T13:25:14Z</time>
      </trkpt>
      <trkpt lat="46.40328" lon="6.07671">
        <ele>1382.03</ele>
        <time>2014-05-30T13:25:15Z</time>
      </trkpt>
      <trkpt lat="46.40328" lon="6.07667">
        <ele>1382.51</ele>
        <time>2014-05-30T13:25:16Z</time>
      </trkpt>
      <trkpt lat="46.40321" lon="6.07597">
        <ele>1379.63</ele>
        <time>2014-05-30T13:25:25Z</time>
      </trkpt>
      <trkpt lat="46.40318" lon="6.07556">
        <ele>1377.71</ele>
        <time>2014-05-30T13:25:29Z</time>
      </trkpt>
      <trkpt lat="46.40315" lon="6.07546">
        <ele>1377.71</ele>
        <time>2014-05-30T13:25:30Z</time>
      </trkpt>
      <trkpt lat="46.40312" lon="6.07537">
        <ele>1377.71</ele>
        <time>2014-05-30T13:25:31Z</time>
      </trkpt>
      <trkpt lat="46.40283" lon="6.07472">
        <ele>1374.34</ele>
        <time>2014-05-30T13:25:37Z</time>
      </trkpt>
      <trkpt lat="46.40278" lon="6.0746">
        <ele>1374.34</ele>
        <time>2014-05-30T13:25:38Z</time>
      </trkpt>
      <trkpt lat="46.40263" lon="6.07426">
        <ele>1372.9</ele>
        <time>2014-05-30T13:25:41Z</time>
      </trkpt>
      <trkpt lat="46.40237" lon="6.07369">
        <ele>1372.42</ele>
        <time>2014-05-30T13:25:46Z</time>
      </trkpt>
      <trkpt lat="46.40231" lon="6.07358">
        <ele>1372.42</ele>
        <time>2014-05-30T13:25:47Z</time>
      </trkpt>
      <trkpt lat="46.40212" lon="6.07314">
        <ele>1372.9</ele>
        <time>2014-05-30T13:25:52Z</time>
      </trkpt>
      <trkpt lat="46.40208" lon="6.07306">
        <ele>1372.9</ele>
        <time>2014-05-30T13:25:53Z</time>
      </trkpt>
      <trkpt lat="46.40205" lon="6.07298">
        <ele>1373.38</ele>
        <time>2014-05-30T13:25:54Z</time>
      </trkpt>
      <trkpt lat="46.40202" lon="6.07289">
        <ele>1372.42</ele>
        <time>2014-05-30T13:25:55Z</time>
      </trkpt>
      <trkpt lat="46.40198" lon="6.0728">
        <ele>1373.38</ele>
        <time>2014-05-30T13:25:56Z</time>
      </trkpt>
      <trkpt lat="46.40168" lon="6.07212">
        <ele>1370.02</ele>
        <time>2014-05-30T13:26:03Z</time>
      </trkpt>
      <trkpt lat="46.40158" lon="6.07191">
        <ele>1369.54</ele>
        <time>2014-05-30T13:26:05Z</time>
      </trkpt>
      <trkpt lat="46.4014" lon="6.07158">
        <ele>1366.17</ele>
        <time>2014-05-30T13:26:08Z</time>
      </trkpt>
      <trkpt lat="46.40133" lon="6.07148">
        <ele>1366.17</ele>
        <time>2014-05-30T13:26:09Z</time>
      </trkpt>
      <trkpt lat="46.40115" lon="6.07116">
        <ele>1364.25</ele>
        <time>2014-05-30T13:26:12Z</time>
      </trkpt>
      <trkpt lat="46.40108" lon="6.07107">
        <ele>1357.04</ele>
        <time>2014-05-30T13:26:13Z</time>
      </trkpt>
      <trkpt lat="46.40101" lon="6.07098">
        <ele>1366.17</ele>
        <time>2014-05-30T13:26:14Z</time>
      </trkpt>
      <trkpt lat="46.40095" lon="6.0709">
        <ele>1367.13</ele>
        <time>2014-05-30T13:26:15Z</time>
      </trkpt>
      <trkpt lat="46.40083" lon="6.07076">
        <ele>1364.25</ele>
        <time>2014-05-30T13:26:17Z</time>
      </trkpt>
      <trkpt lat="46.40019" lon="6.07006">
        <ele>1362.33</ele>
        <time>2014-05-30T13:26:28Z</time>
      </trkpt>
      <trkpt lat="46.39974" lon="6.06957">
        <ele>1359.44</ele>
        <time>2014-05-30T13:26:35Z</time>
      </trkpt>
      <trkpt lat="46.39931" lon="6.06908">
        <ele>1356.08</ele>
        <time>2014-05-30T13:26:41Z</time>
      </trkpt>
      <trkpt lat="46.39923" lon="6.06898">
        <ele>1356.08</ele>
        <time>2014-05-30T13:26:42Z</time>
      </trkpt>
      <trkpt lat="46.39914" lon="6.06889">
        <ele>1355.6</ele>
        <time>2014-05-30T13:26:43Z</time>
      </trkpt>
      <trkpt lat="46.39881" lon="6.06853">
        <ele>1352.71</ele>
        <time>2014-05-30T13:26:47Z</time>
      </trkpt>
      <trkpt lat="46.39826" lon="6.06795">
        <ele>1348.87</ele>
        <time>2014-05-30T13:26:54Z</time>
      </trkpt>
      <trkpt lat="46.39818" lon="6.06789">
        <ele>1348.39</ele>
        <time>2014-05-30T13:26:55Z</time>
      </trkpt>
      <trkpt lat="46.39805" lon="6.06783">
        <ele>1347.91</ele>
        <time>2014-05-30T13:26:57Z</time>
      </trkpt>
      <trkpt lat="46.39801" lon="6.06781">
        <ele>1344.54</ele>
        <time>2014-05-30T13:26:58Z</time>
      </trkpt>
      <trkpt lat="46.39799" lon="6.0678">
        <ele>1348.87</ele>
        <time>2014-05-30T13:26:59Z</time>
      </trkpt>
      <trkpt lat="46.39794" lon="6.06778">
        <ele>1343.1</ele>
        <time>2014-05-30T13:27:11Z</time>
      </trkpt>
      <trkpt lat="46.39794" lon="6.06778">
        <ele>1348.39</ele>
        <time>2014-05-30T13:27:12Z</time>
      </trkpt>
      <trkpt lat="46.39793" lon="6.06777">
        <ele>1347.43</ele>
        <time>2014-05-30T13:27:16Z</time>
      </trkpt>
      <trkpt lat="46.39791" lon="6.06776">
        <ele>1346.94</ele>
        <time>2014-05-30T13:27:17Z</time>
      </trkpt>
      <trkpt lat="46.3976" lon="6.06766">
        <ele>1347.91</ele>
        <time>2014-05-30T13:27:27Z</time>
      </trkpt>
      <trkpt lat="46.39747" lon="6.0676">
        <ele>1343.58</ele>
        <time>2014-05-30T13:27:31Z</time>
      </trkpt>
      <trkpt lat="46.39747" lon="6.0676">
        <ele>1332.52</ele>
        <time>2014-05-30T13:27:38Z</time>
      </trkpt>
      <trkpt lat="46.39747" lon="6.0676">
        <ele>1345.5</ele>
        <time>2014-05-30T13:27:39Z</time>
      </trkpt>
      <trkpt lat="46.39747" lon="6.0676">
        <ele>1346.46</ele>
        <time>2014-05-30T13:27:40Z</time>
      </trkpt>
      <trkpt lat="46.39747" lon="6.0676">
        <ele>1346.94</ele>
        <time>2014-05-30T13:27:41Z</time>
      </trkpt>
      <trkpt lat="46.39747" lon="6.0676">
        <ele>1344.06</ele>
        <time>2014-05-30T13:27:44Z</time>
      </trkpt>
      <trkpt lat="46.39747" lon="6.0676">
        <ele>1345.02</ele>
        <time>2014-05-30T13:27:45Z</time>
      </trkpt>
      <trkpt lat="46.39623" lon="6.06765">
        <ele>1343.1</ele>
        <time>2014-05-30T13:27:53Z</time>
      </trkpt>
      <trkpt lat="46.39604" lon="6.06777">
        <ele>1342.62</ele>
        <time>2014-05-30T13:27:56Z</time>
      </trkpt>
      <trkpt lat="46.39598" lon="6.06781">
        <ele>1343.58</ele>
        <time>2014-05-30T13:27:57Z</time>
      </trkpt>
      <trkpt lat="46.39548" lon="6.06806">
        <ele>1342.62</ele>
        <time>2014-05-30T13:28:07Z</time>
      </trkpt>
      <trkpt lat="46.39543" lon="6.06807">
        <ele>1345.02</ele>
        <time>2014-05-30T13:28:08Z</time>
      </trkpt>
      <trkpt lat="46.39538" lon="6.06806">
        <ele>1343.58</ele>
        <time>2014-05-30T13:28:09Z</time>
      </trkpt>
      <trkpt lat="46.39534" lon="6.06805">
        <ele>1343.58</ele>
        <time>2014-05-30T13:28:10Z</time>
      </trkpt>
      <trkpt lat="46.39529" lon="6.06804">
        <ele>1344.54</ele>
        <time>2014-05-30T13:28:11Z</time>
      </trkpt>
      <trkpt lat="46.39524" lon="6.06802">
        <ele>1344.54</ele>
        <time>2014-05-30T13:28:12Z</time>
      </trkpt>
      <trkpt lat="46.39489" lon="6.0677">
        <ele>1346.46</ele>
        <time>2014-05-30T13:28:22Z</time>
      </trkpt>
      <trkpt lat="46.39481" lon="6.06758">
        <ele>1346.94</ele>
        <time>2014-05-30T13:28:25Z</time>
      </trkpt>
      <trkpt lat="46.3944" lon="6.06723">
        <ele>1349.35</ele>
        <time>2014-05-30T13:28:38Z</time>
      </trkpt>
      <trkpt lat="46.39403" lon="6.06716">
        <ele>1348.39</ele>
        <time>2014-05-30T13:28:47Z</time>
      </trkpt>
      <trkpt lat="46.39388" lon="6.06706">
        <ele>1347.91</ele>
        <time>2014-05-30T13:28:50Z</time>
      </trkpt>
      <trkpt lat="46.39375" lon="6.0669">
        <ele>1347.91</ele>
        <time>2014-05-30T13:28:53Z</time>
      </trkpt>
      <trkpt lat="46.39373" lon="6.06685">
        <ele>1347.91</ele>
        <time>2014-05-30T13:28:54Z</time>
      </trkpt>
      <trkpt lat="46.3937" lon="6.0668">
        <ele>1348.39</ele>
        <time>2014-05-30T13:28:55Z</time>
      </trkpt>
      <trkpt lat="46.39362" lon="6.06667">
        <ele>1349.35</ele>
        <time>2014-05-30T13:28:58Z</time>
      </trkpt>
      <trkpt lat="46.39359" lon="6.06663">
        <ele>1349.35</ele>
        <time>2014-05-30T13:28:59Z</time>
      </trkpt>
      <trkpt lat="46.39357" lon="6.06659">
        <ele>1349.83</ele>
        <time>2014-05-30T13:29:00Z</time>
      </trkpt>
      <trkpt lat="46.39354" lon="6.06655">
        <ele>1350.31</ele>
        <time>2014-05-30T13:29:01Z</time>
      </trkpt>
      <trkpt lat="46.39352" lon="6.06651">
        <ele>1349.83</ele>
        <time>2014-05-30T13:29:02Z</time>
      </trkpt>
      <trkpt lat="46.39334" lon="6.0662">
        <ele>1352.71</ele>
        <time>2014-05-30T13:29:10Z</time>
      </trkpt>
      <trkpt lat="46.39294" lon="6.06552">
        <ele>1354.63</ele>
        <time>2014-05-30T13:29:27Z</time>
      </trkpt>
      <trkpt lat="46.39291" lon="6.06548">
        <ele>1355.12</ele>
        <time>2014-05-30T13:29:28Z</time>
      </trkpt>
      <trkpt lat="46.39287" lon="6.06544">
        <ele>1354.63</ele>
        <time>2014-05-30T13:29:29Z</time>
      </trkpt>
      <trkpt lat="46.3928" lon="6.06538">
        <ele>1355.12</ele>
        <time>2014-05-30T13:29:31Z</time>
      </trkpt>
      <trkpt lat="46.39259" lon="6.06527">
        <ele>1355.12</ele>
        <time>2014-05-30T13:29:36Z</time>
      </trkpt>
      <trkpt lat="46.39251" lon="6.06522">
        <ele>1355.12</ele>
        <time>2014-05-30T13:29:38Z</time>
      </trkpt>
      <trkpt lat="46.39234" lon="6.06512">
        <ele>1354.15</ele>
        <time>2014-05-30T13:29:42Z</time>
      </trkpt>
      <trkpt lat="46.39229" lon="6.06509">
        <ele>1354.15</ele>
        <time>2014-05-30T13:29:43Z</time>
      </trkpt>
      <trkpt lat="46.39215" lon="6.065">
        <ele>1353.19</ele>
        <time>2014-05-30T13:29:46Z</time>
      </trkpt>
      <trkpt lat="46.39211" lon="6.06495">
        <ele>1353.19</ele>
        <time>2014-05-30T13:29:47Z</time>
      </trkpt>
      <trkpt lat="46.39172" lon="6.06446">
        <ele>1351.27</ele>
        <time>2014-05-30T13:29:56Z</time>
      </trkpt>
      <trkpt lat="46.39163" lon="6.06433">
        <ele>1351.27</ele>
        <time>2014-05-30T13:29:58Z</time>
      </trkpt>
      <trkpt lat="46.39159" lon="6.06426">
        <ele>1351.75</ele>
        <time>2014-05-30T13:29:59Z</time>
      </trkpt>
      <trkpt lat="46.3914" lon="6.06405">
        <ele>1350.31</ele>
        <time>2014-05-30T13:30:02Z</time>
      </trkpt>
      <trkpt lat="46.39101" lon="6.06356">
        <ele>1346.46</ele>
        <time>2014-05-30T13:30:08Z</time>
      </trkpt>
      <trkpt lat="46.39086" lon="6.06337">
        <ele>1345.5</ele>
        <time>2014-05-30T13:30:10Z</time>
      </trkpt>
      <trkpt lat="46.3907" lon="6.06319">
        <ele>1344.06</ele>
        <time>2014-05-30T13:30:12Z</time>
      </trkpt>
      <trkpt lat="46.3904" lon="6.06282">
        <ele>1341.66</ele>
        <time>2014-05-30T13:30:16Z</time>
      </trkpt>
      <trkpt lat="46.38998" lon="6.06224">
        <ele>1339.25</ele>
        <time>2014-05-30T13:30:22Z</time>
      </trkpt>
      <trkpt lat="46.38947" lon="6.06147">
        <ele>1336.37</ele>
        <time>2014-05-30T13:30:30Z</time>
      </trkpt>
      <trkpt lat="46.38919" lon="6.06107">
        <ele>1333.97</ele>
        <time>2014-05-30T13:30:34Z</time>
      </trkpt>
      <trkpt lat="46.38878" lon="6.06043">
        <ele>1330.6</ele>
        <time>2014-05-30T13:30:40Z</time>
      </trkpt>
      <trkpt lat="46.38844" lon="6.05988">
        <ele>1327.72</ele>
        <time>2014-05-30T13:30:45Z</time>
      </trkpt>
      <trkpt lat="46.38813" lon="6.05924">
        <ele>1326.28</ele>
        <time>2014-05-30T13:30:51Z</time>
      </trkpt>
      <trkpt lat="46.38807" lon="6.05913">
        <ele>1325.8</ele>
        <time>2014-05-30T13:30:52Z</time>
      </trkpt>
      <trkpt lat="46.38801" lon="6.05903">
        <ele>1325.8</ele>
        <time>2014-05-30T13:30:53Z</time>
      </trkpt>
      <trkpt lat="46.3877" lon="6.05851">
        <ele>1322.43</ele>
        <time>2014-05-30T13:30:58Z</time>
      </trkpt>
      <trkpt lat="46.38744" lon="6.05803">
        <ele>1319.07</ele>
        <time>2014-05-30T13:31:02Z</time>
      </trkpt>
      <trkpt lat="46.38736" lon="6.05791">
        <ele>1318.1</ele>
        <time>2014-05-30T13:31:03Z</time>
      </trkpt>
      <trkpt lat="46.38728" lon="6.05778">
        <ele>1317.14</ele>
        <time>2014-05-30T13:31:04Z</time>
      </trkpt>
      <trkpt lat="46.387" lon="6.05725">
        <ele>1313.78</ele>
        <time>2014-05-30T13:31:08Z</time>
      </trkpt>
      <trkpt lat="46.38679" lon="6.05683">
        <ele>1311.38</ele>
        <time>2014-05-30T13:31:11Z</time>
      </trkpt>
      <trkpt lat="46.38673" lon="6.05668">
        <ele>1309.93</ele>
        <time>2014-05-30T13:31:12Z</time>
      </trkpt>
      <trkpt lat="46.38668" lon="6.05653">
        <ele>1309.45</ele>
        <time>2014-05-30T13:31:13Z</time>
      </trkpt>
      <trkpt lat="46.38661" lon="6.05623">
        <ele>1307.53</ele>
        <time>2014-05-30T13:31:15Z</time>
      </trkpt>
      <trkpt lat="46.38659" lon="6.05609">
        <ele>1305.61</ele>
        <time>2014-05-30T13:31:16Z</time>
      </trkpt>
      <trkpt lat="46.38659" lon="6.05596">
        <ele>1304.65</ele>
        <time>2014-05-30T13:31:17Z</time>
      </trkpt>
      <trkpt lat="46.38661" lon="6.05585">
        <ele>1303.2</ele>
        <time>2014-05-30T13:31:18Z</time>
      </trkpt>
      <trkpt lat="46.38665" lon="6.05577">
        <ele>1302.72</ele>
        <time>2014-05-30T13:31:19Z</time>
      </trkpt>
      <trkpt lat="46.38671" lon="6.05572">
        <ele>1301.76</ele>
        <time>2014-05-30T13:31:20Z</time>
      </trkpt>
      <trkpt lat="46.38679" lon="6.05569">
        <ele>1300.8</ele>
        <time>2014-05-30T13:31:21Z</time>
      </trkpt>
      <trkpt lat="46.38688" lon="6.05568">
        <ele>1299.84</ele>
        <time>2014-05-30T13:31:22Z</time>
      </trkpt>
      <trkpt lat="46.38727" lon="6.05566">
        <ele>1296.96</ele>
        <time>2014-05-30T13:31:26Z</time>
      </trkpt>
      <trkpt lat="46.38759" lon="6.05567">
        <ele>1294.07</ele>
        <time>2014-05-30T13:31:29Z</time>
      </trkpt>
      <trkpt lat="46.38771" lon="6.05567">
        <ele>1292.63</ele>
        <time>2014-05-30T13:31:30Z</time>
      </trkpt>
      <trkpt lat="46.38817" lon="6.05567">
        <ele>1288.3</ele>
        <time>2014-05-30T13:31:34Z</time>
      </trkpt>
      <trkpt lat="46.38829" lon="6.05566">
        <ele>1287.34</ele>
        <time>2014-05-30T13:31:35Z</time>
      </trkpt>
      <trkpt lat="46.38864" lon="6.05566">
        <ele>1284.94</ele>
        <time>2014-05-30T13:31:38Z</time>
      </trkpt>
      <trkpt lat="46.38901" lon="6.05567">
        <ele>1283.02</ele>
        <time>2014-05-30T13:31:41Z</time>
      </trkpt>
      <trkpt lat="46.38924" lon="6.05568">
        <ele>1281.09</ele>
        <time>2014-05-30T13:31:43Z</time>
      </trkpt>
      <trkpt lat="46.38934" lon="6.05566">
        <ele>1280.61</ele>
        <time>2014-05-30T13:31:44Z</time>
      </trkpt>
      <trkpt lat="46.38959" lon="6.05554">
        <ele>1279.65</ele>
        <time>2014-05-30T13:31:47Z</time>
      </trkpt>
      <trkpt lat="46.38965" lon="6.05538">
        <ele>1278.69</ele>
        <time>2014-05-30T13:31:49Z</time>
      </trkpt>
      <trkpt lat="46.38963" lon="6.05526">
        <ele>1278.69</ele>
        <time>2014-05-30T13:31:50Z</time>
      </trkpt>
      <trkpt lat="46.38957" lon="6.05506">
        <ele>1272.92</ele>
        <time>2014-05-30T13:31:52Z</time>
      </trkpt>
      <trkpt lat="46.38953" lon="6.05497">
        <ele>1276.29</ele>
        <time>2014-05-30T13:31:53Z</time>
      </trkpt>
      <trkpt lat="46.38931" lon="6.05451">
        <ele>1274.36</ele>
        <time>2014-05-30T13:31:59Z</time>
      </trkpt>
      <trkpt lat="46.38928" lon="6.05445">
        <ele>1273.88</ele>
        <time>2014-05-30T13:32:00Z</time>
      </trkpt>
      <trkpt lat="46.38892" lon="6.05382">
        <ele>1270.52</ele>
        <time>2014-05-30T13:32:12Z</time>
      </trkpt>
      <trkpt lat="46.38881" lon="6.05358">
        <ele>1268.6</ele>
        <time>2014-05-30T13:32:19Z</time>
      </trkpt>
      <trkpt lat="46.38878" lon="6.05359">
        <ele>1269.56</ele>
        <time>2014-05-30T13:32:20Z</time>
      </trkpt>
      <trkpt lat="46.38875" lon="6.05361">
        <ele>1269.08</ele>
        <time>2014-05-30T13:32:21Z</time>
      </trkpt>
      <trkpt lat="46.38828" lon="6.05371">
        <ele>1270.04</ele>
        <time>2014-05-30T13:32:35Z</time>
      </trkpt>
      <trkpt lat="46.38786" lon="6.05356">
        <ele>1270.52</ele>
        <time>2014-05-30T13:32:46Z</time>
      </trkpt>
      <trkpt lat="46.38746" lon="6.05347">
        <ele>1271.96</ele>
        <time>2014-05-30T13:32:58Z</time>
      </trkpt>
      <trkpt lat="46.38708" lon="6.05318">
        <ele>1271.48</ele>
        <time>2014-05-30T13:33:09Z</time>
      </trkpt>
      <trkpt lat="46.38704" lon="6.05315">
        <ele>1271.48</ele>
        <time>2014-05-30T13:33:10Z</time>
      </trkpt>
      <trkpt lat="46.38679" lon="6.05279">
        <ele>1272.44</ele>
        <time>2014-05-30T13:33:20Z</time>
      </trkpt>
      <trkpt lat="46.38661" lon="6.05246">
        <ele>1274.85</ele>
        <time>2014-05-30T13:33:30Z</time>
      </trkpt>
      <trkpt lat="46.38628" lon="6.05192">
        <ele>1274.36</ele>
        <time>2014-05-30T13:33:43Z</time>
      </trkpt>
      <trkpt lat="46.38602" lon="6.0514">
        <ele>1275.33</ele>
        <time>2014-05-30T13:33:56Z</time>
      </trkpt>
      <trkpt lat="46.38585" lon="6.05085">
        <ele>1278.69</ele>
        <time>2014-05-30T13:34:10Z</time>
      </trkpt>
      <trkpt lat="46.38575" lon="6.05036">
        <ele>1277.73</ele>
        <time>2014-05-30T13:34:22Z</time>
      </trkpt>
      <trkpt lat="46.3856" lon="6.04978">
        <ele>1279.17</ele>
        <time>2014-05-30T13:34:36Z</time>
      </trkpt>
      <trkpt lat="46.38547" lon="6.04927">
        <ele>1279.65</ele>
        <time>2014-05-30T13:34:48Z</time>
      </trkpt>
      <trkpt lat="46.38523" lon="6.04874">
        <ele>1279.17</ele>
        <time>2014-05-30T13:35:01Z</time>
      </trkpt>
      <trkpt lat="46.38513" lon="6.04851">
        <ele>1278.69</ele>
        <time>2014-05-30T13:35:06Z</time>
      </trkpt>
      <trkpt lat="46.38483" lon="6.04806">
        <ele>1279.17</ele>
        <time>2014-05-30T13:35:18Z</time>
      </trkpt>
      <trkpt lat="46.38452" lon="6.04761">
        <ele>1280.13</ele>
        <time>2014-05-30T13:35:30Z</time>
      </trkpt>
      <trkpt lat="46.3843" lon="6.04741">
        <ele>1283.02</ele>
        <time>2014-05-30T13:35:39Z</time>
      </trkpt>
      <trkpt lat="46.38416" lon="6.04732">
        <ele>1281.57</ele>
        <time>2014-05-30T13:35:52Z</time>
      </trkpt>
      <trkpt lat="46.38416" lon="6.04732">
        <ele>1274.36</ele>
        <time>2014-05-30T13:35:58Z</time>
      </trkpt>
      <trkpt lat="46.38416" lon="6.04732">
        <ele>1282.06</ele>
        <time>2014-05-30T13:35:59Z</time>
      </trkpt>
      <trkpt lat="46.38412" lon="6.04729">
        <ele>1282.06</ele>
        <time>2014-05-30T13:36:15Z</time>
      </trkpt>
      <trkpt lat="46.38411" lon="6.04727">
        <ele>1281.57</ele>
        <time>2014-05-30T13:36:26Z</time>
      </trkpt>
      <trkpt lat="46.38411" lon="6.04725">
        <ele>1282.06</ele>
        <time>2014-05-30T13:36:27Z</time>
      </trkpt>
      <trkpt lat="46.38411" lon="6.04722">
        <ele>1282.06</ele>
        <time>2014-05-30T13:36:28Z</time>
      </trkpt>
      <trkpt lat="46.3841" lon="6.04719">
        <ele>1282.06</ele>
        <time>2014-05-30T13:36:30Z</time>
      </trkpt>
      <trkpt lat="46.38409" lon="6.04716">
        <ele>1282.06</ele>
        <time>2014-05-30T13:36:31Z</time>
      </trkpt>
      <trkpt lat="46.38407" lon="6.04714">
        <ele>1283.02</ele>
        <time>2014-05-30T13:36:32Z</time>
      </trkpt>
      <trkpt lat="46.38405" lon="6.04712">
        <ele>1282.54</ele>
        <time>2014-05-30T13:36:33Z</time>
      </trkpt>
      <trkpt lat="46.38403" lon="6.0471">
        <ele>1282.54</ele>
        <time>2014-05-30T13:36:34Z</time>
      </trkpt>
      <trkpt lat="46.384" lon="6.0471">
        <ele>1283.02</ele>
        <time>2014-05-30T13:36:35Z</time>
      </trkpt>
      <trkpt lat="46.38398" lon="6.04709">
        <ele>1283.02</ele>
        <time>2014-05-30T13:36:36Z</time>
      </trkpt>
      <trkpt lat="46.38381" lon="6.04707">
        <ele>1283.02</ele>
        <time>2014-05-30T13:36:47Z</time>
      </trkpt>
      <trkpt lat="46.38381" lon="6.04707">
        <ele>1284.46</ele>
        <time>2014-05-30T13:37:00Z</time>
      </trkpt>
      <trkpt lat="46.38381" lon="6.04707">
        <ele>1279.65</ele>
        <time>2014-05-30T13:37:15Z</time>
      </trkpt>
      <trkpt lat="46.38381" lon="6.04707">
        <ele>1284.46</ele>
        <time>2014-05-30T13:37:16Z</time>
      </trkpt>
      <trkpt lat="46.38381" lon="6.04707">
        <ele>1283.02</ele>
        <time>2014-05-30T13:37:21Z</time>
      </trkpt>
      <trkpt lat="46.38358" lon="6.04708">
        <ele>1283.98</ele>
        <time>2014-05-30T13:37:42Z</time>
      </trkpt>
      <trkpt lat="46.38312" lon="6.04699">
        <ele>1284.94</ele>
        <time>2014-05-30T13:37:56Z</time>
      </trkpt>
      <trkpt lat="46.38279" lon="6.04684">
        <ele>1286.38</ele>
        <time>2014-05-30T13:38:06Z</time>
      </trkpt>
      <trkpt lat="46.38255" lon="6.04669">
        <ele>1286.86</ele>
        <time>2014-05-30T13:38:13Z</time>
      </trkpt>
      <trkpt lat="46.38216" lon="6.04647">
        <ele>1287.82</ele>
        <time>2014-05-30T13:38:24Z</time>
      </trkpt>
      <trkpt lat="46.38169" lon="6.04623">
        <ele>1289.75</ele>
        <time>2014-05-30T13:38:37Z</time>
      </trkpt>
      <trkpt lat="46.38138" lon="6.04603">
        <ele>1290.23</ele>
        <time>2014-05-30T13:38:46Z</time>
      </trkpt>
      <trkpt lat="46.38136" lon="6.046">
        <ele>1290.23</ele>
        <time>2014-05-30T13:38:47Z</time>
      </trkpt>
      <trkpt lat="46.381" lon="6.04555">
        <ele>1292.15</ele>
        <time>2014-05-30T13:39:00Z</time>
      </trkpt>
      <trkpt lat="46.3807" lon="6.045">
        <ele>1293.11</ele>
        <time>2014-05-30T13:39:13Z</time>
      </trkpt>
      <trkpt lat="46.3804" lon="6.04434">
        <ele>1294.55</ele>
        <time>2014-05-30T13:39:27Z</time>
      </trkpt>
      <trkpt lat="46.38008" lon="6.04389">
        <ele>1295.51</ele>
        <time>2014-05-30T13:39:39Z</time>
      </trkpt>
      <trkpt lat="46.37963" lon="6.04365">
        <ele>1296.48</ele>
        <time>2014-05-30T13:39:51Z</time>
      </trkpt>
      <trkpt lat="46.37928" lon="6.04318">
        <ele>1297.44</ele>
        <time>2014-05-30T13:40:03Z</time>
      </trkpt>
      <trkpt lat="46.37904" lon="6.04257">
        <ele>1298.88</ele>
        <time>2014-05-30T13:40:15Z</time>
      </trkpt>
      <trkpt lat="46.379" lon="6.04247">
        <ele>1298.88</ele>
        <time>2014-05-30T13:40:17Z</time>
      </trkpt>
      <trkpt lat="46.37898" lon="6.04241">
        <ele>1299.36</ele>
        <time>2014-05-30T13:40:18Z</time>
      </trkpt>
      <trkpt lat="46.37896" lon="6.04236">
        <ele>1299.36</ele>
        <time>2014-05-30T13:40:19Z</time>
      </trkpt>
      <trkpt lat="46.37885" lon="6.04211">
        <ele>1299.36</ele>
        <time>2014-05-30T13:40:24Z</time>
      </trkpt>
      <trkpt lat="46.37882" lon="6.04206">
        <ele>1299.36</ele>
        <time>2014-05-30T13:40:25Z</time>
      </trkpt>
      <trkpt lat="46.37879" lon="6.04201">
        <ele>1299.84</ele>
        <time>2014-05-30T13:40:26Z</time>
      </trkpt>
      <trkpt lat="46.37877" lon="6.04196">
        <ele>1299.84</ele>
        <time>2014-05-30T13:40:27Z</time>
      </trkpt>
      <trkpt lat="46.37875" lon="6.04191">
        <ele>1300.32</ele>
        <time>2014-05-30T13:40:28Z</time>
      </trkpt>
      <trkpt lat="46.37865" lon="6.0417">
        <ele>1300.32</ele>
        <time>2014-05-30T13:40:32Z</time>
      </trkpt>
      <trkpt lat="46.37838" lon="6.04106">
        <ele>1301.76</ele>
        <time>2014-05-30T13:40:45Z</time>
      </trkpt>
      <trkpt lat="46.37831" lon="6.0409">
        <ele>1301.76</ele>
        <time>2014-05-30T13:40:48Z</time>
      </trkpt>
      <trkpt lat="46.37818" lon="6.0403">
        <ele>1306.57</ele>
        <time>2014-05-30T13:40:59Z</time>
      </trkpt>
      <trkpt lat="46.37816" lon="6.04019">
        <ele>1303.2</ele>
        <time>2014-05-30T13:41:01Z</time>
      </trkpt>
      <trkpt lat="46.37813" lon="6.03997">
        <ele>1304.17</ele>
        <time>2014-05-30T13:41:05Z</time>
      </trkpt>
      <trkpt lat="46.37811" lon="6.03991">
        <ele>1304.17</ele>
        <time>2014-05-30T13:41:06Z</time>
      </trkpt>
      <trkpt lat="46.3781" lon="6.03985">
        <ele>1304.17</ele>
        <time>2014-05-30T13:41:07Z</time>
      </trkpt>
      <trkpt lat="46.37796" lon="6.03912">
        <ele>1305.61</ele>
        <time>2014-05-30T13:41:20Z</time>
      </trkpt>
      <trkpt lat="46.37794" lon="6.03906">
        <ele>1305.61</ele>
        <time>2014-05-30T13:41:21Z</time>
      </trkpt>
      <trkpt lat="46.37775" lon="6.03832">
        <ele>1307.05</ele>
        <time>2014-05-30T13:41:35Z</time>
      </trkpt>
      <trkpt lat="46.37742" lon="6.03741">
        <ele>1308.97</ele>
        <time>2014-05-30T13:41:53Z</time>
      </trkpt>
      <trkpt lat="46.37731" lon="6.03708">
        <ele>1309.93</ele>
        <time>2014-05-30T13:41:59Z</time>
      </trkpt>
      <trkpt lat="46.37724" lon="6.03687">
        <ele>1308.97</ele>
        <time>2014-05-30T13:42:03Z</time>
      </trkpt>
      <trkpt lat="46.37723" lon="6.03682">
        <ele>1309.45</ele>
        <time>2014-05-30T13:42:04Z</time>
      </trkpt>
      <trkpt lat="46.3772" lon="6.0367">
        <ele>1309.93</ele>
        <time>2014-05-30T13:42:06Z</time>
      </trkpt>
      <trkpt lat="46.37718" lon="6.03665">
        <ele>1309.93</ele>
        <time>2014-05-30T13:42:07Z</time>
      </trkpt>
      <trkpt lat="46.37694" lon="6.03606">
        <ele>1311.86</ele>
        <time>2014-05-30T13:42:19Z</time>
      </trkpt>
      <trkpt lat="46.37655" lon="6.0354">
        <ele>1312.82</ele>
        <time>2014-05-30T13:42:34Z</time>
      </trkpt>
      <trkpt lat="46.3763" lon="6.03492">
        <ele>1314.26</ele>
        <time>2014-05-30T13:42:45Z</time>
      </trkpt>
      <trkpt lat="46.37628" lon="6.03487">
        <ele>1314.74</ele>
        <time>2014-05-30T13:42:46Z</time>
      </trkpt>
      <trkpt lat="46.37601" lon="6.03435">
        <ele>1315.22</ele>
        <time>2014-05-30T13:42:57Z</time>
      </trkpt>
      <trkpt lat="46.37598" lon="6.03431">
        <ele>1315.22</ele>
        <time>2014-05-30T13:42:58Z</time>
      </trkpt>
      <trkpt lat="46.37596" lon="6.03426">
        <ele>1315.22</ele>
        <time>2014-05-30T13:42:59Z</time>
      </trkpt>
      <trkpt lat="46.37594" lon="6.03421">
        <ele>1316.18</ele>
        <time>2014-05-30T13:43:00Z</time>
      </trkpt>
      <trkpt lat="46.37592" lon="6.03416">
        <ele>1316.18</ele>
        <time>2014-05-30T13:43:01Z</time>
      </trkpt>
      <trkpt lat="46.37573" lon="6.03363">
        <ele>1316.18</ele>
        <time>2014-05-30T13:43:11Z</time>
      </trkpt>
      <trkpt lat="46.37569" lon="6.03352">
        <ele>1317.14</ele>
        <time>2014-05-30T13:43:13Z</time>
      </trkpt>
      <trkpt lat="46.37536" lon="6.03281">
        <ele>1318.59</ele>
        <time>2014-05-30T13:43:27Z</time>
      </trkpt>
      <trkpt lat="46.37531" lon="6.03271">
        <ele>1318.59</ele>
        <time>2014-05-30T13:43:29Z</time>
      </trkpt>
      <trkpt lat="46.37508" lon="6.03228">
        <ele>1320.03</ele>
        <time>2014-05-30T13:43:38Z</time>
      </trkpt>
      <trkpt lat="46.37485" lon="6.03192">
        <ele>1320.51</ele>
        <time>2014-05-30T13:43:46Z</time>
      </trkpt>
      <trkpt lat="46.37483" lon="6.03187">
        <ele>1320.51</ele>
        <time>2014-05-30T13:43:47Z</time>
      </trkpt>
      <trkpt lat="46.37481" lon="6.03182">
        <ele>1320.51</ele>
        <time>2014-05-30T13:43:48Z</time>
      </trkpt>
      <trkpt lat="46.37479" lon="6.03176">
        <ele>1320.51</ele>
        <time>2014-05-30T13:43:49Z</time>
      </trkpt>
      <trkpt lat="46.37477" lon="6.0317">
        <ele>1320.51</ele>
        <time>2014-05-30T13:43:50Z</time>
      </trkpt>
      <trkpt lat="46.37474" lon="6.03153">
        <ele>1320.51</ele>
        <time>2014-05-30T13:43:53Z</time>
      </trkpt>
      <trkpt lat="46.37473" lon="6.03135">
        <ele>1321.47</ele>
        <time>2014-05-30T13:43:56Z</time>
      </trkpt>
      <trkpt lat="46.37472" lon="6.03129">
        <ele>1320.99</ele>
        <time>2014-05-30T13:43:57Z</time>
      </trkpt>
      <trkpt lat="46.37472" lon="6.03123">
        <ele>1320.99</ele>
        <time>2014-05-30T13:43:58Z</time>
      </trkpt>
      <trkpt lat="46.37466" lon="6.03039">
        <ele>1321.47</ele>
        <time>2014-05-30T13:44:11Z</time>
      </trkpt>
      <trkpt lat="46.37465" lon="6.03032">
        <ele>1321.95</ele>
        <time>2014-05-30T13:44:12Z</time>
      </trkpt>
      <trkpt lat="46.37464" lon="6.03025">
        <ele>1321.95</ele>
        <time>2014-05-30T13:44:13Z</time>
      </trkpt>
      <trkpt lat="46.37461" lon="6.0301">
        <ele>1317.62</ele>
        <time>2014-05-30T13:44:15Z</time>
      </trkpt>
      <trkpt lat="46.37459" lon="6.03003">
        <ele>1321.95</ele>
        <time>2014-05-30T13:44:16Z</time>
      </trkpt>
      <trkpt lat="46.37457" lon="6.02996">
        <ele>1321.95</ele>
        <time>2014-05-30T13:44:17Z</time>
      </trkpt>
      <trkpt lat="46.37429" lon="6.02931">
        <ele>1317.62</ele>
        <time>2014-05-30T13:44:27Z</time>
      </trkpt>
      <trkpt lat="46.37426" lon="6.02925">
        <ele>1322.91</ele>
        <time>2014-05-30T13:44:28Z</time>
      </trkpt>
      <trkpt lat="46.37376" lon="6.02829">
        <ele>1321.95</ele>
        <time>2014-05-30T13:44:43Z</time>
      </trkpt>
      <trkpt lat="46.37367" lon="6.02808">
        <ele>1320.99</ele>
        <time>2014-05-30T13:44:46Z</time>
      </trkpt>
      <trkpt lat="46.37359" lon="6.02777">
        <ele>1321.47</ele>
        <time>2014-05-30T13:44:50Z</time>
      </trkpt>
      <trkpt lat="46.37345" lon="6.02687">
        <ele>1321.47</ele>
        <time>2014-05-30T13:45:01Z</time>
      </trkpt>
      <trkpt lat="46.37345" lon="6.02578">
        <ele>1321.95</ele>
        <time>2014-05-30T13:45:14Z</time>
      </trkpt>
      <trkpt lat="46.37343" lon="6.02568">
        <ele>1321.95</ele>
        <time>2014-05-30T13:45:15Z</time>
      </trkpt>
      <trkpt lat="46.37341" lon="6.02559">
        <ele>1321.95</ele>
        <time>2014-05-30T13:45:16Z</time>
      </trkpt>
      <trkpt lat="46.37336" lon="6.02543">
        <ele>1321.47</ele>
        <time>2014-05-30T13:45:18Z</time>
      </trkpt>
      <trkpt lat="46.37334" lon="6.02535">
        <ele>1321.47</ele>
        <time>2014-05-30T13:45:19Z</time>
      </trkpt>
      <trkpt lat="46.37323" lon="6.02511">
        <ele>1321.47</ele>
        <time>2014-05-30T13:45:22Z</time>
      </trkpt>
      <trkpt lat="46.3729" lon="6.02421">
        <ele>1321.47</ele>
        <time>2014-05-30T13:45:34Z</time>
      </trkpt>
      <trkpt lat="46.37285" lon="6.02405">
        <ele>1321.47</ele>
        <time>2014-05-30T13:45:36Z</time>
      </trkpt>
      <trkpt lat="46.37277" lon="6.02381">
        <ele>1321.95</ele>
        <time>2014-05-30T13:45:39Z</time>
      </trkpt>
      <trkpt lat="46.37245" lon="6.02276">
        <ele>1321.47</ele>
        <time>2014-05-30T13:45:52Z</time>
      </trkpt>
      <trkpt lat="46.37198" lon="6.02173">
        <ele>1321.95</ele>
        <time>2014-05-30T13:46:06Z</time>
      </trkpt>
      <trkpt lat="46.37153" lon="6.02061">
        <ele>1322.43</ele>
        <time>2014-05-30T13:46:20Z</time>
      </trkpt>
      <trkpt lat="46.37099" lon="6.01955">
        <ele>1321.95</ele>
        <time>2014-05-30T13:46:35Z</time>
      </trkpt>
      <trkpt lat="46.37081" lon="6.01931">
        <ele>1321.95</ele>
        <time>2014-05-30T13:46:39Z</time>
      </trkpt>
      <trkpt lat="46.37076" lon="6.01925">
        <ele>1321.47</ele>
        <time>2014-05-30T13:46:40Z</time>
      </trkpt>
      <trkpt lat="46.3702" lon="6.0186">
        <ele>1320.99</ele>
        <time>2014-05-30T13:46:53Z</time>
      </trkpt>
      <trkpt lat="46.36983" lon="6.01853">
        <ele>1314.74</ele>
        <time>2014-05-30T13:47:02Z</time>
      </trkpt>
      <trkpt lat="46.3698" lon="6.01853">
        <ele>1319.55</ele>
        <time>2014-05-30T13:47:03Z</time>
      </trkpt>
      <trkpt lat="46.36975" lon="6.0185">
        <ele>1318.1</ele>
        <time>2014-05-30T13:47:06Z</time>
      </trkpt>
      <trkpt lat="46.36974" lon="6.01847">
        <ele>1320.03</ele>
        <time>2014-05-30T13:47:07Z</time>
      </trkpt>
      <trkpt lat="46.36973" lon="6.01844">
        <ele>1320.03</ele>
        <time>2014-05-30T13:47:08Z</time>
      </trkpt>
      <trkpt lat="46.36972" lon="6.01842">
        <ele>1320.03</ele>
        <time>2014-05-30T13:47:09Z</time>
      </trkpt>
      <trkpt lat="46.3697" lon="6.01839">
        <ele>1320.03</ele>
        <time>2014-05-30T13:47:10Z</time>
      </trkpt>
      <trkpt lat="46.36968" lon="6.01837">
        <ele>1320.03</ele>
        <time>2014-05-30T13:47:11Z</time>
      </trkpt>
      <trkpt lat="46.36966" lon="6.01833">
        <ele>1320.03</ele>
        <time>2014-05-30T13:47:12Z</time>
      </trkpt>
      <trkpt lat="46.36964" lon="6.01829">
        <ele>1320.03</ele>
        <time>2014-05-30T13:47:13Z</time>
      </trkpt>
      <trkpt lat="46.36962" lon="6.01813">
        <ele>1320.03</ele>
        <time>2014-05-30T13:47:20Z</time>
      </trkpt>
      <trkpt lat="46.36962" lon="6.01811">
        <ele>1320.03</ele>
        <time>2014-05-30T13:47:21Z</time>
      </trkpt>
      <trkpt lat="46.36961" lon="6.01809">
        <ele>1320.03</ele>
        <time>2014-05-30T13:47:22Z</time>
      </trkpt>
      <trkpt lat="46.36961" lon="6.01807">
        <ele>1320.51</ele>
        <time>2014-05-30T13:47:23Z</time>
      </trkpt>
      <trkpt lat="46.3696" lon="6.01805">
        <ele>1320.03</ele>
        <time>2014-05-30T13:47:24Z</time>
      </trkpt>
      <trkpt lat="46.36959" lon="6.01804">
        <ele>1320.03</ele>
        <time>2014-05-30T13:47:25Z</time>
      </trkpt>
      <trkpt lat="46.36958" lon="6.01802">
        <ele>1320.03</ele>
        <time>2014-05-30T13:47:26Z</time>
      </trkpt>
      <trkpt lat="46.36955" lon="6.01796">
        <ele>1320.51</ele>
        <time>2014-05-30T13:47:30Z</time>
      </trkpt>
      <trkpt lat="46.36953" lon="6.01795">
        <ele>1320.51</ele>
        <time>2014-05-30T13:47:31Z</time>
      </trkpt>
      <trkpt lat="46.36951" lon="6.01793">
        <ele>1320.51</ele>
        <time>2014-05-30T13:47:32Z</time>
      </trkpt>
      <trkpt lat="46.3695" lon="6.01791">
        <ele>1320.51</ele>
        <time>2014-05-30T13:47:33Z</time>
      </trkpt>
      <trkpt lat="46.36948" lon="6.01789">
        <ele>1320.51</ele>
        <time>2014-05-30T13:47:34Z</time>
      </trkpt>
      <trkpt lat="46.36945" lon="6.01786">
        <ele>1320.51</ele>
        <time>2014-05-30T13:47:35Z</time>
      </trkpt>
      <trkpt lat="46.36914" lon="6.01759">
        <ele>1320.03</ele>
        <time>2014-05-30T13:47:47Z</time>
      </trkpt>
      <trkpt lat="46.36895" lon="6.01742">
        <ele>1319.55</ele>
        <time>2014-05-30T13:47:53Z</time>
      </trkpt>
      <trkpt lat="46.36892" lon="6.01738">
        <ele>1319.55</ele>
        <time>2014-05-30T13:47:54Z</time>
      </trkpt>
      <trkpt lat="46.36855" lon="6.01672">
        <ele>1317.62</ele>
        <time>2014-05-30T13:48:08Z</time>
      </trkpt>
      <trkpt lat="46.36828" lon="6.01618">
        <ele>1317.62</ele>
        <time>2014-05-30T13:48:18Z</time>
      </trkpt>
      <trkpt lat="46.36814" lon="6.01599">
        <ele>1317.62</ele>
        <time>2014-05-30T13:48:22Z</time>
      </trkpt>
      <trkpt lat="46.36764" lon="6.01548">
        <ele>1317.62</ele>
        <time>2014-05-30T13:48:37Z</time>
      </trkpt>
      <trkpt lat="46.36735" lon="6.01505">
        <ele>1320.03</ele>
        <time>2014-05-30T13:48:51Z</time>
      </trkpt>
      <trkpt lat="46.36719" lon="6.01466">
        <ele>1319.07</ele>
        <time>2014-05-30T13:49:03Z</time>
      </trkpt>
      <trkpt lat="46.36704" lon="6.01436">
        <ele>1322.43</ele>
        <time>2014-05-30T13:49:14Z</time>
      </trkpt>
      <trkpt lat="46.3671" lon="6.01386">
        <ele>1325.8</ele>
        <time>2014-05-30T13:49:27Z</time>
      </trkpt>
      <trkpt lat="46.36698" lon="6.01341">
        <ele>1325.31</ele>
        <time>2014-05-30T13:49:39Z</time>
      </trkpt>
      <trkpt lat="46.36693" lon="6.01319">
        <ele>1327.24</ele>
        <time>2014-05-30T13:49:45Z</time>
      </trkpt>
      <trkpt lat="46.36692" lon="6.01315">
        <ele>1326.76</ele>
        <time>2014-05-30T13:49:46Z</time>
      </trkpt>
      <trkpt lat="46.36677" lon="6.01295">
        <ele>1326.76</ele>
        <time>2014-05-30T13:49:52Z</time>
      </trkpt>
      <trkpt lat="46.36674" lon="6.01294">
        <ele>1326.76</ele>
        <time>2014-05-30T13:49:53Z</time>
      </trkpt>
      <trkpt lat="46.36672" lon="6.01294">
        <ele>1327.24</ele>
        <time>2014-05-30T13:49:54Z</time>
      </trkpt>
      <trkpt lat="46.36669" lon="6.01293">
        <ele>1327.24</ele>
        <time>2014-05-30T13:49:55Z</time>
      </trkpt>
      <trkpt lat="46.36667" lon="6.01293">
        <ele>1327.72</ele>
        <time>2014-05-30T13:49:56Z</time>
      </trkpt>
      <trkpt lat="46.36664" lon="6.01293">
        <ele>1327.72</ele>
        <time>2014-05-30T13:49:57Z</time>
      </trkpt>
      <trkpt lat="46.36662" lon="6.01293">
        <ele>1327.72</ele>
        <time>2014-05-30T13:49:58Z</time>
      </trkpt>
      <trkpt lat="46.36659" lon="6.01292">
        <ele>1327.72</ele>
        <time>2014-05-30T13:49:59Z</time>
      </trkpt>
      <trkpt lat="46.36623" lon="6.01283">
        <ele>1330.12</ele>
        <time>2014-05-30T13:50:14Z</time>
      </trkpt>
      <trkpt lat="46.36599" lon="6.01271">
        <ele>1333.01</ele>
        <time>2014-05-30T13:50:27Z</time>
      </trkpt>
      <trkpt lat="46.3657" lon="6.01255">
        <ele>1334.93</ele>
        <time>2014-05-30T13:50:42Z</time>
      </trkpt>
      <trkpt lat="46.36546" lon="6.01242">
        <ele>1338.29</ele>
        <time>2014-05-30T13:50:56Z</time>
      </trkpt>
      <trkpt lat="46.36543" lon="6.01235">
        <ele>1338.77</ele>
        <time>2014-05-30T13:50:59Z</time>
      </trkpt>
      <trkpt lat="46.36532" lon="6.01211">
        <ele>1341.18</ele>
        <time>2014-05-30T13:51:11Z</time>
      </trkpt>
      <trkpt lat="46.36509" lon="6.01199">
        <ele>1342.62</ele>
        <time>2014-05-30T13:51:25Z</time>
      </trkpt>
      <trkpt lat="46.36496" lon="6.01177">
        <ele>1345.5</ele>
        <time>2014-05-30T13:51:38Z</time>
      </trkpt>
      <trkpt lat="46.36494" lon="6.01172">
        <ele>1346.46</ele>
        <time>2014-05-30T13:51:40Z</time>
      </trkpt>
      <trkpt lat="46.36493" lon="6.01169">
        <ele>1346.46</ele>
        <time>2014-05-30T13:51:41Z</time>
      </trkpt>
      <trkpt lat="46.36478" lon="6.01154">
        <ele>1347.43</ele>
        <time>2014-05-30T13:51:48Z</time>
      </trkpt>
      <trkpt lat="46.36476" lon="6.01154">
        <ele>1347.91</ele>
        <time>2014-05-30T13:51:49Z</time>
      </trkpt>
      <trkpt lat="46.36474" lon="6.01155">
        <ele>1348.39</ele>
        <time>2014-05-30T13:51:50Z</time>
      </trkpt>
      <trkpt lat="46.36452" lon="6.01182">
        <ele>1350.31</ele>
        <time>2014-05-30T13:52:03Z</time>
      </trkpt>
      <trkpt lat="46.36432" lon="6.01179">
        <ele>1352.71</ele>
        <time>2014-05-30T13:52:14Z</time>
      </trkpt>
      <trkpt lat="46.36409" lon="6.01155">
        <ele>1355.12</ele>
        <time>2014-05-30T13:52:28Z</time>
      </trkpt>
      <trkpt lat="46.36391" lon="6.01129">
        <ele>1358</ele>
        <time>2014-05-30T13:52:41Z</time>
      </trkpt>
      <trkpt lat="46.3639" lon="6.01127">
        <ele>1358</ele>
        <time>2014-05-30T13:52:42Z</time>
      </trkpt>
      <trkpt lat="46.3637" lon="6.011">
        <ele>1361.84</ele>
        <time>2014-05-30T13:52:56Z</time>
      </trkpt>
      <trkpt lat="46.36362" lon="6.01085">
        <ele>1364.73</ele>
        <time>2014-05-30T13:53:04Z</time>
      </trkpt>
      <trkpt lat="46.36362" lon="6.01082">
        <ele>1364.25</ele>
        <time>2014-05-30T13:53:05Z</time>
      </trkpt>
      <trkpt lat="46.3635" lon="6.01046">
        <ele>1366.17</ele>
        <time>2014-05-30T13:53:18Z</time>
      </trkpt>
      <trkpt lat="46.36342" lon="6.01013">
        <ele>1369.05</ele>
        <time>2014-05-30T13:53:29Z</time>
      </trkpt>
      <trkpt lat="46.36338" lon="6.00979">
        <ele>1370.98</ele>
        <time>2014-05-30T13:53:41Z</time>
      </trkpt>
      <trkpt lat="46.36315" lon="6.0096">
        <ele>1374.34</ele>
        <time>2014-05-30T13:53:55Z</time>
      </trkpt>
      <trkpt lat="46.36296" lon="6.00943">
        <ele>1377.23</ele>
        <time>2014-05-30T13:54:06Z</time>
      </trkpt>
      <trkpt lat="46.36285" lon="6.00908">
        <ele>1380.11</ele>
        <time>2014-05-30T13:54:19Z</time>
      </trkpt>
      <trkpt lat="46.3626" lon="6.00882">
        <ele>1382.51</ele>
        <time>2014-05-30T13:54:33Z</time>
      </trkpt>
      <trkpt lat="46.36239" lon="6.00864">
        <ele>1385.88</ele>
        <time>2014-05-30T13:54:45Z</time>
      </trkpt>
      <trkpt lat="46.36222" lon="6.00842">
        <ele>1387.8</ele>
        <time>2014-05-30T13:54:55Z</time>
      </trkpt>
      <trkpt lat="46.36221" lon="6.0084">
        <ele>1388.76</ele>
        <time>2014-05-30T13:54:56Z</time>
      </trkpt>
      <trkpt lat="46.36221" lon="6.00837">
        <ele>1388.28</ele>
        <time>2014-05-30T13:54:57Z</time>
      </trkpt>
      <trkpt lat="46.36216" lon="6.0082">
        <ele>1390.2</ele>
        <time>2014-05-30T13:55:03Z</time>
      </trkpt>
      <trkpt lat="46.36207" lon="6.00794">
        <ele>1391.65</ele>
        <time>2014-05-30T13:55:13Z</time>
      </trkpt>
      <trkpt lat="46.36194" lon="6.00773">
        <ele>1395.01</ele>
        <time>2014-05-30T13:55:23Z</time>
      </trkpt>
      <trkpt lat="46.36175" lon="6.00742">
        <ele>1397.89</ele>
        <time>2014-05-30T13:55:37Z</time>
      </trkpt>
      <trkpt lat="46.36152" lon="6.00716">
        <ele>1401.26</ele>
        <time>2014-05-30T13:55:50Z</time>
      </trkpt>
      <trkpt lat="46.36125" lon="6.0071">
        <ele>1404.14</ele>
        <time>2014-05-30T13:56:03Z</time>
      </trkpt>
      <trkpt lat="46.36103" lon="6.00691">
        <ele>1407.51</ele>
        <time>2014-05-30T13:56:16Z</time>
      </trkpt>
      <trkpt lat="46.36078" lon="6.00671">
        <ele>1410.39</ele>
        <time>2014-05-30T13:56:29Z</time>
      </trkpt>
      <trkpt lat="46.36067" lon="6.00673">
        <ele>1411.83</ele>
        <time>2014-05-30T13:56:34Z</time>
      </trkpt>
      <trkpt lat="46.36065" lon="6.00674">
        <ele>1411.83</ele>
        <time>2014-05-30T13:56:35Z</time>
      </trkpt>
      <trkpt lat="46.36061" lon="6.00678">
        <ele>1412.31</ele>
        <time>2014-05-30T13:56:38Z</time>
      </trkpt>
      <trkpt lat="46.3606" lon="6.00681">
        <ele>1412.31</ele>
        <time>2014-05-30T13:56:39Z</time>
      </trkpt>
      <trkpt lat="46.36059" lon="6.00683">
        <ele>1412.31</ele>
        <time>2014-05-30T13:56:40Z</time>
      </trkpt>
      <trkpt lat="46.36065" lon="6.00708">
        <ele>1415.68</ele>
        <time>2014-05-30T13:56:49Z</time>
      </trkpt>
      <trkpt lat="46.3608" lon="6.00739">
        <ele>1417.12</ele>
        <time>2014-05-30T13:57:01Z</time>
      </trkpt>
      <trkpt lat="46.3607" lon="6.00774">
        <ele>1419.52</ele>
        <time>2014-05-30T13:57:13Z</time>
      </trkpt>
      <trkpt lat="46.36045" lon="6.0077">
        <ele>1421.93</ele>
        <time>2014-05-30T13:57:24Z</time>
      </trkpt>
      <trkpt lat="46.36042" lon="6.00768">
        <ele>1421.93</ele>
        <time>2014-05-30T13:57:26Z</time>
      </trkpt>
      <trkpt lat="46.3604" lon="6.00767">
        <ele>1422.41</ele>
        <time>2014-05-30T13:57:27Z</time>
      </trkpt>
      <trkpt lat="46.36038" lon="6.00766">
        <ele>1422.89</ele>
        <time>2014-05-30T13:57:28Z</time>
      </trkpt>
      <trkpt lat="46.36035" lon="6.00766">
        <ele>1422.89</ele>
        <time>2014-05-30T13:57:29Z</time>
      </trkpt>
      <trkpt lat="46.36032" lon="6.00766">
        <ele>1422.89</ele>
        <time>2014-05-30T13:57:30Z</time>
      </trkpt>
      <trkpt lat="46.3603" lon="6.00766">
        <ele>1422.89</ele>
        <time>2014-05-30T13:57:31Z</time>
      </trkpt>
      <trkpt lat="46.36006" lon="6.00785">
        <ele>1425.77</ele>
        <time>2014-05-30T13:57:43Z</time>
      </trkpt>
      <trkpt lat="46.36003" lon="6.0079">
        <ele>1425.77</ele>
        <time>2014-05-30T13:57:45Z</time>
      </trkpt>
      <trkpt lat="46.36001" lon="6.0079">
        <ele>1426.25</ele>
        <time>2014-05-30T13:57:46Z</time>
      </trkpt>
      <trkpt lat="46.35984" lon="6.00809">
        <ele>1427.7</ele>
        <time>2014-05-30T13:57:57Z</time>
      </trkpt>
      <trkpt lat="46.35982" lon="6.00821">
        <ele>1428.18</ele>
        <time>2014-05-30T13:58:03Z</time>
      </trkpt>
      <trkpt lat="46.35982" lon="6.00823">
        <ele>1431.54</ele>
        <time>2014-05-30T13:58:04Z</time>
      </trkpt>
      <trkpt lat="46.35982" lon="6.00825">
        <ele>1429.62</ele>
        <time>2014-05-30T13:58:05Z</time>
      </trkpt>
      <trkpt lat="46.35981" lon="6.00827">
        <ele>1428.66</ele>
        <time>2014-05-30T13:58:07Z</time>
      </trkpt>
      <trkpt lat="46.35981" lon="6.00828">
        <ele>1429.14</ele>
        <time>2014-05-30T13:58:09Z</time>
      </trkpt>
      <trkpt lat="46.35981" lon="6.00831">
        <ele>1429.14</ele>
        <time>2014-05-30T13:58:15Z</time>
      </trkpt>
      <trkpt lat="46.35981" lon="6.00829">
        <ele>1429.14</ele>
        <time>2014-05-30T13:58:16Z</time>
      </trkpt>
      <trkpt lat="46.35991" lon="6.00805">
        <ele>1427.7</ele>
        <time>2014-05-30T13:58:26Z</time>
      </trkpt>
      <trkpt lat="46.36012" lon="6.00779">
        <ele>1425.77</ele>
        <time>2014-05-30T13:58:37Z</time>
      </trkpt>
      <trkpt lat="46.36017" lon="6.00768">
        <ele>1424.33</ele>
        <time>2014-05-30T13:58:46Z</time>
      </trkpt>
      <trkpt lat="46.36017" lon="6.00767">
        <ele>1424.81</ele>
        <time>2014-05-30T13:59:38Z</time>
      </trkpt>
      <trkpt lat="46.36016" lon="6.00766">
        <ele>1424.33</ele>
        <time>2014-05-30T14:00:12Z</time>
      </trkpt>
      <trkpt lat="46.36014" lon="6.00764">
        <ele>1424.81</ele>
        <time>2014-05-30T14:00:13Z</time>
      </trkpt>
      <trkpt lat="46.36013" lon="6.00763">
        <ele>1424.81</ele>
        <time>2014-05-30T14:00:14Z</time>
      </trkpt>
      <trkpt lat="46.36011" lon="6.00759">
        <ele>1428.66</ele>
        <time>2014-05-30T14:00:17Z</time>
      </trkpt>
      <trkpt lat="46.36011" lon="6.00758">
        <ele>1425.29</ele>
        <time>2014-05-30T14:00:20Z</time>
      </trkpt>
      <trkpt lat="46.36008" lon="6.00753">
        <ele>1427.21</ele>
        <time>2014-05-30T14:00:35Z</time>
      </trkpt>
      <trkpt lat="46.36008" lon="6.00754">
        <ele>1427.21</ele>
        <time>2014-05-30T14:01:07Z</time>
      </trkpt>
      <trkpt lat="46.36008" lon="6.00754">
        <ele>1427.21</ele>
        <time>2014-05-30T14:01:09Z</time>
      </trkpt>
      <trkpt lat="46.35992" lon="6.00752">
        <ele>1428.66</ele>
        <time>2014-05-30T14:01:20Z</time>
      </trkpt>
      <trkpt lat="46.35988" lon="6.0075">
        <ele>1429.14</ele>
        <time>2014-05-30T14:01:23Z</time>
      </trkpt>
      <trkpt lat="46.35987" lon="6.00748">
        <ele>1428.66</ele>
        <time>2014-05-30T14:01:25Z</time>
      </trkpt>
      <trkpt lat="46.35978" lon="6.0074">
        <ele>1429.62</ele>
        <time>2014-05-30T14:01:32Z</time>
      </trkpt>
      <trkpt lat="46.3597" lon="6.00737">
        <ele>1429.62</ele>
        <time>2014-05-30T14:01:37Z</time>
      </trkpt>
      <trkpt lat="46.35951" lon="6.00751">
        <ele>1430.58</ele>
        <time>2014-05-30T14:01:49Z</time>
      </trkpt>
      <trkpt lat="46.35949" lon="6.00754">
        <ele>1431.06</ele>
        <time>2014-05-30T14:01:51Z</time>
      </trkpt>
      <trkpt lat="46.35945" lon="6.00762">
        <ele>1436.35</ele>
        <time>2014-05-30T14:01:58Z</time>
      </trkpt>
      <trkpt lat="46.35944" lon="6.00762">
        <ele>1433.46</ele>
        <time>2014-05-30T14:01:59Z</time>
      </trkpt>
      <trkpt lat="46.35943" lon="6.00762">
        <ele>1429.14</ele>
        <time>2014-05-30T14:02:01Z</time>
      </trkpt>
      <trkpt lat="46.35943" lon="6.00762">
        <ele>1433.46</ele>
        <time>2014-05-30T14:02:02Z</time>
      </trkpt>
      <trkpt lat="46.35939" lon="6.00763">
        <ele>1432.5</ele>
        <time>2014-05-30T14:02:08Z</time>
      </trkpt>
      <trkpt lat="46.35927" lon="6.00749">
        <ele>1435.39</ele>
        <time>2014-05-30T14:02:23Z</time>
      </trkpt>
      <trkpt lat="46.35919" lon="6.00744">
        <ele>1435.87</ele>
        <time>2014-05-30T14:02:35Z</time>
      </trkpt>
      <trkpt lat="46.35913" lon="6.00735">
        <ele>1436.83</ele>
        <time>2014-05-30T14:02:47Z</time>
      </trkpt>
      <trkpt lat="46.35908" lon="6.00732">
        <ele>1437.79</ele>
        <time>2014-05-30T14:02:58Z</time>
      </trkpt>
      <trkpt lat="46.35902" lon="6.00732">
        <ele>1438.75</ele>
        <time>2014-05-30T14:03:06Z</time>
      </trkpt>
      <trkpt lat="46.35897" lon="6.00729">
        <ele>1438.75</ele>
        <time>2014-05-30T14:03:22Z</time>
      </trkpt>
      <trkpt lat="46.35891" lon="6.00725">
        <ele>1438.27</ele>
        <time>2014-05-30T14:03:26Z</time>
      </trkpt>
      <trkpt lat="46.35873" lon="6.00715">
        <ele>1440.19</ele>
        <time>2014-05-30T14:03:36Z</time>
      </trkpt>
      <trkpt lat="46.3586" lon="6.00712">
        <ele>1441.15</ele>
        <time>2014-05-30T14:03:44Z</time>
      </trkpt>
      <trkpt lat="46.35858" lon="6.00712">
        <ele>1441.15</ele>
        <time>2014-05-30T14:04:12Z</time>
      </trkpt>
      <trkpt lat="46.35857" lon="6.00712">
        <ele>1441.15</ele>
        <time>2014-05-30T14:04:13Z</time>
      </trkpt>
      <trkpt lat="46.35847" lon="6.00716">
        <ele>1441.63</ele>
        <time>2014-05-30T14:04:23Z</time>
      </trkpt>
      <trkpt lat="46.35843" lon="6.00719">
        <ele>1442.11</ele>
        <time>2014-05-30T14:04:29Z</time>
      </trkpt>
      <trkpt lat="46.35836" lon="6.00734">
        <ele>1444.52</ele>
        <time>2014-05-30T14:04:37Z</time>
      </trkpt>
      <trkpt lat="46.35827" lon="6.00752">
        <ele>1446.92</ele>
        <time>2014-05-30T14:04:45Z</time>
      </trkpt>
      <trkpt lat="46.35825" lon="6.00755">
        <ele>1447.88</ele>
        <time>2014-05-30T14:04:47Z</time>
      </trkpt>
      <trkpt lat="46.35815" lon="6.00768">
        <ele>1451.25</ele>
        <time>2014-05-30T14:04:56Z</time>
      </trkpt>
      <trkpt lat="46.35813" lon="6.00771">
        <ele>1452.21</ele>
        <time>2014-05-30T14:04:58Z</time>
      </trkpt>
      <trkpt lat="46.35809" lon="6.00778">
        <ele>1452.21</ele>
        <time>2014-05-30T14:05:04Z</time>
      </trkpt>
      <trkpt lat="46.35812" lon="6.00783">
        <ele>1452.69</ele>
        <time>2014-05-30T14:05:10Z</time>
      </trkpt>
      <trkpt lat="46.35814" lon="6.00785">
        <ele>1453.65</ele>
        <time>2014-05-30T14:05:12Z</time>
      </trkpt>
      <trkpt lat="46.35812" lon="6.00791">
        <ele>1453.65</ele>
        <time>2014-05-30T14:05:16Z</time>
      </trkpt>
      <trkpt lat="46.35809" lon="6.00794">
        <ele>1454.61</ele>
        <time>2014-05-30T14:05:19Z</time>
      </trkpt>
      <trkpt lat="46.35805" lon="6.00801">
        <ele>1455.57</ele>
        <time>2014-05-30T14:05:24Z</time>
      </trkpt>
      <trkpt lat="46.35801" lon="6.00803">
        <ele>1455.57</ele>
        <time>2014-05-30T14:05:28Z</time>
      </trkpt>
      <trkpt lat="46.35795" lon="6.00806">
        <ele>1457.02</ele>
        <time>2014-05-30T14:05:34Z</time>
      </trkpt>
      <trkpt lat="46.35784" lon="6.00808">
        <ele>1457.02</ele>
        <time>2014-05-30T14:05:44Z</time>
      </trkpt>
      <trkpt lat="46.35769" lon="6.00801">
        <ele>1457.02</ele>
        <time>2014-05-30T14:05:58Z</time>
      </trkpt>
      <trkpt lat="46.35761" lon="6.0079">
        <ele>1458.94</ele>
        <time>2014-05-30T14:06:11Z</time>
      </trkpt>
      <trkpt lat="46.3576" lon="6.00787">
        <ele>1458.46</ele>
        <time>2014-05-30T14:06:15Z</time>
      </trkpt>
      <trkpt lat="46.35753" lon="6.00774">
        <ele>1458.94</ele>
        <time>2014-05-30T14:06:28Z</time>
      </trkpt>
      <trkpt lat="46.35752" lon="6.00773">
        <ele>1458.94</ele>
        <time>2014-05-30T14:06:29Z</time>
      </trkpt>
      <trkpt lat="46.35741" lon="6.00766">
        <ele>1459.42</ele>
        <time>2014-05-30T14:06:40Z</time>
      </trkpt>
      <trkpt lat="46.3573" lon="6.00761">
        <ele>1459.42</ele>
        <time>2014-05-30T14:06:51Z</time>
      </trkpt>
      <trkpt lat="46.35706" lon="6.00737">
        <ele>1459.42</ele>
        <time>2014-05-30T14:07:07Z</time>
      </trkpt>
      <trkpt lat="46.3569" lon="6.00695">
        <ele>1459.42</ele>
        <time>2014-05-30T14:07:20Z</time>
      </trkpt>
      <trkpt lat="46.35684" lon="6.00664">
        <ele>1460.86</ele>
        <time>2014-05-30T14:07:29Z</time>
      </trkpt>
      <trkpt lat="46.3567" lon="6.00612">
        <ele>1461.82</ele>
        <time>2014-05-30T14:07:44Z</time>
      </trkpt>
      <trkpt lat="46.3566" lon="6.00593">
        <ele>1462.3</ele>
        <time>2014-05-30T14:07:50Z</time>
      </trkpt>
      <trkpt lat="46.35625" lon="6.00546">
        <ele>1462.3</ele>
        <time>2014-05-30T14:08:05Z</time>
      </trkpt>
      <trkpt lat="46.35584" lon="6.00539">
        <ele>1463.74</ele>
        <time>2014-05-30T14:08:18Z</time>
      </trkpt>
      <trkpt lat="46.3555" lon="6.00575">
        <ele>1464.71</ele>
        <time>2014-05-30T14:08:32Z</time>
      </trkpt>
      <trkpt lat="46.35514" lon="6.00574">
        <ele>1466.63</ele>
        <time>2014-05-30T14:08:44Z</time>
      </trkpt>
      <trkpt lat="46.3551" lon="6.00538">
        <ele>1466.15</ele>
        <time>2014-05-30T14:08:53Z</time>
      </trkpt>
      <trkpt lat="46.35514" lon="6.00518">
        <ele>1467.11</ele>
        <time>2014-05-30T14:08:58Z</time>
      </trkpt>
      <trkpt lat="46.35499" lon="6.00508">
        <ele>1466.63</ele>
        <time>2014-05-30T14:09:03Z</time>
      </trkpt>
      <trkpt lat="46.35454" lon="6.005">
        <ele>1466.15</ele>
        <time>2014-05-30T14:09:16Z</time>
      </trkpt>
      <trkpt lat="46.35446" lon="6.00501">
        <ele>1459.9</ele>
        <time>2014-05-30T14:09:18Z</time>
      </trkpt>
      <trkpt lat="46.35443" lon="6.00501">
        <ele>1465.67</ele>
        <time>2014-05-30T14:09:19Z</time>
      </trkpt>
      <trkpt lat="46.35435" lon="6.00501">
        <ele>1466.15</ele>
        <time>2014-05-30T14:09:21Z</time>
      </trkpt>
      <trkpt lat="46.35407" lon="6.00475">
        <ele>1466.15</ele>
        <time>2014-05-30T14:09:30Z</time>
      </trkpt>
      <trkpt lat="46.35368" lon="6.00494">
        <ele>1466.63</ele>
        <time>2014-05-30T14:09:41Z</time>
      </trkpt>
      <trkpt lat="46.3533" lon="6.00493">
        <ele>1466.63</ele>
        <time>2014-05-30T14:09:53Z</time>
      </trkpt>
      <trkpt lat="46.35322" lon="6.00465">
        <ele>1460.38</ele>
        <time>2014-05-30T14:09:59Z</time>
      </trkpt>
      <trkpt lat="46.35321" lon="6.0046">
        <ele>1467.11</ele>
        <time>2014-05-30T14:10:00Z</time>
      </trkpt>
      <trkpt lat="46.35307" lon="6.00439">
        <ele>1466.15</ele>
        <time>2014-05-30T14:10:06Z</time>
      </trkpt>
      <trkpt lat="46.35293" lon="6.00448">
        <ele>1467.59</ele>
        <time>2014-05-30T14:10:11Z</time>
      </trkpt>
      <trkpt lat="46.3526" lon="6.00463">
        <ele>1469.51</ele>
        <time>2014-05-30T14:10:23Z</time>
      </trkpt>
      <trkpt lat="46.35243" lon="6.00461">
        <ele>1469.99</ele>
        <time>2014-05-30T14:10:29Z</time>
      </trkpt>
      <trkpt lat="46.35236" lon="6.0045">
        <ele>1470.95</ele>
        <time>2014-05-30T14:10:40Z</time>
      </trkpt>
      <trkpt lat="46.35236" lon="6.0045">
        <ele>1470.47</ele>
        <time>2014-05-30T14:11:34Z</time>
      </trkpt>
      <trkpt lat="46.35238" lon="6.0046">
        <ele>1470.47</ele>
        <time>2014-05-30T14:11:40Z</time>
      </trkpt>
      <trkpt lat="46.35234" lon="6.00472">
        <ele>1469.99</ele>
        <time>2014-05-30T14:11:45Z</time>
      </trkpt>
      <trkpt lat="46.35217" lon="6.00485">
        <ele>1472.88</ele>
        <time>2014-05-30T14:11:56Z</time>
      </trkpt>
      <trkpt lat="46.35214" lon="6.00491">
        <ele>1473.84</ele>
        <time>2014-05-30T14:12:01Z</time>
      </trkpt>
      <trkpt lat="46.35212" lon="6.00492">
        <ele>1473.36</ele>
        <time>2014-05-30T14:12:03Z</time>
      </trkpt>
      <trkpt lat="46.3521" lon="6.00492">
        <ele>1473.84</ele>
        <time>2014-05-30T14:12:05Z</time>
      </trkpt>
      <trkpt lat="46.35202" lon="6.005">
        <ele>1475.28</ele>
        <time>2014-05-30T14:12:17Z</time>
      </trkpt>
      <trkpt lat="46.35198" lon="6.00501">
        <ele>1476.24</ele>
        <time>2014-05-30T14:12:21Z</time>
      </trkpt>
      <trkpt lat="46.35195" lon="6.00501">
        <ele>1475.76</ele>
        <time>2014-05-30T14:12:36Z</time>
      </trkpt>
      <trkpt lat="46.35184" lon="6.00499">
        <ele>1477.68</ele>
        <time>2014-05-30T14:12:50Z</time>
      </trkpt>
      <trkpt lat="46.35178" lon="6.00496">
        <ele>1478.65</ele>
        <time>2014-05-30T14:13:01Z</time>
      </trkpt>
      <trkpt lat="46.35175" lon="6.00495">
        <ele>1479.61</ele>
        <time>2014-05-30T14:13:04Z</time>
      </trkpt>
      <trkpt lat="46.35167" lon="6.00493">
        <ele>1482.01</ele>
        <time>2014-05-30T14:13:16Z</time>
      </trkpt>
      <trkpt lat="46.35156" lon="6.00496">
        <ele>1482.01</ele>
        <time>2014-05-30T14:13:30Z</time>
      </trkpt>
      <trkpt lat="46.35154" lon="6.00496">
        <ele>1482.01</ele>
        <time>2014-05-30T14:13:32Z</time>
      </trkpt>
      <trkpt lat="46.35143" lon="6.00501">
        <ele>1483.45</ele>
        <time>2014-05-30T14:13:45Z</time>
      </trkpt>
      <trkpt lat="46.35142" lon="6.00501">
        <ele>1482.97</ele>
        <time>2014-05-30T14:13:46Z</time>
      </trkpt>
      <trkpt lat="46.3513" lon="6.00502">
        <ele>1485.37</ele>
        <time>2014-05-30T14:14:01Z</time>
      </trkpt>
      <trkpt lat="46.35118" lon="6.00499">
        <ele>1486.82</ele>
        <time>2014-05-30T14:14:14Z</time>
      </trkpt>
      <trkpt lat="46.35111" lon="6.00492">
        <ele>1488.26</ele>
        <time>2014-05-30T14:14:26Z</time>
      </trkpt>
      <trkpt lat="46.35104" lon="6.00492">
        <ele>1488.26</ele>
        <time>2014-05-30T14:14:34Z</time>
      </trkpt>
      <trkpt lat="46.35099" lon="6.00485">
        <ele>1488.74</ele>
        <time>2014-05-30T14:14:41Z</time>
      </trkpt>
      <trkpt lat="46.35094" lon="6.00479">
        <ele>1488.74</ele>
        <time>2014-05-30T14:14:48Z</time>
      </trkpt>
      <trkpt lat="46.35084" lon="6.00472">
        <ele>1489.7</ele>
        <time>2014-05-30T14:15:00Z</time>
      </trkpt>
      <trkpt lat="46.35076" lon="6.00468">
        <ele>1492.1</ele>
        <time>2014-05-30T14:15:12Z</time>
      </trkpt>
      <trkpt lat="46.35076" lon="6.00468">
        <ele>1492.1</ele>
        <time>2014-05-30T14:15:13Z</time>
      </trkpt>
      <trkpt lat="46.35066" lon="6.00467">
        <ele>1494.99</ele>
        <time>2014-05-30T14:15:25Z</time>
      </trkpt>
      <trkpt lat="46.3506" lon="6.00467">
        <ele>1496.91</ele>
        <time>2014-05-30T14:15:38Z</time>
      </trkpt>
      <trkpt lat="46.35058" lon="6.00468">
        <ele>1497.87</ele>
        <time>2014-05-30T14:15:40Z</time>
      </trkpt>
      <trkpt lat="46.35052" lon="6.00467">
        <ele>1499.79</ele>
        <time>2014-05-30T14:15:53Z</time>
      </trkpt>
      <trkpt lat="46.35042" lon="6.0047">
        <ele>1502.68</ele>
        <time>2014-05-30T14:16:07Z</time>
      </trkpt>
      <trkpt lat="46.35041" lon="6.00467">
        <ele>1503.64</ele>
        <time>2014-05-30T14:16:12Z</time>
      </trkpt>
      <trkpt lat="46.35032" lon="6.00459">
        <ele>1506.04</ele>
        <time>2014-05-30T14:16:27Z</time>
      </trkpt>
      <trkpt lat="46.35028" lon="6.00459">
        <ele>1507</ele>
        <time>2014-05-30T14:16:34Z</time>
      </trkpt>
      <trkpt lat="46.35027" lon="6.0046">
        <ele>1507.48</ele>
        <time>2014-05-30T14:16:36Z</time>
      </trkpt>
      <trkpt lat="46.35022" lon="6.00457">
        <ele>1508.93</ele>
        <time>2014-05-30T14:16:47Z</time>
      </trkpt>
      <trkpt lat="46.35016" lon="6.00452">
        <ele>1509.89</ele>
        <time>2014-05-30T14:16:54Z</time>
      </trkpt>
      <trkpt lat="46.35011" lon="6.00448">
        <ele>1510.85</ele>
        <time>2014-05-30T14:17:00Z</time>
      </trkpt>
      <trkpt lat="46.35008" lon="6.00442">
        <ele>1511.33</ele>
        <time>2014-05-30T14:17:07Z</time>
      </trkpt>
      <trkpt lat="46.35002" lon="6.00433">
        <ele>1514.69</ele>
        <time>2014-05-30T14:17:21Z</time>
      </trkpt>
      <trkpt lat="46.34998" lon="6.00427">
        <ele>1516.14</ele>
        <time>2014-05-30T14:17:32Z</time>
      </trkpt>
      <trkpt lat="46.3499" lon="6.0042">
        <ele>1518.54</ele>
        <time>2014-05-30T14:17:44Z</time>
      </trkpt>
      <trkpt lat="46.34981" lon="6.00421">
        <ele>1521.42</ele>
        <time>2014-05-30T14:17:58Z</time>
      </trkpt>
      <trkpt lat="46.34979" lon="6.00421">
        <ele>1521.9</ele>
        <time>2014-05-30T14:18:00Z</time>
      </trkpt>
      <trkpt lat="46.34973" lon="6.00418">
        <ele>1521.9</ele>
        <time>2014-05-30T14:18:08Z</time>
      </trkpt>
      <trkpt lat="46.34964" lon="6.00416">
        <ele>1522.87</ele>
        <time>2014-05-30T14:18:21Z</time>
      </trkpt>
      <trkpt lat="46.34955" lon="6.00411">
        <ele>1524.79</ele>
        <time>2014-05-30T14:18:34Z</time>
      </trkpt>
      <trkpt lat="46.3495" lon="6.00402">
        <ele>1527.19</ele>
        <time>2014-05-30T14:18:49Z</time>
      </trkpt>
      <trkpt lat="46.34947" lon="6.004">
        <ele>1528.63</ele>
        <time>2014-05-30T14:18:58Z</time>
      </trkpt>
      <trkpt lat="46.34946" lon="6.00398">
        <ele>1529.59</ele>
        <time>2014-05-30T14:19:04Z</time>
      </trkpt>
      <trkpt lat="46.34945" lon="6.00398">
        <ele>1530.56</ele>
        <time>2014-05-30T14:19:07Z</time>
      </trkpt>
      <trkpt lat="46.3494" lon="6.00395">
        <ele>1532.96</ele>
        <time>2014-05-30T14:19:18Z</time>
      </trkpt>
      <trkpt lat="46.34934" lon="6.00393">
        <ele>1534.4</ele>
        <time>2014-05-30T14:19:28Z</time>
      </trkpt>
      <trkpt lat="46.34933" lon="6.00393">
        <ele>1535.36</ele>
        <time>2014-05-30T14:19:34Z</time>
      </trkpt>
      <trkpt lat="46.34926" lon="6.00388">
        <ele>1538.73</ele>
        <time>2014-05-30T14:19:47Z</time>
      </trkpt>
      <trkpt lat="46.34915" lon="6.00387">
        <ele>1539.69</ele>
        <time>2014-05-30T14:20:00Z</time>
      </trkpt>
      <trkpt lat="46.3491" lon="6.00387">
        <ele>1539.69</ele>
        <time>2014-05-30T14:20:06Z</time>
      </trkpt>
      <trkpt lat="46.34909" lon="6.00387">
        <ele>1539.21</ele>
        <time>2014-05-30T14:20:08Z</time>
      </trkpt>
      <trkpt lat="46.34903" lon="6.00386">
        <ele>1540.17</ele>
        <time>2014-05-30T14:20:17Z</time>
      </trkpt>
      <trkpt lat="46.34893" lon="6.00388">
        <ele>1541.61</ele>
        <time>2014-05-30T14:20:29Z</time>
      </trkpt>
      <trkpt lat="46.34887" lon="6.00395">
        <ele>1544.5</ele>
        <time>2014-05-30T14:20:41Z</time>
      </trkpt>
      <trkpt lat="46.34881" lon="6.00408">
        <ele>1546.42</ele>
        <time>2014-05-30T14:20:54Z</time>
      </trkpt>
      <trkpt lat="46.34877" lon="6.0042">
        <ele>1548.82</ele>
        <time>2014-05-30T14:21:07Z</time>
      </trkpt>
      <trkpt lat="46.34877" lon="6.00423">
        <ele>1548.82</ele>
        <time>2014-05-30T14:21:09Z</time>
      </trkpt>
      <trkpt lat="46.34871" lon="6.00432">
        <ele>1551.71</ele>
        <time>2014-05-30T14:21:19Z</time>
      </trkpt>
      <trkpt lat="46.34865" lon="6.00436">
        <ele>1553.63</ele>
        <time>2014-05-30T14:21:32Z</time>
      </trkpt>
      <trkpt lat="46.34859" lon="6.00448">
        <ele>1555.55</ele>
        <time>2014-05-30T14:21:46Z</time>
      </trkpt>
      <trkpt lat="46.34855" lon="6.00463">
        <ele>1557.47</ele>
        <time>2014-05-30T14:21:59Z</time>
      </trkpt>
      <trkpt lat="46.34859" lon="6.00481">
        <ele>1558.92</ele>
        <time>2014-05-30T14:22:14Z</time>
      </trkpt>
      <trkpt lat="46.3486" lon="6.00492">
        <ele>1561.8</ele>
        <time>2014-05-30T14:22:28Z</time>
      </trkpt>
      <trkpt lat="46.34859" lon="6.00501">
        <ele>1563.72</ele>
        <time>2014-05-30T14:22:41Z</time>
      </trkpt>
      <trkpt lat="46.34861" lon="6.00516">
        <ele>1567.09</ele>
        <time>2014-05-30T14:22:56Z</time>
      </trkpt>
      <trkpt lat="46.34859" lon="6.00527">
        <ele>1569.01</ele>
        <time>2014-05-30T14:23:07Z</time>
      </trkpt>
      <trkpt lat="46.34857" lon="6.00532">
        <ele>1571.41</ele>
        <time>2014-05-30T14:23:21Z</time>
      </trkpt>
      <trkpt lat="46.34852" lon="6.00544">
        <ele>1573.82</ele>
        <time>2014-05-30T14:23:35Z</time>
      </trkpt>
      <trkpt lat="46.34852" lon="6.00545">
        <ele>1574.3</ele>
        <time>2014-05-30T14:23:36Z</time>
      </trkpt>
      <trkpt lat="46.34851" lon="6.00547">
        <ele>1575.26</ele>
        <time>2014-05-30T14:23:39Z</time>
      </trkpt>
      <trkpt lat="46.34848" lon="6.0055">
        <ele>1576.7</ele>
        <time>2014-05-30T14:23:45Z</time>
      </trkpt>
      <trkpt lat="46.34843" lon="6.00553">
        <ele>1579.1</ele>
        <time>2014-05-30T14:23:54Z</time>
      </trkpt>
      <trkpt lat="46.34837" lon="6.00559">
        <ele>1581.51</ele>
        <time>2014-05-30T14:24:07Z</time>
      </trkpt>
      <trkpt lat="46.34836" lon="6.00561">
        <ele>1582.47</ele>
        <time>2014-05-30T14:24:11Z</time>
      </trkpt>
      <trkpt lat="46.34835" lon="6.00567">
        <ele>1582.47</ele>
        <time>2014-05-30T14:24:16Z</time>
      </trkpt>
      <trkpt lat="46.34833" lon="6.00582">
        <ele>1583.91</ele>
        <time>2014-05-30T14:24:29Z</time>
      </trkpt>
      <trkpt lat="46.34831" lon="6.00588">
        <ele>1584.87</ele>
        <time>2014-05-30T14:24:36Z</time>
      </trkpt>
      <trkpt lat="46.34829" lon="6.00593">
        <ele>1585.35</ele>
        <time>2014-05-30T14:24:40Z</time>
      </trkpt>
      <trkpt lat="46.34826" lon="6.00604">
        <ele>1588.72</ele>
        <time>2014-05-30T14:24:52Z</time>
      </trkpt>
      <trkpt lat="46.3482" lon="6.00618">
        <ele>1591.12</ele>
        <time>2014-05-30T14:25:07Z</time>
      </trkpt>
      <trkpt lat="46.34819" lon="6.00619">
        <ele>1591.6</ele>
        <time>2014-05-30T14:25:08Z</time>
      </trkpt>
      <trkpt lat="46.34812" lon="6.0062">
        <ele>1593.52</ele>
        <time>2014-05-30T14:25:20Z</time>
      </trkpt>
      <trkpt lat="46.34808" lon="6.00625">
        <ele>1595.93</ele>
        <time>2014-05-30T14:25:28Z</time>
      </trkpt>
      <trkpt lat="46.34807" lon="6.00626">
        <ele>1596.89</ele>
        <time>2014-05-30T14:25:30Z</time>
      </trkpt>
      <trkpt lat="46.34802" lon="6.0063">
        <ele>1596.41</ele>
        <time>2014-05-30T14:25:42Z</time>
      </trkpt>
      <trkpt lat="46.34803" lon="6.00632">
        <ele>1595.93</ele>
        <time>2014-05-30T14:25:56Z</time>
      </trkpt>
      <trkpt lat="46.34803" lon="6.00631">
        <ele>1596.89</ele>
        <time>2014-05-30T14:26:07Z</time>
      </trkpt>
      <trkpt lat="46.34803" lon="6.00632">
        <ele>1595.93</ele>
        <time>2014-05-30T14:26:32Z</time>
      </trkpt>
      <trkpt lat="46.34801" lon="6.0063">
        <ele>1596.89</ele>
        <time>2014-05-30T14:29:41Z</time>
      </trkpt>
      <trkpt lat="46.34795" lon="6.00614">
        <ele>1594.96</ele>
        <time>2014-05-30T14:29:47Z</time>
      </trkpt>
      <trkpt lat="46.34792" lon="6.0061">
        <ele>1594.96</ele>
        <time>2014-05-30T14:29:48Z</time>
      </trkpt>
      <trkpt lat="46.3479" lon="6.00609">
        <ele>1595.45</ele>
        <time>2014-05-30T14:29:49Z</time>
      </trkpt>
      <trkpt lat="46.34788" lon="6.00608">
        <ele>1594.96</ele>
        <time>2014-05-30T14:29:50Z</time>
      </trkpt>
      <trkpt lat="46.34787" lon="6.00606">
        <ele>1594.96</ele>
        <time>2014-05-30T14:29:51Z</time>
      </trkpt>
      <trkpt lat="46.34785" lon="6.00605">
        <ele>1594.96</ele>
        <time>2014-05-30T14:29:52Z</time>
      </trkpt>
      <trkpt lat="46.34784" lon="6.00603">
        <ele>1594.96</ele>
        <time>2014-05-30T14:29:53Z</time>
      </trkpt>
      <trkpt lat="46.34782" lon="6.00603">
        <ele>1595.45</ele>
        <time>2014-05-30T14:29:54Z</time>
      </trkpt>
      <trkpt lat="46.3478" lon="6.00602">
        <ele>1594.48</ele>
        <time>2014-05-30T14:29:55Z</time>
      </trkpt>
      <trkpt lat="46.34778" lon="6.006">
        <ele>1594.96</ele>
        <time>2014-05-30T14:29:56Z</time>
      </trkpt>
      <trkpt lat="46.34776" lon="6.00598">
        <ele>1594.96</ele>
        <time>2014-05-30T14:29:57Z</time>
      </trkpt>
      <trkpt lat="46.34758" lon="6.00593">
        <ele>1591.12</ele>
        <time>2014-05-30T14:30:05Z</time>
      </trkpt>
      <trkpt lat="46.34755" lon="6.00594">
        <ele>1590.64</ele>
        <time>2014-05-30T14:30:06Z</time>
      </trkpt>
      <trkpt lat="46.34747" lon="6.00596">
        <ele>1589.2</ele>
        <time>2014-05-30T14:30:08Z</time>
      </trkpt>
      <trkpt lat="46.34745" lon="6.00596">
        <ele>1589.2</ele>
        <time>2014-05-30T14:30:09Z</time>
      </trkpt>
      <trkpt lat="46.34742" lon="6.00594">
        <ele>1588.72</ele>
        <time>2014-05-30T14:30:10Z</time>
      </trkpt>
      <trkpt lat="46.34723" lon="6.0058">
        <ele>1587.75</ele>
        <time>2014-05-30T14:30:19Z</time>
      </trkpt>
      <trkpt lat="46.34719" lon="6.00575">
        <ele>1589.2</ele>
        <time>2014-05-30T14:30:33Z</time>
      </trkpt>
      <trkpt lat="46.34715" lon="6.00576">
        <ele>1592.08</ele>
        <time>2014-05-30T14:30:38Z</time>
      </trkpt>
      <trkpt lat="46.34708" lon="6.00581">
        <ele>1594</ele>
        <time>2014-05-30T14:30:52Z</time>
      </trkpt>
      <trkpt lat="46.34706" lon="6.00581">
        <ele>1595.93</ele>
        <time>2014-05-30T14:30:55Z</time>
      </trkpt>
      <trkpt lat="46.34695" lon="6.00576">
        <ele>1596.41</ele>
        <time>2014-05-30T14:31:08Z</time>
      </trkpt>
      <trkpt lat="46.34683" lon="6.00569">
        <ele>1595.93</ele>
        <time>2014-05-30T14:31:20Z</time>
      </trkpt>
      <trkpt lat="46.34671" lon="6.00561">
        <ele>1594.48</ele>
        <time>2014-05-30T14:31:25Z</time>
      </trkpt>
      <trkpt lat="46.34652" lon="6.00546">
        <ele>1593.52</ele>
        <time>2014-05-30T14:31:34Z</time>
      </trkpt>
      <trkpt lat="46.34648" lon="6.00543">
        <ele>1593.52</ele>
        <time>2014-05-30T14:31:35Z</time>
      </trkpt>
      <trkpt lat="46.34645" lon="6.0054">
        <ele>1593.52</ele>
        <time>2014-05-30T14:31:36Z</time>
      </trkpt>
      <trkpt lat="46.34643" lon="6.00538">
        <ele>1593.52</ele>
        <time>2014-05-30T14:31:37Z</time>
      </trkpt>
      <trkpt lat="46.3464" lon="6.00535">
        <ele>1593.04</ele>
        <time>2014-05-30T14:31:38Z</time>
      </trkpt>
      <trkpt lat="46.34637" lon="6.00532">
        <ele>1591.6</ele>
        <time>2014-05-30T14:31:39Z</time>
      </trkpt>
      <trkpt lat="46.34634" lon="6.00528">
        <ele>1590.16</ele>
        <time>2014-05-30T14:31:40Z</time>
      </trkpt>
      <trkpt lat="46.34631" lon="6.00524">
        <ele>1589.68</ele>
        <time>2014-05-30T14:31:41Z</time>
      </trkpt>
      <trkpt lat="46.34619" lon="6.00511">
        <ele>1588.24</ele>
        <time>2014-05-30T14:31:45Z</time>
      </trkpt>
      <trkpt lat="46.34616" lon="6.00508">
        <ele>1588.24</ele>
        <time>2014-05-30T14:31:46Z</time>
      </trkpt>
      <trkpt lat="46.34614" lon="6.00507">
        <ele>1589.2</ele>
        <time>2014-05-30T14:31:47Z</time>
      </trkpt>
      <trkpt lat="46.34612" lon="6.00506">
        <ele>1590.16</ele>
        <time>2014-05-30T14:31:48Z</time>
      </trkpt>
      <trkpt lat="46.3461" lon="6.00505">
        <ele>1590.64</ele>
        <time>2014-05-30T14:31:49Z</time>
      </trkpt>
      <trkpt lat="46.3459" lon="6.00499">
        <ele>1593.04</ele>
        <time>2014-05-30T14:32:01Z</time>
      </trkpt>
      <trkpt lat="46.3458" lon="6.005">
        <ele>1594.48</ele>
        <time>2014-05-30T14:32:08Z</time>
      </trkpt>
      <trkpt lat="46.34579" lon="6.005">
        <ele>1594</ele>
        <time>2014-05-30T14:32:09Z</time>
      </trkpt>
      <trkpt lat="46.34577" lon="6.005">
        <ele>1594</ele>
        <time>2014-05-30T14:32:10Z</time>
      </trkpt>
      <trkpt lat="46.34575" lon="6.005">
        <ele>1594</ele>
        <time>2014-05-30T14:32:11Z</time>
      </trkpt>
      <trkpt lat="46.34573" lon="6.00499">
        <ele>1593.52</ele>
        <time>2014-05-30T14:32:12Z</time>
      </trkpt>
      <trkpt lat="46.34554" lon="6.00493">
        <ele>1593.52</ele>
        <time>2014-05-30T14:32:22Z</time>
      </trkpt>
      <trkpt lat="46.34552" lon="6.00493">
        <ele>1593.52</ele>
        <time>2014-05-30T14:32:23Z</time>
      </trkpt>
      <trkpt lat="46.3455" lon="6.00491">
        <ele>1594</ele>
        <time>2014-05-30T14:32:24Z</time>
      </trkpt>
      <trkpt lat="46.34549" lon="6.0049">
        <ele>1593.52</ele>
        <time>2014-05-30T14:32:25Z</time>
      </trkpt>
      <trkpt lat="46.34548" lon="6.00488">
        <ele>1594</ele>
        <time>2014-05-30T14:32:26Z</time>
      </trkpt>
      <trkpt lat="46.34547" lon="6.00488">
        <ele>1594</ele>
        <time>2014-05-30T14:32:27Z</time>
      </trkpt>
      <trkpt lat="46.34545" lon="6.00487">
        <ele>1594</ele>
        <time>2014-05-30T14:32:28Z</time>
      </trkpt>
      <trkpt lat="46.34543" lon="6.00487">
        <ele>1594.48</ele>
        <time>2014-05-30T14:32:29Z</time>
      </trkpt>
      <trkpt lat="46.34533" lon="6.00488">
        <ele>1594.96</ele>
        <time>2014-05-30T14:32:36Z</time>
      </trkpt>
      <trkpt lat="46.3453" lon="6.00493">
        <ele>1595.45</ele>
        <time>2014-05-30T14:32:43Z</time>
      </trkpt>
      <trkpt lat="46.34519" lon="6.00497">
        <ele>1596.41</ele>
        <time>2014-05-30T14:32:57Z</time>
      </trkpt>
      <trkpt lat="46.34513" lon="6.00497">
        <ele>1598.33</ele>
        <time>2014-05-30T14:33:11Z</time>
      </trkpt>
      <trkpt lat="46.34514" lon="6.00488">
        <ele>1598.81</ele>
        <time>2014-05-30T14:33:18Z</time>
      </trkpt>
      <trkpt lat="46.34506" lon="6.00481">
        <ele>1597.85</ele>
        <time>2014-05-30T14:33:27Z</time>
      </trkpt>
      <trkpt lat="46.34499" lon="6.00482">
        <ele>1600.25</ele>
        <time>2014-05-30T14:33:38Z</time>
      </trkpt>
      <trkpt lat="46.34497" lon="6.00482">
        <ele>1599.29</ele>
        <time>2014-05-30T14:33:40Z</time>
      </trkpt>
      <trkpt lat="46.34486" lon="6.00489">
        <ele>1602.66</ele>
        <time>2014-05-30T14:33:55Z</time>
      </trkpt>
      <trkpt lat="46.34481" lon="6.00487">
        <ele>1602.66</ele>
        <time>2014-05-30T14:34:02Z</time>
      </trkpt>
      <trkpt lat="46.34478" lon="6.00487">
        <ele>1603.62</ele>
        <time>2014-05-30T14:34:10Z</time>
      </trkpt>
      <trkpt lat="46.34472" lon="6.00488">
        <ele>1603.62</ele>
        <time>2014-05-30T14:34:14Z</time>
      </trkpt>
      <trkpt lat="46.34468" lon="6.0049">
        <ele>1610.35</ele>
        <time>2014-05-30T14:34:23Z</time>
      </trkpt>
      <trkpt lat="46.34467" lon="6.0049">
        <ele>1606.02</ele>
        <time>2014-05-30T14:34:24Z</time>
      </trkpt>
      <trkpt lat="46.34458" lon="6.00496">
        <ele>1606.98</ele>
        <time>2014-05-30T14:34:38Z</time>
      </trkpt>
      <trkpt lat="46.34455" lon="6.00497">
        <ele>1607.94</ele>
        <time>2014-05-30T14:34:43Z</time>
      </trkpt>
      <trkpt lat="46.3444" lon="6.00507">
        <ele>1607.46</ele>
        <time>2014-05-30T14:34:54Z</time>
      </trkpt>
      <trkpt lat="46.34436" lon="6.00506">
        <ele>1607.46</ele>
        <time>2014-05-30T14:34:56Z</time>
      </trkpt>
      <trkpt lat="46.34412" lon="6.00491">
        <ele>1607.46</ele>
        <time>2014-05-30T14:35:10Z</time>
      </trkpt>
      <trkpt lat="46.34396" lon="6.00475">
        <ele>1607.46</ele>
        <time>2014-05-30T14:35:20Z</time>
      </trkpt>
      <trkpt lat="46.34391" lon="6.0047">
        <ele>1607.46</ele>
        <time>2014-05-30T14:35:34Z</time>
      </trkpt>
      <trkpt lat="46.34391" lon="6.0047">
        <ele>1607.46</ele>
        <time>2014-05-30T14:35:38Z</time>
      </trkpt>
      <trkpt lat="46.34388" lon="6.00464">
        <ele>1606.02</ele>
        <time>2014-05-30T14:35:41Z</time>
      </trkpt>
      <trkpt lat="46.3438" lon="6.00459">
        <ele>1603.62</ele>
        <time>2014-05-30T14:35:45Z</time>
      </trkpt>
      <trkpt lat="46.34375" lon="6.00456">
        <ele>1602.66</ele>
        <time>2014-05-30T14:35:47Z</time>
      </trkpt>
      <trkpt lat="46.34366" lon="6.00452">
        <ele>1599.29</ele>
        <time>2014-05-30T14:35:51Z</time>
      </trkpt>
      <trkpt lat="46.34361" lon="6.0045">
        <ele>1597.85</ele>
        <time>2014-05-30T14:35:53Z</time>
      </trkpt>
      <trkpt lat="46.34354" lon="6.00428">
        <ele>1593.04</ele>
        <time>2014-05-30T14:35:59Z</time>
      </trkpt>
      <trkpt lat="46.34351" lon="6.00419">
        <ele>1590.16</ele>
        <time>2014-05-30T14:36:01Z</time>
      </trkpt>
      <trkpt lat="46.34348" lon="6.00414">
        <ele>1589.2</ele>
        <time>2014-05-30T14:36:02Z</time>
      </trkpt>
      <trkpt lat="46.34346" lon="6.00411">
        <ele>1588.24</ele>
        <time>2014-05-30T14:36:03Z</time>
      </trkpt>
      <trkpt lat="46.34343" lon="6.00409">
        <ele>1587.75</ele>
        <time>2014-05-30T14:36:04Z</time>
      </trkpt>
      <trkpt lat="46.34339" lon="6.00411">
        <ele>1587.27</ele>
        <time>2014-05-30T14:36:05Z</time>
      </trkpt>
      <trkpt lat="46.34335" lon="6.00414">
        <ele>1585.83</ele>
        <time>2014-05-30T14:36:06Z</time>
      </trkpt>
      <trkpt lat="46.3433" lon="6.00417">
        <ele>1585.35</ele>
        <time>2014-05-30T14:36:07Z</time>
      </trkpt>
      <trkpt lat="46.34324" lon="6.00418">
        <ele>1584.87</ele>
        <time>2014-05-30T14:36:08Z</time>
      </trkpt>
      <trkpt lat="46.34298" lon="6.00407">
        <ele>1581.51</ele>
        <time>2014-05-30T14:36:14Z</time>
      </trkpt>
      <trkpt lat="46.34295" lon="6.00406">
        <ele>1581.03</ele>
        <time>2014-05-30T14:36:15Z</time>
      </trkpt>
      <trkpt lat="46.34292" lon="6.00405">
        <ele>1581.03</ele>
        <time>2014-05-30T14:36:16Z</time>
      </trkpt>
      <trkpt lat="46.34281" lon="6.00407">
        <ele>1579.1</ele>
        <time>2014-05-30T14:36:19Z</time>
      </trkpt>
      <trkpt lat="46.34274" lon="6.00409">
        <ele>1578.62</ele>
        <time>2014-05-30T14:36:21Z</time>
      </trkpt>
      <trkpt lat="46.34267" lon="6.0041">
        <ele>1576.7</ele>
        <time>2014-05-30T14:36:23Z</time>
      </trkpt>
      <trkpt lat="46.34262" lon="6.0041">
        <ele>1575.26</ele>
        <time>2014-05-30T14:36:24Z</time>
      </trkpt>
      <trkpt lat="46.34256" lon="6.00409">
        <ele>1574.78</ele>
        <time>2014-05-30T14:36:25Z</time>
      </trkpt>
      <trkpt lat="46.34242" lon="6.00402">
        <ele>1571.41</ele>
        <time>2014-05-30T14:36:28Z</time>
      </trkpt>
      <trkpt lat="46.34236" lon="6.00401">
        <ele>1570.45</ele>
        <time>2014-05-30T14:36:29Z</time>
      </trkpt>
      <trkpt lat="46.34231" lon="6.00399">
        <ele>1569.01</ele>
        <time>2014-05-30T14:36:30Z</time>
      </trkpt>
      <trkpt lat="46.34225" lon="6.00397">
        <ele>1569.01</ele>
        <time>2014-05-30T14:36:31Z</time>
      </trkpt>
      <trkpt lat="46.34214" lon="6.00392">
        <ele>1568.53</ele>
        <time>2014-05-30T14:36:33Z</time>
      </trkpt>
      <trkpt lat="46.3421" lon="6.0039">
        <ele>1567.57</ele>
        <time>2014-05-30T14:36:34Z</time>
      </trkpt>
      <trkpt lat="46.34206" lon="6.00387">
        <ele>1566.61</ele>
        <time>2014-05-30T14:36:35Z</time>
      </trkpt>
      <trkpt lat="46.34202" lon="6.00383">
        <ele>1567.09</ele>
        <time>2014-05-30T14:36:36Z</time>
      </trkpt>
      <trkpt lat="46.34198" lon="6.00381">
        <ele>1565.64</ele>
        <time>2014-05-30T14:36:37Z</time>
      </trkpt>
      <trkpt lat="46.34195" lon="6.00379">
        <ele>1564.68</ele>
        <time>2014-05-30T14:36:38Z</time>
      </trkpt>
      <trkpt lat="46.34192" lon="6.00378">
        <ele>1564.2</ele>
        <time>2014-05-30T14:36:39Z</time>
      </trkpt>
      <trkpt lat="46.3419" lon="6.00375">
        <ele>1563.72</ele>
        <time>2014-05-30T14:36:41Z</time>
      </trkpt>
      <trkpt lat="46.34189" lon="6.00373">
        <ele>1563.72</ele>
        <time>2014-05-30T14:36:42Z</time>
      </trkpt>
      <trkpt lat="46.34189" lon="6.0037">
        <ele>1563.72</ele>
        <time>2014-05-30T14:36:43Z</time>
      </trkpt>
      <trkpt lat="46.34187" lon="6.00368">
        <ele>1563.72</ele>
        <time>2014-05-30T14:36:44Z</time>
      </trkpt>
      <trkpt lat="46.34185" lon="6.00366">
        <ele>1563.72</ele>
        <time>2014-05-30T14:36:45Z</time>
      </trkpt>
      <trkpt lat="46.34183" lon="6.00364">
        <ele>1563.72</ele>
        <time>2014-05-30T14:36:46Z</time>
      </trkpt>
      <trkpt lat="46.3418" lon="6.00361">
        <ele>1563.72</ele>
        <time>2014-05-30T14:36:47Z</time>
      </trkpt>
      <trkpt lat="46.34176" lon="6.00358">
        <ele>1563.24</ele>
        <time>2014-05-30T14:36:48Z</time>
      </trkpt>
      <trkpt lat="46.34172" lon="6.00356">
        <ele>1562.76</ele>
        <time>2014-05-30T14:36:49Z</time>
      </trkpt>
      <trkpt lat="46.34169" lon="6.00354">
        <ele>1562.76</ele>
        <time>2014-05-30T14:36:50Z</time>
      </trkpt>
      <trkpt lat="46.34166" lon="6.00352">
        <ele>1562.76</ele>
        <time>2014-05-30T14:36:51Z</time>
      </trkpt>
      <trkpt lat="46.34163" lon="6.00349">
        <ele>1562.28</ele>
        <time>2014-05-30T14:36:52Z</time>
      </trkpt>
      <trkpt lat="46.34143" lon="6.00317">
        <ele>1559.88</ele>
        <time>2014-05-30T14:37:02Z</time>
      </trkpt>
      <trkpt lat="46.34143" lon="6.00314">
        <ele>1559.88</ele>
        <time>2014-05-30T14:37:03Z</time>
      </trkpt>
      <trkpt lat="46.34138" lon="6.00306">
        <ele>1560.84</ele>
        <time>2014-05-30T14:37:13Z</time>
      </trkpt>
      <trkpt lat="46.34139" lon="6.00305">
        <ele>1559.88</ele>
        <time>2014-05-30T14:39:48Z</time>
      </trkpt>
      <trkpt lat="46.34139" lon="6.00305">
        <ele>1559.88</ele>
        <time>2014-05-30T14:41:45Z</time>
      </trkpt>
      <trkpt lat="46.3414" lon="6.00304">
        <ele>1559.88</ele>
        <time>2014-05-30T14:42:41Z</time>
      </trkpt>
      <trkpt lat="46.34137" lon="6.00302">
        <ele>1560.84</ele>
        <time>2014-05-30T14:42:51Z</time>
      </trkpt>
      <trkpt lat="46.34128" lon="6.00295">
        <ele>1562.76</ele>
        <time>2014-05-30T14:43:05Z</time>
      </trkpt>
      <trkpt lat="46.34118" lon="6.00294">
        <ele>1564.68</ele>
        <time>2014-05-30T14:43:19Z</time>
      </trkpt>
      <trkpt lat="46.34112" lon="6.00296">
        <ele>1567.57</ele>
        <time>2014-05-30T14:43:31Z</time>
      </trkpt>
      <trkpt lat="46.34107" lon="6.00297">
        <ele>1569.49</ele>
        <time>2014-05-30T14:43:41Z</time>
      </trkpt>
      <trkpt lat="46.34103" lon="6.00292">
        <ele>1571.89</ele>
        <time>2014-05-30T14:43:53Z</time>
      </trkpt>
      <trkpt lat="46.34095" lon="6.0029">
        <ele>1573.82</ele>
        <time>2014-05-30T14:44:08Z</time>
      </trkpt>
      <trkpt lat="46.34092" lon="6.00293">
        <ele>1575.74</ele>
        <time>2014-05-30T14:44:20Z</time>
      </trkpt>
      <trkpt lat="46.34088" lon="6.00299">
        <ele>1577.66</ele>
        <time>2014-05-30T14:44:32Z</time>
      </trkpt>
      <trkpt lat="46.34081" lon="6.00301">
        <ele>1580.06</ele>
        <time>2014-05-30T14:44:45Z</time>
      </trkpt>
      <trkpt lat="46.34077" lon="6.00303">
        <ele>1581.51</ele>
        <time>2014-05-30T14:44:56Z</time>
      </trkpt>
      <trkpt lat="46.34067" lon="6.00305">
        <ele>1583.43</ele>
        <time>2014-05-30T14:45:10Z</time>
      </trkpt>
      <trkpt lat="46.34057" lon="6.00303">
        <ele>1585.35</ele>
        <time>2014-05-30T14:45:25Z</time>
      </trkpt>
      <trkpt lat="46.34044" lon="6.00298">
        <ele>1586.79</ele>
        <time>2014-05-30T14:45:41Z</time>
      </trkpt>
      <trkpt lat="46.34041" lon="6.00295">
        <ele>1587.27</ele>
        <time>2014-05-30T14:45:46Z</time>
      </trkpt>
      <trkpt lat="46.34023" lon="6.00287">
        <ele>1586.79</ele>
        <time>2014-05-30T14:46:05Z</time>
      </trkpt>
      <trkpt lat="46.34012" lon="6.00286">
        <ele>1588.24</ele>
        <time>2014-05-30T14:46:16Z</time>
      </trkpt>
      <trkpt lat="46.34008" lon="6.00285">
        <ele>1588.24</ele>
        <time>2014-05-30T14:46:20Z</time>
      </trkpt>
      <trkpt lat="46.34006" lon="6.00285">
        <ele>1588.72</ele>
        <time>2014-05-30T14:46:22Z</time>
      </trkpt>
      <trkpt lat="46.33994" lon="6.0028">
        <ele>1590.16</ele>
        <time>2014-05-30T14:46:37Z</time>
      </trkpt>
      <trkpt lat="46.33982" lon="6.00282">
        <ele>1592.56</ele>
        <time>2014-05-30T14:46:52Z</time>
      </trkpt>
      <trkpt lat="46.33972" lon="6.00286">
        <ele>1595.93</ele>
        <time>2014-05-30T14:47:05Z</time>
      </trkpt>
      <trkpt lat="46.33968" lon="6.00279">
        <ele>1598.33</ele>
        <time>2014-05-30T14:47:18Z</time>
      </trkpt>
      <trkpt lat="46.3396" lon="6.00284">
        <ele>1599.77</ele>
        <time>2014-05-30T14:47:31Z</time>
      </trkpt>
      <trkpt lat="46.33953" lon="6.00285">
        <ele>1601.69</ele>
        <time>2014-05-30T14:47:43Z</time>
      </trkpt>
      <trkpt lat="46.33946" lon="6.00282">
        <ele>1603.14</ele>
        <time>2014-05-30T14:47:56Z</time>
      </trkpt>
      <trkpt lat="46.33945" lon="6.00283">
        <ele>1603.14</ele>
        <time>2014-05-30T14:47:57Z</time>
      </trkpt>
      <trkpt lat="46.33943" lon="6.00285">
        <ele>1604.1</ele>
        <time>2014-05-30T14:48:01Z</time>
      </trkpt>
      <trkpt lat="46.33936" lon="6.00285">
        <ele>1605.06</ele>
        <time>2014-05-30T14:48:09Z</time>
      </trkpt>
      <trkpt lat="46.33935" lon="6.00283">
        <ele>1603.62</ele>
        <time>2014-05-30T14:48:15Z</time>
      </trkpt>
      <trkpt lat="46.33935" lon="6.00283">
        <ele>1603.62</ele>
        <time>2014-05-30T14:49:11Z</time>
      </trkpt>
      <trkpt lat="46.33935" lon="6.00283">
        <ele>1603.62</ele>
        <time>2014-05-30T14:49:14Z</time>
      </trkpt>
      <trkpt lat="46.33932" lon="6.00284">
        <ele>1603.62</ele>
        <time>2014-05-30T14:49:18Z</time>
      </trkpt>
      <trkpt lat="46.33907" lon="6.00277">
        <ele>1601.21</ele>
        <time>2014-05-30T14:49:29Z</time>
      </trkpt>
      <trkpt lat="46.33903" lon="6.00275">
        <ele>1600.73</ele>
        <time>2014-05-30T14:49:30Z</time>
      </trkpt>
      <trkpt lat="46.339" lon="6.00272">
        <ele>1600.73</ele>
        <time>2014-05-30T14:49:31Z</time>
      </trkpt>
      <trkpt lat="46.33897" lon="6.00269">
        <ele>1600.73</ele>
        <time>2014-05-30T14:49:32Z</time>
      </trkpt>
      <trkpt lat="46.33893" lon="6.00268">
        <ele>1600.73</ele>
        <time>2014-05-30T14:49:33Z</time>
      </trkpt>
      <trkpt lat="46.3389" lon="6.00268">
        <ele>1599.77</ele>
        <time>2014-05-30T14:49:34Z</time>
      </trkpt>
      <trkpt lat="46.33888" lon="6.00268">
        <ele>1599.77</ele>
        <time>2014-05-30T14:49:35Z</time>
      </trkpt>
      <trkpt lat="46.33885" lon="6.00269">
        <ele>1600.73</ele>
        <time>2014-05-30T14:49:36Z</time>
      </trkpt>
      <trkpt lat="46.33884" lon="6.00268">
        <ele>1600.25</ele>
        <time>2014-05-30T14:49:37Z</time>
      </trkpt>
      <trkpt lat="46.33883" lon="6.00266">
        <ele>1600.25</ele>
        <time>2014-05-30T14:49:38Z</time>
      </trkpt>
      <trkpt lat="46.33878" lon="6.00263">
        <ele>1602.66</ele>
        <time>2014-05-30T14:49:46Z</time>
      </trkpt>
      <trkpt lat="46.33874" lon="6.00258">
        <ele>1604.1</ele>
        <time>2014-05-30T14:49:57Z</time>
      </trkpt>
      <trkpt lat="46.33871" lon="6.00258">
        <ele>1603.14</ele>
        <time>2014-05-30T14:50:05Z</time>
      </trkpt>
      <trkpt lat="46.33869" lon="6.00257">
        <ele>1602.66</ele>
        <time>2014-05-30T14:50:06Z</time>
      </trkpt>
      <trkpt lat="46.33853" lon="6.00246">
        <ele>1600.73</ele>
        <time>2014-05-30T14:50:11Z</time>
      </trkpt>
      <trkpt lat="46.3385" lon="6.00243">
        <ele>1600.73</ele>
        <time>2014-05-30T14:50:12Z</time>
      </trkpt>
      <trkpt lat="46.33849" lon="6.0024">
        <ele>1601.21</ele>
        <time>2014-05-30T14:50:13Z</time>
      </trkpt>
      <trkpt lat="46.33846" lon="6.00235">
        <ele>1601.21</ele>
        <time>2014-05-30T14:50:15Z</time>
      </trkpt>
      <trkpt lat="46.33844" lon="6.00232">
        <ele>1601.21</ele>
        <time>2014-05-30T14:50:16Z</time>
      </trkpt>
      <trkpt lat="46.33815" lon="6.00228">
        <ele>1597.85</ele>
        <time>2014-05-30T14:50:26Z</time>
      </trkpt>
      <trkpt lat="46.33797" lon="6.00224">
        <ele>1599.77</ele>
        <time>2014-05-30T14:50:34Z</time>
      </trkpt>
      <trkpt lat="46.33789" lon="6.00223">
        <ele>1600.25</ele>
        <time>2014-05-30T14:50:39Z</time>
      </trkpt>
      <trkpt lat="46.33787" lon="6.00223">
        <ele>1600.73</ele>
        <time>2014-05-30T14:50:40Z</time>
      </trkpt>
      <trkpt lat="46.33775" lon="6.00222">
        <ele>1600.25</ele>
        <time>2014-05-30T14:50:47Z</time>
      </trkpt>
      <trkpt lat="46.33773" lon="6.00222">
        <ele>1600.73</ele>
        <time>2014-05-30T14:50:48Z</time>
      </trkpt>
      <trkpt lat="46.33772" lon="6.00224">
        <ele>1600.25</ele>
        <time>2014-05-30T14:50:49Z</time>
      </trkpt>
      <trkpt lat="46.3377" lon="6.00224">
        <ele>1600.73</ele>
        <time>2014-05-30T14:50:50Z</time>
      </trkpt>
      <trkpt lat="46.3376" lon="6.00222">
        <ele>1600.25</ele>
        <time>2014-05-30T14:50:57Z</time>
      </trkpt>
      <trkpt lat="46.33759" lon="6.00221">
        <ele>1600.73</ele>
        <time>2014-05-30T14:50:58Z</time>
      </trkpt>
      <trkpt lat="46.33758" lon="6.00219">
        <ele>1600.73</ele>
        <time>2014-05-30T14:50:59Z</time>
      </trkpt>
      <trkpt lat="46.33757" lon="6.00217">
        <ele>1600.73</ele>
        <time>2014-05-30T14:51:00Z</time>
      </trkpt>
      <trkpt lat="46.33756" lon="6.00215">
        <ele>1600.25</ele>
        <time>2014-05-30T14:51:01Z</time>
      </trkpt>
      <trkpt lat="46.33755" lon="6.00213">
        <ele>1600.25</ele>
        <time>2014-05-30T14:51:02Z</time>
      </trkpt>
      <trkpt lat="46.33754" lon="6.00211">
        <ele>1600.73</ele>
        <time>2014-05-30T14:51:03Z</time>
      </trkpt>
      <trkpt lat="46.33752" lon="6.00209">
        <ele>1600.25</ele>
        <time>2014-05-30T14:51:04Z</time>
      </trkpt>
      <trkpt lat="46.33749" lon="6.00207">
        <ele>1600.25</ele>
        <time>2014-05-30T14:51:05Z</time>
      </trkpt>
      <trkpt lat="46.33745" lon="6.00206">
        <ele>1599.29</ele>
        <time>2014-05-30T14:51:06Z</time>
      </trkpt>
      <trkpt lat="46.33741" lon="6.00204">
        <ele>1599.29</ele>
        <time>2014-05-30T14:51:07Z</time>
      </trkpt>
      <trkpt lat="46.33737" lon="6.00202">
        <ele>1598.81</ele>
        <time>2014-05-30T14:51:08Z</time>
      </trkpt>
      <trkpt lat="46.33733" lon="6.002">
        <ele>1598.33</ele>
        <time>2014-05-30T14:51:09Z</time>
      </trkpt>
      <trkpt lat="46.33728" lon="6.00198">
        <ele>1597.85</ele>
        <time>2014-05-30T14:51:10Z</time>
      </trkpt>
      <trkpt lat="46.33722" lon="6.00197">
        <ele>1597.37</ele>
        <time>2014-05-30T14:51:11Z</time>
      </trkpt>
      <trkpt lat="46.33717" lon="6.00195">
        <ele>1595.93</ele>
        <time>2014-05-30T14:51:12Z</time>
      </trkpt>
      <trkpt lat="46.33711" lon="6.00193">
        <ele>1596.41</ele>
        <time>2014-05-30T14:51:13Z</time>
      </trkpt>
      <trkpt lat="46.33706" lon="6.00192">
        <ele>1595.93</ele>
        <time>2014-05-30T14:51:14Z</time>
      </trkpt>
      <trkpt lat="46.33701" lon="6.00191">
        <ele>1595.45</ele>
        <time>2014-05-30T14:51:15Z</time>
      </trkpt>
      <trkpt lat="46.33697" lon="6.00191">
        <ele>1596.41</ele>
        <time>2014-05-30T14:51:16Z</time>
      </trkpt>
      <trkpt lat="46.33693" lon="6.00191">
        <ele>1596.89</ele>
        <time>2014-05-30T14:51:18Z</time>
      </trkpt>
      <trkpt lat="46.33683" lon="6.00189">
        <ele>1599.29</ele>
        <time>2014-05-30T14:51:24Z</time>
      </trkpt>
      <trkpt lat="46.33682" lon="6.00188">
        <ele>1599.29</ele>
        <time>2014-05-30T14:51:25Z</time>
      </trkpt>
      <trkpt lat="46.3368" lon="6.00188">
        <ele>1599.29</ele>
        <time>2014-05-30T14:51:26Z</time>
      </trkpt>
      <trkpt lat="46.33659" lon="6.00188">
        <ele>1601.21</ele>
        <time>2014-05-30T14:51:38Z</time>
      </trkpt>
      <trkpt lat="46.33645" lon="6.00186">
        <ele>1602.66</ele>
        <time>2014-05-30T14:51:50Z</time>
      </trkpt>
      <trkpt lat="46.3364" lon="6.00182">
        <ele>1601.21</ele>
        <time>2014-05-30T14:52:03Z</time>
      </trkpt>
      <trkpt lat="46.33639" lon="6.0018">
        <ele>1601.69</ele>
        <time>2014-05-30T14:52:04Z</time>
      </trkpt>
      <trkpt lat="46.33637" lon="6.00179">
        <ele>1601.21</ele>
        <time>2014-05-30T14:52:05Z</time>
      </trkpt>
      <trkpt lat="46.33636" lon="6.00177">
        <ele>1601.21</ele>
        <time>2014-05-30T14:52:06Z</time>
      </trkpt>
      <trkpt lat="46.33636" lon="6.00176">
        <ele>1600.25</ele>
        <time>2014-05-30T14:52:17Z</time>
      </trkpt>
      <trkpt lat="46.33628" lon="6.00168">
        <ele>1600.73</ele>
        <time>2014-05-30T14:53:15Z</time>
      </trkpt>
      <trkpt lat="46.33627" lon="6.00166">
        <ele>1601.21</ele>
        <time>2014-05-30T14:53:16Z</time>
      </trkpt>
      <trkpt lat="46.33625" lon="6.00164">
        <ele>1601.69</ele>
        <time>2014-05-30T14:53:17Z</time>
      </trkpt>
      <trkpt lat="46.33623" lon="6.00163">
        <ele>1601.69</ele>
        <time>2014-05-30T14:53:18Z</time>
      </trkpt>
      <trkpt lat="46.33622" lon="6.00164">
        <ele>1601.69</ele>
        <time>2014-05-30T14:53:19Z</time>
      </trkpt>
      <trkpt lat="46.3362" lon="6.00163">
        <ele>1601.69</ele>
        <time>2014-05-30T14:53:20Z</time>
      </trkpt>
      <trkpt lat="46.33618" lon="6.00162">
        <ele>1601.69</ele>
        <time>2014-05-30T14:53:21Z</time>
      </trkpt>
      <trkpt lat="46.33616" lon="6.00161">
        <ele>1602.17</ele>
        <time>2014-05-30T14:53:22Z</time>
      </trkpt>
      <trkpt lat="46.33614" lon="6.0016">
        <ele>1602.66</ele>
        <time>2014-05-30T14:53:23Z</time>
      </trkpt>
      <trkpt lat="46.33612" lon="6.00159">
        <ele>1603.14</ele>
        <time>2014-05-30T14:53:24Z</time>
      </trkpt>
      <trkpt lat="46.33611" lon="6.00159">
        <ele>1603.62</ele>
        <time>2014-05-30T14:53:25Z</time>
      </trkpt>
      <trkpt lat="46.33609" lon="6.00159">
        <ele>1603.62</ele>
        <time>2014-05-30T14:53:26Z</time>
      </trkpt>
      <trkpt lat="46.33608" lon="6.00158">
        <ele>1604.1</ele>
        <time>2014-05-30T14:53:27Z</time>
      </trkpt>
      <trkpt lat="46.33607" lon="6.00156">
        <ele>1604.1</ele>
        <time>2014-05-30T14:53:28Z</time>
      </trkpt>
      <trkpt lat="46.33606" lon="6.00154">
        <ele>1604.1</ele>
        <time>2014-05-30T14:53:29Z</time>
      </trkpt>
      <trkpt lat="46.33604" lon="6.00152">
        <ele>1603.62</ele>
        <time>2014-05-30T14:53:30Z</time>
      </trkpt>
      <trkpt lat="46.33603" lon="6.0015">
        <ele>1604.1</ele>
        <time>2014-05-30T14:53:31Z</time>
      </trkpt>
      <trkpt lat="46.33601" lon="6.00148">
        <ele>1604.58</ele>
        <time>2014-05-30T14:53:32Z</time>
      </trkpt>
      <trkpt lat="46.33596" lon="6.00141">
        <ele>1606.02</ele>
        <time>2014-05-30T14:53:36Z</time>
      </trkpt>
      <trkpt lat="46.33594" lon="6.0014">
        <ele>1605.54</ele>
        <time>2014-05-30T14:53:37Z</time>
      </trkpt>
      <trkpt lat="46.33592" lon="6.00138">
        <ele>1605.06</ele>
        <time>2014-05-30T14:53:38Z</time>
      </trkpt>
      <trkpt lat="46.33589" lon="6.00135">
        <ele>1604.58</ele>
        <time>2014-05-30T14:53:39Z</time>
      </trkpt>
      <trkpt lat="46.33586" lon="6.00133">
        <ele>1604.58</ele>
        <time>2014-05-30T14:53:40Z</time>
      </trkpt>
      <trkpt lat="46.33565" lon="6.00124">
        <ele>1605.06</ele>
        <time>2014-05-30T14:53:51Z</time>
      </trkpt>
      <trkpt lat="46.33547" lon="6.00122">
        <ele>1604.1</ele>
        <time>2014-05-30T14:54:01Z</time>
      </trkpt>
      <trkpt lat="46.33546" lon="6.0012">
        <ele>1604.1</ele>
        <time>2014-05-30T14:54:02Z</time>
      </trkpt>
      <trkpt lat="46.33542" lon="6.00116">
        <ele>1603.62</ele>
        <time>2014-05-30T14:54:10Z</time>
      </trkpt>
      <trkpt lat="46.33535" lon="6.00111">
        <ele>1605.54</ele>
        <time>2014-05-30T14:54:21Z</time>
      </trkpt>
      <trkpt lat="46.33527" lon="6.00109">
        <ele>1606.5</ele>
        <time>2014-05-30T14:54:33Z</time>
      </trkpt>
      <trkpt lat="46.33519" lon="6.00107">
        <ele>1608.9</ele>
        <time>2014-05-30T14:54:46Z</time>
      </trkpt>
      <trkpt lat="46.33517" lon="6.00105">
        <ele>1609.86</ele>
        <time>2014-05-30T14:54:49Z</time>
      </trkpt>
      <trkpt lat="46.33515" lon="6.00102">
        <ele>1610.35</ele>
        <time>2014-05-30T14:54:51Z</time>
      </trkpt>
      <trkpt lat="46.33499" lon="6.00096">
        <ele>1611.79</ele>
        <time>2014-05-30T14:55:07Z</time>
      </trkpt>
      <trkpt lat="46.33498" lon="6.00095">
        <ele>1610.83</ele>
        <time>2014-05-30T14:55:08Z</time>
      </trkpt>
      <trkpt lat="46.33484" lon="6.00086">
        <ele>1611.31</ele>
        <time>2014-05-30T14:55:18Z</time>
      </trkpt>
      <trkpt lat="46.3346" lon="6.00079">
        <ele>1607.94</ele>
        <time>2014-05-30T14:55:29Z</time>
      </trkpt>
      <trkpt lat="46.33448" lon="6.00074">
        <ele>1604.58</ele>
        <time>2014-05-30T14:55:34Z</time>
      </trkpt>
      <trkpt lat="46.33445" lon="6.00071">
        <ele>1604.1</ele>
        <time>2014-05-30T14:55:35Z</time>
      </trkpt>
      <trkpt lat="46.33441" lon="6.00069">
        <ele>1601.69</ele>
        <time>2014-05-30T14:55:36Z</time>
      </trkpt>
      <trkpt lat="46.33426" lon="6.00063">
        <ele>1596.89</ele>
        <time>2014-05-30T14:55:39Z</time>
      </trkpt>
      <trkpt lat="46.33421" lon="6.00063">
        <ele>1595.45</ele>
        <time>2014-05-30T14:55:40Z</time>
      </trkpt>
      <trkpt lat="46.33415" lon="6.00062">
        <ele>1594.48</ele>
        <time>2014-05-30T14:55:41Z</time>
      </trkpt>
      <trkpt lat="46.33409" lon="6.0006">
        <ele>1594.48</ele>
        <time>2014-05-30T14:55:42Z</time>
      </trkpt>
      <trkpt lat="46.33403" lon="6.00057">
        <ele>1593.52</ele>
        <time>2014-05-30T14:55:43Z</time>
      </trkpt>
      <trkpt lat="46.33397" lon="6.00055">
        <ele>1592.56</ele>
        <time>2014-05-30T14:55:44Z</time>
      </trkpt>
      <trkpt lat="46.33392" lon="6.00054">
        <ele>1591.6</ele>
        <time>2014-05-30T14:55:45Z</time>
      </trkpt>
      <trkpt lat="46.33388" lon="6.00054">
        <ele>1591.6</ele>
        <time>2014-05-30T14:55:46Z</time>
      </trkpt>
      <trkpt lat="46.33385" lon="6.00053">
        <ele>1591.6</ele>
        <time>2014-05-30T14:55:47Z</time>
      </trkpt>
      <trkpt lat="46.33382" lon="6.00052">
        <ele>1591.6</ele>
        <time>2014-05-30T14:55:57Z</time>
      </trkpt>
      <trkpt lat="46.33378" lon="6.00051">
        <ele>1593.04</ele>
        <time>2014-05-30T14:56:10Z</time>
      </trkpt>
      <trkpt lat="46.33375" lon="6.00047">
        <ele>1592.56</ele>
        <time>2014-05-30T14:56:18Z</time>
      </trkpt>
      <trkpt lat="46.33375" lon="6.00046">
        <ele>1592.56</ele>
        <time>2014-05-30T14:56:19Z</time>
      </trkpt>
      <trkpt lat="46.33368" lon="6.00044">
        <ele>1592.56</ele>
        <time>2014-05-30T14:56:30Z</time>
      </trkpt>
      <trkpt lat="46.33344" lon="6.00032">
        <ele>1594</ele>
        <time>2014-05-30T14:56:42Z</time>
      </trkpt>
      <trkpt lat="46.33342" lon="6.00031">
        <ele>1593.52</ele>
        <time>2014-05-30T14:56:43Z</time>
      </trkpt>
      <trkpt lat="46.33318" lon="6.00017">
        <ele>1595.45</ele>
        <time>2014-05-30T14:56:56Z</time>
      </trkpt>
      <trkpt lat="46.33317" lon="6.00015">
        <ele>1595.45</ele>
        <time>2014-05-30T14:56:57Z</time>
      </trkpt>
      <trkpt lat="46.33316" lon="6.00013">
        <ele>1595.93</ele>
        <time>2014-05-30T14:56:58Z</time>
      </trkpt>
      <trkpt lat="46.33315" lon="6.00011">
        <ele>1595.45</ele>
        <time>2014-05-30T14:56:59Z</time>
      </trkpt>
      <trkpt lat="46.33314" lon="6.00009">
        <ele>1595.45</ele>
        <time>2014-05-30T14:57:00Z</time>
      </trkpt>
      <trkpt lat="46.33313" lon="6.00008">
        <ele>1595.93</ele>
        <time>2014-05-30T14:57:01Z</time>
      </trkpt>
      <trkpt lat="46.33308" lon="6.00007">
        <ele>1597.85</ele>
        <time>2014-05-30T14:57:09Z</time>
      </trkpt>
      <trkpt lat="46.33306" lon="6.00007">
        <ele>1597.85</ele>
        <time>2014-05-30T14:57:10Z</time>
      </trkpt>
      <trkpt lat="46.33297" lon="6.00004">
        <ele>1596.41</ele>
        <time>2014-05-30T14:57:23Z</time>
      </trkpt>
      <trkpt lat="46.33295" lon="6.00001">
        <ele>1596.41</ele>
        <time>2014-05-30T14:57:24Z</time>
      </trkpt>
      <trkpt lat="46.33286" lon="5.99996">
        <ele>1594.48</ele>
        <time>2014-05-30T14:57:27Z</time>
      </trkpt>
      <trkpt lat="46.33274" lon="5.99985">
        <ele>1591.12</ele>
        <time>2014-05-30T14:57:31Z</time>
      </trkpt>
      <trkpt lat="46.3327" lon="5.99984">
        <ele>1591.12</ele>
        <time>2014-05-30T14:57:32Z</time>
      </trkpt>
      <trkpt lat="46.33267" lon="5.99982">
        <ele>1590.16</ele>
        <time>2014-05-30T14:57:33Z</time>
      </trkpt>
      <trkpt lat="46.33263" lon="5.99979">
        <ele>1588.72</ele>
        <time>2014-05-30T14:57:34Z</time>
      </trkpt>
      <trkpt lat="46.33255" lon="5.99977">
        <ele>1585.35</ele>
        <time>2014-05-30T14:57:37Z</time>
      </trkpt>
      <trkpt lat="46.33253" lon="5.99979">
        <ele>1584.87</ele>
        <time>2014-05-30T14:57:38Z</time>
      </trkpt>
      <trkpt lat="46.33252" lon="5.99981">
        <ele>1584.39</ele>
        <time>2014-05-30T14:57:39Z</time>
      </trkpt>
      <trkpt lat="46.33242" lon="5.99983">
        <ele>1580.06</ele>
        <time>2014-05-30T14:57:46Z</time>
      </trkpt>
      <trkpt lat="46.33235" lon="5.99982">
        <ele>1577.18</ele>
        <time>2014-05-30T14:57:49Z</time>
      </trkpt>
      <trkpt lat="46.33231" lon="5.99982">
        <ele>1575.26</ele>
        <time>2014-05-30T14:57:50Z</time>
      </trkpt>
      <trkpt lat="46.33226" lon="5.99982">
        <ele>1573.33</ele>
        <time>2014-05-30T14:57:51Z</time>
      </trkpt>
      <trkpt lat="46.33218" lon="5.99985">
        <ele>1570.45</ele>
        <time>2014-05-30T14:57:53Z</time>
      </trkpt>
      <trkpt lat="46.33215" lon="5.99987">
        <ele>1568.53</ele>
        <time>2014-05-30T14:57:54Z</time>
      </trkpt>
      <trkpt lat="46.33211" lon="5.99988">
        <ele>1567.09</ele>
        <time>2014-05-30T14:57:55Z</time>
      </trkpt>
      <trkpt lat="46.33209" lon="5.99988">
        <ele>1565.64</ele>
        <time>2014-05-30T14:57:56Z</time>
      </trkpt>
      <trkpt lat="46.33205" lon="5.99988">
        <ele>1564.68</ele>
        <time>2014-05-30T14:57:57Z</time>
      </trkpt>
      <trkpt lat="46.33202" lon="5.99988">
        <ele>1563.24</ele>
        <time>2014-05-30T14:57:58Z</time>
      </trkpt>
      <trkpt lat="46.33197" lon="5.99988">
        <ele>1562.76</ele>
        <time>2014-05-30T14:57:59Z</time>
      </trkpt>
      <trkpt lat="46.33193" lon="5.99987">
        <ele>1561.32</ele>
        <time>2014-05-30T14:58:00Z</time>
      </trkpt>
      <trkpt lat="46.3318" lon="5.99985">
        <ele>1556.51</ele>
        <time>2014-05-30T14:58:02Z</time>
      </trkpt>
      <trkpt lat="46.33131" lon="5.99972">
        <ele>1554.59</ele>
        <time>2014-05-30T14:58:10Z</time>
      </trkpt>
      <trkpt lat="46.33108" lon="5.99967">
        <ele>1554.11</ele>
        <time>2014-05-30T14:58:20Z</time>
      </trkpt>
      <trkpt lat="46.33108" lon="5.99967">
        <ele>1553.63</ele>
        <time>2014-05-30T14:59:27Z</time>
      </trkpt>
      <trkpt lat="46.33105" lon="5.99965">
        <ele>1554.11</ele>
        <time>2014-05-30T15:00:27Z</time>
      </trkpt>
      <trkpt lat="46.33103" lon="5.99965">
        <ele>1554.11</ele>
        <time>2014-05-30T15:00:28Z</time>
      </trkpt>
      <trkpt lat="46.33101" lon="5.99965">
        <ele>1554.11</ele>
        <time>2014-05-30T15:00:29Z</time>
      </trkpt>
      <trkpt lat="46.33076" lon="5.99955">
        <ele>1551.71</ele>
        <time>2014-05-30T15:00:37Z</time>
      </trkpt>
      <trkpt lat="46.33072" lon="5.99953">
        <ele>1550.74</ele>
        <time>2014-05-30T15:00:38Z</time>
      </trkpt>
      <trkpt lat="46.33049" lon="5.99943">
        <ele>1552.19</ele>
        <time>2014-05-30T15:00:48Z</time>
      </trkpt>
      <trkpt lat="46.3303" lon="5.99941">
        <ele>1555.55</ele>
        <time>2014-05-30T15:00:58Z</time>
      </trkpt>
      <trkpt lat="46.33029" lon="5.99941">
        <ele>1555.55</ele>
        <time>2014-05-30T15:00:59Z</time>
      </trkpt>
      <trkpt lat="46.33027" lon="5.99942">
        <ele>1556.51</ele>
        <time>2014-05-30T15:01:07Z</time>
      </trkpt>
      <trkpt lat="46.33017" lon="5.99945">
        <ele>1557.47</ele>
        <time>2014-05-30T15:01:22Z</time>
      </trkpt>
      <trkpt lat="46.33004" lon="5.99952">
        <ele>1559.4</ele>
        <time>2014-05-30T15:01:38Z</time>
      </trkpt>
      <trkpt lat="46.32991" lon="5.99958">
        <ele>1562.76</ele>
        <time>2014-05-30T15:01:52Z</time>
      </trkpt>
      <trkpt lat="46.32978" lon="5.99964">
        <ele>1563.72</ele>
        <time>2014-05-30T15:02:06Z</time>
      </trkpt>
      <trkpt lat="46.32962" lon="5.99966">
        <ele>1565.64</ele>
        <time>2014-05-30T15:02:25Z</time>
      </trkpt>
      <trkpt lat="46.32949" lon="5.99974">
        <ele>1567.09</ele>
        <time>2014-05-30T15:02:35Z</time>
      </trkpt>
      <trkpt lat="46.32944" lon="5.99996">
        <ele>1568.05</ele>
        <time>2014-05-30T15:02:45Z</time>
      </trkpt>
      <trkpt lat="46.32939" lon="6.00004">
        <ele>1566.61</ele>
        <time>2014-05-30T15:02:47Z</time>
      </trkpt>
      <trkpt lat="46.32937" lon="6.00009">
        <ele>1566.61</ele>
        <time>2014-05-30T15:02:48Z</time>
      </trkpt>
      <trkpt lat="46.32935" lon="6.00011">
        <ele>1566.61</ele>
        <time>2014-05-30T15:02:49Z</time>
      </trkpt>
      <trkpt lat="46.32931" lon="6.00012">
        <ele>1568.05</ele>
        <time>2014-05-30T15:02:58Z</time>
      </trkpt>
      <trkpt lat="46.32929" lon="6.0001">
        <ele>1567.57</ele>
        <time>2014-05-30T15:03:02Z</time>
      </trkpt>
      <trkpt lat="46.32928" lon="6.00008">
        <ele>1568.53</ele>
        <time>2014-05-30T15:03:03Z</time>
      </trkpt>
      <trkpt lat="46.32927" lon="6.00007">
        <ele>1568.05</ele>
        <time>2014-05-30T15:03:04Z</time>
      </trkpt>
      <trkpt lat="46.32922" lon="6.00004">
        <ele>1568.53</ele>
        <time>2014-05-30T15:03:09Z</time>
      </trkpt>
      <trkpt lat="46.32914" lon="5.99996">
        <ele>1571.41</ele>
        <time>2014-05-30T15:03:21Z</time>
      </trkpt>
      <trkpt lat="46.32913" lon="5.99995">
        <ele>1571.41</ele>
        <time>2014-05-30T15:03:23Z</time>
      </trkpt>
      <trkpt lat="46.32913" lon="5.99993">
        <ele>1571.41</ele>
        <time>2014-05-30T15:03:24Z</time>
      </trkpt>
      <trkpt lat="46.3291" lon="5.99986">
        <ele>1572.85</ele>
        <time>2014-05-30T15:03:29Z</time>
      </trkpt>
      <trkpt lat="46.32905" lon="5.9997">
        <ele>1573.33</ele>
        <time>2014-05-30T15:03:40Z</time>
      </trkpt>
      <trkpt lat="46.32901" lon="5.99963">
        <ele>1572.85</ele>
        <time>2014-05-30T15:03:46Z</time>
      </trkpt>
      <trkpt lat="46.329" lon="5.99957">
        <ele>1573.33</ele>
        <time>2014-05-30T15:03:50Z</time>
      </trkpt>
      <trkpt lat="46.32892" lon="5.99938">
        <ele>1573.33</ele>
        <time>2014-05-30T15:04:07Z</time>
      </trkpt>
      <trkpt lat="46.32885" lon="5.99919">
        <ele>1574.3</ele>
        <time>2014-05-30T15:04:21Z</time>
      </trkpt>
      <trkpt lat="46.32884" lon="5.99918">
        <ele>1574.3</ele>
        <time>2014-05-30T15:04:23Z</time>
      </trkpt>
      <trkpt lat="46.32873" lon="5.99905">
        <ele>1576.22</ele>
        <time>2014-05-30T15:04:37Z</time>
      </trkpt>
      <trkpt lat="46.3286" lon="5.99896">
        <ele>1577.66</ele>
        <time>2014-05-30T15:04:53Z</time>
      </trkpt>
      <trkpt lat="46.32858" lon="5.99897">
        <ele>1577.66</ele>
        <time>2014-05-30T15:04:55Z</time>
      </trkpt>
      <trkpt lat="46.32847" lon="5.99901">
        <ele>1579.58</ele>
        <time>2014-05-30T15:05:09Z</time>
      </trkpt>
      <trkpt lat="46.32838" lon="5.99899">
        <ele>1581.03</ele>
        <time>2014-05-30T15:05:21Z</time>
      </trkpt>
      <trkpt lat="46.32829" lon="5.99896">
        <ele>1583.43</ele>
        <time>2014-05-30T15:05:31Z</time>
      </trkpt>
      <trkpt lat="46.32828" lon="5.99893">
        <ele>1583.91</ele>
        <time>2014-05-30T15:05:34Z</time>
      </trkpt>
      <trkpt lat="46.32815" lon="5.99884">
        <ele>1583.43</ele>
        <time>2014-05-30T15:05:49Z</time>
      </trkpt>
      <trkpt lat="46.3281" lon="5.99881">
        <ele>1582.95</ele>
        <time>2014-05-30T15:05:54Z</time>
      </trkpt>
      <trkpt lat="46.32797" lon="5.99881">
        <ele>1584.87</ele>
        <time>2014-05-30T15:06:06Z</time>
      </trkpt>
      <trkpt lat="46.3279" lon="5.99884">
        <ele>1586.31</ele>
        <time>2014-05-30T15:06:13Z</time>
      </trkpt>
      <trkpt lat="46.32785" lon="5.99886">
        <ele>1585.35</ele>
        <time>2014-05-30T15:06:19Z</time>
      </trkpt>
      <trkpt lat="46.3277" lon="5.99895">
        <ele>1585.83</ele>
        <time>2014-05-30T15:06:34Z</time>
      </trkpt>
      <trkpt lat="46.32762" lon="5.99897">
        <ele>1585.83</ele>
        <time>2014-05-30T15:06:41Z</time>
      </trkpt>
      <trkpt lat="46.32751" lon="5.99898">
        <ele>1586.31</ele>
        <time>2014-05-30T15:06:52Z</time>
      </trkpt>
      <trkpt lat="46.32731" lon="5.99896">
        <ele>1585.83</ele>
        <time>2014-05-30T15:07:08Z</time>
      </trkpt>
      <trkpt lat="46.32729" lon="5.99897">
        <ele>1585.83</ele>
        <time>2014-05-30T15:07:10Z</time>
      </trkpt>
      <trkpt lat="46.3271" lon="5.99877">
        <ele>1583.91</ele>
        <time>2014-05-30T15:07:23Z</time>
      </trkpt>
      <trkpt lat="46.32692" lon="5.99849">
        <ele>1583.43</ele>
        <time>2014-05-30T15:07:35Z</time>
      </trkpt>
      <trkpt lat="46.32677" lon="5.99825">
        <ele>1583.91</ele>
        <time>2014-05-30T15:07:47Z</time>
      </trkpt>
      <trkpt lat="46.32668" lon="5.9981">
        <ele>1584.39</ele>
        <time>2014-05-30T15:07:55Z</time>
      </trkpt>
      <trkpt lat="46.32662" lon="5.99799">
        <ele>1585.83</ele>
        <time>2014-05-30T15:08:01Z</time>
      </trkpt>
      <trkpt lat="46.32658" lon="5.99793">
        <ele>1585.83</ele>
        <time>2014-05-30T15:08:05Z</time>
      </trkpt>
      <trkpt lat="46.32644" lon="5.99761">
        <ele>1586.79</ele>
        <time>2014-05-30T15:08:22Z</time>
      </trkpt>
      <trkpt lat="46.32629" lon="5.99731">
        <ele>1588.24</ele>
        <time>2014-05-30T15:08:38Z</time>
      </trkpt>
      <trkpt lat="46.32625" lon="5.99723">
        <ele>1589.2</ele>
        <time>2014-05-30T15:08:42Z</time>
      </trkpt>
      <trkpt lat="46.32619" lon="5.99704">
        <ele>1591.12</ele>
        <time>2014-05-30T15:08:52Z</time>
      </trkpt>
      <trkpt lat="46.32614" lon="5.99697">
        <ele>1591.6</ele>
        <time>2014-05-30T15:08:59Z</time>
      </trkpt>
      <trkpt lat="46.32614" lon="5.99694">
        <ele>1592.08</ele>
        <time>2014-05-30T15:09:01Z</time>
      </trkpt>
      <trkpt lat="46.32612" lon="5.9969">
        <ele>1591.12</ele>
        <time>2014-05-30T15:09:04Z</time>
      </trkpt>
      <trkpt lat="46.32611" lon="5.99689">
        <ele>1590.64</ele>
        <time>2014-05-30T15:09:21Z</time>
      </trkpt>
      <trkpt lat="46.32611" lon="5.99689">
        <ele>1590.64</ele>
        <time>2014-05-30T15:10:16Z</time>
      </trkpt>
      <trkpt lat="46.32606" lon="5.99679">
        <ele>1590.16</ele>
        <time>2014-05-30T15:10:22Z</time>
      </trkpt>
      <trkpt lat="46.32594" lon="5.99648">
        <ele>1590.64</ele>
        <time>2014-05-30T15:10:36Z</time>
      </trkpt>
      <trkpt lat="46.32582" lon="5.99617">
        <ele>1592.08</ele>
        <time>2014-05-30T15:10:50Z</time>
      </trkpt>
      <trkpt lat="46.32577" lon="5.99601">
        <ele>1594</ele>
        <time>2014-05-30T15:10:58Z</time>
      </trkpt>
      <trkpt lat="46.32576" lon="5.99591">
        <ele>1594</ele>
        <time>2014-05-30T15:11:02Z</time>
      </trkpt>
      <trkpt lat="46.32577" lon="5.99578">
        <ele>1592.56</ele>
        <time>2014-05-30T15:11:07Z</time>
      </trkpt>
      <trkpt lat="46.32578" lon="5.99568">
        <ele>1593.04</ele>
        <time>2014-05-30T15:11:10Z</time>
      </trkpt>
      <trkpt lat="46.32576" lon="5.99557">
        <ele>1592.56</ele>
        <time>2014-05-30T15:11:14Z</time>
      </trkpt>
      <trkpt lat="46.32574" lon="5.99547">
        <ele>1592.56</ele>
        <time>2014-05-30T15:11:19Z</time>
      </trkpt>
      <trkpt lat="46.3257" lon="5.99521">
        <ele>1593.52</ele>
        <time>2014-05-30T15:11:29Z</time>
      </trkpt>
      <trkpt lat="46.32573" lon="5.99511">
        <ele>1592.56</ele>
        <time>2014-05-30T15:11:34Z</time>
      </trkpt>
      <trkpt lat="46.32585" lon="5.9948">
        <ele>1595.45</ele>
        <time>2014-05-30T15:11:49Z</time>
      </trkpt>
      <trkpt lat="46.32588" lon="5.99475">
        <ele>1596.41</ele>
        <time>2014-05-30T15:11:52Z</time>
      </trkpt>
      <trkpt lat="46.3259" lon="5.99468">
        <ele>1597.37</ele>
        <time>2014-05-30T15:11:56Z</time>
      </trkpt>
      <trkpt lat="46.32592" lon="5.99455">
        <ele>1596.41</ele>
        <time>2014-05-30T15:12:07Z</time>
      </trkpt>
      <trkpt lat="46.32592" lon="5.99453">
        <ele>1595.93</ele>
        <time>2014-05-30T15:12:12Z</time>
      </trkpt>
      <trkpt lat="46.32592" lon="5.99442">
        <ele>1595.45</ele>
        <time>2014-05-30T15:12:19Z</time>
      </trkpt>
      <trkpt lat="46.32593" lon="5.99436">
        <ele>1594.96</ele>
        <time>2014-05-30T15:12:23Z</time>
      </trkpt>
      <trkpt lat="46.32599" lon="5.99415">
        <ele>1594</ele>
        <time>2014-05-30T15:12:37Z</time>
      </trkpt>
      <trkpt lat="46.32604" lon="5.99399">
        <ele>1595.93</ele>
        <time>2014-05-30T15:12:48Z</time>
      </trkpt>
      <trkpt lat="46.32601" lon="5.99378">
        <ele>1596.89</ele>
        <time>2014-05-30T15:13:01Z</time>
      </trkpt>
      <trkpt lat="46.32601" lon="5.99375">
        <ele>1597.37</ele>
        <time>2014-05-30T15:13:03Z</time>
      </trkpt>
      <trkpt lat="46.32596" lon="5.99351">
        <ele>1596.41</ele>
        <time>2014-05-30T15:13:18Z</time>
      </trkpt>
      <trkpt lat="46.32592" lon="5.99331">
        <ele>1596.89</ele>
        <time>2014-05-30T15:13:32Z</time>
      </trkpt>
      <trkpt lat="46.32587" lon="5.99308">
        <ele>1598.33</ele>
        <time>2014-05-30T15:13:47Z</time>
      </trkpt>
      <trkpt lat="46.3258" lon="5.99284">
        <ele>1600.25</ele>
        <time>2014-05-30T15:14:06Z</time>
      </trkpt>
      <trkpt lat="46.32576" lon="5.99272">
        <ele>1601.69</ele>
        <time>2014-05-30T15:14:16Z</time>
      </trkpt>
      <trkpt lat="46.32571" lon="5.99258">
        <ele>1604.1</ele>
        <time>2014-05-30T15:14:27Z</time>
      </trkpt>
      <trkpt lat="46.32566" lon="5.99237">
        <ele>1605.54</ele>
        <time>2014-05-30T15:14:43Z</time>
      </trkpt>
      <trkpt lat="46.32559" lon="5.99221">
        <ele>1606.5</ele>
        <time>2014-05-30T15:14:56Z</time>
      </trkpt>
      <trkpt lat="46.32554" lon="5.99201">
        <ele>1607.94</ele>
        <time>2014-05-30T15:15:10Z</time>
      </trkpt>
      <trkpt lat="46.32542" lon="5.9918">
        <ele>1608.42</ele>
        <time>2014-05-30T15:15:26Z</time>
      </trkpt>
      <trkpt lat="46.32533" lon="5.99162">
        <ele>1609.38</ele>
        <time>2014-05-30T15:15:41Z</time>
      </trkpt>
      <trkpt lat="46.32519" lon="5.99147">
        <ele>1611.79</ele>
        <time>2014-05-30T15:15:57Z</time>
      </trkpt>
      <trkpt lat="46.32515" lon="5.99144">
        <ele>1611.79</ele>
        <time>2014-05-30T15:16:02Z</time>
      </trkpt>
      <trkpt lat="46.32513" lon="5.99142">
        <ele>1612.27</ele>
        <time>2014-05-30T15:16:05Z</time>
      </trkpt>
      <trkpt lat="46.32507" lon="5.99135">
        <ele>1613.71</ele>
        <time>2014-05-30T15:16:12Z</time>
      </trkpt>
      <trkpt lat="46.32501" lon="5.9912">
        <ele>1612.27</ele>
        <time>2014-05-30T15:16:19Z</time>
      </trkpt>
      <trkpt lat="46.32485" lon="5.99088">
        <ele>1613.71</ele>
        <time>2014-05-30T15:16:34Z</time>
      </trkpt>
      <trkpt lat="46.32482" lon="5.99086">
        <ele>1614.19</ele>
        <time>2014-05-30T15:16:36Z</time>
      </trkpt>
      <trkpt lat="46.32476" lon="5.9908">
        <ele>1614.67</ele>
        <time>2014-05-30T15:16:40Z</time>
      </trkpt>
      <trkpt lat="46.32457" lon="5.99061">
        <ele>1617.56</ele>
        <time>2014-05-30T15:16:54Z</time>
      </trkpt>
      <trkpt lat="46.32455" lon="5.99058">
        <ele>1618.04</ele>
        <time>2014-05-30T15:16:56Z</time>
      </trkpt>
      <trkpt lat="46.32447" lon="5.99052">
        <ele>1619</ele>
        <time>2014-05-30T15:17:02Z</time>
      </trkpt>
      <trkpt lat="46.3243" lon="5.99045">
        <ele>1618.52</ele>
        <time>2014-05-30T15:17:16Z</time>
      </trkpt>
      <trkpt lat="46.32427" lon="5.99043">
        <ele>1618.52</ele>
        <time>2014-05-30T15:17:18Z</time>
      </trkpt>
      <trkpt lat="46.32413" lon="5.99031">
        <ele>1620.44</ele>
        <time>2014-05-30T15:17:29Z</time>
      </trkpt>
      <trkpt lat="46.32407" lon="5.99026">
        <ele>1619.48</ele>
        <time>2014-05-30T15:17:33Z</time>
      </trkpt>
      <trkpt lat="46.32386" lon="5.9901">
        <ele>1619</ele>
        <time>2014-05-30T15:17:45Z</time>
      </trkpt>
      <trkpt lat="46.32382" lon="5.99006">
        <ele>1620.44</ele>
        <time>2014-05-30T15:17:48Z</time>
      </trkpt>
      <trkpt lat="46.32359" lon="5.99003">
        <ele>1619.96</ele>
        <time>2014-05-30T15:18:00Z</time>
      </trkpt>
      <trkpt lat="46.32333" lon="5.99012">
        <ele>1619.48</ele>
        <time>2014-05-30T15:18:13Z</time>
      </trkpt>
      <trkpt lat="46.32322" lon="5.99016">
        <ele>1619.48</ele>
        <time>2014-05-30T15:18:19Z</time>
      </trkpt>
      <trkpt lat="46.323" lon="5.99034">
        <ele>1616.59</ele>
        <time>2014-05-30T15:18:30Z</time>
      </trkpt>
      <trkpt lat="46.32276" lon="5.99053">
        <ele>1617.56</ele>
        <time>2014-05-30T15:18:43Z</time>
      </trkpt>
      <trkpt lat="46.32253" lon="5.9906">
        <ele>1618.04</ele>
        <time>2014-05-30T15:18:55Z</time>
      </trkpt>
      <trkpt lat="46.3223" lon="5.99068">
        <ele>1617.56</ele>
        <time>2014-05-30T15:19:09Z</time>
      </trkpt>
      <trkpt lat="46.32212" lon="5.99068">
        <ele>1616.11</ele>
        <time>2014-05-30T15:19:20Z</time>
      </trkpt>
      <trkpt lat="46.3219" lon="5.99072">
        <ele>1616.11</ele>
        <time>2014-05-30T15:19:32Z</time>
      </trkpt>
      <trkpt lat="46.32186" lon="5.99073">
        <ele>1616.11</ele>
        <time>2014-05-30T15:19:34Z</time>
      </trkpt>
      <trkpt lat="46.32168" lon="5.9907">
        <ele>1617.07</ele>
        <time>2014-05-30T15:19:43Z</time>
      </trkpt>
      <trkpt lat="46.32145" lon="5.99058">
        <ele>1616.59</ele>
        <time>2014-05-30T15:19:54Z</time>
      </trkpt>
      <trkpt lat="46.32122" lon="5.99058">
        <ele>1615.15</ele>
        <time>2014-05-30T15:20:05Z</time>
      </trkpt>
      <trkpt lat="46.32102" lon="5.99045">
        <ele>1617.07</ele>
        <time>2014-05-30T15:20:16Z</time>
      </trkpt>
      <trkpt lat="46.32084" lon="5.99031">
        <ele>1616.59</ele>
        <time>2014-05-30T15:20:27Z</time>
      </trkpt>
      <trkpt lat="46.32083" lon="5.9903">
        <ele>1616.11</ele>
        <time>2014-05-30T15:20:28Z</time>
      </trkpt>
      <trkpt lat="46.32062" lon="5.99021">
        <ele>1614.67</ele>
        <time>2014-05-30T15:20:40Z</time>
      </trkpt>
      <trkpt lat="46.32045" lon="5.9901">
        <ele>1614.19</ele>
        <time>2014-05-30T15:20:50Z</time>
      </trkpt>
      <trkpt lat="46.32035" lon="5.99001">
        <ele>1616.11</ele>
        <time>2014-05-30T15:20:57Z</time>
      </trkpt>
      <trkpt lat="46.3203" lon="5.98997">
        <ele>1617.56</ele>
        <time>2014-05-30T15:21:01Z</time>
      </trkpt>
      <trkpt lat="46.32028" lon="5.98994">
        <ele>1617.56</ele>
        <time>2014-05-30T15:21:03Z</time>
      </trkpt>
      <trkpt lat="46.32025" lon="5.98984">
        <ele>1618.52</ele>
        <time>2014-05-30T15:21:08Z</time>
      </trkpt>
      <trkpt lat="46.32023" lon="5.98978">
        <ele>1618.04</ele>
        <time>2014-05-30T15:21:11Z</time>
      </trkpt>
      <trkpt lat="46.32017" lon="5.98961">
        <ele>1618.52</ele>
        <time>2014-05-30T15:21:21Z</time>
      </trkpt>
      <trkpt lat="46.32015" lon="5.9895">
        <ele>1618.04</ele>
        <time>2014-05-30T15:21:26Z</time>
      </trkpt>
      <trkpt lat="46.32012" lon="5.98932">
        <ele>1618.04</ele>
        <time>2014-05-30T15:21:34Z</time>
      </trkpt>
      <trkpt lat="46.32015" lon="5.98909">
        <ele>1615.63</ele>
        <time>2014-05-30T15:21:39Z</time>
      </trkpt>
      <trkpt lat="46.32014" lon="5.98903">
        <ele>1614.67</ele>
        <time>2014-05-30T15:21:40Z</time>
      </trkpt>
      <trkpt lat="46.32005" lon="5.98868">
        <ele>1617.07</ele>
        <time>2014-05-30T15:21:51Z</time>
      </trkpt>
      <trkpt lat="46.32" lon="5.98827">
        <ele>1618.52</ele>
        <time>2014-05-30T15:22:05Z</time>
      </trkpt>
      <trkpt lat="46.31997" lon="5.9879">
        <ele>1618.52</ele>
        <time>2014-05-30T15:22:18Z</time>
      </trkpt>
      <trkpt lat="46.31995" lon="5.98761">
        <ele>1614.19</ele>
        <time>2014-05-30T15:22:23Z</time>
      </trkpt>
      <trkpt lat="46.31991" lon="5.98729">
        <ele>1616.11</ele>
        <time>2014-05-30T15:22:29Z</time>
      </trkpt>
      <trkpt lat="46.3199" lon="5.98727">
        <ele>1616.59</ele>
        <time>2014-05-30T15:22:30Z</time>
      </trkpt>
      <trkpt lat="46.31984" lon="5.98709">
        <ele>1617.56</ele>
        <time>2014-05-30T15:22:37Z</time>
      </trkpt>
      <trkpt lat="46.31984" lon="5.98706">
        <ele>1617.56</ele>
        <time>2014-05-30T15:22:38Z</time>
      </trkpt>
      <trkpt lat="46.31981" lon="5.98697">
        <ele>1616.59</ele>
        <time>2014-05-30T15:22:42Z</time>
      </trkpt>
      <trkpt lat="46.31971" lon="5.98684">
        <ele>1615.15</ele>
        <time>2014-05-30T15:22:49Z</time>
      </trkpt>
      <trkpt lat="46.31955" lon="5.98671">
        <ele>1615.63</ele>
        <time>2014-05-30T15:22:59Z</time>
      </trkpt>
      <trkpt lat="46.31945" lon="5.98665">
        <ele>1613.71</ele>
        <time>2014-05-30T15:23:03Z</time>
      </trkpt>
      <trkpt lat="46.3194" lon="5.98651">
        <ele>1612.75</ele>
        <time>2014-05-30T15:23:09Z</time>
      </trkpt>
      <trkpt lat="46.31936" lon="5.98637">
        <ele>1609.38</ele>
        <time>2014-05-30T15:23:14Z</time>
      </trkpt>
      <trkpt lat="46.31933" lon="5.98634">
        <ele>1608.9</ele>
        <time>2014-05-30T15:23:23Z</time>
      </trkpt>
      <trkpt lat="46.31926" lon="5.98614">
        <ele>1604.58</ele>
        <time>2014-05-30T15:25:06Z</time>
      </trkpt>
      <trkpt lat="46.31925" lon="5.98606">
        <ele>1600.25</ele>
        <time>2014-05-30T15:25:08Z</time>
      </trkpt>
      <trkpt lat="46.31926" lon="5.9859">
        <ele>1594.96</ele>
        <time>2014-05-30T15:25:11Z</time>
      </trkpt>
      <trkpt lat="46.31926" lon="5.98583">
        <ele>1591.12</ele>
        <time>2014-05-30T15:25:13Z</time>
      </trkpt>
      <trkpt lat="46.31926" lon="5.98581">
        <ele>1590.16</ele>
        <time>2014-05-30T15:25:15Z</time>
      </trkpt>
      <trkpt lat="46.31925" lon="5.98581">
        <ele>1590.16</ele>
        <time>2014-05-30T15:25:27Z</time>
      </trkpt>
      <trkpt lat="46.31925" lon="5.98581">
        <ele>1590.16</ele>
        <time>2014-05-30T15:25:32Z</time>
      </trkpt>
      <trkpt lat="46.31924" lon="5.98567">
        <ele>1586.79</ele>
        <time>2014-05-30T15:25:35Z</time>
      </trkpt>
      <trkpt lat="46.31923" lon="5.9856">
        <ele>1584.87</ele>
        <time>2014-05-30T15:25:36Z</time>
      </trkpt>
      <trkpt lat="46.31917" lon="5.98537">
        <ele>1580.54</ele>
        <time>2014-05-30T15:25:39Z</time>
      </trkpt>
      <trkpt lat="46.3191" lon="5.98524">
        <ele>1576.7</ele>
        <time>2014-05-30T15:25:41Z</time>
      </trkpt>
      <trkpt lat="46.31906" lon="5.98518">
        <ele>1574.3</ele>
        <time>2014-05-30T15:25:42Z</time>
      </trkpt>
      <trkpt lat="46.31897" lon="5.985">
        <ele>1569.01</ele>
        <time>2014-05-30T15:25:45Z</time>
      </trkpt>
      <trkpt lat="46.3189" lon="5.98486">
        <ele>1565.64</ele>
        <time>2014-05-30T15:25:47Z</time>
      </trkpt>
      <trkpt lat="46.31875" lon="5.98461">
        <ele>1560.36</ele>
        <time>2014-05-30T15:25:53Z</time>
      </trkpt>
      <trkpt lat="46.31875" lon="5.98454">
        <ele>1558.92</ele>
        <time>2014-05-30T15:25:55Z</time>
      </trkpt>
      <trkpt lat="46.31874" lon="5.98439">
        <ele>1553.63</ele>
        <time>2014-05-30T15:25:59Z</time>
      </trkpt>
      <trkpt lat="46.31872" lon="5.98426">
        <ele>1549.3</ele>
        <time>2014-05-30T15:26:01Z</time>
      </trkpt>
      <trkpt lat="46.3187" lon="5.98411">
        <ele>1544.01</ele>
        <time>2014-05-30T15:26:03Z</time>
      </trkpt>
      <trkpt lat="46.31865" lon="5.98396">
        <ele>1540.17</ele>
        <time>2014-05-30T15:26:05Z</time>
      </trkpt>
      <trkpt lat="46.31858" lon="5.98383">
        <ele>1534.88</ele>
        <time>2014-05-30T15:26:07Z</time>
      </trkpt>
      <trkpt lat="46.31848" lon="5.98374">
        <ele>1532.48</ele>
        <time>2014-05-30T15:26:09Z</time>
      </trkpt>
      <trkpt lat="46.31839" lon="5.98367">
        <ele>1531.04</ele>
        <time>2014-05-30T15:26:11Z</time>
      </trkpt>
      <trkpt lat="46.31837" lon="5.98352">
        <ele>1528.63</ele>
        <time>2014-05-30T15:26:15Z</time>
      </trkpt>
      <trkpt lat="46.31844" lon="5.98331">
        <ele>1524.31</ele>
        <time>2014-05-30T15:26:18Z</time>
      </trkpt>
      <trkpt lat="46.31846" lon="5.98322">
        <ele>1523.83</ele>
        <time>2014-05-30T15:26:19Z</time>
      </trkpt>
      <trkpt lat="46.31857" lon="5.98283">
        <ele>1519.02</ele>
        <time>2014-05-30T15:26:23Z</time>
      </trkpt>
      <trkpt lat="46.31862" lon="5.98273">
        <ele>1517.58</ele>
        <time>2014-05-30T15:26:24Z</time>
      </trkpt>
      <trkpt lat="46.31866" lon="5.98264">
        <ele>1515.66</ele>
        <time>2014-05-30T15:26:25Z</time>
      </trkpt>
      <trkpt lat="46.31869" lon="5.98256">
        <ele>1515.18</ele>
        <time>2014-05-30T15:26:26Z</time>
      </trkpt>
      <trkpt lat="46.31871" lon="5.98249">
        <ele>1513.25</ele>
        <time>2014-05-30T15:26:27Z</time>
      </trkpt>
      <trkpt lat="46.31872" lon="5.98243">
        <ele>1512.77</ele>
        <time>2014-05-30T15:26:28Z</time>
      </trkpt>
      <trkpt lat="46.31873" lon="5.98237">
        <ele>1512.29</ele>
        <time>2014-05-30T15:26:29Z</time>
      </trkpt>
      <trkpt lat="46.31874" lon="5.9823">
        <ele>1511.81</ele>
        <time>2014-05-30T15:26:30Z</time>
      </trkpt>
      <trkpt lat="46.31877" lon="5.98214">
        <ele>1509.89</ele>
        <time>2014-05-30T15:26:32Z</time>
      </trkpt>
      <trkpt lat="46.31877" lon="5.98205">
        <ele>1508.93</ele>
        <time>2014-05-30T15:26:33Z</time>
      </trkpt>
      <trkpt lat="46.31875" lon="5.98198">
        <ele>1508.93</ele>
        <time>2014-05-30T15:26:34Z</time>
      </trkpt>
      <trkpt lat="46.31873" lon="5.98192">
        <ele>1508.93</ele>
        <time>2014-05-30T15:26:35Z</time>
      </trkpt>
      <trkpt lat="46.31869" lon="5.98187">
        <ele>1508.45</ele>
        <time>2014-05-30T15:26:36Z</time>
      </trkpt>
      <trkpt lat="46.31865" lon="5.98183">
        <ele>1508.45</ele>
        <time>2014-05-30T15:26:37Z</time>
      </trkpt>
      <trkpt lat="46.31861" lon="5.9818">
        <ele>1508.45</ele>
        <time>2014-05-30T15:26:38Z</time>
      </trkpt>
      <trkpt lat="46.31857" lon="5.98177">
        <ele>1508.45</ele>
        <time>2014-05-30T15:26:39Z</time>
      </trkpt>
      <trkpt lat="46.31824" lon="5.98161">
        <ele>1507</ele>
        <time>2014-05-30T15:26:50Z</time>
      </trkpt>
      <trkpt lat="46.31796" lon="5.98132">
        <ele>1506.52</ele>
        <time>2014-05-30T15:27:02Z</time>
      </trkpt>
      <trkpt lat="46.31764" lon="5.98105">
        <ele>1506.04</ele>
        <time>2014-05-30T15:27:16Z</time>
      </trkpt>
      <trkpt lat="46.31738" lon="5.98092">
        <ele>1507</ele>
        <time>2014-05-30T15:27:31Z</time>
      </trkpt>
      <trkpt lat="46.31729" lon="5.98096">
        <ele>1507.48</ele>
        <time>2014-05-30T15:27:37Z</time>
      </trkpt>
      <trkpt lat="46.31728" lon="5.98098">
        <ele>1507</ele>
        <time>2014-05-30T15:27:38Z</time>
      </trkpt>
      <trkpt lat="46.31726" lon="5.981">
        <ele>1507</ele>
        <time>2014-05-30T15:27:39Z</time>
      </trkpt>
      <trkpt lat="46.31725" lon="5.98102">
        <ele>1507</ele>
        <time>2014-05-30T15:27:40Z</time>
      </trkpt>
      <trkpt lat="46.31723" lon="5.98104">
        <ele>1506.52</ele>
        <time>2014-05-30T15:27:41Z</time>
      </trkpt>
      <trkpt lat="46.31721" lon="5.98106">
        <ele>1506.52</ele>
        <time>2014-05-30T15:27:42Z</time>
      </trkpt>
      <trkpt lat="46.3172" lon="5.98108">
        <ele>1506.52</ele>
        <time>2014-05-30T15:27:43Z</time>
      </trkpt>
      <trkpt lat="46.31697" lon="5.98117">
        <ele>1505.56</ele>
        <time>2014-05-30T15:27:53Z</time>
      </trkpt>
      <trkpt lat="46.31676" lon="5.98111">
        <ele>1505.08</ele>
        <time>2014-05-30T15:28:06Z</time>
      </trkpt>
      <trkpt lat="46.31666" lon="5.98105">
        <ele>1505.08</ele>
        <time>2014-05-30T15:28:16Z</time>
      </trkpt>
      <trkpt lat="46.31665" lon="5.98104">
        <ele>1505.56</ele>
        <time>2014-05-30T15:28:17Z</time>
      </trkpt>
      <trkpt lat="46.31664" lon="5.98103">
        <ele>1505.56</ele>
        <time>2014-05-30T15:28:18Z</time>
      </trkpt>
      <trkpt lat="46.31663" lon="5.98102">
        <ele>1507.48</ele>
        <time>2014-05-30T15:28:19Z</time>
      </trkpt>
      <trkpt lat="46.31662" lon="5.98102">
        <ele>1506.52</ele>
        <time>2014-05-30T15:28:20Z</time>
      </trkpt>
      <trkpt lat="46.3166" lon="5.98101">
        <ele>1505.56</ele>
        <time>2014-05-30T15:28:21Z</time>
      </trkpt>
      <trkpt lat="46.31659" lon="5.98101">
        <ele>1505.56</ele>
        <time>2014-05-30T15:28:22Z</time>
      </trkpt>
      <trkpt lat="46.31658" lon="5.981">
        <ele>1505.56</ele>
        <time>2014-05-30T15:28:23Z</time>
      </trkpt>
      <trkpt lat="46.31657" lon="5.98099">
        <ele>1505.56</ele>
        <time>2014-05-30T15:28:24Z</time>
      </trkpt>
      <trkpt lat="46.31656" lon="5.98099">
        <ele>1505.08</ele>
        <time>2014-05-30T15:28:25Z</time>
      </trkpt>
      <trkpt lat="46.31654" lon="5.98097">
        <ele>1505.08</ele>
        <time>2014-05-30T15:28:38Z</time>
      </trkpt>
      <trkpt lat="46.31652" lon="5.98097">
        <ele>1505.08</ele>
        <time>2014-05-30T15:30:11Z</time>
      </trkpt>
      <trkpt lat="46.3165" lon="5.98096">
        <ele>1505.56</ele>
        <time>2014-05-30T15:30:12Z</time>
      </trkpt>
      <trkpt lat="46.31648" lon="5.98096">
        <ele>1505.08</ele>
        <time>2014-05-30T15:30:13Z</time>
      </trkpt>
      <trkpt lat="46.31646" lon="5.98093">
        <ele>1505.08</ele>
        <time>2014-05-30T15:30:25Z</time>
      </trkpt>
      <trkpt lat="46.31623" lon="5.98093">
        <ele>1503.64</ele>
        <time>2014-05-30T15:31:10Z</time>
      </trkpt>
      <trkpt lat="46.31615" lon="5.98093">
        <ele>1503.16</ele>
        <time>2014-05-30T15:31:12Z</time>
      </trkpt>
      <trkpt lat="46.31611" lon="5.98093">
        <ele>1502.68</ele>
        <time>2014-05-30T15:31:13Z</time>
      </trkpt>
      <trkpt lat="46.31566" lon="5.98082">
        <ele>1499.79</ele>
        <time>2014-05-30T15:31:22Z</time>
      </trkpt>
      <trkpt lat="46.31561" lon="5.98079">
        <ele>1499.79</ele>
        <time>2014-05-30T15:31:23Z</time>
      </trkpt>
      <trkpt lat="46.31557" lon="5.98073">
        <ele>1498.83</ele>
        <time>2014-05-30T15:31:24Z</time>
      </trkpt>
      <trkpt lat="46.31554" lon="5.98065">
        <ele>1498.35</ele>
        <time>2014-05-30T15:31:25Z</time>
      </trkpt>
      <trkpt lat="46.31553" lon="5.98057">
        <ele>1498.35</ele>
        <time>2014-05-30T15:31:26Z</time>
      </trkpt>
      <trkpt lat="46.3155" lon="5.98041">
        <ele>1497.39</ele>
        <time>2014-05-30T15:31:28Z</time>
      </trkpt>
      <trkpt lat="46.31548" lon="5.98033">
        <ele>1497.87</ele>
        <time>2014-05-30T15:31:29Z</time>
      </trkpt>
      <trkpt lat="46.31547" lon="5.98025">
        <ele>1497.39</ele>
        <time>2014-05-30T15:31:30Z</time>
      </trkpt>
      <trkpt lat="46.31547" lon="5.98008">
        <ele>1497.39</ele>
        <time>2014-05-30T15:31:32Z</time>
      </trkpt>
      <trkpt lat="46.31545" lon="5.98002">
        <ele>1497.39</ele>
        <time>2014-05-30T15:31:33Z</time>
      </trkpt>
      <trkpt lat="46.31543" lon="5.97997">
        <ele>1497.87</ele>
        <time>2014-05-30T15:31:34Z</time>
      </trkpt>
      <trkpt lat="46.31515" lon="5.97983">
        <ele>1499.79</ele>
        <time>2014-05-30T15:31:45Z</time>
      </trkpt>
      <trkpt lat="46.31473" lon="5.97969">
        <ele>1502.68</ele>
        <time>2014-05-30T15:32:01Z</time>
      </trkpt>
      <trkpt lat="46.31438" lon="5.97965">
        <ele>1504.12</ele>
        <time>2014-05-30T15:32:13Z</time>
      </trkpt>
      <trkpt lat="46.31413" lon="5.97933">
        <ele>1506.52</ele>
        <time>2014-05-30T15:32:26Z</time>
      </trkpt>
      <trkpt lat="46.31379" lon="5.97881">
        <ele>1509.41</ele>
        <time>2014-05-30T15:32:44Z</time>
      </trkpt>
      <trkpt lat="46.31359" lon="5.9783">
        <ele>1511.33</ele>
        <time>2014-05-30T15:32:58Z</time>
      </trkpt>
      <trkpt lat="46.31336" lon="5.97792">
        <ele>1514.21</ele>
        <time>2014-05-30T15:33:11Z</time>
      </trkpt>
      <trkpt lat="46.31316" lon="5.97731">
        <ele>1515.18</ele>
        <time>2014-05-30T15:33:27Z</time>
      </trkpt>
      <trkpt lat="46.31287" lon="5.97701">
        <ele>1515.18</ele>
        <time>2014-05-30T15:33:37Z</time>
      </trkpt>
      <trkpt lat="46.31283" lon="5.97702">
        <ele>1515.18</ele>
        <time>2014-05-30T15:33:38Z</time>
      </trkpt>
      <trkpt lat="46.31279" lon="5.97703">
        <ele>1515.18</ele>
        <time>2014-05-30T15:33:39Z</time>
      </trkpt>
      <trkpt lat="46.31255" lon="5.97716">
        <ele>1514.21</ele>
        <time>2014-05-30T15:33:44Z</time>
      </trkpt>
      <trkpt lat="46.3124" lon="5.9773">
        <ele>1513.25</ele>
        <time>2014-05-30T15:33:47Z</time>
      </trkpt>
      <trkpt lat="46.31222" lon="5.97752">
        <ele>1513.73</ele>
        <time>2014-05-30T15:33:51Z</time>
      </trkpt>
      <trkpt lat="46.31217" lon="5.97755">
        <ele>1512.77</ele>
        <time>2014-05-30T15:33:52Z</time>
      </trkpt>
      <trkpt lat="46.31211" lon="5.97757">
        <ele>1512.77</ele>
        <time>2014-05-30T15:33:53Z</time>
      </trkpt>
      <trkpt lat="46.31205" lon="5.97757">
        <ele>1512.77</ele>
        <time>2014-05-30T15:33:54Z</time>
      </trkpt>
      <trkpt lat="46.31199" lon="5.97756">
        <ele>1512.29</ele>
        <time>2014-05-30T15:33:55Z</time>
      </trkpt>
      <trkpt lat="46.31193" lon="5.97754">
        <ele>1512.29</ele>
        <time>2014-05-30T15:33:56Z</time>
      </trkpt>
      <trkpt lat="46.31187" lon="5.97752">
        <ele>1511.81</ele>
        <time>2014-05-30T15:33:57Z</time>
      </trkpt>
      <trkpt lat="46.31124" lon="5.97722">
        <ele>1508.93</ele>
        <time>2014-05-30T15:34:06Z</time>
      </trkpt>
      <trkpt lat="46.31116" lon="5.97719">
        <ele>1508.93</ele>
        <time>2014-05-30T15:34:07Z</time>
      </trkpt>
      <trkpt lat="46.31035" lon="5.97683">
        <ele>1505.56</ele>
        <time>2014-05-30T15:34:17Z</time>
      </trkpt>
      <trkpt lat="46.30965" lon="5.97646">
        <ele>1502.2</ele>
        <time>2014-05-30T15:34:25Z</time>
      </trkpt>
      <trkpt lat="46.30922" lon="5.97617">
        <ele>1500.27</ele>
        <time>2014-05-30T15:34:30Z</time>
      </trkpt>
      <trkpt lat="46.30904" lon="5.97607">
        <ele>1500.27</ele>
        <time>2014-05-30T15:34:32Z</time>
      </trkpt>
      <trkpt lat="46.30836" lon="5.97562">
        <ele>1499.31</ele>
        <time>2014-05-30T15:34:41Z</time>
      </trkpt>
      <trkpt lat="46.30788" lon="5.97534">
        <ele>1497.87</ele>
        <time>2014-05-30T15:34:47Z</time>
      </trkpt>
      <trkpt lat="46.3078" lon="5.97531">
        <ele>1497.87</ele>
        <time>2014-05-30T15:34:48Z</time>
      </trkpt>
      <trkpt lat="46.30772" lon="5.97526">
        <ele>1497.39</ele>
        <time>2014-05-30T15:34:49Z</time>
      </trkpt>
      <trkpt lat="46.30764" lon="5.97521">
        <ele>1497.39</ele>
        <time>2014-05-30T15:34:50Z</time>
      </trkpt>
      <trkpt lat="46.30757" lon="5.97516">
        <ele>1496.91</ele>
        <time>2014-05-30T15:34:51Z</time>
      </trkpt>
      <trkpt lat="46.30749" lon="5.97511">
        <ele>1496.43</ele>
        <time>2014-05-30T15:34:52Z</time>
      </trkpt>
      <trkpt lat="46.30742" lon="5.97505">
        <ele>1496.43</ele>
        <time>2014-05-30T15:34:53Z</time>
      </trkpt>
      <trkpt lat="46.3071" lon="5.97482">
        <ele>1494.51</ele>
        <time>2014-05-30T15:34:57Z</time>
      </trkpt>
      <trkpt lat="46.30685" lon="5.97469">
        <ele>1493.06</ele>
        <time>2014-05-30T15:35:00Z</time>
      </trkpt>
      <trkpt lat="46.3067" lon="5.97458">
        <ele>1494.03</ele>
        <time>2014-05-30T15:35:02Z</time>
      </trkpt>
      <trkpt lat="46.30646" lon="5.97435">
        <ele>1495.95</ele>
        <time>2014-05-30T15:35:06Z</time>
      </trkpt>
      <trkpt lat="46.3064" lon="5.9743">
        <ele>1496.43</ele>
        <time>2014-05-30T15:35:07Z</time>
      </trkpt>
      <trkpt lat="46.30634" lon="5.97426">
        <ele>1496.91</ele>
        <time>2014-05-30T15:35:08Z</time>
      </trkpt>
      <trkpt lat="46.30614" lon="5.97409">
        <ele>1499.31</ele>
        <time>2014-05-30T15:35:12Z</time>
      </trkpt>
      <trkpt lat="46.3061" lon="5.97404">
        <ele>1500.27</ele>
        <time>2014-05-30T15:35:13Z</time>
      </trkpt>
      <trkpt lat="46.30586" lon="5.97374">
        <ele>1503.64</ele>
        <time>2014-05-30T15:35:20Z</time>
      </trkpt>
      <trkpt lat="46.30575" lon="5.97366">
        <ele>1503.64</ele>
        <time>2014-05-30T15:35:23Z</time>
      </trkpt>
      <trkpt lat="46.30571" lon="5.97365">
        <ele>1504.6</ele>
        <time>2014-05-30T15:35:24Z</time>
      </trkpt>
      <trkpt lat="46.30563" lon="5.97361">
        <ele>1504.6</ele>
        <time>2014-05-30T15:35:26Z</time>
      </trkpt>
      <trkpt lat="46.30501" lon="5.97351">
        <ele>1502.68</ele>
        <time>2014-05-30T15:35:37Z</time>
      </trkpt>
      <trkpt lat="46.30496" lon="5.97352">
        <ele>1502.68</ele>
        <time>2014-05-30T15:35:38Z</time>
      </trkpt>
      <trkpt lat="46.30493" lon="5.97353">
        <ele>1503.16</ele>
        <time>2014-05-30T15:35:39Z</time>
      </trkpt>
      <trkpt lat="46.30489" lon="5.97355">
        <ele>1503.16</ele>
        <time>2014-05-30T15:35:40Z</time>
      </trkpt>
      <trkpt lat="46.30487" lon="5.97356">
        <ele>1503.64</ele>
        <time>2014-05-30T15:35:41Z</time>
      </trkpt>
      <trkpt lat="46.30484" lon="5.97357">
        <ele>1504.12</ele>
        <time>2014-05-30T15:35:42Z</time>
      </trkpt>
      <trkpt lat="46.30482" lon="5.97358">
        <ele>1504.12</ele>
        <time>2014-05-30T15:35:43Z</time>
      </trkpt>
      <trkpt lat="46.30481" lon="5.97359">
        <ele>1505.08</ele>
        <time>2014-05-30T15:35:44Z</time>
      </trkpt>
      <trkpt lat="46.30479" lon="5.97361">
        <ele>1505.08</ele>
        <time>2014-05-30T15:35:45Z</time>
      </trkpt>
      <trkpt lat="46.30463" lon="5.97371">
        <ele>1508.45</ele>
        <time>2014-05-30T15:35:56Z</time>
      </trkpt>
      <trkpt lat="46.30445" lon="5.97382">
        <ele>1511.33</ele>
        <time>2014-05-30T15:36:09Z</time>
      </trkpt>
      <trkpt lat="46.30427" lon="5.97394">
        <ele>1511.33</ele>
        <time>2014-05-30T15:36:20Z</time>
      </trkpt>
      <trkpt lat="46.30413" lon="5.97404">
        <ele>1512.29</ele>
        <time>2014-05-30T15:36:31Z</time>
      </trkpt>
      <trkpt lat="46.30412" lon="5.97405">
        <ele>1512.29</ele>
        <time>2014-05-30T15:36:32Z</time>
      </trkpt>
      <trkpt lat="46.30393" lon="5.97409">
        <ele>1514.69</ele>
        <time>2014-05-30T15:36:46Z</time>
      </trkpt>
      <trkpt lat="46.30383" lon="5.97407">
        <ele>1516.14</ele>
        <time>2014-05-30T15:36:54Z</time>
      </trkpt>
      <trkpt lat="46.30381" lon="5.97407">
        <ele>1516.62</ele>
        <time>2014-05-30T15:36:55Z</time>
      </trkpt>
      <trkpt lat="46.30363" lon="5.97402">
        <ele>1518.54</ele>
        <time>2014-05-30T15:37:09Z</time>
      </trkpt>
      <trkpt lat="46.30342" lon="5.9739">
        <ele>1521.9</ele>
        <time>2014-05-30T15:37:23Z</time>
      </trkpt>
      <trkpt lat="46.30333" lon="5.97384">
        <ele>1523.83</ele>
        <time>2014-05-30T15:37:29Z</time>
      </trkpt>
      <trkpt lat="46.30331" lon="5.97384">
        <ele>1523.35</ele>
        <time>2014-05-30T15:37:30Z</time>
      </trkpt>
      <trkpt lat="46.30329" lon="5.97384">
        <ele>1523.35</ele>
        <time>2014-05-30T15:37:31Z</time>
      </trkpt>
      <trkpt lat="46.30328" lon="5.97384">
        <ele>1523.83</ele>
        <time>2014-05-30T15:37:32Z</time>
      </trkpt>
      <trkpt lat="46.30327" lon="5.97383">
        <ele>1524.31</ele>
        <time>2014-05-30T15:37:33Z</time>
      </trkpt>
      <trkpt lat="46.30325" lon="5.97383">
        <ele>1524.31</ele>
        <time>2014-05-30T15:37:34Z</time>
      </trkpt>
      <trkpt lat="46.30321" lon="5.97384">
        <ele>1524.79</ele>
        <time>2014-05-30T15:37:37Z</time>
      </trkpt>
      <trkpt lat="46.30319" lon="5.97385">
        <ele>1525.27</ele>
        <time>2014-05-30T15:37:38Z</time>
      </trkpt>
      <trkpt lat="46.30318" lon="5.97385">
        <ele>1526.23</ele>
        <time>2014-05-30T15:37:39Z</time>
      </trkpt>
      <trkpt lat="46.30316" lon="5.97386">
        <ele>1526.23</ele>
        <time>2014-05-30T15:37:40Z</time>
      </trkpt>
      <trkpt lat="46.30315" lon="5.97388">
        <ele>1526.23</ele>
        <time>2014-05-30T15:37:41Z</time>
      </trkpt>
      <trkpt lat="46.30313" lon="5.97389">
        <ele>1526.71</ele>
        <time>2014-05-30T15:37:42Z</time>
      </trkpt>
      <trkpt lat="46.30311" lon="5.9739">
        <ele>1527.19</ele>
        <time>2014-05-30T15:37:43Z</time>
      </trkpt>
      <trkpt lat="46.30303" lon="5.97396">
        <ele>1529.11</ele>
        <time>2014-05-30T15:37:49Z</time>
      </trkpt>
      <trkpt lat="46.30294" lon="5.97403">
        <ele>1530.56</ele>
        <time>2014-05-30T15:37:56Z</time>
      </trkpt>
      <trkpt lat="46.30292" lon="5.97404">
        <ele>1530.08</ele>
        <time>2014-05-30T15:37:57Z</time>
      </trkpt>
      <trkpt lat="46.3029" lon="5.97405">
        <ele>1530.08</ele>
        <time>2014-05-30T15:37:58Z</time>
      </trkpt>
      <trkpt lat="46.30289" lon="5.97406">
        <ele>1530.56</ele>
        <time>2014-05-30T15:37:59Z</time>
      </trkpt>
      <trkpt lat="46.30287" lon="5.97407">
        <ele>1530.56</ele>
        <time>2014-05-30T15:38:00Z</time>
      </trkpt>
      <trkpt lat="46.30286" lon="5.97408">
        <ele>1530.56</ele>
        <time>2014-05-30T15:38:01Z</time>
      </trkpt>
      <trkpt lat="46.30284" lon="5.97409">
        <ele>1530.56</ele>
        <time>2014-05-30T15:38:02Z</time>
      </trkpt>
      <trkpt lat="46.30282" lon="5.9741">
        <ele>1531.04</ele>
        <time>2014-05-30T15:38:03Z</time>
      </trkpt>
      <trkpt lat="46.30281" lon="5.9741">
        <ele>1530.56</ele>
        <time>2014-05-30T15:38:04Z</time>
      </trkpt>
      <trkpt lat="46.30279" lon="5.97411">
        <ele>1530.56</ele>
        <time>2014-05-30T15:38:05Z</time>
      </trkpt>
      <trkpt lat="46.30256" lon="5.9743">
        <ele>1531.04</ele>
        <time>2014-05-30T15:38:18Z</time>
      </trkpt>
      <trkpt lat="46.30231" lon="5.9744">
        <ele>1531.04</ele>
        <time>2014-05-30T15:38:29Z</time>
      </trkpt>
      <trkpt lat="46.30201" lon="5.9745">
        <ele>1530.56</ele>
        <time>2014-05-30T15:38:43Z</time>
      </trkpt>
      <trkpt lat="46.30198" lon="5.97452">
        <ele>1531.04</ele>
        <time>2014-05-30T15:38:45Z</time>
      </trkpt>
      <trkpt lat="46.30196" lon="5.97454">
        <ele>1531.04</ele>
        <time>2014-05-30T15:38:46Z</time>
      </trkpt>
      <trkpt lat="46.30194" lon="5.97456">
        <ele>1531.04</ele>
        <time>2014-05-30T15:38:47Z</time>
      </trkpt>
      <trkpt lat="46.30192" lon="5.97457">
        <ele>1531.04</ele>
        <time>2014-05-30T15:38:48Z</time>
      </trkpt>
      <trkpt lat="46.30191" lon="5.97458">
        <ele>1531.04</ele>
        <time>2014-05-30T15:38:49Z</time>
      </trkpt>
      <trkpt lat="46.30189" lon="5.9746">
        <ele>1531.52</ele>
        <time>2014-05-30T15:38:50Z</time>
      </trkpt>
      <trkpt lat="46.30187" lon="5.97461">
        <ele>1531.04</ele>
        <time>2014-05-30T15:38:51Z</time>
      </trkpt>
      <trkpt lat="46.30168" lon="5.97468">
        <ele>1530.56</ele>
        <time>2014-05-30T15:38:58Z</time>
      </trkpt>
      <trkpt lat="46.30163" lon="5.97466">
        <ele>1530.08</ele>
        <time>2014-05-30T15:38:59Z</time>
      </trkpt>
      <trkpt lat="46.3015" lon="5.9746">
        <ele>1527.67</ele>
        <time>2014-05-30T15:39:01Z</time>
      </trkpt>
      <trkpt lat="46.30144" lon="5.97454">
        <ele>1527.67</ele>
        <time>2014-05-30T15:39:02Z</time>
      </trkpt>
      <trkpt lat="46.30138" lon="5.97448">
        <ele>1526.71</ele>
        <time>2014-05-30T15:39:03Z</time>
      </trkpt>
      <trkpt lat="46.30133" lon="5.9744">
        <ele>1526.71</ele>
        <time>2014-05-30T15:39:04Z</time>
      </trkpt>
      <trkpt lat="46.30128" lon="5.97432">
        <ele>1526.71</ele>
        <time>2014-05-30T15:39:05Z</time>
      </trkpt>
      <trkpt lat="46.30125" lon="5.97423">
        <ele>1525.75</ele>
        <time>2014-05-30T15:39:06Z</time>
      </trkpt>
      <trkpt lat="46.30123" lon="5.97413">
        <ele>1525.27</ele>
        <time>2014-05-30T15:39:07Z</time>
      </trkpt>
      <trkpt lat="46.30121" lon="5.97403">
        <ele>1524.79</ele>
        <time>2014-05-30T15:39:08Z</time>
      </trkpt>
      <trkpt lat="46.30118" lon="5.97386">
        <ele>1524.79</ele>
        <time>2014-05-30T15:39:10Z</time>
      </trkpt>
      <trkpt lat="46.30115" lon="5.97378">
        <ele>1525.27</ele>
        <time>2014-05-30T15:39:11Z</time>
      </trkpt>
      <trkpt lat="46.30113" lon="5.9737">
        <ele>1524.79</ele>
        <time>2014-05-30T15:39:12Z</time>
      </trkpt>
      <trkpt lat="46.30111" lon="5.97361">
        <ele>1523.83</ele>
        <time>2014-05-30T15:39:13Z</time>
      </trkpt>
      <trkpt lat="46.30109" lon="5.97352">
        <ele>1523.83</ele>
        <time>2014-05-30T15:39:14Z</time>
      </trkpt>
      <trkpt lat="46.30107" lon="5.97344">
        <ele>1524.31</ele>
        <time>2014-05-30T15:39:15Z</time>
      </trkpt>
      <trkpt lat="46.30104" lon="5.97336">
        <ele>1523.35</ele>
        <time>2014-05-30T15:39:16Z</time>
      </trkpt>
      <trkpt lat="46.30101" lon="5.97328">
        <ele>1523.35</ele>
        <time>2014-05-30T15:39:17Z</time>
      </trkpt>
      <trkpt lat="46.30097" lon="5.9732">
        <ele>1523.35</ele>
        <time>2014-05-30T15:39:18Z</time>
      </trkpt>
      <trkpt lat="46.30094" lon="5.97312">
        <ele>1523.35</ele>
        <time>2014-05-30T15:39:19Z</time>
      </trkpt>
      <trkpt lat="46.3009" lon="5.97305">
        <ele>1523.35</ele>
        <time>2014-05-30T15:39:20Z</time>
      </trkpt>
      <trkpt lat="46.30086" lon="5.97299">
        <ele>1523.83</ele>
        <time>2014-05-30T15:39:21Z</time>
      </trkpt>
      <trkpt lat="46.30081" lon="5.97295">
        <ele>1524.31</ele>
        <time>2014-05-30T15:39:22Z</time>
      </trkpt>
      <trkpt lat="46.30076" lon="5.97292">
        <ele>1523.83</ele>
        <time>2014-05-30T15:39:23Z</time>
      </trkpt>
      <trkpt lat="46.30071" lon="5.97289">
        <ele>1523.83</ele>
        <time>2014-05-30T15:39:24Z</time>
      </trkpt>
      <trkpt lat="46.30065" lon="5.97285">
        <ele>1523.35</ele>
        <time>2014-05-30T15:39:25Z</time>
      </trkpt>
      <trkpt lat="46.3006" lon="5.9728">
        <ele>1523.35</ele>
        <time>2014-05-30T15:39:26Z</time>
      </trkpt>
      <trkpt lat="46.30055" lon="5.97275">
        <ele>1522.87</ele>
        <time>2014-05-30T15:39:27Z</time>
      </trkpt>
      <trkpt lat="46.30049" lon="5.97269">
        <ele>1522.87</ele>
        <time>2014-05-30T15:39:28Z</time>
      </trkpt>
      <trkpt lat="46.30044" lon="5.97263">
        <ele>1522.39</ele>
        <time>2014-05-30T15:39:29Z</time>
      </trkpt>
      <trkpt lat="46.30039" lon="5.97257">
        <ele>1521.9</ele>
        <time>2014-05-30T15:39:30Z</time>
      </trkpt>
      <trkpt lat="46.30023" lon="5.9724">
        <ele>1522.39</ele>
        <time>2014-05-30T15:39:33Z</time>
      </trkpt>
      <trkpt lat="46.29994" lon="5.97214">
        <ele>1519.5</ele>
        <time>2014-05-30T15:39:37Z</time>
      </trkpt>
      <trkpt lat="46.29987" lon="5.97208">
        <ele>1519.02</ele>
        <time>2014-05-30T15:39:38Z</time>
      </trkpt>
      <trkpt lat="46.29936" lon="5.9716">
        <ele>1517.58</ele>
        <time>2014-05-30T15:39:45Z</time>
      </trkpt>
      <trkpt lat="46.29879" lon="5.97097">
        <ele>1513.25</ele>
        <time>2014-05-30T15:39:52Z</time>
      </trkpt>
      <trkpt lat="46.29818" lon="5.97031">
        <ele>1511.33</ele>
        <time>2014-05-30T15:39:59Z</time>
      </trkpt>
      <trkpt lat="46.29809" lon="5.97025">
        <ele>1510.85</ele>
        <time>2014-05-30T15:40:00Z</time>
      </trkpt>
      <trkpt lat="46.29752" lon="5.9698">
        <ele>1510.85</ele>
        <time>2014-05-30T15:40:07Z</time>
      </trkpt>
      <trkpt lat="46.29735" lon="5.96968">
        <ele>1509.89</ele>
        <time>2014-05-30T15:40:09Z</time>
      </trkpt>
      <trkpt lat="46.29727" lon="5.96958">
        <ele>1507.97</ele>
        <time>2014-05-30T15:40:10Z</time>
      </trkpt>
      <trkpt lat="46.2972" lon="5.96948">
        <ele>1507</ele>
        <time>2014-05-30T15:40:11Z</time>
      </trkpt>
      <trkpt lat="46.29715" lon="5.9694">
        <ele>1507</ele>
        <time>2014-05-30T15:40:12Z</time>
      </trkpt>
      <trkpt lat="46.29709" lon="5.96935">
        <ele>1507</ele>
        <time>2014-05-30T15:40:13Z</time>
      </trkpt>
      <trkpt lat="46.29703" lon="5.96932">
        <ele>1507.48</ele>
        <time>2014-05-30T15:40:14Z</time>
      </trkpt>
      <trkpt lat="46.29691" lon="5.96922">
        <ele>1510.85</ele>
        <time>2014-05-30T15:40:18Z</time>
      </trkpt>
      <trkpt lat="46.29666" lon="5.96906">
        <ele>1511.33</ele>
        <time>2014-05-30T15:40:29Z</time>
      </trkpt>
      <trkpt lat="46.29662" lon="5.96903">
        <ele>1511.33</ele>
        <time>2014-05-30T15:40:30Z</time>
      </trkpt>
      <trkpt lat="46.29649" lon="5.96888">
        <ele>1509.41</ele>
        <time>2014-05-30T15:40:34Z</time>
      </trkpt>
      <trkpt lat="46.29631" lon="5.96859">
        <ele>1506.04</ele>
        <time>2014-05-30T15:40:38Z</time>
      </trkpt>
      <trkpt lat="46.29617" lon="5.96839">
        <ele>1501.24</ele>
        <time>2014-05-30T15:40:40Z</time>
      </trkpt>
      <trkpt lat="46.29603" lon="5.96816">
        <ele>1498.35</ele>
        <time>2014-05-30T15:40:42Z</time>
      </trkpt>
      <trkpt lat="46.29597" lon="5.96805">
        <ele>1496.91</ele>
        <time>2014-05-30T15:40:43Z</time>
      </trkpt>
      <trkpt lat="46.29592" lon="5.96792">
        <ele>1493.55</ele>
        <time>2014-05-30T15:40:44Z</time>
      </trkpt>
      <trkpt lat="46.29588" lon="5.96778">
        <ele>1491.62</ele>
        <time>2014-05-30T15:40:45Z</time>
      </trkpt>
      <trkpt lat="46.29583" lon="5.96763">
        <ele>1490.18</ele>
        <time>2014-05-30T15:40:46Z</time>
      </trkpt>
      <trkpt lat="46.29578" lon="5.96749">
        <ele>1489.22</ele>
        <time>2014-05-30T15:40:47Z</time>
      </trkpt>
      <trkpt lat="46.29573" lon="5.96735">
        <ele>1487.78</ele>
        <time>2014-05-30T15:40:48Z</time>
      </trkpt>
      <trkpt lat="46.29561" lon="5.96707">
        <ele>1483.93</ele>
        <time>2014-05-30T15:40:50Z</time>
      </trkpt>
      <trkpt lat="46.29555" lon="5.96691">
        <ele>1482.97</ele>
        <time>2014-05-30T15:40:51Z</time>
      </trkpt>
      <trkpt lat="46.29551" lon="5.96674">
        <ele>1482.97</ele>
        <time>2014-05-30T15:40:52Z</time>
      </trkpt>
      <trkpt lat="46.29542" lon="5.96666">
        <ele>1482.01</ele>
        <time>2014-05-30T15:40:53Z</time>
      </trkpt>
      <trkpt lat="46.29495" lon="5.96619">
        <ele>1482.97</ele>
        <time>2014-05-30T15:41:01Z</time>
      </trkpt>
      <trkpt lat="46.29478" lon="5.96596">
        <ele>1482.01</ele>
        <time>2014-05-30T15:41:05Z</time>
      </trkpt>
      <trkpt lat="46.29474" lon="5.96591">
        <ele>1481.53</ele>
        <time>2014-05-30T15:41:06Z</time>
      </trkpt>
      <trkpt lat="46.29466" lon="5.96579">
        <ele>1480.57</ele>
        <time>2014-05-30T15:41:09Z</time>
      </trkpt>
      <trkpt lat="46.29464" lon="5.96579">
        <ele>1480.57</ele>
        <time>2014-05-30T15:41:10Z</time>
      </trkpt>
      <trkpt lat="46.29464" lon="5.9658">
        <ele>1480.57</ele>
        <time>2014-05-30T15:41:23Z</time>
      </trkpt>
      <trkpt lat="46.29464" lon="5.96579">
        <ele>1480.57</ele>
        <time>2014-05-30T15:42:27Z</time>
      </trkpt>
      <trkpt lat="46.29464" lon="5.96576">
        <ele>1480.57</ele>
        <time>2014-05-30T15:42:28Z</time>
      </trkpt>
      <trkpt lat="46.29464" lon="5.96573">
        <ele>1480.57</ele>
        <time>2014-05-30T15:42:29Z</time>
      </trkpt>
      <trkpt lat="46.29469" lon="5.96561">
        <ele>1478.65</ele>
        <time>2014-05-30T15:42:33Z</time>
      </trkpt>
      <trkpt lat="46.29469" lon="5.96557">
        <ele>1478.16</ele>
        <time>2014-05-30T15:42:34Z</time>
      </trkpt>
      <trkpt lat="46.29468" lon="5.96553">
        <ele>1477.68</ele>
        <time>2014-05-30T15:42:35Z</time>
      </trkpt>
      <trkpt lat="46.29467" lon="5.96549">
        <ele>1477.2</ele>
        <time>2014-05-30T15:42:36Z</time>
      </trkpt>
      <trkpt lat="46.29466" lon="5.96545">
        <ele>1476.72</ele>
        <time>2014-05-30T15:42:37Z</time>
      </trkpt>
      <trkpt lat="46.29464" lon="5.96542">
        <ele>1475.76</ele>
        <time>2014-05-30T15:42:38Z</time>
      </trkpt>
      <trkpt lat="46.29448" lon="5.96528">
        <ele>1472.4</ele>
        <time>2014-05-30T15:42:45Z</time>
      </trkpt>
      <trkpt lat="46.29444" lon="5.96522">
        <ele>1472.4</ele>
        <time>2014-05-30T15:42:48Z</time>
      </trkpt>
      <trkpt lat="46.29444" lon="5.9652">
        <ele>1471.92</ele>
        <time>2014-05-30T15:42:49Z</time>
      </trkpt>
      <trkpt lat="46.29444" lon="5.96519">
        <ele>1468.07</ele>
        <time>2014-05-30T15:42:58Z</time>
      </trkpt>
      <trkpt lat="46.29444" lon="5.96519">
        <ele>1472.4</ele>
        <time>2014-05-30T15:42:59Z</time>
      </trkpt>
      <trkpt lat="46.29444" lon="5.96519">
        <ele>1467.59</ele>
        <time>2014-05-30T15:43:13Z</time>
      </trkpt>
      <trkpt lat="46.29444" lon="5.96519">
        <ele>1473.84</ele>
        <time>2014-05-30T15:43:14Z</time>
      </trkpt>
      <trkpt lat="46.29447" lon="5.96504">
        <ele>1470.47</ele>
        <time>2014-05-30T15:43:59Z</time>
      </trkpt>
      <trkpt lat="46.29459" lon="5.96469">
        <ele>1466.63</ele>
        <time>2014-05-30T15:44:04Z</time>
      </trkpt>
      <trkpt lat="46.29469" lon="5.96439">
        <ele>1463.26</ele>
        <time>2014-05-30T15:44:07Z</time>
      </trkpt>
      <trkpt lat="46.29479" lon="5.96412">
        <ele>1459.42</ele>
        <time>2014-05-30T15:44:10Z</time>
      </trkpt>
      <trkpt lat="46.29481" lon="5.96402">
        <ele>1456.53</ele>
        <time>2014-05-30T15:44:11Z</time>
      </trkpt>
      <trkpt lat="46.29482" lon="5.96393">
        <ele>1454.61</ele>
        <time>2014-05-30T15:44:12Z</time>
      </trkpt>
      <trkpt lat="46.29482" lon="5.96384">
        <ele>1452.69</ele>
        <time>2014-05-30T15:44:13Z</time>
      </trkpt>
      <trkpt lat="46.29483" lon="5.96375">
        <ele>1451.73</ele>
        <time>2014-05-30T15:44:14Z</time>
      </trkpt>
      <trkpt lat="46.29483" lon="5.96367">
        <ele>1449.81</ele>
        <time>2014-05-30T15:44:15Z</time>
      </trkpt>
      <trkpt lat="46.29482" lon="5.96353">
        <ele>1446.92</ele>
        <time>2014-05-30T15:44:17Z</time>
      </trkpt>
      <trkpt lat="46.29479" lon="5.96345">
        <ele>1445.48</ele>
        <time>2014-05-30T15:44:18Z</time>
      </trkpt>
      <trkpt lat="46.29476" lon="5.96336">
        <ele>1445.48</ele>
        <time>2014-05-30T15:44:19Z</time>
      </trkpt>
      <trkpt lat="46.29472" lon="5.96329">
        <ele>1444.52</ele>
        <time>2014-05-30T15:44:20Z</time>
      </trkpt>
      <trkpt lat="46.29466" lon="5.96323">
        <ele>1444.04</ele>
        <time>2014-05-30T15:44:21Z</time>
      </trkpt>
      <trkpt lat="46.2946" lon="5.96317">
        <ele>1444.04</ele>
        <time>2014-05-30T15:44:22Z</time>
      </trkpt>
      <trkpt lat="46.29456" lon="5.96309">
        <ele>1443.56</ele>
        <time>2014-05-30T15:44:23Z</time>
      </trkpt>
      <trkpt lat="46.29451" lon="5.96303">
        <ele>1443.56</ele>
        <time>2014-05-30T15:44:24Z</time>
      </trkpt>
      <trkpt lat="46.29447" lon="5.96297">
        <ele>1443.56</ele>
        <time>2014-05-30T15:44:25Z</time>
      </trkpt>
      <trkpt lat="46.29444" lon="5.96292">
        <ele>1443.56</ele>
        <time>2014-05-30T15:44:26Z</time>
      </trkpt>
      <trkpt lat="46.2944" lon="5.96288">
        <ele>1444.04</ele>
        <time>2014-05-30T15:44:27Z</time>
      </trkpt>
      <trkpt lat="46.29417" lon="5.96261">
        <ele>1444.04</ele>
        <time>2014-05-30T15:44:36Z</time>
      </trkpt>
      <trkpt lat="46.29389" lon="5.96219">
        <ele>1445.48</ele>
        <time>2014-05-30T15:44:49Z</time>
      </trkpt>
      <trkpt lat="46.29374" lon="5.96182">
        <ele>1446.44</ele>
        <time>2014-05-30T15:45:00Z</time>
      </trkpt>
      <trkpt lat="46.29378" lon="5.96128">
        <ele>1447.4</ele>
        <time>2014-05-30T15:45:12Z</time>
      </trkpt>
      <trkpt lat="46.29364" lon="5.96094">
        <ele>1449.32</ele>
        <time>2014-05-30T15:45:23Z</time>
      </trkpt>
      <trkpt lat="46.29348" lon="5.96046">
        <ele>1449.81</ele>
        <time>2014-05-30T15:45:37Z</time>
      </trkpt>
      <trkpt lat="46.29343" lon="5.96017">
        <ele>1451.25</ele>
        <time>2014-05-30T15:45:50Z</time>
      </trkpt>
      <trkpt lat="46.29341" lon="5.96017">
        <ele>1451.73</ele>
        <time>2014-05-30T15:46:02Z</time>
      </trkpt>
      <trkpt lat="46.29338" lon="5.96">
        <ele>1451.73</ele>
        <time>2014-05-30T15:46:30Z</time>
      </trkpt>
      <trkpt lat="46.29336" lon="5.95985">
        <ele>1448.84</ele>
        <time>2014-05-30T15:46:34Z</time>
      </trkpt>
      <trkpt lat="46.29328" lon="5.9595">
        <ele>1450.77</ele>
        <time>2014-05-30T15:46:45Z</time>
      </trkpt>
      <trkpt lat="46.29326" lon="5.95946">
        <ele>1451.25</ele>
        <time>2014-05-30T15:46:55Z</time>
      </trkpt>
      <trkpt lat="46.29326" lon="5.95944">
        <ele>1451.25</ele>
        <time>2014-05-30T15:46:57Z</time>
      </trkpt>
      <trkpt lat="46.29327" lon="5.95941">
        <ele>1451.25</ele>
        <time>2014-05-30T15:46:58Z</time>
      </trkpt>
      <trkpt lat="46.29328" lon="5.95939">
        <ele>1450.29</ele>
        <time>2014-05-30T15:46:59Z</time>
      </trkpt>
      <trkpt lat="46.2933" lon="5.95935">
        <ele>1450.29</ele>
        <time>2014-05-30T15:47:00Z</time>
      </trkpt>
      <trkpt lat="46.29331" lon="5.9593">
        <ele>1450.29</ele>
        <time>2014-05-30T15:47:01Z</time>
      </trkpt>
      <trkpt lat="46.29333" lon="5.95925">
        <ele>1450.29</ele>
        <time>2014-05-30T15:47:02Z</time>
      </trkpt>
      <trkpt lat="46.29345" lon="5.95889">
        <ele>1447.4</ele>
        <time>2014-05-30T15:47:09Z</time>
      </trkpt>
      <trkpt lat="46.29344" lon="5.95884">
        <ele>1446.44</ele>
        <time>2014-05-30T15:47:10Z</time>
      </trkpt>
      <trkpt lat="46.29336" lon="5.95842">
        <ele>1445</ele>
        <time>2014-05-30T15:47:19Z</time>
      </trkpt>
      <trkpt lat="46.29335" lon="5.95838">
        <ele>1444.52</ele>
        <time>2014-05-30T15:47:20Z</time>
      </trkpt>
      <trkpt lat="46.29335" lon="5.95834">
        <ele>1444.04</ele>
        <time>2014-05-30T15:47:21Z</time>
      </trkpt>
      <trkpt lat="46.29337" lon="5.95829">
        <ele>1443.56</ele>
        <time>2014-05-30T15:47:23Z</time>
      </trkpt>
      <trkpt lat="46.29338" lon="5.95822">
        <ele>1443.08</ele>
        <time>2014-05-30T15:47:26Z</time>
      </trkpt>
      <trkpt lat="46.29334" lon="5.95808">
        <ele>1445</ele>
        <time>2014-05-30T15:47:34Z</time>
      </trkpt>
      <trkpt lat="46.29333" lon="5.95805">
        <ele>1445</ele>
        <time>2014-05-30T15:47:36Z</time>
      </trkpt>
      <trkpt lat="46.29329" lon="5.95801">
        <ele>1445.96</ele>
        <time>2014-05-30T15:47:40Z</time>
      </trkpt>
      <trkpt lat="46.29327" lon="5.95792">
        <ele>1446.92</ele>
        <time>2014-05-30T15:47:45Z</time>
      </trkpt>
      <trkpt lat="46.29325" lon="5.95786">
        <ele>1447.4</ele>
        <time>2014-05-30T15:47:50Z</time>
      </trkpt>
      <trkpt lat="46.29324" lon="5.95781">
        <ele>1447.4</ele>
        <time>2014-05-30T15:48:07Z</time>
      </trkpt>
      <trkpt lat="46.29324" lon="5.95769">
        <ele>1446.44</ele>
        <time>2014-05-30T15:48:19Z</time>
      </trkpt>
      <trkpt lat="46.2933" lon="5.95759">
        <ele>1444.52</ele>
        <time>2014-05-30T15:48:23Z</time>
      </trkpt>
      <trkpt lat="46.29332" lon="5.95752">
        <ele>1442.11</ele>
        <time>2014-05-30T15:48:25Z</time>
      </trkpt>
      <trkpt lat="46.2933" lon="5.95737">
        <ele>1440.67</ele>
        <time>2014-05-30T15:48:28Z</time>
      </trkpt>
      <trkpt lat="46.29328" lon="5.95732">
        <ele>1439.71</ele>
        <time>2014-05-30T15:48:29Z</time>
      </trkpt>
      <trkpt lat="46.29328" lon="5.95727">
        <ele>1439.23</ele>
        <time>2014-05-30T15:48:30Z</time>
      </trkpt>
      <trkpt lat="46.29328" lon="5.95721">
        <ele>1438.75</ele>
        <time>2014-05-30T15:48:31Z</time>
      </trkpt>
      <trkpt lat="46.29327" lon="5.95714">
        <ele>1437.79</ele>
        <time>2014-05-30T15:48:32Z</time>
      </trkpt>
      <trkpt lat="46.29327" lon="5.95709">
        <ele>1436.83</ele>
        <time>2014-05-30T15:48:33Z</time>
      </trkpt>
      <trkpt lat="46.29327" lon="5.95706">
        <ele>1437.31</ele>
        <time>2014-05-30T15:48:34Z</time>
      </trkpt>
      <trkpt lat="46.29327" lon="5.95702">
        <ele>1436.35</ele>
        <time>2014-05-30T15:48:35Z</time>
      </trkpt>
      <trkpt lat="46.29327" lon="5.95698">
        <ele>1435.87</ele>
        <time>2014-05-30T15:48:36Z</time>
      </trkpt>
      <trkpt lat="46.29326" lon="5.95694">
        <ele>1435.87</ele>
        <time>2014-05-30T15:48:37Z</time>
      </trkpt>
      <trkpt lat="46.29325" lon="5.9569">
        <ele>1435.39</ele>
        <time>2014-05-30T15:48:38Z</time>
      </trkpt>
      <trkpt lat="46.29324" lon="5.95688">
        <ele>1435.39</ele>
        <time>2014-05-30T15:48:39Z</time>
      </trkpt>
      <trkpt lat="46.29323" lon="5.95688">
        <ele>1435.39</ele>
        <time>2014-05-30T15:48:52Z</time>
      </trkpt>
      <trkpt lat="46.29323" lon="5.95687">
        <ele>1435.39</ele>
        <time>2014-05-30T15:49:15Z</time>
      </trkpt>
      <trkpt lat="46.29322" lon="5.9568">
        <ele>1435.87</ele>
        <time>2014-05-30T15:49:18Z</time>
      </trkpt>
      <trkpt lat="46.29321" lon="5.95678">
        <ele>1435.87</ele>
        <time>2014-05-30T15:49:19Z</time>
      </trkpt>
      <trkpt lat="46.2932" lon="5.95676">
        <ele>1435.87</ele>
        <time>2014-05-30T15:49:20Z</time>
      </trkpt>
      <trkpt lat="46.29319" lon="5.95674">
        <ele>1436.83</ele>
        <time>2014-05-30T15:49:21Z</time>
      </trkpt>
      <trkpt lat="46.29318" lon="5.95671">
        <ele>1436.83</ele>
        <time>2014-05-30T15:49:22Z</time>
      </trkpt>
      <trkpt lat="46.29318" lon="5.95669">
        <ele>1436.83</ele>
        <time>2014-05-30T15:49:23Z</time>
      </trkpt>
      <trkpt lat="46.29315" lon="5.95661">
        <ele>1437.79</ele>
        <time>2014-05-30T15:49:27Z</time>
      </trkpt>
      <trkpt lat="46.29315" lon="5.95659">
        <ele>1437.79</ele>
        <time>2014-05-30T15:49:28Z</time>
      </trkpt>
      <trkpt lat="46.29314" lon="5.95654">
        <ele>1438.27</ele>
        <time>2014-05-30T15:49:32Z</time>
      </trkpt>
      <trkpt lat="46.29313" lon="5.95651">
        <ele>1437.79</ele>
        <time>2014-05-30T15:49:33Z</time>
      </trkpt>
      <trkpt lat="46.29312" lon="5.95648">
        <ele>1437.31</ele>
        <time>2014-05-30T15:49:34Z</time>
      </trkpt>
      <trkpt lat="46.29311" lon="5.95645">
        <ele>1437.31</ele>
        <time>2014-05-30T15:49:35Z</time>
      </trkpt>
      <trkpt lat="46.2931" lon="5.95641">
        <ele>1437.31</ele>
        <time>2014-05-30T15:49:42Z</time>
      </trkpt>
      <trkpt lat="46.2931" lon="5.95639">
        <ele>1436.83</ele>
        <time>2014-05-30T15:49:43Z</time>
      </trkpt>
      <trkpt lat="46.2931" lon="5.95637">
        <ele>1436.83</ele>
        <time>2014-05-30T15:49:44Z</time>
      </trkpt>
      <trkpt lat="46.2931" lon="5.95636">
        <ele>1436.83</ele>
        <time>2014-05-30T15:49:45Z</time>
      </trkpt>
      <trkpt lat="46.2931" lon="5.95634">
        <ele>1436.83</ele>
        <time>2014-05-30T15:49:46Z</time>
      </trkpt>
      <trkpt lat="46.2931" lon="5.9563">
        <ele>1436.83</ele>
        <time>2014-05-30T15:49:50Z</time>
      </trkpt>
      <trkpt lat="46.29309" lon="5.95624">
        <ele>1436.35</ele>
        <time>2014-05-30T15:49:59Z</time>
      </trkpt>
      <trkpt lat="46.29312" lon="5.95613">
        <ele>1434.91</ele>
        <time>2014-05-30T15:50:10Z</time>
      </trkpt>
      <trkpt lat="46.29315" lon="5.95612">
        <ele>1433.94</ele>
        <time>2014-05-30T15:50:13Z</time>
      </trkpt>
      <trkpt lat="46.29317" lon="5.95606">
        <ele>1432.98</ele>
        <time>2014-05-30T15:50:23Z</time>
      </trkpt>
      <trkpt lat="46.29323" lon="5.9558">
        <ele>1429.62</ele>
        <time>2014-05-30T15:50:31Z</time>
      </trkpt>
      <trkpt lat="46.29323" lon="5.95577">
        <ele>1429.62</ele>
        <time>2014-05-30T15:50:32Z</time>
      </trkpt>
      <trkpt lat="46.29322" lon="5.9557">
        <ele>1430.1</ele>
        <time>2014-05-30T15:50:36Z</time>
      </trkpt>
      <trkpt lat="46.29321" lon="5.95567">
        <ele>1430.1</ele>
        <time>2014-05-30T15:50:38Z</time>
      </trkpt>
      <trkpt lat="46.29317" lon="5.95558">
        <ele>1431.06</ele>
        <time>2014-05-30T15:50:43Z</time>
      </trkpt>
      <trkpt lat="46.293" lon="5.95547">
        <ele>1431.54</ele>
        <time>2014-05-30T15:50:52Z</time>
      </trkpt>
      <trkpt lat="46.29298" lon="5.95524">
        <ele>1432.02</ele>
        <time>2014-05-30T15:51:02Z</time>
      </trkpt>
      <trkpt lat="46.29292" lon="5.95499">
        <ele>1432.98</ele>
        <time>2014-05-30T15:51:09Z</time>
      </trkpt>
      <trkpt lat="46.29288" lon="5.95485">
        <ele>1433.46</ele>
        <time>2014-05-30T15:51:16Z</time>
      </trkpt>
      <trkpt lat="46.29286" lon="5.95481">
        <ele>1433.46</ele>
        <time>2014-05-30T15:51:18Z</time>
      </trkpt>
      <trkpt lat="46.2928" lon="5.95461">
        <ele>1436.35</ele>
        <time>2014-05-30T15:51:30Z</time>
      </trkpt>
      <trkpt lat="46.29278" lon="5.95453">
        <ele>1437.31</ele>
        <time>2014-05-30T15:51:35Z</time>
      </trkpt>
      <trkpt lat="46.29277" lon="5.95447">
        <ele>1437.31</ele>
        <time>2014-05-30T15:51:38Z</time>
      </trkpt>
      <trkpt lat="46.29268" lon="5.95432">
        <ele>1437.31</ele>
        <time>2014-05-30T15:51:49Z</time>
      </trkpt>
      <trkpt lat="46.29267" lon="5.9543">
        <ele>1437.79</ele>
        <time>2014-05-30T15:51:51Z</time>
      </trkpt>
      <trkpt lat="46.29266" lon="5.95424">
        <ele>1438.27</ele>
        <time>2014-05-30T15:52:06Z</time>
      </trkpt>
      <trkpt lat="46.29267" lon="5.95424">
        <ele>1438.75</ele>
        <time>2014-05-30T15:53:29Z</time>
      </trkpt>
    </trkseg>
  </trk>
</gpx>